# Wetter Temperatur Luftdruck Luftfeuchtigkeit Sichtweite Windgeschwindigkeit Windrichtung Zeit
1 Snow 1 1007 80 2500 4.12 290 12:18 22.04.2021
2 Snow 1 1007 86 2500 4.63 250 11:42 22.04.2021
3 Snow 1 1007 80 9000 2.57 270 11:19 22.04.2021
4 Snow 1 1007 80 10000 2.06 0 10:41 22.04.2021
5 Clouds 0 1007 86 10000 4.12 360 10:19 22.04.2021
6 Clouds 0 1007 100 9000 3.09 270 09:37 22.04.2021
7 Snow 0 1007 93 10000 2.06 210 08:55 22.04.2021
8 Snow 0 1007 93 10000 2.06 210 08:36 22.04.2021
9 Snow 0 1007 93 10000 1.03 0 08:18 22.04.2021
10 Snow 1 1006 75 10000 3.6 260 07:31 22.04.2021
11 Snow 1 1006 75 10000 3.6 260 07:31 22.04.2021
12 Snow 1 1006 69 10000 2.06 270 06:57 22.04.2021
13 Clouds 1 1006 75 10000 1.54 290 06:19 22.04.2021
14 Clouds 1 1007 80 10000 2.57 280 05:23 22.04.2021
15 Clouds 1 1007 80 10000 2.06 40 02:29 22.04.2021
16 Clouds 1 1007 80 10000 5.95 304 00:25 22.04.2021
17 Clouds 1 1007 80 10000 4.63 280 23:41 21.04.2021
18 Clouds 2 1006 69 10000 4.63 290 23:21 21.04.2021
19 Clouds 2 1006 69 10000 4.12 280 22:41 21.04.2021
20 Clouds 2 1006 75 10000 3.6 280 22:21 21.04.2021
21 Clouds 2 1006 75 10000 3.09 270 21:41 21.04.2021
22 Clouds 2 1006 80 10000 3.6 340 21:23 21.04.2021
23 Clouds 1 1006 100 10000 3.09 270 20:32 21.04.2021
24 Clouds 3 1005 81 10000 2.06 0 19:58 21.04.2021
25 Clouds 3 1005 81 10000 2.06 0 19:38 21.04.2021
26 Clouds 3 1005 75 10000 3.6 340 19:18 21.04.2021
27 Clouds 3 1004 81 10000 6.69 340 18:42 21.04.2021
28 Clouds 3 1004 87 10000 6.69 340 18:22 21.04.2021
29 Clouds 3 1003 87 10000 3.6 330 17:45 21.04.2021
30 Clouds 3 1003 100 10000 4.63 240 17:23 21.04.2021
31 Clouds 3 1002 93 10000 5.14 250 16:41 21.04.2021
32 Clouds 3 1002 93 10000 3.6 240 15:52 21.04.2021
33 Rain 3 1002 93 10000 5.14 240 15:28 21.04.2021
34 Rain 4 1002 93 10000 4.12 250 14:46 21.04.2021
35 Rain 4 1001 93 9000 3.6 300 14:28 21.04.2021
36 Rain 5 1001 87 10000 2.57 300 13:51 21.04.2021
37 Rain 6 1001 81 10000 3.09 310 13:23 21.04.2021
38 Rain 6 1000 81 10000 3.6 290 12:52 21.04.2021
39 Rain 7 1000 81 10000 3.09 270 12:28 21.04.2021
40 Rain 7 1000 61 10000 3.09 230 11:47 21.04.2021
41 Clear 7 1000 61 10000 4.63 230 11:25 21.04.2021
42 Clear 6 999 65 10000 5.14 240 10:42 21.04.2021
43 Clear 7 998 57 10000 4.12 250 09:59 21.04.2021
44 Clear 7 998 57 10000 4.12 250 09:35 21.04.2021
45 Clear 7 998 57 10000 4.12 230 08:54 21.04.2021
46 Clear 7 998 57 10000 4.12 250 08:27 21.04.2021
47 Clear 6 999 56 10000 3.6 230 07:59 21.04.2021
48 Clear 6 999 56 10000 3.6 230 07:29 21.04.2021
49 Clear 7 999 53 10000 6.17 210 06:25 21.04.2021
50 Clear 7 1000 53 10000 4.12 220 04:41 21.04.2021
51 Clear 7 1003 57 10000 1.03 0 00:51 21.04.2021
52 Clear 8 1004 53 10000 3.09 220 23:48 20.04.2021
53 Clear 8 1004 53 10000 3.09 310 22:59 20.04.2021
54 Clear 8 1004 53 10000 3.09 310 22:38 20.04.2021
55 Clear 8 1005 53 10000 1.54 0 22:18 20.04.2021
56 Clear 9 1005 49 10000 2.06 0 21:45 20.04.2021
57 Clear 8 1005 53 10000 1.54 0 21:24 20.04.2021
58 Clear 9 1006 49 10000 2.06 260 20:42 20.04.2021
59 Clear 9 1006 49 10000 2.06 0 20:23 20.04.2021
60 Clear 9 1006 49 10000 2.06 230 19:52 20.04.2021
61 Clear 9 1006 49 10000 2.06 230 19:34 20.04.2021
62 Clear 10 1007 46 10000 1.03 0 18:54 20.04.2021
63 Clear 10 1007 46 10000 1.03 0 18:35 20.04.2021
64 Clear 10 1007 46 10000 1.54 0 17:43 20.04.2021
65 Clear 10 1007 46 10000 3.6 240 17:18 20.04.2021
66 Clear 10 1008 50 10000 4.63 220 16:43 20.04.2021
67 Clear 10 1008 50 10000 4.12 240 15:51 20.04.2021
68 Clear 11 1009 46 10000 4.12 230 15:27 20.04.2021
69 Clear 11 1009 50 10000 2.06 230 14:57 20.04.2021
70 Clear 11 1009 50 10000 2.57 270 14:28 20.04.2021
71 Clear 11 1010 50 10000 3.09 230 13:32 20.04.2021
72 Clear 11 1010 50 10000 2.06 220 12:57 20.04.2021
73 Clear 11 1010 50 10000 2.06 220 12:34 20.04.2021
74 Clear 10 1011 53 10000 4.12 230 11:58 20.04.2021
75 Clear 10 1011 53 10000 4.12 230 11:39 20.04.2021
76 Clear 10 1011 53 10000 3.09 230 11:19 20.04.2021
77 Clear 10 1012 53 10000 3.09 270 10:42 20.04.2021
78 Clear 9 1012 57 10000 2.06 290 10:22 20.04.2021
79 Clear 8 1012 61 10000 1.03 0 09:22 20.04.2021
80 Clear 6 1013 70 10000 2.57 260 08:54 20.04.2021
81 Clear 7 1013 65 10000 3.09 240 08:19 20.04.2021
82 Clear 8 1013 61 10000 1.03 0 07:39 20.04.2021
83 Clear 5 1014 70 10000 1.03 0 06:35 20.04.2021
84 Clear 3 1015 75 10000 4.56 172 05:37 20.04.2021
85 Clear 4 1016 75 10000 3.09 270 04:41 20.04.2021
86 Clear 3 1018 81 10000 2.57 30 00:53 20.04.2021
87 Clear 3 1018 81 10000 2.06 30 00:27 20.04.2021
88 Clear 3 1018 81 10000 2.06 30 00:27 20.04.2021
89 Clear 4 1018 75 10000 1.54 50 23:33 19.04.2021
90 Clear 4 1019 81 10000 2.06 30 22:51 19.04.2021
91 Clear 4 1019 81 10000 1.54 50 22:29 19.04.2021
92 Clear 3 1019 81 10000 1.03 0 21:47 19.04.2021
93 Clear 4 1019 81 10000 3.92 194 21:25 19.04.2021
94 Clear 4 1019 81 10000 3.92 194 20:42 19.04.2021
95 Clear 5 1020 81 10000 1.03 0 20:22 19.04.2021
96 Clear 6 1020 75 10000 2.06 270 19:50 19.04.2021
97 Clear 7 1020 70 10000 2.06 280 19:28 19.04.2021
98 Clear 8 1020 61 10000 1.54 270 18:59 19.04.2021
99 Clear 8 1020 61 10000 1.54 270 18:41 19.04.2021
100 Clear 8 1020 61 10000 2.06 270 18:19 19.04.2021
101 Clear 9 1020 57 10000 2.06 250 17:46 19.04.2021
102 Clear 9 1020 57 10000 2.06 250 17:24 19.04.2021
103 Clear 9 1020 53 10000 1.54 280 16:45 19.04.2021
104 Clear 8 1020 57 10000 4.63 250 16:25 19.04.2021
105 Clear 10 1020 46 10000 4.63 220 15:43 19.04.2021
106 Clear 9 1020 46 10000 5.14 230 15:24 19.04.2021
107 Clear 9 1020 46 10000 4.12 230 14:52 19.04.2021
108 Clear 9 1020 43 10000 4.12 240 14:31 19.04.2021
109 Clear 9 1020 43 10000 4.63 220 13:52 19.04.2021
110 Clear 9 1021 40 10000 4.63 230 13:28 19.04.2021
111 Clear 9 1021 40 10000 4.63 230 12:48 19.04.2021
112 Clear 8 1021 42 10000 4.12 240 12:27 19.04.2021
113 Clear 8 1021 39 10000 5.14 250 11:59 19.04.2021
114 Clear 8 1021 39 10000 4.63 250 11:27 19.04.2021
115 Clear 8 1021 39 10000 4.63 240 10:55 19.04.2021
116 Clear 8 1021 39 10000 4.63 240 10:36 19.04.2021
117 Clear 7 1021 42 10000 4.63 240 10:18 19.04.2021
118 Clear 7 1021 42 10000 4.63 250 09:39 19.04.2021
119 Clear 6 1021 49 10000 5.14 230 09:21 19.04.2021
120 Clear 6 1021 49 10000 3.09 270 08:32 19.04.2021
121 Clear 5 1022 48 10000 3.6 260 07:49 19.04.2021
122 Clear 5 1022 52 10000 2.06 240 07:21 19.04.2021
123 Clear 3 1022 60 10000 1.54 0 06:45 19.04.2021
124 Clouds 2 1023 64 10000 0.51 0 02:41 19.04.2021
125 Clear 1 1024 69 10000 0.51 0 01:49 19.04.2021
126 Clear 2 1024 69 10000 1.03 0 00:33 19.04.2021
127 Clear 4 1025 65 10000 2.06 270 23:20 18.04.2021
128 Clear 4 1025 70 10000 2.06 270 22:56 18.04.2021
129 Clear 4 1025 70 10000 2.57 270 22:31 18.04.2021
130 Clear 5 1025 65 10000 3.09 270 21:49 18.04.2021
131 Clear 4 1025 70 10000 1.03 0 21:27 18.04.2021
132 Clear 4 1025 70 10000 1.54 270 20:43 18.04.2021
133 Clear 4 1025 70 10000 2.06 260 20:24 18.04.2021
134 Clear 4 1025 70 10000 2.06 260 20:24 18.04.2021
135 Clear 4 1026 70 10000 1.54 260 19:56 18.04.2021
136 Clear 4 1026 70 10000 1.54 260 19:37 18.04.2021
137 Clear 5 1026 65 10000 1.54 260 19:18 18.04.2021
138 Clear 6 1026 65 10000 2.06 250 18:39 18.04.2021
139 Clear 7 1026 61 10000 1.03 0 18:21 18.04.2021
140 Clear 6 1027 65 10000 1.54 40 17:45 18.04.2021
141 Clear 6 1027 65 10000 1.54 40 17:26 18.04.2021
142 Clear 7 1027 61 10000 1.03 0 16:45 18.04.2021
143 Clear 6 1027 65 10000 1.54 0 16:23 18.04.2021
144 Clear 6 1028 61 10000 2.06 250 15:43 18.04.2021
145 Clear 6 1028 65 10000 2.57 250 15:24 18.04.2021
146 Clear 6 1028 65 10000 3.09 250 14:45 18.04.2021
147 Clear 6 1028 65 10000 2.06 250 14:20 18.04.2021
148 Clear 6 1028 61 10000 3.6 230 13:54 18.04.2021
149 Clear 6 1028 61 10000 3.6 230 13:32 18.04.2021
150 Clouds 6 1028 65 10000 3.6 240 12:49 18.04.2021
151 Clear 5 1028 70 10000 4.63 240 12:24 18.04.2021
152 Clear 5 1029 70 10000 4.63 230 11:41 18.04.2021
153 Clouds 5 1029 70 10000 4.63 240 11:20 18.04.2021
154 Clear 4 1029 75 10000 5.14 230 10:47 18.04.2021
155 Clear 4 1029 70 10000 5.14 230 10:22 18.04.2021
156 Clear 4 1029 70 10000 4.63 230 09:52 18.04.2021
157 Clear 4 1029 70 10000 4.63 230 09:34 18.04.2021
158 Clear 4 1029 70 10000 2.57 240 08:56 18.04.2021
159 Clear 4 1029 70 10000 2.57 240 08:34 18.04.2021
160 Clear 3 1029 75 10000 3.09 230 07:55 18.04.2021
161 Clear 3 1029 75 10000 3.09 230 07:37 18.04.2021
162 Clouds 2 1030 80 10000 2.06 260 05:41 18.04.2021
163 Clouds 2 1030 75 10000 1.54 270 05:22 18.04.2021
164 Clouds 2 1030 87 10000 1.03 0 02:27 18.04.2021
165 Clear 0 1031 86 10000 4.94 192 01:48 18.04.2021
166 Clear 2 1031 87 10000 2.06 290 00:37 18.04.2021
167 Clear 3 1031 75 10000 4.36 186 23:33 17.04.2021
168 Clear 3 1031 70 10000 1.54 0 22:51 17.04.2021
169 Clear 3 1031 70 10000 4.37 188 22:30 17.04.2021
170 Clear 4 1031 70 10000 1.03 0 21:47 17.04.2021
171 Clear 5 1031 70 10000 2.57 260 21:28 17.04.2021
172 Clear 4 1031 75 10000 2.06 260 20:47 17.04.2021
173 Clouds 4 1031 70 10000 4.43 185 20:27 17.04.2021
174 Clouds 4 1031 75 10000 4.43 185 19:44 17.04.2021
175 Clear 6 1031 65 10000 2.57 240 19:20 17.04.2021
176 Clear 6 1031 65 10000 2.57 210 18:55 17.04.2021
177 Clear 6 1031 65 10000 3.6 220 18:28 17.04.2021
178 Clear 7 1031 61 10000 4.63 240 17:56 17.04.2021
179 Clear 7 1031 61 10000 4.63 240 17:38 17.04.2021
180 Clear 7 1031 61 10000 4.12 220 16:42 17.04.2021
181 Clear 6 1031 65 10000 4.12 230 16:24 17.04.2021
182 Clouds 7 1031 61 10000 4.63 240 15:38 17.04.2021
183 Clouds 6 1031 65 10000 4.12 230 14:49 17.04.2021
184 Clouds 6 1031 65 10000 5.14 230 14:29 17.04.2021
185 Clouds 6 1030 70 10000 3.6 250 13:45 17.04.2021
186 Clouds 5 1030 75 10000 7.2 230 13:18 17.04.2021
187 Clouds 5 1030 75 10000 8.75 230 12:35 17.04.2021
188 Clouds 5 1030 70 10000 8.23 240 11:59 17.04.2021
189 Clouds 5 1030 70 10000 8.23 240 11:39 17.04.2021
190 Clouds 5 1029 75 10000 8.23 230 11:20 17.04.2021
191 Clouds 5 1029 70 10000 6.69 240 10:40 17.04.2021
192 Clouds 5 1029 70 10000 7.72 240 10:18 17.04.2021
193 Clouds 5 1028 70 10000 9.77 240 09:19 17.04.2021
194 Clouds 5 1028 75 10000 10.8 230 08:33 17.04.2021
195 Clouds 5 1028 75 10000 10.29 240 07:59 17.04.2021
196 Clouds 5 1028 75 10000 10.8 240 06:41 17.04.2021
197 Clouds 5 1027 75 10000 13.38 240 03:49 17.04.2021
198 Clouds 5 1027 75 10000 15.43 240 02:26 17.04.2021
199 Clouds 5 1026 75 10000 16.46 240 00:42 17.04.2021
200 Clouds 5 1026 75 10000 15.95 240 00:20 17.04.2021
201 Clouds 6 1027 70 10000 13.89 240 23:43 16.04.2021
202 Clouds 5 1027 81 10000 8.75 240 22:59 16.04.2021
203 Clouds 5 1027 81 10000 8.75 240 22:41 16.04.2021
204 Clouds 6 1027 70 10000 11.83 240 22:20 16.04.2021
205 Clouds 6 1027 70 10000 10.29 240 21:45 16.04.2021
206 Clouds 6 1027 70 10000 13.89 240 21:27 16.04.2021
207 Rain 5 1027 75 10000 10.29 240 20:46 16.04.2021
208 Clouds 5 1027 81 10000 11.83 240 20:20 16.04.2021
209 Clouds 5 1027 81 10000 8.75 240 19:49 16.04.2021
210 Rain 4 1028 93 10000 7.72 240 19:21 16.04.2021
211 Rain 5 1028 87 9000 9.26 240 18:28 16.04.2021
212 Rain 5 1028 87 9000 8.75 240 17:53 16.04.2021
213 Rain 5 1028 87 9000 9.77 240 17:20 16.04.2021
214 Rain 5 1028 87 10000 11.83 240 16:57 16.04.2021
215 Rain 5 1028 87 10000 11.83 240 16:38 16.04.2021
216 Rain 5 1028 87 9000 10.29 240 16:20 16.04.2021
217 Rain 5 1028 87 10000 9.77 240 15:39 16.04.2021
218 Rain 5 1027 87 10000 9.26 240 14:56 16.04.2021
219 Rain 5 1027 87 10000 9.26 240 14:37 16.04.2021
220 Rain 5 1027 87 10000 10.8 240 13:58 16.04.2021
221 Rain 5 1027 87 10000 10.8 240 13:36 16.04.2021
222 Rain 4 1027 93 9000 7.72 240 13:18 16.04.2021
223 Rain 4 1027 93 9000 7.72 250 12:42 16.04.2021
224 Rain 4 1027 100 10000 7.72 240 12:21 16.04.2021
225 Rain 4 1027 93 9000 7.2 230 11:43 16.04.2021
226 Rain 3 1027 93 9000 4.12 240 11:23 16.04.2021
227 Snow 3 1027 93 10000 5.14 240 10:43 16.04.2021
228 Snow 3 1027 93 10000 8.75 240 10:23 16.04.2021
229 Rain 3 1026 93 10000 4.12 250 09:44 16.04.2021
230 Snow 2 1026 100 9000 4.63 270 09:23 16.04.2021
231 Snow 2 1026 100 9000 6.17 280 08:45 16.04.2021
232 Rain 3 1026 93 9000 5.14 270 08:24 16.04.2021
233 Rain 3 1025 93 8000 6.69 280 07:46 16.04.2021
234 Rain 3 1025 93 10000 8.75 250 07:25 16.04.2021
235 Rain 3 1025 93 7000 7.2 250 06:41 16.04.2021
236 Rain 4 1024 81 9000 11.32 240 05:32 16.04.2021
237 Rain 4 1022 81 8000 15.95 240 03:31 16.04.2021
238 Rain 3 1022 93 8000 7.2 230 00:46 16.04.2021
239 Rain 2 1022 100 10000 10.29 240 00:22 16.04.2021
240 Rain 3 1022 87 10000 4.63 250 23:57 15.04.2021
241 Rain 3 1022 87 10000 4.63 250 23:34 15.04.2021
242 Rain 3 1022 81 10000 10.29 240 22:51 15.04.2021
243 Rain 3 1021 87 10000 11.32 240 22:26 15.04.2021
244 Rain 3 1021 87 10000 11.32 240 22:26 15.04.2021
245 Clouds 2 1021 93 10000 5.14 250 21:48 15.04.2021
246 Clouds 2 1021 93 10000 6.17 240 21:29 15.04.2021
247 Rain 2 1021 93 10000 8.23 240 20:58 15.04.2021
248 Rain 2 1021 93 10000 8.23 240 20:38 15.04.2021
249 Snow 2 1020 93 10000 7.2 230 20:18 15.04.2021
250 Snow 2 1020 93 9000 7.72 230 19:41 15.04.2021
251 Snow 2 1020 93 8000 7.2 260 19:21 15.04.2021
252 Rain 2 1019 93 10000 10.29 240 18:41 15.04.2021
253 Rain 2 1019 93 10000 10.29 240 18:20 15.04.2021
254 Snow 1 1019 100 9000 9.26 240 17:54 15.04.2021
255 Snow 1 1019 100 9000 9.26 240 17:33 15.04.2021
256 Snow 1 1019 100 7000 7.2 240 16:45 15.04.2021
257 Snow 1 1019 100 3000 5.14 230 16:25 15.04.2021
258 Snow 1 1019 93 3500 3.6 230 15:51 15.04.2021
259 Snow 0 1019 100 3000 3.6 230 15:31 15.04.2021
260 Snow 0 1018 100 4000 2.57 230 14:57 15.04.2021
261 Snow 0 1018 100 4000 2.57 230 14:38 15.04.2021
262 Snow 0 1018 100 1600 2.06 250 14:19 15.04.2021
263 Snow 0 1018 93 2000 2.57 230 13:41 15.04.2021
264 Snow 0 1018 86 3000 2.06 230 12:59 15.04.2021
265 Snow 0 1018 86 3000 2.06 230 12:38 15.04.2021
266 Snow 0 1018 86 2000 2.74 133 12:20 15.04.2021
267 Snow 1 1018 80 2200 2.73 133 11:44 15.04.2021
268 Snow 0 1018 86 3000 1.03 0 11:22 15.04.2021
269 Snow 0 1017 86 4000 1.54 0 10:48 15.04.2021
270 Snow -1 1017 86 5000 1.54 50 10:26 15.04.2021
271 Snow -1 1017 80 7000 1.54 70 09:37 15.04.2021
272 Snow -2 1016 86 9000 2.06 70 09:18 15.04.2021
273 Snow -1 1016 80 9000 2.06 40 08:41 15.04.2021
274 Snow -2 1016 86 5000 2.06 130 07:50 15.04.2021
275 Snow -1 1016 74 10000 1.03 0 07:22 15.04.2021
276 Snow -1 1016 74 10000 1.03 0 07:22 15.04.2021
277 Snow -1 1016 74 10000 1.03 0 07:22 15.04.2021
278 Snow -1 1015 74 10000 0.51 0 06:38 15.04.2021
279 Clouds -1 1015 74 10000 2.66 123 06:20 15.04.2021
280 Clouds -2 1015 69 10000 1.54 40 04:50 15.04.2021
281 Clouds -1 1015 59 10000 1.03 0 00:43 15.04.2021
282 Clouds -1 1015 64 10000 3.6 270 23:39 14.04.2021
283 Clouds -1 1015 64 10000 3.09 0 23:19 14.04.2021
284 Clouds -1 1015 64 10000 5.14 280 22:43 14.04.2021
285 Clouds -1 1015 59 10000 5.66 280 22:25 14.04.2021
286 Clouds -1 1015 59 10000 5.66 280 22:25 14.04.2021
287 Clouds -1 1014 59 10000 5.14 0 21:44 14.04.2021
288 Clouds -1 1014 59 10000 6.69 280 21:26 14.04.2021
289 Clouds -1 1014 69 10000 2.57 0 20:56 14.04.2021
290 Clouds -1 1014 69 10000 2.57 0 20:34 14.04.2021
291 Snow -1 1014 69 10000 8.23 270 19:53 14.04.2021
292 Snow -1 1013 69 10000 7.72 270 19:20 14.04.2021
293 Snow -1 1013 69 10000 7.2 280 18:57 14.04.2021
294 Snow -2 1013 93 1000 6.69 0 18:22 14.04.2021
295 Snow -1 1011 86 7000 7.2 280 17:58 14.04.2021
296 Snow 0 1010 74 8000 7.2 280 17:28 14.04.2021
297 Snow 0 1009 74 8000 8.75 280 16:54 14.04.2021
298 Snow 0 1008 80 8000 7.72 280 16:27 14.04.2021
299 Snow 0 1008 80 5000 9.77 280 15:47 14.04.2021
300 Snow 0 1006 86 1500 10.8 280 15:27 14.04.2021
301 Snow 0 1005 93 5000 11.32 270 14:56 14.04.2021
302 Snow 0 1005 93 5000 11.32 270 14:37 14.04.2021
303 Snow 1 1003 86 600 8.23 270 14:18 14.04.2021
304 Snow 0 1003 100 10000 11.83 260 13:44 14.04.2021
305 Snow 1 1002 75 2100 10.8 260 12:41 14.04.2021
306 Snow 0 1002 86 2500 8.75 270 12:18 14.04.2021
307 Snow 1 1001 75 10000 8.23 240 11:39 14.04.2021
308 Snow -1 1001 100 10000 4.12 220 11:21 14.04.2021
309 Snow -2 1001 100 300 5.14 220 10:34 14.04.2021
310 Snow -2 1001 93 6000 11.32 240 09:43 14.04.2021
311 Snow -1 1001 86 9000 12.35 230 09:23 14.04.2021
312 Snow -1 1001 86 500 11.83 240 08:48 14.04.2021
313 Snow -1 1001 80 10000 8.75 240 08:23 14.04.2021
314 Snow -2 1002 93 10000 8.75 230 07:36 14.04.2021
315 Snow -1 1002 86 10000 9.26 240 06:34 14.04.2021
316 Snow -1 1002 100 600 9.77 240 05:31 14.04.2021
317 Snow -1 1003 69 10000 3.6 220 02:27 14.04.2021
318 Snow -1 1004 69 10000 5.14 200 00:50 14.04.2021
319 Snow -1 1004 69 10000 5.14 200 00:50 14.04.2021
320 Snow 0 1005 64 10000 4.12 200 00:27 14.04.2021
321 Clouds 0 1006 64 10000 4.63 200 23:32 13.04.2021
322 Clouds 0 1007 64 10000 4.12 210 22:44 13.04.2021
323 Clouds 0 1007 64 10000 4.12 210 22:21 13.04.2021
324 Clouds 0 1008 64 10000 4.12 210 21:48 13.04.2021
325 Snow 0 1008 64 10000 3.6 210 21:30 13.04.2021
326 Snow 0 1008 64 10000 3.09 200 20:50 13.04.2021
327 Snow 0 1009 64 10000 5.14 230 20:25 13.04.2021
328 Snow 1 1009 60 10000 4.63 220 19:58 13.04.2021
329 Clouds 1 1009 60 10000 4.63 220 19:26 13.04.2021
330 Clouds 1 1010 60 10000 4.63 210 18:49 13.04.2021
331 Clouds 1 1010 60 10000 6.69 230 18:30 13.04.2021
332 Clouds 1 1011 60 10000 7.72 240 17:40 13.04.2021
333 Clouds 1 1011 64 10000 7.72 230 17:21 13.04.2021
334 Clouds 1 1011 60 10000 7.72 230 16:45 13.04.2021
335 Clouds 1 1012 64 10000 7.2 230 16:27 13.04.2021
336 Clouds 1 1012 69 10000 7.72 230 15:55 13.04.2021
337 Clouds 1 1012 69 10000 7.72 230 15:37 13.04.2021
338 Clouds 1 1012 64 10000 8.23 230 14:58 13.04.2021
339 Snow 1 1013 60 10000 6.17 230 14:24 13.04.2021
340 Snow 1 1013 60 10000 6.17 230 13:55 13.04.2021
341 Snow 1 1013 60 10000 6.17 230 13:36 13.04.2021
342 Clouds 0 1013 64 10000 7.2 240 13:18 13.04.2021
343 Clouds 1 1014 60 10000 8.75 230 12:44 13.04.2021
344 Clouds 1 1014 60 10000 5.14 220 12:22 13.04.2021
345 Snow 1 1014 55 10000 4.63 210 11:36 13.04.2021
346 Clouds 0 1014 59 10000 3.6 210 10:58 13.04.2021
347 Clouds 0 1014 59 10000 3.6 210 10:39 13.04.2021
348 Clouds 0 1015 59 10000 4.12 210 10:18 13.04.2021
349 Clouds 0 1015 59 10000 3.6 220 09:46 13.04.2021
350 Clouds 0 1015 59 10000 3.09 230 09:19 13.04.2021
351 Clouds -1 1015 64 10000 4.12 210 08:43 13.04.2021
352 Clouds -1 1015 64 10000 3.6 220 08:21 13.04.2021
353 Clouds -2 1015 69 10000 2.57 230 07:43 13.04.2021
354 Clouds -2 1016 74 10000 3.09 230 07:22 13.04.2021
355 Clouds -2 1016 74 10000 2.57 240 06:19 13.04.2021
356 Snow -1 1017 86 10000 4.63 240 03:41 13.04.2021
357 Snow -1 1018 93 10000 3.6 210 01:31 13.04.2021
358 Snow -1 1018 86 10000 7.72 230 23:51 12.04.2021
359 Snow -1 1018 86 10000 7.2 240 23:32 12.04.2021
360 Snow -2 1018 93 10000 5.14 250 22:50 12.04.2021
361 Snow -1 1019 86 10000 7.2 280 22:31 12.04.2021
362 Snow -1 1019 80 10000 7.72 240 21:48 12.04.2021
363 Clouds -1 1018 86 10000 4.12 250 21:25 12.04.2021
364 Clouds -2 1019 100 10000 5.14 250 20:58 12.04.2021
365 Clouds -2 1019 100 10000 5.14 250 20:36 12.04.2021
366 Snow -1 1018 86 10000 7.72 240 20:18 12.04.2021
367 Clouds 0 1018 69 10000 7.72 240 19:39 12.04.2021
368 Clouds 0 1018 74 10000 4.63 240 19:21 12.04.2021
369 Mist -1 1018 86 10000 4.63 260 18:48 12.04.2021
370 Snow 0 1018 74 10000 7.72 240 18:30 12.04.2021
371 Snow 0 1018 80 10000 9.26 240 17:55 12.04.2021
372 Snow 1 1018 69 10000 7.72 240 17:37 12.04.2021
373 Snow 1 1018 69 10000 7.72 240 17:19 12.04.2021
374 Snow 0 1018 80 10000 5.66 240 16:37 12.04.2021
375 Snow -1 1018 93 300 7.2 260 16:18 12.04.2021
376 Snow 1 1018 64 10000 7.72 250 15:33 12.04.2021
377 Clouds 1 1017 60 10000 9.26 240 14:56 12.04.2021
378 Clouds 1 1017 60 10000 9.26 240 14:37 12.04.2021
379 Clouds 1 1017 69 10000 8.23 240 14:18 12.04.2021
380 Snow 0 1017 69 10000 6.69 250 13:40 12.04.2021
381 Snow 1 1017 64 10000 9.26 240 13:18 12.04.2021
382 Snow 1 1017 60 10000 9.26 250 12:43 12.04.2021
383 Snow 1 1016 60 10000 9.77 240 12:22 12.04.2021
384 Snow 0 1016 64 10000 8.75 270 11:35 12.04.2021
385 Snow -1 1016 80 10000 10.8 240 10:51 12.04.2021
386 Snow 1 1015 64 10000 9.26 240 10:28 12.04.2021
387 Snow -1 1015 86 10000 7.72 240 09:52 12.04.2021
388 Snow -1 1015 80 10000 8.75 280 09:23 12.04.2021
389 Snow 0 1014 69 10000 6.69 260 08:49 12.04.2021
390 Snow 0 1013 69 10000 6.69 250 07:55 12.04.2021
391 Snow 0 1013 69 10000 7.72 260 07:30 12.04.2021
392 Snow 0 1012 69 10000 6.69 250 06:39 12.04.2021
393 Snow 0 1012 80 10000 4.12 250 05:47 12.04.2021
394 Snow -1 1011 100 8000 3.6 250 02:27 12.04.2021
395 Snow -1 1010 93 10000 7.72 260 00:29 12.04.2021
396 Snow 0 1009 86 10000 7.2 250 23:55 11.04.2021
397 Snow 0 1009 86 10000 7.2 250 23:36 11.04.2021
398 Snow 0 1009 86 2000 8.75 270 23:18 11.04.2021
399 Snow 1 1008 75 10000 8.23 270 22:37 11.04.2021
400 Snow 1 1008 86 10000 8.75 280 22:19 11.04.2021
401 Clouds 1 1008 86 10000 6.69 280 21:42 11.04.2021
402 Snow 1 1007 80 10000 7.2 270 21:23 11.04.2021
403 Snow 1 1007 75 10000 7.72 260 20:42 11.04.2021
404 Snow 1 1006 75 10000 10.8 260 20:23 11.04.2021
405 Clouds 1 1006 80 10000 9.26 280 19:41 11.04.2021
406 Clouds 2 1006 69 10000 8.75 270 19:20 11.04.2021
407 Snow 1 1005 80 10000 9.26 280 18:57 11.04.2021
408 Snow 1 1005 80 10000 9.26 280 18:39 11.04.2021
409 Snow 1 1004 80 10000 10.8 270 18:20 11.04.2021
410 Snow 1 1004 86 10000 9.77 260 17:40 11.04.2021
411 Clouds 2 1003 75 10000 8.23 270 17:22 11.04.2021
412 Rain 2 1002 80 10000 7.72 270 16:42 11.04.2021
413 Rain 2 1001 80 10000 8.75 270 16:21 11.04.2021
414 Snow 1 1001 86 10000 5.14 0 15:46 11.04.2021
415 Clouds 2 1000 75 10000 7.2 280 15:26 11.04.2021
416 Rain 2 999 80 10000 6.17 280 14:51 11.04.2021
417 Rain 2 999 80 10000 6.17 280 14:51 11.04.2021
418 Snow 1 999 86 4900 9.26 280 14:24 11.04.2021
419 Snow 1 997 86 10000 5.66 270 13:44 11.04.2021
420 Snow 1 996 86 8000 6.17 270 13:26 11.04.2021
421 Snow 1 995 80 1500 10.8 280 12:41 11.04.2021
422 Snow 1 994 86 10000 6.69 280 12:20 11.04.2021
423 Snow 0 994 100 8000 9.77 270 11:48 11.04.2021
424 Snow 1 993 86 2500 8.75 270 11:21 11.04.2021
425 Snow 1 992 93 5000 7.2 260 10:47 11.04.2021
426 Snow 1 992 93 1800 6.69 280 10:23 11.04.2021
427 Snow 1 991 93 2500 8.75 240 09:51 11.04.2021
428 Snow 1 990 93 6000 6.17 250 09:30 11.04.2021
429 Snow 1 990 100 4500 5.66 270 08:40 11.04.2021
430 Snow 1 989 100 7000 8.23 240 07:57 11.04.2021
431 Snow 1 988 100 10000 9.26 230 07:21 11.04.2021
432 Snow 1 988 93 10000 7.2 240 05:55 11.04.2021
433 Snow 1 988 93 10000 7.2 240 05:37 11.04.2021
434 Snow 0 988 100 1200 7.72 240 05:18 11.04.2021
435 Snow 1 988 100 10000 8.23 240 04:33 11.04.2021
436 Snow 1 986 64 10000 6.17 210 01:31 11.04.2021
437 Snow 1 986 60 10000 7.2 220 00:32 11.04.2021
438 Snow 0 986 64 10000 6.69 210 23:46 10.04.2021
439 Snow 0 986 64 10000 6.17 210 22:58 10.04.2021
440 Snow 0 986 64 10000 6.17 210 22:30 10.04.2021
441 Snow 0 987 59 10000 6.17 210 21:54 10.04.2021
442 Snow 0 987 59 10000 6.17 210 21:33 10.04.2021
443 Snow 0 987 59 10000 5.14 210 20:58 10.04.2021
444 Snow 0 987 59 10000 5.14 210 20:40 10.04.2021
445 Snow 0 987 59 10000 5.14 210 20:21 10.04.2021
446 Snow 0 987 59 10000 5.14 210 19:43 10.04.2021
447 Clouds 1 987 60 10000 4.63 200 19:25 10.04.2021
448 Clear 1 987 60 10000 5.14 210 18:44 10.04.2021
449 Clear 1 987 64 10000 8.75 230 18:25 10.04.2021
450 Clouds 2 987 55 10000 8.23 230 17:37 10.04.2021
451 Clear 1 987 64 10000 8.75 230 16:54 10.04.2021
452 Clear 1 987 64 10000 8.23 230 16:26 10.04.2021
453 Clear 1 987 64 10000 8.23 230 15:53 10.04.2021
454 Clear 1 987 60 10000 8.75 230 14:57 10.04.2021
455 Clear 1 987 60 10000 8.75 230 14:38 10.04.2021
456 Clear 0 987 64 10000 5.14 210 13:59 10.04.2021
457 Clear 0 987 64 10000 5.14 210 13:40 10.04.2021
458 Clear -1 986 69 10000 6.17 220 12:49 10.04.2021
459 Clear 0 986 59 10000 5.14 220 12:26 10.04.2021
460 Clear -1 986 64 10000 5.14 210 11:47 10.04.2021
461 Clear -1 986 64 10000 5.14 220 11:24 10.04.2021
462 Clear -1 986 64 10000 4.63 220 10:52 10.04.2021
463 Clear -2 986 64 10000 3.6 210 10:31 10.04.2021
464 Clear -2 986 64 10000 3.09 210 09:45 10.04.2021
465 Clear -3 986 68 10000 3.09 210 09:19 10.04.2021
466 Clear -3 986 63 10000 1.03 0 08:46 10.04.2021
467 Clouds -4 986 68 10000 1.54 0 08:28 10.04.2021
468 Clouds -4 986 63 10000 3.59 220 07:29 10.04.2021
469 Clouds -4 986 68 10000 3.59 220 06:49 10.04.2021
470 Clouds -7 986 79 10000 3.38 220 05:54 10.04.2021
471 Clouds -7 986 73 10000 3.76 202 03:46 10.04.2021
472 Clouds -5 987 68 10000 2.06 10 02:50 10.04.2021
473 Clouds -8 987 67 10000 1.03 0 02:18 10.04.2021
474 Clouds -6 987 63 10000 1.03 0 00:40 10.04.2021
475 Clear -5 988 58 10000 1.03 0 23:59 09.04.2021
476 Clear -5 988 58 10000 1.03 0 23:37 09.04.2021
477 Clear -5 988 63 10000 2.06 260 22:58 09.04.2021
478 Clear -5 988 63 10000 2.06 260 22:37 09.04.2021
479 Clear -5 988 68 10000 1.03 0 21:55 09.04.2021
480 Clear -5 988 68 10000 1.03 0 21:37 09.04.2021
481 Clear -6 989 73 10000 1.03 0 21:18 09.04.2021
482 Clear -4 989 74 10000 0.51 0 20:40 09.04.2021
483 Clear -3 989 68 10000 1.03 0 20:21 09.04.2021
484 Clouds -4 989 74 10000 1.54 80 19:43 09.04.2021
485 Clouds -1 989 69 10000 2.06 190 19:23 09.04.2021
486 Clouds -1 989 69 10000 3.09 210 18:50 09.04.2021
487 Clouds -1 989 74 10000 3.6 220 18:29 09.04.2021
488 Clouds -1 989 69 10000 3.6 210 17:54 09.04.2021
489 Clouds -1 989 69 10000 3.6 210 17:34 09.04.2021
490 Clouds 0 989 69 10000 4.63 210 16:55 09.04.2021
491 Clouds 0 989 64 10000 4.63 240 16:32 09.04.2021
492 Clouds 0 990 69 10000 4.12 240 15:50 09.04.2021
493 Clouds 0 990 69 10000 4.12 240 15:50 09.04.2021
494 Snow 0 990 74 10000 4.12 240 15:26 09.04.2021
495 Snow 0 990 69 10000 4.12 250 14:57 09.04.2021
496 Snow 0 990 69 10000 4.12 250 14:33 09.04.2021
497 Snow -1 990 80 10000 4.12 260 13:52 09.04.2021
498 Snow 0 990 69 10000 4.12 240 13:24 09.04.2021
499 Snow -1 990 80 10000 4.12 240 12:51 09.04.2021
500 Snow -1 990 74 10000 3.6 230 12:32 09.04.2021
501 Snow 0 990 69 10000 4.12 240 11:45 09.04.2021
502 Snow 0 990 69 10000 4.12 240 11:45 09.04.2021
503 Clouds -1 990 80 10000 4.12 220 11:22 09.04.2021
504 Snow -1 990 74 10000 3.6 210 10:46 09.04.2021
505 Snow -1 990 74 10000 1.54 220 10:20 09.04.2021
506 Snow -2 991 80 10000 1.03 0 09:39 09.04.2021
507 Snow -2 991 74 10000 2.99 247 09:20 09.04.2021
508 Snow -3 991 80 10000 1.54 0 08:51 09.04.2021
509 Snow -4 991 80 10000 2.2 225 07:36 09.04.2021
510 Snow -6 992 93 10000 0.51 0 06:34 09.04.2021
511 Snow -6 992 93 10000 1.82 231 05:56 09.04.2021
512 Clouds -6 993 93 10000 1.03 0 03:52 09.04.2021
513 Clouds -5 994 86 10000 1.54 0 01:32 09.04.2021
514 Clouds -4 994 86 10000 2.06 30 00:37 09.04.2021
515 Clouds -4 994 86 10000 2.06 30 00:18 09.04.2021
516 Clouds -5 995 86 10000 1.03 60 23:21 08.04.2021
517 Clouds -5 995 86 10000 1.03 0 22:43 08.04.2021
518 Clouds -5 995 80 10000 0.71 166 22:22 08.04.2021
519 Clouds -5 995 80 10000 1.03 0 21:55 08.04.2021
520 Clouds -5 995 80 10000 1.03 0 21:36 08.04.2021
521 Clear -5 996 80 10000 0.51 0 21:18 08.04.2021
522 Clouds -5 996 74 10000 0.48 80 20:49 08.04.2021
523 Clear -4 996 74 10000 1.38 302 20:26 08.04.2021
524 Clear -3 996 74 10000 1.54 0 19:45 08.04.2021
525 Clear -2 996 69 10000 1.84 304 19:19 08.04.2021
526 Clear -2 996 69 10000 1.54 0 18:46 08.04.2021
527 Clear 1 996 60 10000 1.97 302 18:21 08.04.2021
528 Clouds 2 997 55 10000 0.51 0 17:49 08.04.2021
529 Clouds 2 997 51 10000 1.76 298 17:24 08.04.2021
530 Snow 1 997 55 10000 1.77 297 16:51 08.04.2021
531 Clouds 2 997 51 10000 1.77 297 16:31 08.04.2021
532 Clouds 2 997 51 10000 1.75 293 15:48 08.04.2021
533 Snow 1 997 55 10000 1.03 0 15:28 08.04.2021
534 Clear 3 997 48 10000 0.51 0 14:46 08.04.2021
535 Clear 3 997 48 10000 1.03 0 14:27 08.04.2021
536 Clear 1 996 55 10000 0.51 0 13:57 08.04.2021
537 Clear 1 996 55 10000 0.51 0 13:39 08.04.2021
538 Clear 3 996 48 10000 1.03 0 13:21 08.04.2021
539 Clear 3 996 52 10000 1.03 0 12:38 08.04.2021
540 Clear 0 996 59 10000 1.03 0 12:18 08.04.2021
541 Clear 2 996 55 10000 0.51 0 11:43 08.04.2021
542 Clear 0 996 59 10000 1.03 0 10:59 08.04.2021
543 Clear 0 996 59 10000 1.03 0 10:40 08.04.2021
544 Clear 1 996 60 10000 1.54 0 10:18 08.04.2021
545 Clear 1 996 60 10000 2.06 210 09:43 08.04.2021
546 Clear 2 996 51 10000 3.84 196 08:47 08.04.2021
547 Clear 2 996 51 10000 3.84 196 08:47 08.04.2021
548 Clear 0 995 59 10000 4.27 193 08:28 08.04.2021
549 Clear -1 995 69 10000 1.54 0 07:58 08.04.2021
550 Clear -1 995 69 10000 1.54 0 07:35 08.04.2021
551 Clouds -1 994 80 10000 4.63 240 04:18 08.04.2021
552 Snow -2 993 100 5000 4.12 210 01:20 08.04.2021
553 Snow -2 992 100 10000 4.63 220 00:21 08.04.2021
554 Snow -1 991 100 2500 6.69 230 23:42 07.04.2021
555 Snow -1 991 93 1500 9.77 230 23:22 07.04.2021
556 Snow -1 991 93 10000 10.8 230 22:50 07.04.2021
557 Snow -1 990 86 10000 6.69 220 22:32 07.04.2021
558 Snow 0 990 69 10000 9.26 240 21:47 07.04.2021
559 Snow 0 989 64 10000 8.75 240 21:26 07.04.2021
560 Clouds 0 989 64 10000 11.32 240 20:47 07.04.2021
561 Clouds 0 988 69 10000 10.29 240 20:26 07.04.2021
562 Clouds 0 988 74 10000 7.72 250 19:46 07.04.2021
563 Clouds 0 987 80 5000 10.8 240 19:28 07.04.2021
564 Snow 1 986 69 10000 10.8 240 18:53 07.04.2021
565 Clouds 1 986 69 10000 12.35 240 18:21 07.04.2021
566 Snow 0 985 86 7000 11.83 240 17:57 07.04.2021
567 Snow 0 985 86 7000 11.83 240 17:39 07.04.2021
568 Snow 1 983 80 9000 11.83 240 16:58 07.04.2021
569 Snow 1 983 80 9000 11.83 240 16:39 07.04.2021
570 Clouds 0 983 93 9000 13.89 240 16:20 07.04.2021
571 Snow 1 982 86 7000 10.29 240 15:50 07.04.2021
572 Snow 0 981 100 3000 10.8 240 15:25 07.04.2021
573 Snow 1 981 86 1500 10.8 240 14:35 07.04.2021
574 Snow 1 979 93 10000 9.26 250 13:53 07.04.2021
575 Snow 0 978 100 1500 6.69 260 13:28 07.04.2021
576 Snow 0 978 100 1700 7.72 240 12:58 07.04.2021
577 Snow 1 977 86 7000 8.75 240 12:26 07.04.2021
578 Snow 1 976 93 10000 6.69 250 11:59 07.04.2021
579 Rain 2 976 80 10000 6.69 250 11:29 07.04.2021
580 Rain 2 976 80 10000 6.69 250 11:29 07.04.2021
581 Rain 2 975 80 10000 7.72 250 10:59 07.04.2021
582 Snow 1 974 93 10000 6.17 280 10:30 07.04.2021
583 Snow 1 974 100 9000 6.17 270 09:46 07.04.2021
584 Snow 0 973 100 4500 6.69 230 09:27 07.04.2021
585 Snow 1 973 100 8000 8.23 240 08:47 07.04.2021
586 Snow 0 972 100 1500 9.26 240 08:23 07.04.2021
587 Snow 0 972 100 7000 8.75 230 07:44 07.04.2021
588 Snow 0 972 100 5000 7.72 230 07:25 07.04.2021
589 Snow 1 971 100 10000 6.17 230 06:36 07.04.2021
590 Snow 1 972 93 10000 6.17 220 04:24 07.04.2021
591 Snow 1 971 86 10000 4.12 220 00:45 07.04.2021
592 Snow 1 971 93 10000 4.63 220 23:47 06.04.2021
593 Snow 1 971 93 10000 5.14 230 23:22 06.04.2021
594 Snow 1 971 93 10000 3.6 250 22:48 06.04.2021
595 Snow 0 971 100 10000 4.12 260 22:20 06.04.2021
596 Snow 1 971 93 6000 3.6 220 21:43 06.04.2021
597 Snow 1 971 93 10000 3.09 220 21:23 06.04.2021
598 Clouds 0 971 100 10000 4.12 200 20:55 06.04.2021
599 Snow 1 971 93 10000 3.09 210 20:26 06.04.2021
600 Snow 0 971 100 10000 3.6 200 19:59 06.04.2021
601 Snow 0 971 100 10000 3.6 200 19:38 06.04.2021
602 Snow 0 971 100 10000 4.12 200 19:19 06.04.2021
603 Snow 1 971 93 10000 4.12 200 18:41 06.04.2021
604 Snow 1 971 93 9000 4.63 200 18:19 06.04.2021
605 Snow 1 971 93 10000 4.63 200 17:44 06.04.2021
606 Snow 1 971 93 10000 5.14 210 17:19 06.04.2021
607 Snow 1 970 93 10000 4.63 210 16:46 06.04.2021
608 Clouds 2 970 87 8000 3.09 190 16:26 06.04.2021
609 Snow 1 970 93 3500 2.57 210 15:27 06.04.2021
610 Snow 1 970 93 9000 3.6 200 14:47 06.04.2021
611 Snow 1 970 93 10000 2.57 0 14:28 06.04.2021
612 Snow 1 970 93 10000 1.54 0 13:47 06.04.2021
613 Snow 1 969 100 6000 1.54 0 13:27 06.04.2021
614 Clouds 2 969 93 9000 1.54 0 12:58 06.04.2021
615 Clouds 2 969 93 9000 1.54 0 12:37 06.04.2021
616 Clouds 2 969 87 10000 1.54 0 12:18 06.04.2021
617 Clouds 2 969 93 10000 3.13 138 11:43 06.04.2021
618 Clouds 2 969 93 10000 0.51 0 11:20 06.04.2021
619 Snow 1 969 93 10000 2.06 70 10:44 06.04.2021
620 Snow 1 969 100 10000 4.63 40 10:22 06.04.2021
621 Snow 1 969 100 10000 3.09 30 09:45 06.04.2021
622 Snow 1 969 100 9000 4.12 40 09:26 06.04.2021
623 Snow 1 969 100 8000 3.6 40 08:34 06.04.2021
624 Snow 1 969 93 3000 6.69 60 07:33 06.04.2021
625 Snow 1 969 100 10000 7.2 50 06:55 06.04.2021
626 Snow 1 969 100 8000 8.75 50 04:53 06.04.2021
627 Rain 1 971 100 10000 10.8 50 01:34 06.04.2021
628 Rain 2 971 87 10000 11.32 50 00:42 06.04.2021
629 Rain 2 971 87 10000 10.8 50 00:20 06.04.2021
630 Rain 2 971 93 10000 10.8 50 23:42 05.04.2021
631 Rain 2 971 93 10000 9.26 50 23:18 05.04.2021
632 Rain 2 971 93 10000 10.29 50 22:41 05.04.2021
633 Rain 2 972 93 10000 10.8 50 22:22 05.04.2021
634 Rain 2 972 93 10000 9.77 50 21:39 05.04.2021
635 Rain 2 972 93 9000 9.26 60 21:19 05.04.2021
636 Rain 2 972 93 9000 10.8 70 20:42 05.04.2021
637 Rain 2 972 93 10000 11.32 70 20:22 05.04.2021
638 Rain 2 972 87 10000 11.83 70 19:39 05.04.2021
639 Snow 1 972 93 10000 10.8 60 19:19 05.04.2021
640 Clouds 2 972 87 10000 11.32 60 18:42 05.04.2021
641 Snow 1 972 93 10000 10.8 70 18:23 05.04.2021
642 Snow 1 972 93 10000 10.8 60 17:47 05.04.2021
643 Snow 1 972 93 8000 9.77 60 17:24 05.04.2021
644 Rain 2 972 87 10000 9.77 70 16:57 05.04.2021
645 Rain 2 972 87 10000 9.77 70 16:38 05.04.2021
646 Rain 2 971 87 10000 9.77 60 16:18 05.04.2021
647 Clouds 2 971 87 10000 8.75 70 15:47 05.04.2021
648 Clouds 2 971 87 10000 7.2 50 15:22 05.04.2021
649 Clouds 2 971 87 10000 10.29 80 14:36 05.04.2021
650 Clouds 2 970 87 10000 5.66 60 13:56 05.04.2021
651 Clouds 2 970 87 10000 3.6 60 13:31 05.04.2021
652 Clouds 2 971 87 10000 4.12 50 12:47 05.04.2021
653 Clouds 2 970 87 10000 4.63 60 12:26 05.04.2021
654 Snow 1 970 93 9000 4.63 40 11:53 05.04.2021
655 Snow 1 970 86 9000 4.12 60 11:31 05.04.2021
656 Snow 0 970 100 10000 3.09 70 10:57 05.04.2021
657 Snow 0 970 100 10000 3.09 70 10:36 05.04.2021
658 Snow 0 970 100 10000 3.6 60 09:49 05.04.2021
659 Snow 0 970 100 7000 4.12 50 09:26 05.04.2021
660 Snow 0 970 100 3500 4.63 50 08:59 05.04.2021
661 Snow 0 970 100 3500 4.63 50 08:37 05.04.2021
662 Snow 0 970 100 2300 3.6 50 08:19 05.04.2021
663 Snow -1 970 100 1800 1.03 0 07:33 05.04.2021
664 Snow -3 972 86 10000 2.57 60 03:58 05.04.2021
665 Clear -3 972 86 10000 4.12 30 00:57 05.04.2021
666 Clear -4 973 86 10000 3.09 60 00:20 05.04.2021
667 Clouds -2 973 80 10000 2.57 50 23:37 04.04.2021
668 Clouds -2 973 86 10000 3.6 30 23:18 04.04.2021
669 Clouds -2 973 86 10000 3.6 30 22:45 04.04.2021
670 Clouds -3 973 86 10000 2.57 50 22:26 04.04.2021
671 Clouds -3 973 86 10000 2.06 20 21:23 04.04.2021
672 Clouds -3 973 93 10000 2.57 20 20:47 04.04.2021
673 Clouds -2 974 86 10000 1.03 0 20:23 04.04.2021
674 Snow -2 974 86 10000 2.06 30 19:41 04.04.2021
675 Snow -2 974 86 10000 1.54 310 19:20 04.04.2021
676 Clouds -1 974 86 10000 4.12 290 18:56 04.04.2021
677 Snow -1 974 86 10000 4.12 290 18:36 04.04.2021
678 Clouds 0 974 80 10000 3.09 290 18:18 04.04.2021
679 Snow 0 974 80 10000 2.06 240 17:25 04.04.2021
680 Snow 0 974 80 10000 3.09 210 16:58 04.04.2021
681 Snow 0 974 80 10000 3.09 210 16:40 04.04.2021
682 Snow 1 975 75 10000 3.6 200 15:56 04.04.2021
683 Snow 1 975 75 10000 3.6 200 15:32 04.04.2021
684 Snow 1 975 75 10000 3.09 210 14:42 04.04.2021
685 Snow 0 975 80 10000 3.6 210 14:24 04.04.2021
686 Snow 0 976 80 10000 2.57 190 13:28 04.04.2021
687 Snow 0 976 80 10000 2.06 190 12:53 04.04.2021
688 Snow 0 977 74 10000 3.6 200 12:32 04.04.2021
689 Clouds 0 977 74 10000 3.6 210 11:52 04.04.2021
690 Clouds -1 978 80 10000 3.09 190 11:31 04.04.2021
691 Snow -1 979 80 10000 3.6 190 10:56 04.04.2021
692 Snow -1 980 86 10000 3.6 210 10:32 04.04.2021
693 Snow -1 980 86 10000 2.06 220 09:52 04.04.2021
694 Snow -1 980 86 10000 2.06 220 09:24 04.04.2021
695 Snow -2 981 100 2200 2.06 200 08:51 04.04.2021
696 Snow -2 981 100 2200 2.06 200 08:33 04.04.2021
697 Snow -2 983 93 2500 5.66 240 07:24 04.04.2021
698 Snow -2 983 86 10000 6.17 240 06:36 04.04.2021
699 Snow -2 985 86 8000 6.69 240 04:56 04.04.2021
700 Clouds -1 987 93 8000 7.2 250 01:28 04.04.2021
701 Snow 0 987 93 3400 9.77 230 00:19 04.04.2021
702 Snow 1 987 93 10000 6.69 260 23:47 03.04.2021
703 Snow 0 987 100 4000 9.26 240 23:23 03.04.2021
704 Snow 1 987 93 10000 7.72 240 22:50 03.04.2021
705 Snow 1 987 93 7000 8.75 240 22:21 03.04.2021
706 Snow 1 988 100 7000 10.8 240 21:47 03.04.2021
707 Snow 1 988 93 6000 6.69 220 21:24 03.04.2021
708 Snow 2 988 87 10000 6.69 220 20:49 03.04.2021
709 Snow 2 988 75 10000 6.17 220 20:28 03.04.2021
710 Snow 1 989 80 10000 6.17 220 19:51 03.04.2021
711 Snow 1 989 80 10000 6.69 220 19:25 03.04.2021
712 Snow 1 990 75 10000 6.17 210 18:51 03.04.2021
713 Snow 1 991 75 10000 5.14 210 18:32 03.04.2021
714 Snow 1 992 75 10000 5.14 210 17:53 03.04.2021
715 Drizzle 1 993 69 10000 6.69 210 17:26 03.04.2021
716 Clouds 1 993 64 10000 7.2 210 16:52 03.04.2021
717 Clouds 2 994 60 10000 5.14 200 16:25 03.04.2021
718 Clouds 1 995 64 10000 5.14 190 15:51 03.04.2021
719 Snow 1 996 64 10000 6.69 200 15:30 03.04.2021
720 Clouds 1 996 64 10000 6.69 200 15:30 03.04.2021
721 Rain 2 996 60 10000 5.14 190 14:45 03.04.2021
722 Rain 2 997 64 10000 6.17 200 14:25 03.04.2021
723 Rain 2 997 64 10000 4.63 210 13:54 03.04.2021
724 Rain 2 998 64 10000 5.14 200 13:29 03.04.2021
725 Clouds 2 999 64 10000 5.66 210 12:58 03.04.2021
726 Clouds 2 999 69 10000 4.12 200 12:33 03.04.2021
727 Clouds 1 1000 75 10000 4.63 210 11:41 03.04.2021
728 Clouds 1 1000 75 10000 4.63 210 11:20 03.04.2021
729 Clouds 1 1001 80 10000 5.14 240 10:45 03.04.2021
730 Snow 0 1001 93 10000 4.12 250 10:26 03.04.2021
731 Clouds 0 1002 86 10000 5.14 240 09:36 03.04.2021
732 Clouds -1 1002 100 10000 6.17 240 09:18 03.04.2021
733 Snow 0 1003 86 10000 6.69 240 08:35 03.04.2021
734 Snow 0 1003 86 10000 7.2 240 07:31 03.04.2021
735 Snow 0 1004 86 10000 7.72 240 06:56 03.04.2021
736 Snow 1 1004 100 10000 2.06 250 03:54 03.04.2021
737 Rain 2 1004 93 10000 5.66 240 02:55 03.04.2021
738 Snow 1 1004 100 10000 5.66 230 02:30 03.04.2021
739 Clouds 1 1005 100 10000 5.14 240 00:32 03.04.2021
740 Clouds 2 1005 87 10000 4.12 250 23:59 02.04.2021
741 Clouds 2 1005 87 10000 4.12 250 23:38 02.04.2021
742 Clouds 2 1005 87 10000 3.09 250 23:18 02.04.2021
743 Clouds 2 1005 87 10000 3.09 250 22:43 02.04.2021
744 Clouds 2 1006 80 10000 5.14 240 22:24 02.04.2021
745 Clouds 2 1006 80 10000 4.12 240 21:41 02.04.2021
746 Clouds 2 1006 80 10000 3.6 250 21:19 02.04.2021
747 Clouds 2 1006 80 10000 3.09 240 20:39 02.04.2021
748 Clouds 2 1006 87 10000 3.09 260 20:20 02.04.2021
749 Clouds 2 1005 87 10000 3.6 250 19:42 02.04.2021
750 Clouds 2 1005 87 10000 3.6 240 19:22 02.04.2021
751 Clouds 2 1005 87 10000 4.12 240 18:48 02.04.2021
752 Clouds 2 1005 87 10000 4.12 240 18:28 02.04.2021
753 Clouds 2 1005 80 10000 4.12 240 17:56 02.04.2021
754 Clouds 2 1005 80 10000 4.63 250 17:25 02.04.2021
755 Clouds 2 1005 80 10000 4.12 250 16:35 02.04.2021
756 Rain 1 1005 100 10000 1.54 0 15:46 02.04.2021
757 Rain 1 1005 100 10000 2.08 277 15:22 02.04.2021
758 Clouds 2 1005 93 4400 2.08 277 14:33 02.04.2021
759 Snow 1 1005 93 3400 1.54 270 13:50 02.04.2021
760 Snow 0 1004 100 3300 1.54 230 13:28 02.04.2021
761 Snow 0 1004 93 3000 2.57 230 12:58 02.04.2021
762 Snow 0 1004 93 3000 2.57 230 12:37 02.04.2021
763 Snow 0 1004 93 4400 3.6 220 12:19 02.04.2021
764 Snow 0 1004 93 6000 3.09 220 11:44 02.04.2021
765 Snow 0 1004 93 4500 1.54 230 11:18 02.04.2021
766 Snow 0 1004 86 2000 0.51 0 10:42 02.04.2021
767 Snow 0 1004 86 2000 1.68 186 10:23 02.04.2021
768 Snow -1 1003 93 1100 0.51 0 09:46 02.04.2021
769 Snow -1 1003 93 2000 3.04 191 09:24 02.04.2021
770 Snow -1 1003 93 600 3.04 191 08:45 02.04.2021
771 Snow -1 1003 93 2200 2.89 168 08:26 02.04.2021
772 Snow -1 1002 74 10000 1.54 0 07:20 02.04.2021
773 Snow -2 1001 80 10000 1.03 50 06:34 02.04.2021
774 Snow -3 1001 86 10000 3.12 196 03:40 02.04.2021
775 Clouds -1 1001 74 10000 2.87 183 01:40 02.04.2021
776 Clouds -2 1001 80 10000 2.84 179 00:43 02.04.2021
777 Clouds -2 1001 80 10000 1.54 0 23:44 01.04.2021
778 Clouds -3 1001 80 10000 1.54 0 23:26 01.04.2021
779 Clouds -2 1001 80 10000 1.54 0 22:41 01.04.2021
780 Clouds -1 1001 80 10000 1.54 40 22:18 01.04.2021
781 Clear -2 1001 86 10000 1.54 0 21:42 01.04.2021
782 Clear -1 1002 86 10000 1.03 0 21:22 01.04.2021
783 Clear -1 1002 86 10000 1.54 0 20:41 01.04.2021
784 Clear 0 1002 80 10000 1.54 20 20:21 01.04.2021
785 Clear -1 1002 86 10000 1.03 0 19:41 01.04.2021
786 Clouds 0 1002 80 10000 2.69 174 19:20 01.04.2021
787 Clear 1 1002 80 10000 1.03 0 18:44 01.04.2021
788 Clear 2 1002 75 10000 1.03 0 18:18 01.04.2021
789 Clear 3 1002 75 10000 1.03 0 17:41 01.04.2021
790 Clear 2 1002 80 10000 1.03 250 17:23 01.04.2021
791 Clouds 2 1002 80 10000 2.06 230 16:48 01.04.2021
792 Clouds 3 1003 75 10000 1.54 240 16:18 01.04.2021
793 Clouds 3 1003 75 10000 1.54 240 15:40 01.04.2021
794 Clouds 3 1003 81 10000 1.54 0 15:19 01.04.2021
795 Clouds 2 1003 87 10000 2.06 210 14:39 01.04.2021
796 Clouds 2 1003 80 10000 2.57 240 14:20 01.04.2021
797 Clouds 1 1003 93 10000 1.54 240 13:49 01.04.2021
798 Snow 1 1003 93 10000 2.57 280 13:29 01.04.2021
799 Snow 1 1003 86 10000 5.66 300 12:47 01.04.2021
800 Clouds 2 1003 87 10000 3.6 250 12:29 01.04.2021
801 Clouds 2 1003 87 10000 4.63 240 11:45 01.04.2021
802 Clouds 2 1003 87 10000 5.14 240 11:20 01.04.2021
803 Clouds 2 1003 80 10000 3.6 250 10:50 01.04.2021
804 Clouds 2 1003 80 10000 1.03 0 10:31 01.04.2021
805 Clouds 2 1003 87 10000 1.03 0 09:52 01.04.2021
806 Clouds 2 1003 87 10000 1.03 0 09:23 01.04.2021
807 Clouds 2 1003 87 10000 5.68 303 08:33 01.04.2021
808 Clouds 1 1003 93 10000 3.09 280 07:24 01.04.2021
809 Clouds 2 1003 80 10000 3.6 330 06:59 01.04.2021
810 Clouds 2 1003 87 10000 3.09 0 06:31 01.04.2021
811 Snow 1 1004 93 1100 3.6 0 03:28 01.04.2021
812 Snow 1 1003 93 7000 4.12 330 00:38 01.04.2021
813 Snow 1 1003 100 6000 2.57 0 23:44 31.03.2021
814 Snow 1 1003 93 6000 4.63 350 23:18 31.03.2021
815 Snow 1 1003 100 8000 4.63 350 22:41 31.03.2021
816 Snow 1 1003 100 6000 5.14 350 22:20 31.03.2021
817 Snow 1 1003 100 9000 5.14 350 21:45 31.03.2021
818 Snow 1 1003 100 6000 5.14 350 21:23 31.03.2021
819 Snow 1 1003 100 5000 5.14 350 20:44 31.03.2021
820 Snow 1 1002 100 10000 5.14 340 20:24 31.03.2021
821 Snow 1 1002 100 10000 5.66 350 19:59 31.03.2021
822 Snow 1 1002 100 10000 5.66 350 19:36 31.03.2021
823 Snow 1 1002 93 8000 5.66 360 19:18 31.03.2021
824 Snow 1 1002 100 9000 6.17 350 18:43 31.03.2021
825 Snow 1 1002 100 7000 6.17 360 17:57 31.03.2021
826 Snow 1 1002 100 7000 6.17 360 17:36 31.03.2021
827 Snow 2 1002 87 10000 5.14 350 16:58 31.03.2021
828 Snow 2 1002 87 10000 5.14 350 16:38 31.03.2021
829 Rain 2 1001 87 10000 6.17 360 16:19 31.03.2021
830 Snow 2 1001 87 10000 6.17 350 15:50 31.03.2021
831 Snow 1 1001 93 10000 6.69 350 15:19 31.03.2021
832 Snow 2 1001 87 10000 5.66 350 14:44 31.03.2021
833 Rain 2 1001 87 10000 6.69 350 14:22 31.03.2021
834 Rain 2 1000 87 10000 6.17 360 13:42 31.03.2021
835 Rain 2 1000 87 10000 5.14 10 12:42 31.03.2021
836 Snow 1 1000 93 10000 5.66 350 12:21 31.03.2021
837 Snow 1 1000 93 10000 5.66 350 12:21 31.03.2021
838 Snow 1 1000 93 10000 5.66 350 12:21 31.03.2021
839 Snow 2 999 87 8000 6.17 350 11:59 31.03.2021
840 Snow 1 999 93 10000 7.2 350 11:21 31.03.2021
841 Snow 2 999 87 8000 6.69 350 10:47 31.03.2021
842 Snow 2 998 87 10000 6.69 350 10:26 31.03.2021
843 Snow 2 998 87 10000 5.66 350 09:45 31.03.2021
844 Rain 2 998 87 10000 4.12 360 09:26 31.03.2021
845 Rain 2 998 87 10000 5.14 360 08:39 31.03.2021
846 Rain 2 997 80 10000 5.14 350 07:58 31.03.2021
847 Clouds 2 997 80 10000 4.12 350 06:50 31.03.2021
848 Rain 3 997 81 10000 2.57 0 03:52 31.03.2021
849 Clouds 3 996 81 10000 2.06 0 02:30 31.03.2021
850 Clouds 3 996 81 10000 5.14 340 00:53 31.03.2021
851 Clouds 3 996 81 10000 2.06 0 00:21 31.03.2021
852 Clouds 2 996 93 10000 4.12 270 23:47 30.03.2021
853 Clouds 2 996 87 10000 3.09 280 23:19 30.03.2021
854 Clouds 2 996 87 10000 2.06 270 22:47 30.03.2021
855 Clouds 2 995 87 10000 2.06 290 22:29 30.03.2021
856 Clouds 3 995 81 10000 1.54 0 21:55 30.03.2021
857 Clouds 2 995 80 10000 0.51 0 21:24 30.03.2021
858 Clouds 2 995 87 10000 1.03 0 20:58 30.03.2021
859 Rain 2 995 87 10000 1.54 30 20:30 30.03.2021
860 Rain 2 995 87 10000 5.95 314 19:55 30.03.2021
861 Rain 2 995 87 10000 5.95 314 19:36 30.03.2021
862 Rain 3 995 75 10000 1.03 0 18:47 30.03.2021
863 Rain 3 995 81 10000 1.54 0 18:24 30.03.2021
864 Rain 3 994 75 10000 2.57 320 17:45 30.03.2021
865 Rain 3 994 75 10000 2.57 320 17:26 30.03.2021
866 Rain 3 994 75 10000 2.06 360 16:46 30.03.2021
867 Rain 2 993 80 10000 2.57 350 16:25 30.03.2021
868 Clouds 3 993 81 10000 2.57 340 15:36 30.03.2021
869 Clouds 3 993 81 10000 2.57 310 15:18 30.03.2021
870 Clouds 3 992 81 10000 3.6 310 14:43 30.03.2021
871 Clouds 3 992 81 10000 3.6 320 14:19 30.03.2021
872 Clouds 2 992 87 10000 3.09 330 13:44 30.03.2021
873 Clouds 2 991 80 10000 3.6 330 12:58 30.03.2021
874 Clouds 2 991 80 10000 3.6 330 12:39 30.03.2021
875 Clouds 2 991 80 10000 1.54 0 12:20 30.03.2021
876 Snow 1 990 86 10000 2.06 10 11:40 30.03.2021
877 Snow 1 990 86 10000 2.57 60 11:18 30.03.2021
878 Snow 1 989 86 10000 1.54 40 10:40 30.03.2021
879 Snow 1 989 86 10000 1.54 20 10:18 30.03.2021
880 Snow 1 989 86 10000 1.54 60 09:38 30.03.2021
881 Snow 1 988 80 10000 2.06 40 09:20 30.03.2021
882 Snow 1 988 86 10000 0.51 0 08:40 30.03.2021
883 Clouds 1 988 80 10000 1.03 0 07:53 30.03.2021
884 Clouds 1 988 80 10000 1.54 20 07:23 30.03.2021
885 Clouds 1 988 80 10000 2.06 90 06:19 30.03.2021
886 Clouds 1 988 80 10000 2.06 160 05:24 30.03.2021
887 Clouds 2 989 80 10000 3.09 190 01:29 30.03.2021
888 Clouds 2 990 75 10000 4.63 200 23:51 29.03.2021
889 Clouds 2 990 80 10000 4.63 200 23:18 29.03.2021
890 Clouds 2 991 80 10000 4.12 200 22:35 29.03.2021
891 Clouds 2 991 75 10000 4.12 210 21:55 29.03.2021
892 Clouds 2 991 75 10000 4.12 210 21:33 29.03.2021
893 Clouds 2 992 75 10000 5.14 200 20:50 29.03.2021
894 Clouds 2 992 75 10000 4.12 200 20:29 29.03.2021
895 Clouds 2 992 75 10000 3.6 210 19:52 29.03.2021
896 Clear 3 993 70 10000 4.12 200 19:27 29.03.2021
897 Clear 3 993 70 10000 3.6 190 18:51 29.03.2021
898 Clear 3 993 70 10000 5.14 210 18:27 29.03.2021
899 Clear 3 994 70 10000 5.66 210 17:55 29.03.2021
900 Clear 3 994 70 10000 5.66 210 17:35 29.03.2021
901 Clear 3 994 70 10000 6.17 210 16:53 29.03.2021
902 Clear 3 995 70 10000 6.17 200 16:26 29.03.2021
903 Clear 3 995 70 10000 6.17 200 15:41 29.03.2021
904 Clear 3 995 70 10000 7.2 220 15:22 29.03.2021
905 Clear 3 995 70 10000 10.29 200 14:48 29.03.2021
906 Clouds 3 996 65 10000 7.72 210 13:58 29.03.2021
907 Clouds 3 996 65 10000 7.72 210 13:38 29.03.2021
908 Clear 3 996 65 10000 5.66 200 13:18 29.03.2021
909 Clear 3 996 65 10000 8.75 210 12:49 29.03.2021
910 Clear 3 997 70 10000 8.23 200 11:48 29.03.2021
911 Clear 3 997 70 10000 8.75 200 11:28 29.03.2021
912 Clear 4 997 70 10000 8.23 200 10:49 29.03.2021
913 Clear 4 997 70 10000 6.69 200 10:23 29.03.2021
914 Clear 4 998 75 10000 6.69 190 09:33 29.03.2021
915 Clouds 3 999 81 10000 5.14 200 08:43 29.03.2021
916 Clouds 3 999 81 10000 5.14 200 08:25 29.03.2021
917 Clear 3 1000 75 10000 4.12 210 07:21 29.03.2021
918 Clear 2 1001 75 10000 3.8 172 06:25 29.03.2021
919 Clear 1 1003 60 10000 2.57 240 03:25 29.03.2021
920 Clear -2 1006 69 10000 2.06 60 00:46 29.03.2021
921 Clear -1 1006 69 10000 2.06 70 00:18 29.03.2021
922 Clear 0 1006 69 10000 1.03 0 23:30 28.03.2021
923 Clear 0 1007 80 10000 2.06 60 22:53 28.03.2021
924 Clear 0 1007 80 10000 2.06 60 22:35 28.03.2021
925 Clear 0 1007 80 10000 0.51 0 21:57 28.03.2021
926 Clear 0 1007 80 10000 0.51 0 21:38 28.03.2021
927 Clouds 1 1007 75 10000 1.03 0 21:18 28.03.2021
928 Clouds 2 1007 69 10000 3.6 270 20:42 28.03.2021
929 Clouds 2 1007 69 10000 4.12 260 20:24 28.03.2021
930 Clouds 2 1007 75 10000 4.63 260 19:42 28.03.2021
931 Clouds 2 1007 75 10000 5.14 270 19:22 28.03.2021
932 Clouds 2 1007 75 10000 5.66 230 18:53 28.03.2021
933 Clouds 3 1007 65 10000 5.14 240 18:25 28.03.2021
934 Clouds 3 1007 70 10000 4.63 240 17:46 28.03.2021
935 Clouds 3 1006 70 10000 4.63 250 17:23 28.03.2021
936 Clouds 3 1006 65 10000 7.72 240 16:45 28.03.2021
937 Clouds 3 1006 65 10000 7.72 250 16:23 28.03.2021
938 Clouds 3 1005 56 10000 11.32 240 15:25 28.03.2021
939 Clouds 3 1005 56 10000 11.32 240 14:50 28.03.2021
940 Clouds 4 1005 60 10000 11.83 240 14:30 28.03.2021
941 Clouds 4 1004 60 10000 8.75 250 13:39 28.03.2021
942 Clouds 4 1004 60 10000 9.26 240 13:19 28.03.2021
943 Rain 3 1004 65 10000 9.26 240 12:43 28.03.2021
944 Rain 3 1004 65 10000 9.26 240 12:43 28.03.2021
945 Clouds 3 1004 70 10000 7.72 250 12:25 28.03.2021
946 Clouds 3 1004 70 10000 9.77 240 11:40 28.03.2021
947 Clouds 3 1004 70 10000 9.26 240 11:18 28.03.2021
948 Clouds 3 1003 70 10000 11.32 240 10:43 28.03.2021
949 Clouds 2 1003 87 10000 10.8 240 10:21 28.03.2021
950 Clouds 2 1002 80 10000 7.72 240 09:44 28.03.2021
951 Clouds 2 1001 87 10000 8.75 250 09:23 28.03.2021
952 Rain 3 1000 87 10000 5.66 250 08:42 28.03.2021
953 Drizzle 2 1000 93 10000 5.66 250 07:45 28.03.2021
954 Clouds 2 999 93 10000 5.14 240 06:23 28.03.2021
955 Rain 4 999 81 10000 4.12 210 03:51 28.03.2021
956 Clouds 4 1000 81 10000 3.6 0 00:49 28.03.2021
957 Clouds 4 1000 75 10000 5.14 200 00:19 28.03.2021
958 Clouds 3 1001 81 10000 1.03 0 23:39 27.03.2021
959 Clouds 3 1002 75 10000 4.63 100 22:54 27.03.2021
960 Rain 4 1002 75 10000 1.76 180 22:36 27.03.2021
961 Clouds 4 1002 75 10000 1.54 0 21:46 27.03.2021
962 Clouds 3 1002 75 10000 1.03 0 21:22 27.03.2021
963 Clouds 3 1002 75 10000 1.54 0 20:59 27.03.2021
964 Clouds 3 1002 75 10000 1.54 0 20:38 27.03.2021
965 Clouds 3 1002 75 10000 1.03 0 20:19 27.03.2021
966 Clouds 3 1002 75 10000 0.51 0 19:42 27.03.2021
967 Clouds 3 1002 75 10000 1.54 280 19:23 27.03.2021
968 Clouds 3 1002 75 10000 2.57 270 18:48 27.03.2021
969 Clear 4 1002 70 10000 2.57 250 18:26 27.03.2021
970 Clear 4 1001 65 10000 2.57 270 17:40 27.03.2021
971 Clear 4 1001 70 10000 3.6 260 17:20 27.03.2021
972 Clear 4 1001 65 10000 3.6 260 16:48 27.03.2021
973 Clear 4 1001 70 10000 3.09 250 16:27 27.03.2021
974 Clouds 4 1001 70 10000 4.12 240 15:46 27.03.2021
975 Clear 4 1001 65 10000 3.09 250 15:21 27.03.2021
976 Clear 4 1000 65 10000 4.12 240 14:45 27.03.2021
977 Clear 4 1000 65 10000 5.66 220 13:42 27.03.2021
978 Clear 4 999 65 10000 5.14 200 13:21 27.03.2021
979 Clear 4 999 65 10000 5.66 200 12:50 27.03.2021
980 Clear 4 999 65 10000 6.17 200 11:59 27.03.2021
981 Clear 4 999 65 10000 6.17 200 11:39 27.03.2021
982 Clouds 4 998 65 10000 6.69 200 11:19 27.03.2021
983 Clouds 3 998 70 10000 6.17 200 10:42 27.03.2021
984 Clouds 3 997 65 10000 6.69 210 10:22 27.03.2021
985 Clouds 3 997 65 10000 4.63 0 09:27 27.03.2021
986 Clouds 3 997 65 10000 4.63 210 08:42 27.03.2021
987 Clouds 3 997 65 10000 5.66 200 08:18 27.03.2021
988 Clouds 3 997 65 10000 3.6 200 07:32 27.03.2021
989 Clouds 2 998 64 10000 3.09 0 06:43 27.03.2021
990 Clouds 2 999 64 10000 4.12 220 04:57 27.03.2021
991 Clouds 2 999 64 10000 4.12 220 04:39 27.03.2021
992 Clear 3 1001 65 10000 5.14 210 00:48 27.03.2021
993 Clear 3 1001 65 10000 5.66 200 00:27 27.03.2021
994 Clear 3 1001 65 10000 5.14 200 23:48 26.03.2021
995 Clear 3 1002 65 10000 4.12 210 22:53 26.03.2021
996 Clear 3 1002 65 10000 4.12 210 22:34 26.03.2021
997 Clear 2 1002 64 10000 6.17 200 21:25 26.03.2021
998 Clear 2 1002 64 10000 6.17 210 20:58 26.03.2021
999 Clear 2 1002 64 10000 6.17 210 20:32 26.03.2021
1000 Clear 2 1002 64 10000 8.75 210 19:56 26.03.2021
1001 Clear 2 1002 64 10000 8.75 210 19:37 26.03.2021
1002 Clear 2 1003 64 10000 5.14 220 19:18 26.03.2021
1003 Clear 2 1003 60 10000 5.14 200 18:41 26.03.2021
1004 Clear 2 1003 55 10000 4.63 200 18:19 26.03.2021
1005 Clear 2 1004 55 10000 3.09 210 17:45 26.03.2021
1006 Clear 2 1004 51 10000 4.12 200 16:54 26.03.2021
1007 Clear 3 1004 44 10000 1.54 250 16:31 26.03.2021
1008 Clear 2 1004 51 10000 3.09 250 15:51 26.03.2021
1009 Clear 2 1005 51 10000 2.57 260 14:58 26.03.2021
1010 Clear 2 1005 48 10000 2.57 230 14:23 26.03.2021
1011 Clear 2 1005 51 10000 4.63 220 13:34 26.03.2021
1012 Clear 2 1005 51 10000 3.09 200 12:49 26.03.2021
1013 Clear 2 1005 51 10000 3.09 200 12:49 26.03.2021
1014 Clear 1 1005 60 10000 3.09 220 11:58 26.03.2021
1015 Clear 1 1005 60 10000 3.6 210 11:31 26.03.2021
1016 Clear 1 1005 60 10000 2.57 0 10:46 26.03.2021
1017 Clear 0 1005 59 10000 2.57 0 10:27 26.03.2021
1018 Clear 0 1005 64 10000 2.57 210 09:42 26.03.2021
1019 Clear 0 1005 64 10000 5.14 220 09:18 26.03.2021
1020 Clear 0 1005 59 10000 4.63 210 08:38 26.03.2021
1021 Clear 0 1005 64 10000 4.12 200 08:20 26.03.2021
1022 Clear -1 1005 69 10000 3.09 220 07:23 26.03.2021
1023 Clear -1 1005 69 10000 3.6 180 06:58 26.03.2021
1024 Clear -2 1005 69 10000 1.54 0 06:30 26.03.2021
1025 Clear -2 1005 80 10000 2.06 230 05:26 26.03.2021
1026 Clouds -2 1004 69 10000 5.43 199 01:58 26.03.2021
1027 Clouds -3 1004 74 10000 4.68 221 00:27 26.03.2021
1028 Clouds -2 1004 69 10000 4.67 221 23:44 25.03.2021
1029 Clouds -1 1003 64 10000 2.57 320 22:57 25.03.2021
1030 Clouds 0 1003 59 10000 2.06 310 22:30 25.03.2021
1031 Clouds -1 1002 64 10000 2.57 320 21:53 25.03.2021
1032 Clouds 0 1002 59 10000 2.06 340 21:33 25.03.2021
1033 Clouds 0 1002 59 10000 2.57 350 20:45 25.03.2021
1034 Clouds 0 1001 64 10000 1.03 0 20:25 25.03.2021
1035 Clouds 0 1001 59 10000 1.03 0 19:46 25.03.2021
1036 Clouds 0 1000 55 10000 2.06 0 19:27 25.03.2021
1037 Clouds 0 1000 59 10000 2.06 0 18:49 25.03.2021
1038 Clouds 0 1000 59 10000 4.63 290 18:27 25.03.2021
1039 Clouds 0 999 64 10000 4.12 270 17:52 25.03.2021
1040 Clouds 0 999 64 10000 4.63 270 17:33 25.03.2021
1041 Clouds 0 998 59 10000 5.66 270 16:55 25.03.2021
1042 Clouds 0 998 59 10000 5.66 280 16:32 25.03.2021
1043 Clouds 0 997 69 10000 4.63 270 15:46 25.03.2021
1044 Clouds 0 997 74 10000 7.72 280 15:23 25.03.2021
1045 Snow 0 996 69 10000 6.69 280 14:48 25.03.2021
1046 Clouds 1 995 64 10000 6.69 270 14:18 25.03.2021
1047 Snow 1 994 75 10000 7.72 280 13:24 25.03.2021
1048 Snow 1 993 80 10000 3.09 0 12:46 25.03.2021
1049 Snow 1 993 86 10000 2.57 0 12:22 25.03.2021
1050 Snow 1 991 80 700 3.09 0 11:53 25.03.2021
1051 Snow 1 991 80 700 3.09 0 11:53 25.03.2021
1052 Snow 1 991 80 10000 3.6 0 11:31 25.03.2021
1053 Snow 1 990 75 10000 3.6 0 10:57 25.03.2021
1054 Clouds 1 990 75 10000 3.6 0 10:39 25.03.2021
1055 Snow 0 990 93 9000 1.03 0 10:18 25.03.2021
1056 Snow 0 989 100 800 2.06 0 09:43 25.03.2021
1057 Snow 0 986 100 1000 4.63 0 08:59 25.03.2021
1058 Rain 2 983 93 10000 5.66 260 08:30 25.03.2021
1059 Rain 2 981 100 10000 2.57 250 07:26 25.03.2021
1060 Rain 2 981 93 8000 4.63 260 06:42 25.03.2021
1061 Snow 1 980 100 5000 2.57 280 06:22 25.03.2021
1062 Snow 1 976 100 3000 1.03 0 04:50 25.03.2021
1063 Rain 2 971 75 10000 4.12 70 01:20 25.03.2021
1064 Snow 3 971 65 10000 1.03 0 00:19 25.03.2021
1065 Rain 3 971 70 10000 1.54 0 23:39 24.03.2021
1066 Rain 3 971 65 10000 1.54 0 23:18 24.03.2021
1067 Rain 3 972 65 10000 3.6 210 22:39 24.03.2021
1068 Rain 4 972 60 10000 3.6 220 21:51 24.03.2021
1069 Rain 4 972 60 10000 3.6 220 21:32 24.03.2021
1070 Rain 3 972 70 10000 3.6 230 20:59 24.03.2021
1071 Rain 3 972 70 10000 3.6 230 20:41 24.03.2021
1072 Rain 4 972 60 10000 4.12 220 20:18 24.03.2021
1073 Clouds 4 973 65 10000 3.09 220 19:33 24.03.2021
1074 Clouds 4 973 65 10000 3.09 220 19:33 24.03.2021
1075 Clouds 5 974 60 10000 4.12 230 18:53 24.03.2021
1076 Clouds 5 974 65 10000 3.09 210 18:24 24.03.2021
1077 Clouds 5 975 60 10000 2.57 220 17:53 24.03.2021
1078 Clouds 5 975 60 10000 2.57 220 17:32 24.03.2021
1079 Clouds 3 976 75 10000 7.85 185 16:57 24.03.2021
1080 Clouds 3 976 75 10000 7.85 185 16:39 24.03.2021
1081 Clouds 4 977 70 10000 1.54 20 16:19 24.03.2021
1082 Clouds 5 977 65 10000 1.54 310 15:37 24.03.2021
1083 Clouds 4 977 70 10000 2.57 230 15:18 24.03.2021
1084 Clouds 2 978 80 10000 5.14 230 14:29 24.03.2021
1085 Clouds 3 978 75 10000 5.14 220 13:58 24.03.2021
1086 Clouds 2 979 75 10000 5.14 210 13:28 24.03.2021
1087 Rain 2 979 75 10000 6.17 210 12:50 24.03.2021
1088 Rain 2 980 75 10000 4.63 210 12:30 24.03.2021
1089 Snow 1 981 80 10000 4.63 100 11:54 24.03.2021
1090 Snow 1 981 80 10000 4.63 100 11:36 24.03.2021
1091 Rain 2 982 64 10000 2.06 200 10:49 24.03.2021
1092 Rain 2 983 69 10000 3.09 220 10:28 24.03.2021
1093 Rain 2 983 69 10000 3.09 200 09:54 24.03.2021
1094 Rain 2 984 69 10000 3.09 200 09:31 24.03.2021
1095 Clouds 2 984 69 10000 3.09 200 08:57 24.03.2021
1096 Clouds 2 984 69 10000 1.03 0 08:38 24.03.2021
1097 Snow 1 985 75 10000 3.09 240 07:49 24.03.2021
1098 Clouds 1 985 75 10000 2.57 260 07:19 24.03.2021
1099 Clouds 1 985 75 10000 5.14 280 06:43 24.03.2021
1100 Clouds 2 986 64 10000 7.72 260 02:18 24.03.2021
1101 Clouds 2 985 55 10000 9.26 250 00:42 24.03.2021
1102 Clouds 2 985 64 10000 12.86 240 23:52 23.03.2021
1103 Clouds 2 985 60 10000 11.32 260 23:19 23.03.2021
1104 Clouds 2 984 60 10000 12.35 250 22:50 23.03.2021
1105 Clouds 2 984 64 10000 11.83 250 22:24 23.03.2021
1106 Clouds 2 983 64 10000 18.01 230 21:45 23.03.2021
1107 Clouds 2 983 60 10000 18.01 250 21:26 23.03.2021
1108 Snow 2 982 60 10000 17.49 240 20:46 23.03.2021
1109 Clouds 2 982 60 10000 19.03 240 20:25 23.03.2021
1110 Rain 2 982 60 10000 16.46 240 19:48 23.03.2021
1111 Clouds 2 982 69 9000 17.49 250 19:26 23.03.2021
1112 Clouds 3 981 56 10000 21.61 240 18:46 23.03.2021
1113 Rain 3 980 60 10000 15.95 240 18:22 23.03.2021
1114 Rain 3 980 60 10000 15.95 240 18:22 23.03.2021
1115 Clouds 3 980 65 10000 16.98 250 17:48 23.03.2021
1116 Clouds 3 980 70 10000 20.06 240 17:23 23.03.2021
1117 Clouds 2 981 80 10000 20.58 240 16:42 23.03.2021
1118 Clouds 3 980 70 10000 19.03 240 16:24 23.03.2021
1119 Snow 2 981 69 9000 20.58 250 15:46 23.03.2021
1120 Snow 1 982 86 1000 15.43 240 14:57 23.03.2021
1121 Snow 0 982 93 10000 15.95 240 14:39 23.03.2021
1122 Snow 0 982 93 10000 15.95 240 14:18 23.03.2021
1123 Snow 0 982 100 2500 14.4 240 13:43 23.03.2021
1124 Snow 0 982 100 2500 13.38 240 13:21 23.03.2021
1125 Snow 1 982 86 9000 14.4 240 12:43 23.03.2021
1126 Rain 3 981 65 10000 15.95 240 12:20 23.03.2021
1127 Rain 3 981 65 10000 15.95 240 12:20 23.03.2021
1128 Rain 3 982 65 10000 14.4 240 11:47 23.03.2021
1129 Clouds 1 982 80 10000 14.92 240 10:46 23.03.2021
1130 Clouds 2 982 80 10000 12.86 240 10:26 23.03.2021
1131 Clouds 1 982 93 10000 14.4 250 09:59 23.03.2021
1132 Snow 1 982 93 10000 14.4 250 09:39 23.03.2021
1133 Snow 1 982 86 1000 11.32 250 09:20 23.03.2021
1134 Rain 4 981 65 10000 15.43 240 08:40 23.03.2021
1135 Rain 4 981 65 10000 15.43 240 08:22 23.03.2021
1136 Rain 4 981 70 10000 13.38 240 07:40 23.03.2021
1137 Clouds 4 982 60 10000 15.95 240 07:19 23.03.2021
1138 Clouds 4 982 75 10000 12.86 240 06:33 23.03.2021
1139 Clouds 3 982 75 10000 5.66 210 03:23 23.03.2021
1140 Rain 2 983 75 10000 5.66 210 02:20 23.03.2021
1141 Snow 1 986 80 10000 5.66 210 23:44 22.03.2021
1142 Snow 1 987 80 10000 6.69 210 22:56 22.03.2021
1143 Snow 1 987 80 10000 6.69 210 22:38 22.03.2021
1144 Snow 0 988 86 10000 6.17 210 22:20 22.03.2021
1145 Clouds 0 988 80 9000 7.2 210 21:41 22.03.2021
1146 Snow 0 988 80 5000 7.72 220 21:22 22.03.2021
1147 Snow 0 989 80 6000 5.66 200 20:41 22.03.2021
1148 Snow 0 990 80 6000 8.23 190 20:22 22.03.2021
1149 Snow -2 990 86 5000 8.75 210 19:54 22.03.2021
1150 Snow -2 990 86 5000 8.75 210 19:34 22.03.2021
1151 Snow -1 991 69 10000 7.2 200 18:58 22.03.2021
1152 Snow -1 991 69 10000 7.2 200 18:39 22.03.2021
1153 Snow -1 992 69 10000 6.17 200 18:20 22.03.2021
1154 Snow -1 992 64 10000 6.69 180 17:42 22.03.2021
1155 Snow -1 993 69 10000 3.6 190 17:20 22.03.2021
1156 Snow -1 993 69 10000 4.12 200 16:45 22.03.2021
1157 Clear 0 993 64 10000 4.12 200 16:19 22.03.2021
1158 Clear 0 994 64 10000 3.6 200 15:38 22.03.2021
1159 Clouds 0 994 64 10000 5.14 210 15:18 22.03.2021
1160 Clouds 0 995 64 10000 5.14 210 14:52 22.03.2021
1161 Clouds 0 995 64 10000 5.14 210 14:34 22.03.2021
1162 Snow -2 995 86 10000 7.2 230 13:48 22.03.2021
1163 Snow -2 995 86 10000 7.2 230 13:27 22.03.2021
1164 Snow -1 995 74 10000 5.66 240 12:54 22.03.2021
1165 Snow -1 995 74 10000 5.66 240 12:25 22.03.2021
1166 Snow -1 995 74 10000 6.69 240 11:49 22.03.2021
1167 Snow -1 995 74 10000 6.69 240 11:27 22.03.2021
1168 Snow -1 995 69 10000 6.69 240 10:45 22.03.2021
1169 Snow -1 995 74 10000 4.63 260 10:24 22.03.2021
1170 Clouds -2 995 74 10000 5.66 280 09:46 22.03.2021
1171 Clouds -1 995 69 10000 3.6 250 09:27 22.03.2021
1172 Snow -2 995 74 10000 4.12 270 08:45 22.03.2021
1173 Clouds -3 995 86 10000 2.57 0 08:26 22.03.2021
1174 Snow -2 995 74 10000 5.14 240 07:50 22.03.2021
1175 Snow -3 995 80 10000 3.09 260 07:30 22.03.2021
1176 Snow -3 995 80 4000 5.66 270 06:39 22.03.2021
1177 Snow -3 995 74 10000 5.66 0 02:47 22.03.2021
1178 Snow -3 994 63 10000 4.63 280 00:44 22.03.2021
1179 Snow -3 993 80 10000 7.2 280 23:55 21.03.2021
1180 Snow -4 993 86 6000 4.63 330 23:20 21.03.2021
1181 Snow -3 993 80 10000 9.26 270 22:59 21.03.2021
1182 Snow -3 993 80 10000 9.26 270 22:38 21.03.2021
1183 Snow -3 992 68 10000 6.17 280 21:43 21.03.2021
1184 Snow -3 992 68 10000 5.66 260 21:24 21.03.2021
1185 Snow -3 992 68 9000 5.66 270 20:55 21.03.2021
1186 Snow -3 992 68 9000 5.66 270 20:36 21.03.2021
1187 Snow -4 992 86 10000 2.06 0 20:18 21.03.2021
1188 Snow -4 992 93 9000 8.23 270 19:29 21.03.2021
1189 Snow -3 992 74 10000 3.09 0 18:58 21.03.2021
1190 Snow -3 992 74 10000 3.09 0 18:40 21.03.2021
1191 Snow -2 991 59 10000 4.12 0 18:18 21.03.2021
1192 Snow -2 991 69 10000 5.66 270 17:41 21.03.2021
1193 Snow -2 991 59 10000 5.66 280 17:18 21.03.2021
1194 Snow -3 991 80 10000 2.57 0 16:49 21.03.2021
1195 Snow -3 991 80 9000 3.09 0 16:23 21.03.2021
1196 Snow -2 990 69 10000 2.06 0 15:42 21.03.2021
1197 Snow -2 990 64 5000 2.06 0 15:21 21.03.2021
1198 Snow -2 990 69 1000 5.66 0 14:47 21.03.2021
1199 Snow -3 990 86 10000 5.14 270 14:27 21.03.2021
1200 Snow -3 990 86 500 7.72 280 13:57 21.03.2021
1201 Snow -3 990 86 500 7.72 280 13:39 21.03.2021
1202 Snow -3 989 86 10000 9.26 250 12:43 21.03.2021
1203 Snow -3 989 86 10000 3.6 0 12:25 21.03.2021
1204 Snow -3 989 86 10000 3.6 0 12:25 21.03.2021
1205 Snow -2 988 69 10000 3.6 0 11:41 21.03.2021
1206 Snow -2 988 69 10000 5.14 0 11:21 21.03.2021
1207 Snow -3 988 80 5000 3.09 0 10:45 21.03.2021
1208 Snow -3 988 86 1600 2.06 0 10:27 21.03.2021
1209 Clouds -2 987 74 10000 3.09 0 09:50 21.03.2021
1210 Snow -2 987 74 10000 3.09 0 09:32 21.03.2021
1211 Snow -2 986 69 10000 5.66 270 08:57 21.03.2021
1212 Snow -2 986 69 10000 5.66 270 08:36 21.03.2021
1213 Snow -3 986 86 3100 6.69 270 08:18 21.03.2021
1214 Snow -2 985 74 10000 4.63 0 07:29 21.03.2021
1215 Snow -2 985 74 8000 2.06 0 06:21 21.03.2021
1216 Snow -2 984 86 3100 5.14 360 04:56 21.03.2021
1217 Snow 0 983 69 10000 3.09 0 00:58 21.03.2021
1218 Snow 0 983 69 10000 3.09 0 00:39 21.03.2021
1219 Snow 0 982 80 10000 4.12 0 00:20 21.03.2021
1220 Snow 0 982 74 10000 3.6 340 23:45 20.03.2021
1221 Snow -1 982 93 7000 3.6 0 23:20 20.03.2021
1222 Snow -1 981 100 7000 3.6 270 22:24 20.03.2021
1223 Snow -1 981 93 400 7.72 290 21:58 20.03.2021
1224 Snow -1 981 93 400 7.72 290 21:40 20.03.2021
1225 Clouds 0 981 80 10000 5.14 260 21:21 20.03.2021
1226 Snow 0 981 74 10000 5.14 240 20:41 20.03.2021
1227 Snow -1 981 86 10000 3.09 250 20:21 20.03.2021
1228 Clouds 0 981 80 10000 5.66 270 19:41 20.03.2021
1229 Clouds 0 981 74 10000 5.66 240 19:23 20.03.2021
1230 Snow -1 982 86 10000 4.63 240 18:46 20.03.2021
1231 Clouds -1 982 93 10000 4.63 240 18:24 20.03.2021
1232 Clouds -1 982 93 10000 5.14 240 17:48 20.03.2021
1233 Clouds 0 982 86 10000 5.14 220 17:26 20.03.2021
1234 Clouds 0 983 86 10000 4.12 240 16:44 20.03.2021
1235 Clouds 0 983 86 10000 5.14 230 16:20 20.03.2021
1236 Clouds -1 983 100 10000 4.12 240 15:56 20.03.2021
1237 Clouds -1 983 100 10000 4.12 240 15:38 20.03.2021
1238 Snow 0 984 80 10000 5.14 280 14:45 20.03.2021
1239 Snow 0 985 80 2300 5.66 250 14:23 20.03.2021
1240 Clouds 0 985 74 10000 6.17 260 13:33 20.03.2021
1241 Snow 0 986 80 10000 8.23 270 12:51 20.03.2021
1242 Clouds 0 986 80 10000 8.75 270 12:26 20.03.2021
1243 Snow 1 986 69 10000 7.2 270 11:46 20.03.2021
1244 Snow 0 987 80 10000 6.69 250 11:28 20.03.2021
1245 Snow 0 987 74 10000 7.2 250 10:55 20.03.2021
1246 Snow 0 987 86 10000 7.2 260 10:28 20.03.2021
1247 Snow -1 988 86 10000 7.72 260 09:56 20.03.2021
1248 Snow -1 988 93 4000 8.75 280 09:27 20.03.2021
1249 Snow 0 988 80 1500 8.75 260 08:56 20.03.2021
1250 Snow -1 988 93 2700 7.72 260 08:30 20.03.2021
1251 Snow 0 988 80 10000 7.2 250 07:52 20.03.2021
1252 Snow 0 988 80 10000 6.17 260 07:32 20.03.2021
1253 Snow 0 988 74 10000 8.75 280 06:52 20.03.2021
1254 Snow 0 988 74 10000 7.72 260 06:19 20.03.2021
1255 Snow 0 989 74 10000 11.32 270 03:59 20.03.2021
1256 Snow 0 989 74 10000 11.32 270 03:41 20.03.2021
1257 Rain 3 989 81 10000 12.86 240 23:58 19.03.2021
1258 Rain 3 989 81 10000 10.29 240 23:31 19.03.2021
1259 Snow 3 989 81 10000 12.35 240 22:49 19.03.2021
1260 Clouds 3 989 81 10000 12.35 240 22:28 19.03.2021
1261 Snow 3 990 81 10000 11.83 240 21:56 19.03.2021
1262 Rain 4 989 75 10000 14.4 240 21:22 19.03.2021
1263 Rain 3 990 81 10000 13.89 240 20:59 19.03.2021
1264 Clouds 3 990 81 10000 13.89 240 20:40 19.03.2021
1265 Clouds 4 990 75 10000 13.38 240 20:21 19.03.2021
1266 Clouds 4 990 75 10000 9.77 240 19:46 19.03.2021
1267 Clouds 4 990 75 9000 12.86 240 19:20 19.03.2021
1268 Rain 4 990 81 9000 12.35 240 18:40 19.03.2021
1269 Clouds 3 991 87 10000 13.89 250 18:20 19.03.2021
1270 Clouds 3 990 81 10000 13.38 240 17:55 19.03.2021
1271 Rain 3 991 81 10000 14.4 230 17:30 19.03.2021
1272 Rain 3 992 81 10000 11.83 240 16:55 19.03.2021
1273 Rain 3 993 81 10000 13.38 230 16:29 19.03.2021
1274 Rain 3 994 81 10000 12.86 230 15:55 19.03.2021
1275 Rain 3 995 75 10000 12.86 230 15:26 19.03.2021
1276 Clouds 3 996 75 10000 12.35 230 14:47 19.03.2021
1277 Clouds 3 997 75 10000 12.35 230 14:27 19.03.2021
1278 Clouds 3 997 70 10000 12.86 230 13:40 19.03.2021
1279 Snow 0 998 69 10000 8.23 210 12:57 19.03.2021
1280 Snow 0 998 69 10000 8.23 210 12:35 19.03.2021
1281 Snow -2 999 80 10000 11.32 210 11:44 19.03.2021
1282 Snow -4 1002 86 10000 7.2 210 10:54 19.03.2021
1283 Clouds -4 1003 80 10000 6.69 200 10:31 19.03.2021
1284 Snow -5 1004 80 10000 6.69 200 09:49 19.03.2021
1285 Snow -5 1004 74 9000 8.75 200 09:30 19.03.2021
1286 Snow -4 1006 58 5000 7.72 200 08:58 19.03.2021
1287 Snow -4 1006 58 5000 7.72 200 08:39 19.03.2021
1288 Snow -4 1007 58 10000 8.23 200 08:18 19.03.2021
1289 Snow -5 1010 63 10000 7.72 200 07:37 19.03.2021
1290 Snow -5 1012 63 10000 9.26 200 06:52 19.03.2021
1291 Mist -6 1018 68 10000 6.69 190 03:34 19.03.2021
1292 Clear -6 1023 73 10000 4.12 200 00:58 19.03.2021
1293 Clear -6 1025 73 10000 2.06 190 23:49 18.03.2021
1294 Clear -6 1026 79 10000 2.06 200 23:26 18.03.2021
1295 Clear -6 1026 73 10000 2.06 190 22:41 18.03.2021
1296 Clear -7 1026 73 10000 1.54 0 22:22 18.03.2021
1297 Clear -6 1027 68 10000 1.03 0 21:39 18.03.2021
1298 Clear -7 1027 86 10000 4.59 171 20:54 18.03.2021
1299 Clear -7 1027 86 10000 4.59 171 20:35 18.03.2021
1300 Clouds -7 1028 79 10000 0.51 0 19:59 18.03.2021
1301 Clouds -7 1028 79 10000 0.51 0 19:41 18.03.2021
1302 Clouds -8 1028 86 10000 0.51 0 19:20 18.03.2021
1303 Clouds -7 1028 73 10000 1.03 0 18:35 18.03.2021
1304 Clouds -8 1028 79 10000 1.54 50 17:51 18.03.2021
1305 Clouds -6 1028 73 10000 2.07 152 17:26 18.03.2021
1306 Clouds -5 1028 74 10000 1.54 0 16:50 18.03.2021
1307 Clouds -5 1028 74 10000 2.06 30 16:31 18.03.2021
1308 Clouds -4 1027 68 10000 1.54 0 15:49 18.03.2021
1309 Clouds -3 1027 68 10000 1.03 0 15:30 18.03.2021
1310 Clouds -2 1027 64 10000 2.58 102 14:59 18.03.2021
1311 Clouds -2 1027 64 10000 2.58 102 14:40 18.03.2021
1312 Clouds -4 1026 74 10000 2.06 50 13:56 18.03.2021
1313 Clouds -3 1026 68 10000 1.54 70 13:27 18.03.2021
1314 Clouds -3 1026 68 10000 2.06 60 12:47 18.03.2021
1315 Clouds -3 1025 74 10000 1.54 0 12:28 18.03.2021
1316 Snow -3 1025 68 10000 2.06 50 11:55 18.03.2021
1317 Snow -3 1025 68 10000 2.06 50 11:34 18.03.2021
1318 Clouds -3 1025 68 10000 6.69 60 10:57 18.03.2021
1319 Clouds -3 1025 68 10000 6.69 60 10:38 18.03.2021
1320 Clouds -4 1024 80 10000 1.54 0 10:20 18.03.2021
1321 Snow -5 1024 86 10000 0.51 0 09:30 18.03.2021
1322 Clouds -4 1023 80 10000 1.03 0 08:59 18.03.2021
1323 Clouds -4 1023 80 10000 1.03 0 08:41 18.03.2021
1324 Clouds -5 1023 86 10000 3.6 60 08:23 18.03.2021
1325 Clouds -4 1023 80 10000 5.14 50 07:43 18.03.2021
1326 Clouds -5 1022 80 10000 6.17 60 06:40 18.03.2021
1327 Snow -5 1021 74 10000 5.14 30 06:22 18.03.2021
1328 Clouds -5 1021 93 10000 3.09 30 05:25 18.03.2021
1329 Snow -4 1018 80 10000 6.69 50 00:40 18.03.2021
1330 Snow -4 1018 74 10000 7.72 20 23:19 17.03.2021
1331 Snow -3 1017 68 10000 5.66 360 22:38 17.03.2021
1332 Snow -4 1017 74 10000 4.63 10 22:20 17.03.2021
1333 Snow -4 1017 86 10000 3.09 30 21:50 17.03.2021
1334 Snow -4 1017 80 10000 6.17 50 21:31 17.03.2021
1335 Snow -4 1017 68 10000 9.26 10 20:48 17.03.2021
1336 Snow -4 1017 80 10000 5.66 40 20:26 17.03.2021
1337 Snow -4 1017 74 9000 9.77 20 19:58 17.03.2021
1338 Snow -4 1017 74 9000 9.77 20 19:39 17.03.2021
1339 Snow -4 1017 80 9000 7.72 20 19:19 17.03.2021
1340 Snow -4 1017 80 10000 9.26 340 18:47 17.03.2021
1341 Snow -5 1017 93 900 10.8 350 18:29 17.03.2021
1342 Snow -4 1017 80 3000 8.75 360 17:32 17.03.2021
1343 Snow -5 1017 93 2000 8.75 360 16:58 17.03.2021
1344 Snow -5 1017 93 2000 8.75 360 16:39 17.03.2021
1345 Snow -5 1017 93 1300 6.17 360 16:20 17.03.2021
1346 Snow -3 1017 68 10000 7.72 360 15:44 17.03.2021
1347 Snow -3 1017 63 8000 5.14 350 15:25 17.03.2021
1348 Snow -4 1017 68 10000 5.66 0 14:37 17.03.2021
1349 Snow -4 1017 63 10000 6.17 340 14:19 17.03.2021
1350 Snow -4 1017 58 10000 6.17 340 13:52 17.03.2021
1351 Snow -4 1017 63 10000 7.2 350 13:24 17.03.2021
1352 Snow -4 1017 68 10000 3.09 0 12:43 17.03.2021
1353 Snow -5 1017 86 7000 1.54 0 12:25 17.03.2021
1354 Snow -6 1018 86 1800 4.12 340 11:40 17.03.2021
1355 Snow -6 1018 79 8000 5.14 280 11:20 17.03.2021
1356 Snow -6 1017 79 10000 5.14 0 10:50 17.03.2021
1357 Snow -6 1018 73 2500 1.03 0 10:23 17.03.2021
1358 Snow -6 1018 68 5000 3.6 0 09:46 17.03.2021
1359 Snow -7 1017 73 9000 2.06 0 09:20 17.03.2021
1360 Snow -7 1018 68 10000 3.6 330 08:47 17.03.2021
1361 Snow -7 1018 68 9000 5.66 350 08:27 17.03.2021
1362 Snow -7 1018 63 10000 4.12 320 07:43 17.03.2021
1363 Snow -8 1018 73 10000 3.6 340 06:59 17.03.2021
1364 Clouds -8 1018 73 10000 6.69 340 06:29 17.03.2021
1365 Snow -7 1018 73 500 1.54 0 04:18 17.03.2021
1366 Snow -7 1017 73 10000 4.63 350 02:41 17.03.2021
1367 Snow -7 1017 79 10000 4.12 0 00:39 17.03.2021
1368 Snow -7 1017 73 7000 5.66 350 23:27 16.03.2021
1369 Snow -7 1017 73 7000 4.12 0 22:46 16.03.2021
1370 Snow -7 1017 73 10000 9.26 340 22:28 16.03.2021
1371 Snow -7 1017 73 10000 8.23 340 21:45 16.03.2021
1372 Snow -7 1017 68 10000 8.23 350 21:26 16.03.2021
1373 Snow -7 1017 73 10000 8.23 350 20:58 16.03.2021
1374 Snow -7 1017 73 10000 6.17 360 20:20 16.03.2021
1375 Snow -7 1017 68 9000 6.17 360 19:52 16.03.2021
1376 Snow -7 1017 68 9000 6.17 360 19:34 16.03.2021
1377 Snow -7 1017 73 8000 8.75 350 18:59 16.03.2021
1378 Snow -7 1017 73 8000 8.75 350 18:40 16.03.2021
1379 Snow -6 1017 63 9000 8.23 360 18:20 16.03.2021
1380 Snow -7 1017 79 10000 6.69 360 17:45 16.03.2021
1381 Snow -7 1017 79 5000 7.2 360 17:24 16.03.2021
1382 Snow -6 1017 79 4000 7.72 360 16:50 16.03.2021
1383 Snow -6 1017 79 4500 5.66 350 16:26 16.03.2021
1384 Snow -6 1017 79 4000 4.63 360 15:46 16.03.2021
1385 Snow -6 1017 73 800 3.6 0 15:21 16.03.2021
1386 Snow -6 1017 63 10000 4.63 330 14:57 16.03.2021
1387 Snow -6 1017 63 10000 4.63 330 14:39 16.03.2021
1388 Snow -6 1017 63 10000 3.09 330 14:19 16.03.2021
1389 Snow -5 1017 54 10000 5.14 320 13:46 16.03.2021
1390 Snow -6 1017 63 10000 6.17 360 13:23 16.03.2021
1391 Snow -6 1016 63 10000 5.66 360 12:50 16.03.2021
1392 Snow -6 1016 68 10000 7.72 360 12:31 16.03.2021
1393 Clouds -6 1016 68 10000 5.14 350 11:43 16.03.2021
1394 Snow -6 1016 68 10000 4.12 350 11:22 16.03.2021
1395 Snow -6 1015 68 10000 5.66 350 10:28 16.03.2021
1396 Snow -6 1015 68 10000 5.66 350 09:57 16.03.2021
1397 Snow -6 1015 68 10000 5.66 350 09:36 16.03.2021
1398 Snow -6 1015 73 10000 6.69 360 09:18 16.03.2021
1399 Snow -5 1014 68 10000 5.66 360 08:40 16.03.2021
1400 Snow -5 1014 68 10000 6.17 10 08:20 16.03.2021
1401 Snow -5 1014 68 10000 5.66 10 07:36 16.03.2021
1402 Snow -4 1013 68 10000 6.17 10 06:40 16.03.2021
1403 Snow -4 1012 74 10000 6.17 20 05:52 16.03.2021
1404 Snow -4 1012 74 10000 6.17 20 05:34 16.03.2021
1405 Snow -4 1009 93 1000 1.03 0 02:45 16.03.2021
1406 Clouds -4 1009 86 10000 3.91 245 02:24 16.03.2021
1407 Clear -5 1007 80 10000 2.87 213 23:59 15.03.2021
1408 Clear -5 1007 86 10000 2.57 194 23:29 15.03.2021
1409 Clear -6 1007 79 10000 1.03 0 22:53 15.03.2021
1410 Clear -6 1007 79 10000 1.03 0 22:34 15.03.2021
1411 Clear -4 1006 80 10000 1.03 40 21:55 15.03.2021
1412 Clear -4 1006 80 10000 1.03 40 21:36 15.03.2021
1413 Clear -3 1006 80 10000 1.54 30 21:18 15.03.2021
1414 Clouds -5 1006 86 10000 1.54 0 20:43 15.03.2021
1415 Clouds -3 1006 80 10000 2.57 30 20:24 15.03.2021
1416 Clouds -3 1006 74 10000 3.6 70 19:51 15.03.2021
1417 Clouds -3 1006 74 10000 3.6 70 19:33 15.03.2021
1418 Clouds -3 1005 80 10000 3.6 30 18:57 15.03.2021
1419 Clouds -3 1005 80 10000 3.6 30 18:32 15.03.2021
1420 Snow -2 1004 80 10000 6.69 70 17:56 15.03.2021
1421 Snow -2 1004 80 10000 6.69 70 17:38 15.03.2021
1422 Snow -2 1004 80 10000 8.75 60 17:19 15.03.2021
1423 Snow -2 1004 80 10000 9.26 60 16:41 15.03.2021
1424 Snow -2 1004 86 10000 6.69 70 15:48 15.03.2021
1425 Snow -1 1003 80 9000 7.2 70 15:27 15.03.2021
1426 Snow -1 1003 80 10000 7.2 80 14:46 15.03.2021
1427 Snow -2 1003 86 10000 8.23 70 14:28 15.03.2021
1428 Snow -2 1002 93 10000 8.23 70 13:58 15.03.2021
1429 Snow -2 1002 93 10000 8.23 70 13:35 15.03.2021
1430 Snow -2 1002 93 2500 8.23 70 12:51 15.03.2021
1431 Snow -2 1001 93 2500 6.69 70 12:20 15.03.2021
1432 Snow -2 1001 93 2000 7.2 70 11:58 15.03.2021
1433 Snow -2 1001 93 2000 7.2 70 11:40 15.03.2021
1434 Snow -2 1001 93 3500 7.72 70 11:21 15.03.2021
1435 Snow -2 1000 93 4000 7.72 70 10:34 15.03.2021
1436 Snow -2 1000 86 5000 6.69 70 09:59 15.03.2021
1437 Snow -2 1000 86 5000 6.69 70 09:40 15.03.2021
1438 Snow -2 999 86 6000 5.66 70 09:20 15.03.2021
1439 Snow -2 999 86 6000 5.14 70 08:42 15.03.2021
1440 Snow -3 999 93 9000 5.14 80 08:21 15.03.2021
1441 Snow -3 998 93 8000 5.66 60 07:33 15.03.2021
1442 Snow -3 997 93 8000 7.72 70 06:48 15.03.2021
1443 Snow -3 997 86 8000 6.17 70 05:36 15.03.2021
1444 Snow -4 996 86 10000 3.09 40 03:20 15.03.2021
1445 Snow -4 995 93 10000 3.6 40 00:27 15.03.2021
1446 Snow -4 995 93 10000 3.6 40 23:23 14.03.2021
1447 Snow -4 994 93 10000 3.6 40 22:49 14.03.2021
1448 Snow -4 994 100 10000 3.09 40 22:28 14.03.2021
1449 Snow -4 994 100 10000 3.09 40 22:28 14.03.2021
1450 Snow -4 994 100 10000 3.09 50 21:53 14.03.2021
1451 Snow -4 994 100 7000 3.09 40 21:24 14.03.2021
1452 Snow -4 994 100 7000 3.09 40 20:52 14.03.2021
1453 Snow -4 994 100 7000 3.09 40 20:52 14.03.2021
1454 Snow -4 994 100 5000 2.57 50 20:29 14.03.2021
1455 Snow -3 993 93 4500 3.09 40 19:59 14.03.2021
1456 Snow -3 993 93 4500 3.09 40 19:41 14.03.2021
1457 Snow -3 993 93 3000 3.09 50 19:18 14.03.2021
1458 Snow -3 993 93 3000 3.09 50 19:18 14.03.2021
1459 Snow -3 993 93 3500 3.09 50 18:36 14.03.2021
1460 Snow -3 992 86 7000 3.6 40 17:54 14.03.2021
1461 Snow -3 992 86 7000 4.12 50 17:36 14.03.2021
1462 Snow -3 992 86 7000 4.12 50 17:18 14.03.2021
1463 Snow -3 992 86 9000 3.6 50 16:40 14.03.2021
1464 Snow -3 992 86 8000 3.09 50 16:20 14.03.2021
1465 Snow -3 992 86 8000 3.6 40 15:45 14.03.2021
1466 Snow -2 991 80 9000 3.09 60 14:52 14.03.2021
1467 Snow -2 991 80 10000 3.6 60 14:31 14.03.2021
1468 Snow -2 991 80 10000 4.12 60 13:55 14.03.2021
1469 Snow -2 991 80 9000 4.12 60 13:36 14.03.2021
1470 Clouds -2 990 80 10000 3.6 50 12:59 14.03.2021
1471 Snow -2 990 80 10000 3.6 50 12:41 14.03.2021
1472 Snow -2 990 80 10000 4.12 60 12:22 14.03.2021
1473 Snow -2 990 80 10000 3.6 60 11:39 14.03.2021
1474 Snow -2 990 80 10000 2.57 40 11:19 14.03.2021
1475 Snow -2 990 80 10000 2.06 70 10:38 14.03.2021
1476 Snow -2 990 80 10000 2.57 110 10:20 14.03.2021
1477 Clouds -2 989 80 10000 2.57 80 09:57 14.03.2021
1478 Clouds -2 989 80 10000 2.57 80 09:39 14.03.2021
1479 Clouds -2 989 80 10000 3.09 120 09:20 14.03.2021
1480 Snow -3 989 86 10000 2.06 60 08:37 14.03.2021
1481 Snow -3 988 86 10000 2.06 50 07:58 14.03.2021
1482 Clouds -3 988 86 10000 2.57 70 07:28 14.03.2021
1483 Clouds -3 988 86 10000 2.06 90 05:38 14.03.2021
1484 Clouds -3 987 86 10000 2.06 40 01:27 14.03.2021
1485 Clouds -3 987 86 10000 2.57 40 00:20 14.03.2021
1486 Clouds -4 987 93 10000 2.06 50 23:59 13.03.2021
1487 Clouds -4 987 93 10000 2.06 50 23:40 13.03.2021
1488 Clouds -3 986 86 10000 1.03 0 23:19 13.03.2021
1489 Clouds -4 986 93 10000 1.54 40 22:46 13.03.2021
1490 Clouds -4 986 93 10000 1.69 123 22:21 13.03.2021
1491 Clouds -4 986 86 10000 1.69 123 21:35 13.03.2021
1492 Clouds -4 986 86 10000 1.77 129 20:59 13.03.2021
1493 Clouds -4 986 86 10000 1.77 129 20:41 13.03.2021
1494 Clouds -4 986 86 10000 1.88 135 20:23 13.03.2021
1495 Clouds -4 986 86 10000 1.88 135 19:40 13.03.2021
1496 Snow -4 986 86 10000 1.03 0 19:22 13.03.2021
1497 Snow -4 985 86 10000 1.03 0 18:42 13.03.2021
1498 Clouds -4 985 86 10000 2.28 151 18:20 13.03.2021
1499 Snow -4 985 86 9000 0.51 0 17:51 13.03.2021
1500 Snow -4 985 86 9000 0.51 0 17:32 13.03.2021
1501 Clouds -4 985 86 5000 1.03 0 16:55 13.03.2021
1502 Clouds -4 985 86 5000 1.03 0 16:37 13.03.2021
1503 Snow -4 985 80 9000 3.6 200 15:56 13.03.2021
1504 Clouds -4 985 74 10000 3.6 200 15:19 13.03.2021
1505 Clouds -4 984 74 10000 3.6 200 14:42 13.03.2021
1506 Clouds -4 984 68 10000 3.6 190 14:23 13.03.2021
1507 Clouds -4 984 68 10000 4.12 200 13:30 13.03.2021
1508 Clear -4 984 68 10000 3.6 200 12:54 13.03.2021
1509 Clear -4 984 68 10000 3.6 200 12:36 13.03.2021
1510 Clouds -4 984 68 10000 4.12 200 11:58 13.03.2021
1511 Clouds -4 984 68 10000 4.12 200 11:39 13.03.2021
1512 Clouds -4 984 68 10000 2.57 190 11:20 13.03.2021
1513 Clouds -5 984 74 10000 3.6 200 10:36 13.03.2021
1514 Clouds -5 984 68 10000 3.09 120 10:18 13.03.2021
1515 Clouds -6 984 73 10000 4.12 130 09:33 13.03.2021
1516 Clouds -5 984 68 10000 5.66 140 08:55 13.03.2021
1517 Clouds -5 984 68 10000 5.66 140 08:36 13.03.2021
1518 Clouds -6 984 73 10000 4.63 140 08:18 13.03.2021
1519 Clouds -6 983 73 10000 5.14 140 07:39 13.03.2021
1520 Clouds -6 983 73 10000 2.06 160 05:31 13.03.2021
1521 Clouds -5 983 68 10000 4.12 140 02:42 13.03.2021
1522 Clouds -5 983 74 10000 5.14 140 00:37 13.03.2021
1523 Clouds -5 983 74 10000 5.66 130 23:48 12.03.2021
1524 Clouds -5 984 74 10000 5.66 140 23:30 12.03.2021
1525 Clouds -5 984 74 10000 5.66 130 22:42 12.03.2021
1526 Clear -6 983 79 10000 4.63 110 22:22 12.03.2021
1527 Clear -6 983 73 10000 4.12 110 21:39 12.03.2021
1528 Clear -6 983 79 10000 3.6 120 21:21 12.03.2021
1529 Clear -6 983 73 10000 4.63 110 20:55 12.03.2021
1530 Clear -5 983 68 10000 2.06 150 20:31 12.03.2021
1531 Clouds -5 983 74 10000 5.14 110 19:54 12.03.2021
1532 Clouds -5 983 74 10000 5.14 110 19:34 12.03.2021
1533 Clouds -5 983 80 10000 2.57 90 18:55 12.03.2021
1534 Clouds -5 983 80 10000 2.57 90 18:34 12.03.2021
1535 Clouds -4 983 86 10000 2.06 70 17:47 12.03.2021
1536 Clouds -4 983 86 10000 2.06 60 17:29 12.03.2021
1537 Clouds -4 983 86 10000 1.54 40 16:55 12.03.2021
1538 Clouds -4 983 86 10000 1.54 40 16:34 12.03.2021
1539 Snow -4 983 80 10000 1.54 70 15:51 12.03.2021
1540 Snow -3 983 74 10000 1.03 0 15:25 12.03.2021
1541 Clouds -3 983 74 10000 4.06 144 14:47 12.03.2021
1542 Clouds -3 983 68 10000 4.25 152 14:20 12.03.2021
1543 Clouds -3 983 63 10000 0.51 0 13:42 12.03.2021
1544 Snow -3 982 68 10000 4.14 159 13:21 12.03.2021
1545 Snow -3 982 68 10000 3.91 155 12:56 12.03.2021
1546 Clouds -3 982 68 10000 3.91 155 12:36 12.03.2021
1547 Clouds -3 982 68 10000 0.51 0 12:18 12.03.2021
1548 Clouds -3 982 68 10000 1.54 260 11:47 12.03.2021
1549 Clouds -3 982 68 10000 2.57 230 11:19 12.03.2021
1550 Clouds -3 982 63 10000 1.03 0 10:45 12.03.2021
1551 Clouds -3 982 63 10000 1.54 240 10:22 12.03.2021
1552 Clouds -3 981 59 10000 4.32 163 09:48 12.03.2021
1553 Clear -5 981 68 10000 1.03 0 09:19 12.03.2021
1554 Clear -5 982 63 10000 0.51 0 08:40 12.03.2021
1555 Clear -6 982 73 10000 0.51 0 07:54 12.03.2021
1556 Clear -6 982 73 10000 1.54 10 07:31 12.03.2021
1557 Clear -6 981 73 10000 2.06 40 06:45 12.03.2021
1558 Clouds -6 981 73 10000 0.51 0 05:56 12.03.2021
1559 Clear -4 982 63 10000 3.09 190 00:59 12.03.2021
1560 Clear -5 983 74 10000 4.63 200 23:59 11.03.2021
1561 Clear -4 983 68 10000 4.12 210 23:19 11.03.2021
1562 Snow -5 983 74 10000 5.66 210 22:41 11.03.2021
1563 Snow -5 984 74 10000 6.17 200 22:21 11.03.2021
1564 Snow -5 984 74 10000 5.66 200 21:46 11.03.2021
1565 Snow -5 984 68 10000 7.2 200 21:26 11.03.2021
1566 Snow -4 984 63 10000 4.63 200 20:49 11.03.2021
1567 Snow -4 984 68 10000 3.09 0 20:23 11.03.2021
1568 Snow -4 984 68 10000 3.6 220 19:56 11.03.2021
1569 Snow -4 984 68 10000 3.6 220 19:36 11.03.2021
1570 Snow -4 985 68 10000 7.2 210 18:54 11.03.2021
1571 Snow -4 986 63 10000 5.14 200 18:35 11.03.2021
1572 Snow -5 986 68 10000 3.6 0 17:54 11.03.2021
1573 Snow -5 986 68 10000 3.6 0 17:36 11.03.2021
1574 Snow -3 987 59 10000 4.12 210 16:38 11.03.2021
1575 Snow -4 987 63 10000 7.2 210 16:19 11.03.2021
1576 Clear -4 987 63 10000 6.17 220 15:44 11.03.2021
1577 Clear -4 988 58 10000 3.6 220 15:20 11.03.2021
1578 Clear -4 988 58 10000 4.63 220 14:45 11.03.2021
1579 Clear -7 989 63 10000 1.54 0 14:18 11.03.2021
1580 Clear -6 990 58 10000 0.51 0 13:45 11.03.2021
1581 Clear -5 990 54 10000 1.03 0 13:22 11.03.2021
1582 Clear -8 991 62 10000 1.54 70 12:55 11.03.2021
1583 Clear -6 991 53 10000 5.65 188 12:30 11.03.2021
1584 Clear -6 991 53 10000 5.65 188 12:30 11.03.2021
1585 Clear -6 992 58 10000 1.03 0 11:48 11.03.2021
1586 Clear -6 992 53 10000 1.03 0 11:30 11.03.2021
1587 Clear -8 993 57 10000 5.66 210 10:57 11.03.2021
1588 Clear -8 993 57 10000 1.54 250 10:28 11.03.2021
1589 Clear -8 993 57 10000 3.6 220 09:53 11.03.2021
1590 Clear -8 993 57 10000 3.6 220 09:33 11.03.2021
1591 Clear -9 994 62 10000 2.06 210 08:51 11.03.2021
1592 Clear -9 994 62 10000 2.06 210 08:32 11.03.2021
1593 Clear -9 995 62 10000 3.6 240 07:50 11.03.2021
1594 Clear -9 995 62 10000 2.57 240 07:21 11.03.2021
1595 Clear -8 996 57 10000 1.54 210 06:47 11.03.2021
1596 Clear -8 996 57 10000 4.12 210 06:23 11.03.2021
1597 Clear -8 998 53 10000 1.03 0 02:31 11.03.2021
1598 Clear -6 1000 45 10000 2.06 0 00:33 11.03.2021
1599 Clear -6 1000 45 10000 2.06 0 00:33 11.03.2021
1600 Clear -6 1002 42 10000 1.54 0 23:23 10.03.2021
1601 Clear -6 1003 45 10000 1.54 0 22:43 10.03.2021
1602 Clear -6 1003 45 10000 1.03 0 22:21 10.03.2021
1603 Clear -6 1004 45 10000 3.6 230 21:44 10.03.2021
1604 Clear -6 1004 45 10000 3.6 230 21:44 10.03.2021
1605 Clear -7 1004 49 10000 4.63 240 21:22 10.03.2021
1606 Clear -7 1005 45 10000 2.57 250 20:46 10.03.2021
1607 Clear -9 1005 57 10000 2.06 250 20:27 10.03.2021
1608 Clear -9 1006 57 10000 1.54 0 19:48 10.03.2021
1609 Clear -9 1006 57 10000 1.54 0 19:27 10.03.2021
1610 Clear -9 1007 57 10000 5.1 173 18:46 10.03.2021
1611 Clear -7 1007 53 10000 2.06 250 18:24 10.03.2021
1612 Clear -7 1007 53 10000 2.06 250 18:24 10.03.2021
1613 Clear -7 1007 53 10000 2.06 250 18:24 10.03.2021
1614 Clear -7 1007 58 10000 1.54 0 17:55 10.03.2021
1615 Clear -7 1007 58 10000 1.54 0 17:37 10.03.2021
1616 Clear -8 1008 57 10000 0.51 0 17:19 10.03.2021
1617 Clear -8 1008 57 10000 1.54 50 16:42 10.03.2021
1618 Clear -8 1009 57 10000 4.3 170 16:22 10.03.2021
1619 Clear -7 1009 53 10000 4.3 170 15:45 10.03.2021
1620 Clear -6 1010 53 10000 2.06 270 15:23 10.03.2021
1621 Clear -7 1010 58 10000 2.06 260 14:48 10.03.2021
1622 Clear -6 1010 53 10000 2.06 260 14:20 10.03.2021
1623 Clear -6 1010 53 10000 2.06 260 14:20 10.03.2021
1624 Clear -6 1010 53 10000 2.06 260 14:20 10.03.2021
1625 Clear -5 1011 54 10000 2.06 260 13:51 10.03.2021
1626 Clear -6 1011 58 10000 2.06 260 13:30 10.03.2021
1627 Clear -6 1012 53 10000 2.06 260 12:46 10.03.2021
1628 Clear -6 1012 58 10000 2.06 270 12:19 10.03.2021
1629 Clear -6 1012 58 10000 1.54 250 11:43 10.03.2021
1630 Clear -7 1012 63 10000 2.57 250 11:19 10.03.2021
1631 Clear -7 1013 63 10000 3.09 250 10:46 10.03.2021
1632 Clear -8 1013 57 10000 3.87 171 10:28 10.03.2021
1633 Clear -7 1013 58 10000 2.57 250 09:45 10.03.2021
1634 Clear -8 1013 62 10000 2.06 250 09:27 10.03.2021
1635 Clear -8 1014 62 10000 2.57 260 08:58 10.03.2021
1636 Clear -8 1014 62 10000 2.57 260 08:40 10.03.2021
1637 Clear -9 1014 62 10000 0.51 0 08:21 10.03.2021
1638 Clear -10 1014 67 10000 4.22 180 07:40 10.03.2021
1639 Clear -9 1014 62 10000 1.03 0 07:18 10.03.2021
1640 Clouds -9 1015 67 10000 2.57 260 06:44 10.03.2021
1641 Clear -10 1017 67 10000 4.04 187 02:42 10.03.2021
1642 Clear -8 1018 67 10000 4.63 210 23:53 09.03.2021
1643 Clear -7 1018 63 10000 4.63 230 23:26 09.03.2021
1644 Clear -8 1018 67 10000 3.6 230 22:47 09.03.2021
1645 Clear -7 1018 63 10000 3.09 240 22:28 09.03.2021
1646 Clear -7 1019 53 10000 3.09 230 21:56 09.03.2021
1647 Clear -7 1019 53 10000 3.09 230 21:37 09.03.2021
1648 Clear -7 1019 53 10000 2.57 250 21:18 09.03.2021
1649 Clear -7 1019 49 10000 2.06 270 20:43 09.03.2021
1650 Clear -7 1019 49 10000 2.06 280 20:21 09.03.2021
1651 Clear -7 1019 45 10000 2.06 320 19:53 09.03.2021
1652 Clear -7 1019 45 10000 2.06 0 19:28 09.03.2021
1653 Clear -8 1020 49 10000 1.03 0 18:54 09.03.2021
1654 Clear -6 1020 45 10000 2.06 0 18:29 09.03.2021
1655 Clear -7 1020 49 10000 2.57 200 17:57 09.03.2021
1656 Clear -7 1020 49 10000 2.57 200 17:35 09.03.2021
1657 Clear -7 1021 58 10000 1.54 40 16:57 09.03.2021
1658 Clear -7 1021 58 10000 1.54 40 16:39 09.03.2021
1659 Clear -6 1021 58 10000 1.54 0 16:19 09.03.2021
1660 Clear -6 1021 63 10000 3.6 210 15:44 09.03.2021
1661 Clear -6 1021 63 10000 3.09 190 15:23 09.03.2021
1662 Clear -6 1021 63 10000 4.12 200 14:40 09.03.2021
1663 Clear -5 1021 58 10000 1.54 0 14:22 09.03.2021
1664 Clear -6 1022 58 10000 1.54 150 13:39 09.03.2021
1665 Clear -6 1022 63 10000 3.09 190 13:20 09.03.2021
1666 Clear -6 1022 63 10000 3.09 190 12:42 09.03.2021
1667 Clear -4 1022 46 10000 0.51 0 12:22 09.03.2021
1668 Clear -6 1022 45 10000 5.27 158 11:42 09.03.2021
1669 Clear -4 1022 42 10000 5.09 157 11:21 09.03.2021
1670 Clear -4 1022 42 10000 5.09 157 11:21 09.03.2021
1671 Clear -4 1022 42 10000 5.09 157 11:21 09.03.2021
1672 Clear -5 1021 46 10000 2.06 120 10:56 09.03.2021
1673 Clear -5 1021 46 10000 2.06 120 10:38 09.03.2021
1674 Clear -5 1021 46 10000 1.03 0 10:19 09.03.2021
1675 Clear -5 1022 50 10000 4.74 157 09:44 09.03.2021
1676 Clear -8 1021 57 10000 1.54 0 09:26 09.03.2021
1677 Clear -7 1021 58 10000 4.48 154 08:48 09.03.2021
1678 Clear -8 1021 62 10000 1.54 0 08:28 09.03.2021
1679 Clear -8 1020 62 10000 1.54 0 07:40 09.03.2021
1680 Clear -8 1020 62 10000 1.54 0 07:21 09.03.2021
1681 Clear -8 1020 57 10000 1.54 40 06:18 09.03.2021
1682 Clear -8 1020 53 10000 1.03 0 05:46 09.03.2021
1683 Clear -9 1018 57 10000 2.57 90 00:38 09.03.2021
1684 Clear -8 1018 57 10000 1.03 0 23:45 08.03.2021
1685 Clear -10 1018 62 10000 1.03 0 23:27 08.03.2021
1686 Clear -10 1017 67 10000 4.13 135 22:55 08.03.2021
1687 Clear -10 1017 67 10000 4.13 135 22:36 08.03.2021
1688 Clear -8 1017 67 10000 1.03 0 22:18 08.03.2021
1689 Clear -8 1017 73 10000 1.54 40 21:35 08.03.2021
1690 Clear -8 1016 67 10000 2.06 10 20:48 08.03.2021
1691 Clear -8 1016 67 10000 4.12 30 20:28 08.03.2021
1692 Clear -7 1016 68 10000 4.12 40 19:59 08.03.2021
1693 Clear -7 1016 68 10000 4.12 40 19:37 08.03.2021
1694 Clear -7 1015 63 10000 3.09 20 18:48 08.03.2021
1695 Clear -7 1015 68 10000 1.54 40 18:23 08.03.2021
1696 Clear -7 1015 68 10000 1.03 0 17:57 08.03.2021
1697 Clear -7 1015 68 10000 1.03 0 17:38 08.03.2021
1698 Clouds -6 1014 68 10000 1.54 0 16:58 08.03.2021
1699 Clouds -6 1014 68 10000 1.54 0 16:33 08.03.2021
1700 Clear -5 1014 63 10000 2.06 50 15:59 08.03.2021
1701 Clear -5 1014 63 10000 2.06 50 15:38 08.03.2021
1702 Clear -6 1014 63 10000 2.57 60 15:18 08.03.2021
1703 Clear -3 1014 63 10000 1.54 200 14:21 08.03.2021
1704 Clear -3 1013 63 10000 1.54 0 13:47 08.03.2021
1705 Clear -4 1013 68 10000 3.16 197 13:23 08.03.2021
1706 Clouds -4 1013 68 10000 3.63 211 12:55 08.03.2021
1707 Clouds -4 1013 74 10000 3.76 211 12:29 08.03.2021
1708 Clouds -4 1013 74 10000 3.76 211 12:29 08.03.2021
1709 Clouds -4 1013 68 10000 3.76 211 11:45 08.03.2021
1710 Clouds -2 1013 64 10000 3.94 207 11:22 08.03.2021
1711 Clouds -3 1012 68 10000 3.94 207 10:47 08.03.2021
1712 Clouds -4 1012 68 10000 3.77 209 10:28 08.03.2021
1713 Clouds -3 1012 68 10000 0.51 0 09:50 08.03.2021
1714 Clouds -3 1012 68 10000 1.54 0 09:25 08.03.2021
1715 Clouds -3 1012 74 10000 0.51 0 08:32 08.03.2021
1716 Clouds -4 1012 80 10000 1.03 0 07:51 08.03.2021
1717 Clouds -4 1012 80 10000 0.51 0 07:21 08.03.2021
1718 Clouds -4 1012 80 10000 0.51 0 07:21 08.03.2021
1719 Snow -6 1012 68 10000 0.51 0 05:23 08.03.2021
1720 Snow -4 1012 58 10000 1.54 320 02:19 08.03.2021
1721 Snow -5 1012 80 10000 3.09 350 00:42 08.03.2021
1722 Snow -4 1012 58 10000 2.06 300 23:53 07.03.2021
1723 Snow -4 1012 68 10000 1.54 0 23:21 07.03.2021
1724 Snow -4 1012 74 10000 3.09 0 22:47 07.03.2021
1725 Snow -3 1012 50 10000 3.6 280 22:27 07.03.2021
1726 Snow -3 1012 54 10000 3.09 0 21:53 07.03.2021
1727 Snow -3 1012 54 10000 3.09 0 21:33 07.03.2021
1728 Snow -3 1011 63 10000 2.57 0 20:58 07.03.2021
1729 Snow -3 1011 63 10000 2.57 0 20:40 07.03.2021
1730 Snow -3 1011 63 10000 4.12 340 20:18 07.03.2021
1731 Snow -3 1011 63 10000 4.12 320 19:40 07.03.2021
1732 Snow -3 1011 63 10000 4.63 340 19:22 07.03.2021
1733 Snow -3 1011 74 10000 5.14 360 18:54 07.03.2021
1734 Snow -3 1011 74 7000 3.09 0 18:21 07.03.2021
1735 Snow -4 1011 93 500 2.06 330 17:59 07.03.2021
1736 Snow -4 1011 93 500 2.06 330 17:38 07.03.2021
1737 Snow -4 1010 86 10000 3.09 270 17:19 07.03.2021
1738 Snow -3 1010 80 10000 3.6 250 16:43 07.03.2021
1739 Snow -4 1010 80 10000 4.12 280 16:21 07.03.2021
1740 Snow -4 1010 80 10000 4.12 280 16:21 07.03.2021
1741 Snow -3 1010 74 10000 4.12 280 15:50 07.03.2021
1742 Snow -4 1010 86 10000 3.09 20 15:31 07.03.2021
1743 Snow -4 1010 93 600 4.12 330 14:51 07.03.2021
1744 Snow -3 1010 80 4000 5.14 360 14:29 07.03.2021
1745 Snow -3 1010 86 10000 2.57 0 13:48 07.03.2021
1746 Snow -2 1009 69 10000 5.66 350 13:26 07.03.2021
1747 Snow -2 1009 59 10000 4.12 340 12:48 07.03.2021
1748 Snow -2 1009 59 10000 7.2 340 12:30 07.03.2021
1749 Snow -2 1008 59 10000 8.23 340 11:54 07.03.2021
1750 Snow -3 1008 63 10000 6.69 350 11:23 07.03.2021
1751 Snow -3 1008 63 10000 7.2 350 10:54 07.03.2021
1752 Snow -3 1008 63 10000 7.2 350 10:36 07.03.2021
1753 Snow -3 1007 68 7000 8.23 360 09:53 07.03.2021
1754 Snow -3 1006 80 10000 8.23 10 09:27 07.03.2021
1755 Snow -2 1006 74 10000 8.23 10 08:57 07.03.2021
1756 Snow -2 1005 74 8000 8.23 10 08:38 07.03.2021
1757 Snow -2 1005 74 8000 8.23 10 08:20 07.03.2021
1758 Snow -3 1003 74 10000 7.2 20 05:26 07.03.2021
1759 Clouds -3 1001 80 5000 9.26 10 02:33 07.03.2021
1760 Snow -3 999 80 10000 8.23 30 00:33 07.03.2021
1761 Snow -3 998 80 3400 9.77 20 23:40 06.03.2021
1762 Snow -3 998 86 6000 10.8 40 23:20 06.03.2021
1763 Snow -3 997 86 10000 9.77 60 22:45 06.03.2021
1764 Snow -3 996 93 1900 11.83 50 22:21 06.03.2021
1765 Snow -3 996 86 9000 8.23 50 21:46 06.03.2021
1766 Snow -4 995 86 10000 6.69 60 21:20 06.03.2021
1767 Snow -4 994 80 10000 7.72 60 20:42 06.03.2021
1768 Clouds -4 992 80 10000 10.29 70 19:59 06.03.2021
1769 Clouds -4 992 80 10000 10.29 70 19:37 06.03.2021
1770 Snow -4 992 80 7000 11.83 60 19:18 06.03.2021
1771 Snow -4 991 86 2600 12.86 60 18:41 06.03.2021
1772 Snow -4 990 86 6000 10.8 70 18:20 06.03.2021
1773 Snow -3 990 86 6000 9.77 60 17:49 06.03.2021
1774 Snow -2 989 86 2000 5.66 360 17:30 06.03.2021
1775 Snow -2 989 93 3800 2.06 350 16:57 06.03.2021
1776 Snow -2 989 93 3800 2.06 350 16:32 06.03.2021
1777 Snow -3 988 80 10000 2.57 340 15:56 06.03.2021
1778 Snow -3 988 80 10000 2.57 340 15:38 06.03.2021
1779 Snow -3 988 86 4000 5.14 10 15:18 06.03.2021
1780 Snow -2 988 69 10000 2.57 350 14:31 06.03.2021
1781 Snow -2 988 69 10000 3.6 340 13:55 06.03.2021
1782 Snow -2 988 69 10000 3.6 340 13:37 06.03.2021
1783 Snow -2 987 69 10000 2.57 330 13:18 06.03.2021
1784 Snow -2 987 69 10000 2.57 330 12:42 06.03.2021
1785 Clouds -2 987 69 10000 3.6 350 12:18 06.03.2021
1786 Clouds -2 987 69 10000 3.6 350 12:18 06.03.2021
1787 Clouds -2 987 74 10000 4.63 330 11:38 06.03.2021
1788 Snow -2 987 80 9000 2.57 290 11:19 06.03.2021
1789 Clouds -3 987 74 10000 3.09 270 10:43 06.03.2021
1790 Clouds -3 987 80 10000 4.63 290 09:57 06.03.2021
1791 Clouds -3 987 80 10000 4.63 290 09:57 06.03.2021
1792 Snow -3 987 80 10000 9.26 290 09:26 06.03.2021
1793 Snow -3 987 86 9000 7.72 270 08:54 06.03.2021
1794 Snow -3 987 93 7000 6.17 280 08:31 06.03.2021
1795 Snow -3 987 93 1000 5.66 260 07:55 06.03.2021
1796 Snow -3 987 100 200 11.32 280 07:22 06.03.2021
1797 Snow -5 987 100 10000 1.03 0 06:27 06.03.2021
1798 Snow -3 989 100 900 1.03 0 03:49 06.03.2021
1799 Snow -3 991 93 10000 2.57 240 01:42 06.03.2021
1800 Snow -3 993 93 7000 2.06 230 00:46 06.03.2021
1801 Snow -3 993 80 10000 4.12 220 23:49 05.03.2021
1802 Snow -3 994 80 10000 3.6 220 23:19 05.03.2021
1803 Snow -3 994 80 10000 3.6 220 23:19 05.03.2021
1804 Snow -3 994 80 10000 3.09 220 22:44 05.03.2021
1805 Snow -3 995 80 10000 4.12 230 22:22 05.03.2021
1806 Snow -3 995 74 10000 4.63 210 21:51 05.03.2021
1807 Snow -4 996 80 10000 4.63 220 21:31 05.03.2021
1808 Snow -4 996 80 10000 4.63 230 20:50 05.03.2021
1809 Snow -4 997 80 10000 6.17 200 20:26 05.03.2021
1810 Snow -4 997 80 10000 6.17 200 20:26 05.03.2021
1811 Snow -4 998 80 10000 6.69 190 19:55 05.03.2021
1812 Snow -4 998 80 10000 5.14 200 19:26 05.03.2021
1813 Snow -6 1000 93 1500 3.6 190 18:56 05.03.2021
1814 Snow -6 1000 93 1500 3.6 190 18:38 05.03.2021
1815 Snow -5 1000 86 2500 5.14 190 18:18 05.03.2021
1816 Snow -5 1001 80 7000 4.12 160 17:34 05.03.2021
1817 Snow -4 1003 68 10000 4.63 200 16:46 05.03.2021
1818 Snow -4 1003 74 10000 4.63 190 16:24 05.03.2021
1819 Snow -4 1004 74 10000 4.12 190 15:56 05.03.2021
1820 Snow -4 1004 74 10000 4.12 190 15:56 05.03.2021
1821 Snow -4 1004 74 10000 4.12 190 15:37 05.03.2021
1822 Snow -4 1005 63 10000 3.09 180 15:18 05.03.2021
1823 Clouds -4 1005 68 10000 3.6 200 14:38 05.03.2021
1824 Clouds -3 1006 63 10000 4.12 240 13:55 05.03.2021
1825 Clouds -3 1006 63 10000 4.12 240 13:55 05.03.2021
1826 Snow -3 1007 63 10000 3.6 240 13:22 05.03.2021
1827 Snow -3 1007 63 10000 3.09 240 12:49 05.03.2021
1828 Snow -4 1008 68 10000 3.09 270 11:56 05.03.2021
1829 Clouds -4 1008 68 10000 3.09 270 11:36 05.03.2021
1830 Clouds -3 1008 59 10000 1.03 0 11:18 05.03.2021
1831 Clouds -4 1008 63 10000 1.54 320 10:40 05.03.2021
1832 Clouds -4 1008 58 10000 2.57 330 10:22 05.03.2021
1833 Clouds -4 1009 54 10000 3.09 350 09:47 05.03.2021
1834 Clouds -4 1009 54 10000 1.54 0 09:26 05.03.2021
1835 Clouds -4 1009 54 10000 5.14 340 08:41 05.03.2021
1836 Clouds -5 1009 74 10000 5.49 318 08:22 05.03.2021
1837 Snow -5 1009 80 10000 3.6 0 07:43 05.03.2021
1838 Snow -5 1009 80 10000 4.63 300 07:19 05.03.2021
1839 Snow -5 1009 80 10000 5.66 340 06:31 05.03.2021
1840 Snow -5 1009 93 650 4.63 40 01:59 05.03.2021
1841 Snow -5 1009 86 6000 3.09 30 00:34 05.03.2021
1842 Snow -4 1009 86 10000 2.06 350 23:37 04.03.2021
1843 Snow -4 1009 80 10000 4.63 10 22:40 04.03.2021
1844 Snow -4 1009 86 10000 5.14 30 22:22 04.03.2021
1845 Snow -4 1009 93 6000 4.12 360 21:47 04.03.2021
1846 Snow -4 1009 80 3000 6.17 10 21:27 04.03.2021
1847 Snow -5 1009 86 10000 4.12 10 20:41 04.03.2021
1848 Snow -5 1009 86 10000 3.6 10 20:22 04.03.2021
1849 Snow -4 1009 80 4000 7.72 30 19:57 04.03.2021
1850 Snow -4 1009 80 4000 7.72 30 19:38 04.03.2021
1851 Snow -5 1009 86 10000 3.09 30 19:18 04.03.2021
1852 Snow -5 1008 93 10000 6.17 60 18:38 04.03.2021
1853 Snow -6 1008 79 10000 1.03 0 18:20 04.03.2021
1854 Snow -5 1008 86 10000 1.54 0 17:43 04.03.2021
1855 Snow -4 1008 93 1000 3.6 40 17:22 04.03.2021
1856 Snow -4 1008 93 5000 2.57 50 16:44 04.03.2021
1857 Snow -4 1008 93 4000 2.06 270 16:24 04.03.2021
1858 Snow -4 1008 93 9000 2.57 290 15:49 04.03.2021
1859 Snow -4 1007 93 10000 1.54 260 15:31 04.03.2021
1860 Snow -4 1007 86 1500 3.09 330 14:46 04.03.2021
1861 Snow -5 1007 93 10000 2.06 30 14:25 04.03.2021
1862 Snow -4 1007 86 10000 5.66 60 13:46 04.03.2021
1863 Snow -3 1007 86 10000 6.69 40 13:25 04.03.2021
1864 Snow -4 1006 93 3000 7.2 10 12:45 04.03.2021
1865 Snow -4 1006 93 1000 7.72 20 12:25 04.03.2021
1866 Snow -3 1006 86 7000 4.63 340 11:43 04.03.2021
1867 Clouds -3 1006 80 10000 6.17 340 11:22 04.03.2021
1868 Snow -4 1006 93 9000 5.66 340 10:46 04.03.2021
1869 Snow -4 1006 93 700 4.63 330 10:25 04.03.2021
1870 Snow -4 1006 93 2500 6.17 360 09:36 04.03.2021
1871 Snow -4 1006 74 10000 2.57 0 08:56 04.03.2021
1872 Snow -4 1006 74 10000 2.57 0 08:34 04.03.2021
1873 Snow -4 1007 58 10000 4.12 330 07:51 04.03.2021
1874 Snow -4 1006 63 10000 6.17 360 07:19 04.03.2021
1875 Snow -6 1007 93 10000 7.72 330 06:24 04.03.2021
1876 Snow -4 1007 86 10000 11.83 20 02:39 04.03.2021
1877 Snow -4 1006 86 7000 9.26 340 01:32 04.03.2021
1878 Snow -4 1006 93 7000 11.83 20 22:43 03.03.2021
1879 Snow -4 1006 93 600 7.72 360 22:25 03.03.2021
1880 Snow -4 1005 93 400 8.23 10 21:43 03.03.2021
1881 Snow -4 1005 93 300 11.32 10 21:24 03.03.2021
1882 Snow -4 1005 93 4500 4.63 20 20:57 03.03.2021
1883 Snow -4 1005 93 4500 4.63 20 20:39 03.03.2021
1884 Snow -4 1005 86 1800 9.26 10 19:59 03.03.2021
1885 Snow -4 1005 86 1800 9.26 10 19:40 03.03.2021
1886 Snow -3 1005 63 10000 7.72 10 19:20 03.03.2021
1887 Snow -3 1005 63 10000 6.69 10 18:45 03.03.2021
1888 Snow -3 1005 74 8000 7.72 20 18:21 03.03.2021
1889 Snow -3 1005 74 10000 7.2 360 17:43 03.03.2021
1890 Snow -2 1005 69 10000 9.26 10 17:18 03.03.2021
1891 Snow -3 1005 68 10000 5.66 360 16:41 03.03.2021
1892 Snow -3 1005 68 10000 9.26 20 16:22 03.03.2021
1893 Snow -3 1005 74 10000 6.17 20 15:33 03.03.2021
1894 Snow -3 1005 68 10000 7.2 20 14:56 03.03.2021
1895 Snow -3 1005 74 700 6.17 20 14:30 03.03.2021
1896 Snow -3 1004 74 10000 6.69 30 13:52 03.03.2021
1897 Snow -3 1004 68 10000 7.72 10 13:31 03.03.2021
1898 Snow -3 1004 68 10000 8.75 10 12:45 03.03.2021
1899 Snow -3 1003 74 1500 7.72 20 12:26 03.03.2021
1900 Snow -3 1003 68 10000 8.75 20 11:48 03.03.2021
1901 Snow -3 1002 63 10000 8.75 20 11:28 03.03.2021
1902 Snow -3 1002 68 10000 7.2 20 10:50 03.03.2021
1903 Snow -4 1002 86 10000 7.2 10 10:31 03.03.2021
1904 Snow -3 1001 80 10000 5.66 10 09:49 03.03.2021
1905 Snow -3 1001 68 10000 5.66 20 09:31 03.03.2021
1906 Snow -3 1001 63 10000 5.66 20 08:44 03.03.2021
1907 Snow -3 1001 68 10000 5.66 20 08:22 03.03.2021
1908 Snow -3 1001 68 10000 4.12 20 07:41 03.03.2021
1909 Snow -3 1000 74 10000 6.69 30 06:51 03.03.2021
1910 Snow -3 1000 86 8000 7.72 30 05:49 03.03.2021
1911 Snow -3 1000 100 2500 7.72 50 04:59 03.03.2021
1912 Snow -3 1000 100 2500 7.72 50 04:35 03.03.2021
1913 Snow -3 1000 100 800 1.54 0 03:51 03.03.2021
1914 Snow -2 1003 100 3900 1.54 260 23:59 02.03.2021
1915 Snow -1 1003 93 2200 3.09 230 23:31 02.03.2021
1916 Snow -1 1003 93 7000 2.57 230 22:43 02.03.2021
1917 Snow -1 1004 93 5000 1.96 163 22:20 02.03.2021
1918 Snow -2 1004 93 10000 1.96 163 21:41 02.03.2021
1919 Snow -2 1004 93 10000 1.79 121 21:22 02.03.2021
1920 Snow -2 1004 93 10000 0.51 240 20:49 02.03.2021
1921 Snow -2 1005 93 10000 0.51 0 20:23 02.03.2021
1922 Snow -2 1005 93 10000 1.03 290 19:58 02.03.2021
1923 Snow -2 1005 93 10000 1.03 290 19:58 02.03.2021
1924 Snow -2 1005 93 10000 1.03 290 19:39 02.03.2021
1925 Snow -2 1005 93 10000 0.51 0 19:21 02.03.2021
1926 Snow -2 1005 93 10000 1.26 93 18:41 02.03.2021
1927 Snow -2 1005 93 5000 1.54 20 18:21 02.03.2021
1928 Snow -2 1005 93 9000 3.09 20 17:50 02.03.2021
1929 Snow -1 1006 86 9000 4.12 350 17:30 02.03.2021
1930 Snow 0 1005 74 10000 4.12 340 16:57 02.03.2021
1931 Snow 0 1005 74 10000 4.12 340 16:36 02.03.2021
1932 Snow 0 1005 80 10000 3.6 360 15:52 02.03.2021
1933 Snow 0 1005 80 10000 3.6 360 15:52 02.03.2021
1934 Snow -1 1005 93 10000 3.09 10 15:25 02.03.2021
1935 Snow 0 1005 80 10000 4.12 350 14:28 02.03.2021
1936 Snow 0 1005 80 10000 5.14 350 13:59 02.03.2021
1937 Snow 0 1005 80 10000 5.14 350 13:39 02.03.2021
1938 Snow 0 1005 93 10000 4.63 350 13:20 02.03.2021
1939 Snow -1 1004 100 10000 1.54 0 12:31 02.03.2021
1940 Snow -1 1004 100 1500 2.06 250 11:57 02.03.2021
1941 Snow -1 1004 100 1500 2.06 250 11:38 02.03.2021
1942 Snow -1 1004 100 800 3.09 240 11:18 02.03.2021
1943 Snow -2 1004 100 700 3.6 240 10:35 02.03.2021
1944 Snow -1 1005 93 8000 3.6 270 09:59 02.03.2021
1945 Snow -1 1005 93 8000 3.6 270 09:40 02.03.2021
1946 Snow -1 1005 86 6000 5.66 250 09:19 02.03.2021
1947 Snow -1 1004 69 10000 5.14 280 08:38 02.03.2021
1948 Snow -1 1004 69 10000 5.14 270 07:58 02.03.2021
1949 Snow -1 1004 69 10000 5.14 270 07:38 02.03.2021
1950 Clouds -1 1004 55 10000 1.54 0 06:34 02.03.2021
1951 Snow -1 1005 59 10000 3.6 360 05:46 02.03.2021
1952 Clouds -1 1005 55 10000 5.66 350 05:27 02.03.2021
1953 Snow -2 1002 69 10000 6.17 0 01:44 02.03.2021
1954 Snow -2 1002 69 10000 6.17 0 01:44 02.03.2021
1955 Snow -2 1002 69 10000 6.17 0 01:44 02.03.2021
1956 Snow -2 1002 69 10000 6.17 0 01:44 02.03.2021
1957 Snow -2 1002 69 10000 6.17 360 01:26 02.03.2021
1958 Snow -2 1001 69 10000 7.2 360 00:28 02.03.2021
1959 Snow -3 1000 86 10000 7.2 360 23:26 01.03.2021
1960 Snow -4 1000 100 6000 6.17 360 22:42 01.03.2021
1961 Snow -3 999 80 5000 9.26 330 22:21 01.03.2021
1962 Snow -2 999 74 6000 6.17 350 21:45 01.03.2021
1963 Snow -4 998 93 7000 4.63 0 21:23 01.03.2021
1964 Snow -4 998 93 7000 4.63 0 21:23 01.03.2021
1965 Snow -2 998 80 10000 7.72 350 20:47 01.03.2021
1966 Snow -2 997 69 10000 6.69 350 20:27 01.03.2021
1967 Snow -2 997 74 6000 7.72 350 19:54 01.03.2021
1968 Snow -2 997 74 6000 7.72 350 19:33 01.03.2021
1969 Snow -2 996 80 6000 6.69 340 18:46 01.03.2021
1970 Snow -2 995 93 5000 4.12 270 18:24 01.03.2021
1971 Snow -2 995 93 1000 5.66 0 17:53 01.03.2021
1972 Snow -1 994 74 8000 2.57 0 17:30 01.03.2021
1973 Snow -1 993 80 2000 9.26 330 16:59 01.03.2021
1974 Snow -1 993 80 2000 9.26 330 16:40 01.03.2021
1975 Snow -1 992 93 10000 8.75 360 16:22 01.03.2021
1976 Snow 0 990 93 2500 14.92 10 15:40 01.03.2021
1977 Snow 0 987 100 1500 11.32 10 15:19 01.03.2021
1978 Snow 1 986 93 5000 9.26 240 14:44 01.03.2021
1979 Clouds 2 986 87 10000 11.32 240 14:26 01.03.2021
1980 Snow 1 987 93 10000 9.26 250 13:39 01.03.2021
1981 Snow 1 987 93 10000 9.26 240 13:20 01.03.2021
1982 Snow 1 987 93 10000 11.32 240 12:44 01.03.2021
1983 Snow 1 987 93 10000 11.83 240 12:26 01.03.2021
1984 Snow 1 988 93 1000 10.8 260 11:58 01.03.2021
1985 Snow 1 988 93 1000 10.8 260 11:34 01.03.2021
1986 Clouds 2 988 80 10000 12.35 240 10:44 01.03.2021
1987 Clouds 2 988 80 10000 12.86 240 10:23 01.03.2021
1988 Snow 1 988 93 10000 8.75 250 09:56 01.03.2021
1989 Snow 1 988 93 10000 8.75 250 09:38 01.03.2021
1990 Clouds 2 989 87 10000 12.86 240 09:20 01.03.2021
1991 Clouds 2 989 87 10000 13.38 240 08:44 01.03.2021
1992 Clouds 2 989 87 1400 12.86 240 07:44 01.03.2021
1993 Clouds 2 989 87 3300 13.38 240 06:51 01.03.2021
1994 Clouds 3 992 81 6000 15.43 240 02:49 01.03.2021
1995 Clouds 4 992 70 10000 12.35 240 00:37 01.03.2021
1996 Clouds 3 992 87 10000 11.32 240 23:26 28.02.2021
1997 Clouds 3 992 81 10000 16.98 240 22:45 28.02.2021
1998 Clouds 5 992 75 10000 7.2 250 22:21 28.02.2021
1999 Clouds 4 993 81 10000 10.29 260 21:49 28.02.2021
2000 Clouds 4 993 81 10000 12.86 240 21:27 28.02.2021
2001 Clouds 3 993 87 10000 10.8 240 20:55 28.02.2021
2002 Clouds 3 993 87 10000 10.8 240 20:35 28.02.2021
2003 Snow 1 995 100 3500 8.75 260 19:47 28.02.2021
2004 Clouds 2 994 93 6000 9.26 240 19:28 28.02.2021
2005 Clouds 2 995 93 8000 9.26 240 18:49 28.02.2021
2006 Clouds 3 995 87 10000 11.32 240 18:28 28.02.2021
2007 Clouds 3 995 87 10000 12.86 240 17:59 28.02.2021
2008 Clouds 3 995 87 10000 12.86 240 17:41 28.02.2021
2009 Clouds 4 995 87 10000 7.72 260 17:21 28.02.2021
2010 Clouds 4 995 87 10000 9.77 240 16:50 28.02.2021
2011 Clouds 4 996 87 10000 12.86 240 16:30 28.02.2021
2012 Clouds 3 996 93 10000 10.8 240 15:53 28.02.2021
2013 Clouds 4 996 87 10000 12.35 240 15:29 28.02.2021
2014 Clouds 4 996 87 10000 11.32 260 14:58 28.02.2021
2015 Clouds 4 996 87 10000 11.32 260 14:39 28.02.2021
2016 Clouds 4 996 87 10000 11.32 260 14:39 28.02.2021
2017 Clouds 5 997 81 10000 12.35 240 14:20 28.02.2021
2018 Clouds 5 997 81 10000 12.35 240 13:41 28.02.2021
2019 Clouds 5 998 87 10000 9.26 240 13:19 28.02.2021
2020 Clouds 4 998 87 10000 9.77 240 12:54 28.02.2021
2021 Clouds 4 998 87 10000 9.77 240 12:36 28.02.2021
2022 Clouds 5 998 81 10000 13.38 240 11:59 28.02.2021
2023 Clouds 5 998 81 10000 13.38 240 11:41 28.02.2021
2024 Drizzle 5 998 87 10000 11.83 240 11:22 28.02.2021
2025 Clouds 5 998 87 10000 14.4 240 10:45 28.02.2021
2026 Clouds 5 998 81 10000 14.92 240 10:25 28.02.2021
2027 Clouds 4 999 93 7000 12.86 240 09:40 28.02.2021
2028 Drizzle 4 999 87 10000 9.77 240 09:22 28.02.2021
2029 Clouds 3 998 93 10000 9.26 240 08:46 28.02.2021
2030 Drizzle 4 998 87 10000 10.29 240 08:28 28.02.2021
2031 Clouds 4 999 81 10000 9.77 240 07:50 28.02.2021
2032 Clouds 4 999 81 10000 6.69 250 07:28 28.02.2021
2033 Clouds 4 1000 81 10000 11.83 240 06:27 28.02.2021
2034 Clouds 4 1000 87 10000 9.26 240 05:24 28.02.2021
2035 Clouds 5 1000 81 10000 11.32 240 03:24 28.02.2021
2036 Clouds 4 1000 93 10000 7.2 240 01:41 28.02.2021
2037 Clouds 3 999 93 10000 6.69 240 00:49 28.02.2021
2038 Clouds 3 999 93 10000 7.72 240 00:25 28.02.2021
2039 Clouds 3 999 93 10000 6.17 230 23:44 27.02.2021
2040 Drizzle 2 999 93 10000 4.63 220 23:19 27.02.2021
2041 Drizzle 2 999 93 10000 4.12 230 22:44 27.02.2021
2042 Rain 1 999 93 10000 5.66 230 22:19 27.02.2021
2043 Rain 1 999 100 10000 4.12 230 21:41 27.02.2021
2044 Snow 1 999 93 10000 5.14 220 21:23 27.02.2021
2045 Snow 0 999 100 10000 4.12 230 20:48 27.02.2021
2046 Snow 0 999 100 10000 4.12 230 20:27 27.02.2021
2047 Snow 0 1000 100 10000 3.09 230 19:45 27.02.2021
2048 Snow 0 1000 100 10000 3.09 250 19:27 27.02.2021
2049 Snow 0 1000 100 8000 2.57 230 18:45 27.02.2021
2050 Snow 0 1001 93 7000 2.06 240 18:21 27.02.2021
2051 Rain 0 1001 86 6000 2.57 0 17:57 27.02.2021
2052 Rain 0 1001 86 6000 2.57 0 17:38 27.02.2021
2053 Clouds 1 1001 80 10000 4.12 200 17:18 27.02.2021
2054 Clouds 0 1002 80 10000 4.12 200 16:48 27.02.2021
2055 Clouds 0 1003 86 10000 5.14 200 16:26 27.02.2021
2056 Clouds 1 1003 69 10000 4.12 210 15:43 27.02.2021
2057 Clouds 0 1004 80 10000 4.3 151 15:18 27.02.2021
2058 Clouds 0 1005 80 10000 1.54 30 14:40 27.02.2021
2059 Clouds 0 1005 80 10000 1.54 0 14:21 27.02.2021
2060 Clouds 0 1006 86 10000 1.54 0 13:40 27.02.2021
2061 Clouds 0 1007 86 10000 2.57 190 13:19 27.02.2021
2062 Clouds 0 1008 86 10000 4.63 230 12:45 27.02.2021
2063 Clouds 1 1008 80 10000 3.09 220 12:22 27.02.2021
2064 Clouds 1 1009 75 10000 4.12 240 11:46 27.02.2021
2065 Clouds 0 1009 86 10000 4.63 210 11:27 27.02.2021
2066 Clouds 1 1010 75 10000 5.14 240 10:50 27.02.2021
2067 Clouds 1 1010 75 10000 6.69 240 10:32 27.02.2021
2068 Clouds 0 1010 74 10000 6.69 240 09:52 27.02.2021
2069 Clouds 0 1010 93 10000 5.66 280 09:31 27.02.2021
2070 Clouds 0 1011 100 5000 5.66 240 08:43 27.02.2021
2071 Clouds 0 1011 100 6000 4.63 250 08:22 27.02.2021
2072 Clouds 0 1011 100 2500 4.63 270 07:43 27.02.2021
2073 Snow 0 1011 93 1500 5.66 280 06:55 27.02.2021
2074 Clouds 1 1010 93 8000 5.66 240 01:22 27.02.2021
2075 Clouds 1 1010 93 8000 5.66 240 01:22 27.02.2021
2076 Snow 0 1010 100 500 4.63 260 00:26 27.02.2021
2077 Clouds 1 1009 86 10000 1.54 0 23:40 26.02.2021
2078 Snow 1 1009 86 10000 3.6 240 23:20 26.02.2021
2079 Clouds 1 1009 86 10000 3.09 260 22:33 26.02.2021
2080 Snow 1 1009 86 10000 4.12 280 21:53 26.02.2021
2081 Snow 1 1009 86 10000 3.6 270 21:35 26.02.2021
2082 Snow 1 1009 86 10000 4.12 270 20:55 26.02.2021
2083 Snow 1 1009 86 10000 4.12 270 20:36 26.02.2021
2084 Snow 0 1009 93 10000 4.63 270 20:18 26.02.2021
2085 Clouds 1 1008 80 10000 2.57 0 19:26 26.02.2021
2086 Snow 1 1008 80 10000 4.12 280 18:52 26.02.2021
2087 Snow 0 1008 93 10000 1.54 0 18:24 26.02.2021
2088 Snow 0 1007 93 4300 3.6 270 17:58 26.02.2021
2089 Snow 0 1007 93 4300 3.6 270 17:36 26.02.2021
2090 Snow 1 1006 86 9000 3.6 20 16:59 26.02.2021
2091 Snow 1 1006 86 9000 3.6 20 16:41 26.02.2021
2092 Snow 1 1006 86 10000 3.09 0 16:22 26.02.2021
2093 Clouds 1 1005 86 10000 4.63 360 15:43 26.02.2021
2094 Rain 1 1004 86 10000 1.54 0 15:23 26.02.2021
2095 Clouds 1 1003 86 9000 8.23 350 14:53 26.02.2021
2096 Clouds 1 1003 86 9000 8.23 350 14:53 26.02.2021
2097 Clouds 1 1003 86 9000 8.23 350 14:34 26.02.2021
2098 Clouds 2 1001 80 10000 9.26 360 13:54 26.02.2021
2099 Clouds 2 1001 80 10000 9.26 360 13:34 26.02.2021
2100 Clouds 2 999 87 10000 10.29 10 12:57 26.02.2021
2101 Clouds 2 998 93 10000 10.29 10 12:28 26.02.2021
2102 Clouds 2 997 93 10000 10.29 20 11:43 26.02.2021
2103 Clouds 2 996 93 10000 8.75 360 11:20 26.02.2021
2104 Clouds 2 995 93 10000 6.69 360 10:43 26.02.2021
2105 Clouds 2 993 100 4500 8.75 360 09:48 26.02.2021
2106 Clouds 3 991 93 3500 10.29 20 09:28 26.02.2021
2107 Clouds 3 990 100 3000 6.69 10 08:39 26.02.2021
2108 Clouds 2 989 100 9000 9.26 10 07:58 26.02.2021
2109 Clouds 2 988 93 10000 2.57 240 07:24 26.02.2021
2110 Clouds 2 988 93 10000 6.17 240 06:35 26.02.2021
2111 Clouds 3 986 81 10000 8.75 230 05:19 26.02.2021
2112 Clouds 3 986 81 10000 9.26 240 02:39 26.02.2021
2113 Clouds 2 987 87 10000 8.23 230 00:33 26.02.2021
2114 Clouds 2 987 87 10000 8.75 230 23:41 25.02.2021
2115 Clouds 3 987 81 10000 11.83 240 23:19 25.02.2021
2116 Clouds 3 986 87 10000 12.35 240 22:38 25.02.2021
2117 Clouds 3 986 87 10000 11.83 240 21:56 25.02.2021
2118 Clouds 3 986 87 10000 11.83 240 21:34 25.02.2021
2119 Clouds 3 986 87 10000 7.72 240 20:58 25.02.2021
2120 Clouds 3 986 87 10000 7.72 240 20:38 25.02.2021
2121 Clouds 3 986 87 10000 9.26 240 20:20 25.02.2021
2122 Clouds 3 986 87 10000 11.32 240 19:49 25.02.2021
2123 Clouds 3 986 87 10000 9.77 250 19:21 25.02.2021
2124 Clouds 3 986 87 10000 10.29 240 18:48 25.02.2021
2125 Clouds 4 986 75 10000 11.83 240 18:19 25.02.2021
2126 Clouds 4 985 75 10000 12.86 240 17:42 25.02.2021
2127 Clouds 4 985 81 10000 11.83 240 17:23 25.02.2021
2128 Clouds 4 985 81 10000 10.29 240 16:42 25.02.2021
2129 Clouds 3 985 93 10000 7.2 230 16:24 25.02.2021
2130 Clouds 4 984 81 10000 5.66 220 15:29 25.02.2021
2131 Clouds 3 984 81 10000 5.66 230 14:41 25.02.2021
2132 Clouds 3 984 81 10000 4.63 230 14:21 25.02.2021
2133 Clouds 4 984 70 10000 4.63 220 13:50 25.02.2021
2134 Clouds 4 984 70 10000 4.12 230 13:25 25.02.2021
2135 Clouds 4 984 70 10000 4.63 220 12:47 25.02.2021
2136 Clouds 3 984 70 10000 4.63 210 12:21 25.02.2021
2137 Clouds 3 984 70 10000 4.63 210 12:21 25.02.2021
2138 Clouds 3 984 75 10000 4.63 240 11:43 25.02.2021
2139 Clouds 3 984 70 10000 4.63 230 11:19 25.02.2021
2140 Clouds 4 984 65 10000 5.66 220 10:38 25.02.2021
2141 Clear 3 985 70 10000 2.57 250 09:58 25.02.2021
2142 Clear 3 985 70 10000 2.57 250 09:38 25.02.2021
2143 Clear 3 985 70 10000 3.09 280 08:50 25.02.2021
2144 Clear 3 985 70 10000 3.6 280 08:22 25.02.2021
2145 Clear 3 986 70 10000 4.12 240 07:52 25.02.2021
2146 Clear 3 986 70 10000 2.06 300 07:26 25.02.2021
2147 Clear 3 986 70 10000 3.09 270 06:47 25.02.2021
2148 Clouds 1 988 80 10000 5.14 230 01:57 25.02.2021
2149 Clouds 1 988 80 10000 5.14 230 01:34 25.02.2021
2150 Rain 1 989 75 10000 4.63 230 00:39 25.02.2021
2151 Rain 0 989 74 10000 3.6 270 23:47 24.02.2021
2152 Clouds -1 989 80 10000 3.6 240 23:24 24.02.2021
2153 Rain 0 989 80 10000 4.63 260 22:44 24.02.2021
2154 Snow -1 990 86 10000 3.6 250 22:25 24.02.2021
2155 Snow -2 990 93 10000 3.09 260 21:45 24.02.2021
2156 Snow -2 991 74 10000 4.63 220 20:54 24.02.2021
2157 Clouds -2 991 80 10000 3.6 250 20:30 24.02.2021
2158 Clear -2 991 74 10000 5.14 240 19:56 24.02.2021
2159 Clear -3 991 74 10000 4.12 220 19:28 24.02.2021
2160 Clear -3 991 74 10000 4.63 230 18:55 24.02.2021
2161 Clear -3 991 74 10000 4.63 230 18:34 24.02.2021
2162 Clear -4 991 74 10000 7.72 210 17:52 24.02.2021
2163 Clear -4 991 74 10000 7.2 210 17:29 24.02.2021
2164 Clouds -5 992 80 10000 6.17 210 16:57 24.02.2021
2165 Clouds -5 992 80 10000 6.17 210 16:39 24.02.2021
2166 Clouds -6 992 73 10000 8.75 200 16:19 24.02.2021
2167 Clouds -6 992 68 10000 6.69 190 15:38 24.02.2021
2168 Clear -3 993 74 10000 8.23 200 14:53 24.02.2021
2169 Clear -3 993 74 10000 8.23 200 14:34 24.02.2021
2170 Clear -1 996 69 10000 9.26 190 13:58 24.02.2021
2171 Clear -1 996 69 10000 9.26 190 13:39 24.02.2021
2172 Clear 0 996 64 10000 7.72 210 13:20 24.02.2021
2173 Clear 1 996 60 10000 6.17 220 12:44 24.02.2021
2174 Clear 0 997 59 10000 5.14 210 12:23 24.02.2021
2175 Clear -2 997 69 10000 8.75 200 11:46 24.02.2021
2176 Clear -1 997 69 10000 7.2 210 10:52 24.02.2021
2177 Clear -1 999 74 10000 7.2 200 10:30 24.02.2021
2178 Clear -1 999 74 10000 7.2 200 09:44 24.02.2021
2179 Clear -1 1000 74 10000 2.06 0 09:20 24.02.2021
2180 Clear 0 1001 69 10000 2.06 0 08:34 24.02.2021
2181 Clear -3 1003 86 10000 2.57 260 07:57 24.02.2021
2182 Clear -4 1003 86 10000 2.57 40 07:20 24.02.2021
2183 Clear -3 1005 86 10000 0.51 0 06:20 24.02.2021
2184 Clouds -1 1008 80 10000 1.03 0 03:28 24.02.2021
2185 Clouds -2 1010 86 10000 4.63 230 00:22 24.02.2021
2186 Clouds -2 1010 86 10000 3.09 230 23:21 23.02.2021
2187 Clouds -1 1010 80 10000 2.57 240 22:37 23.02.2021
2188 Clouds -2 1010 86 10000 3.6 240 22:19 23.02.2021
2189 Clouds -1 1010 80 10000 3.6 240 21:42 23.02.2021
2190 Clouds -2 1011 80 10000 5.14 230 21:22 23.02.2021
2191 Clouds -2 1011 86 10000 4.12 240 20:48 23.02.2021
2192 Clouds -2 1011 86 10000 2.06 250 20:29 23.02.2021
2193 Clouds -2 1010 86 10000 2.57 240 19:48 23.02.2021
2194 Clouds -2 1011 86 10000 3.6 230 19:27 23.02.2021
2195 Clouds -3 1011 86 10000 3.6 250 18:55 23.02.2021
2196 Clouds -3 1010 86 10000 4.12 240 18:32 23.02.2021
2197 Clouds -4 1011 86 10000 4.12 230 17:54 23.02.2021
2198 Clouds -4 1011 86 10000 4.12 230 17:33 23.02.2021
2199 Clouds -4 1010 86 10000 5.14 230 16:50 23.02.2021
2200 Clouds -4 1010 86 10000 4.63 230 16:27 23.02.2021
2201 Clouds -5 1011 86 10000 4.63 230 15:57 23.02.2021
2202 Clouds -5 1011 86 10000 4.63 230 15:38 23.02.2021
2203 Snow -5 1011 80 10000 5.14 230 15:18 23.02.2021
2204 Snow -6 1011 86 10000 5.14 230 14:42 23.02.2021
2205 Snow -6 1011 86 10000 5.14 230 14:42 23.02.2021
2206 Clouds -7 1011 86 10000 5.66 220 14:24 23.02.2021
2207 Clouds -7 1011 86 8000 4.63 220 13:43 23.02.2021
2208 Snow -8 1011 93 7000 5.14 220 13:24 23.02.2021
2209 Snow -7 1011 86 4500 4.63 230 12:51 23.02.2021
2210 Snow -8 1011 79 7000 4.63 220 12:20 23.02.2021
2211 Clouds -8 1010 79 10000 5.14 220 11:47 23.02.2021
2212 Clouds -8 1010 73 10000 6.17 210 11:21 23.02.2021
2213 Clear -9 1010 79 10000 5.14 220 10:48 23.02.2021
2214 Clouds -9 1010 79 10000 4.63 220 10:30 23.02.2021
2215 Clouds -9 1010 73 10000 6.69 210 09:43 23.02.2021
2216 Clouds -9 1010 73 10000 7.72 210 09:24 23.02.2021
2217 Snow -8 1009 73 10000 7.2 210 08:49 23.02.2021
2218 Snow -7 1010 73 10000 8.23 210 08:22 23.02.2021
2219 Snow -7 1009 73 10000 7.2 220 07:49 23.02.2021
2220 Clear -4 1010 68 10000 5.66 210 05:31 23.02.2021
2221 Clouds -4 1010 68 10000 6.69 210 04:32 23.02.2021
2222 Clear -7 1012 79 10000 5.14 200 02:34 23.02.2021
2223 Clear -7 1014 73 10000 6.17 240 00:20 23.02.2021
2224 Clear -6 1014 68 10000 8.75 230 23:52 22.02.2021
2225 Clear -6 1014 73 10000 10.29 230 23:20 22.02.2021
2226 Clouds -6 1014 73 10000 8.23 220 22:41 22.02.2021
2227 Clouds -6 1014 73 10000 4.12 230 22:20 22.02.2021
2228 Clouds -7 1015 79 10000 5.14 210 21:41 22.02.2021
2229 Clouds -7 1015 73 10000 6.17 210 21:23 22.02.2021
2230 Clouds -7 1015 79 10000 5.14 200 20:51 22.02.2021
2231 Clouds -7 1016 73 10000 5.14 200 20:28 22.02.2021
2232 Clouds -7 1016 79 10000 5.14 210 19:51 22.02.2021
2233 Clouds -7 1016 79 10000 5.14 210 19:33 22.02.2021
2234 Clouds -7 1016 79 10000 5.14 220 18:56 22.02.2021
2235 Clouds -7 1016 79 10000 5.14 220 18:37 22.02.2021
2236 Clouds -7 1016 79 10000 7.2 230 18:18 22.02.2021
2237 Clouds -7 1016 73 10000 7.72 220 17:24 22.02.2021
2238 Clouds -8 1016 79 10000 7.72 210 16:54 22.02.2021
2239 Clouds -9 1016 79 10000 9.26 220 16:32 22.02.2021
2240 Snow -8 1016 79 10000 6.69 220 15:44 22.02.2021
2241 Snow -8 1016 79 10000 8.23 210 15:25 22.02.2021
2242 Snow -7 1015 79 10000 4.12 240 14:47 22.02.2021
2243 Snow -7 1015 79 10000 4.12 240 14:47 22.02.2021
2244 Clouds -8 1015 86 10000 4.12 220 14:23 22.02.2021
2245 Clouds -8 1015 79 10000 4.63 210 13:46 22.02.2021
2246 Clouds -8 1015 79 10000 4.63 210 13:46 22.02.2021
2247 Clouds -9 1015 79 10000 4.63 220 12:56 22.02.2021
2248 Clouds -9 1015 73 10000 4.12 0 12:24 22.02.2021
2249 Snow -11 1015 79 10000 4.12 0 11:57 22.02.2021
2250 Snow -11 1015 79 10000 4.12 0 11:39 22.02.2021
2251 Snow -11 1015 79 10000 6.69 190 11:20 22.02.2021
2252 Snow -11 1015 79 10000 7.72 200 10:45 22.02.2021
2253 Snow -11 1015 79 10000 7.72 200 10:22 22.02.2021
2254 Snow -12 1015 79 10000 8.75 200 09:41 22.02.2021
2255 Snow -12 1014 79 10000 8.75 190 09:22 22.02.2021
2256 Snow -12 1014 79 10000 6.17 200 08:49 22.02.2021
2257 Snow -12 1014 85 3000 8.23 170 08:23 22.02.2021
2258 Snow -12 1014 85 2200 8.75 190 07:50 22.02.2021
2259 Snow -13 1013 85 2000 9.77 180 07:23 22.02.2021
2260 Snow -13 1013 85 1500 10.29 0 06:29 22.02.2021
2261 Snow -13 1012 78 8000 12.86 200 05:26 22.02.2021
2262 Snow -13 1013 72 9000 11.32 200 03:24 22.02.2021
2263 Snow -13 1012 72 5000 13.38 200 02:31 22.02.2021
2264 Snow -13 1014 72 8000 13.38 170 00:44 22.02.2021
2265 Snow -13 1014 72 8000 13.38 180 00:19 22.02.2021
2266 Snow -13 1014 72 9000 13.38 190 23:27 21.02.2021
2267 Snow -13 1014 78 7000 13.38 190 22:40 21.02.2021
2268 Snow -13 1014 78 6000 12.86 190 22:21 21.02.2021
2269 Snow -12 1013 79 5000 10.8 190 21:37 21.02.2021
2270 Snow -12 1013 79 4500 7.72 170 20:59 21.02.2021
2271 Snow -12 1013 79 4500 7.72 170 20:39 21.02.2021
2272 Snow -13 1013 78 6000 7.72 190 20:19 21.02.2021
2273 Snow -12 1013 79 4600 7.2 190 19:50 21.02.2021
2274 Snow -12 1013 79 4600 7.2 190 19:32 21.02.2021
2275 Snow -11 1012 73 2000 10.8 190 18:48 21.02.2021
2276 Snow -11 1012 79 2000 12.86 170 18:25 21.02.2021
2277 Snow -12 1013 79 3500 10.29 190 17:30 21.02.2021
2278 Snow -11 1013 73 3600 8.23 0 16:58 21.02.2021
2279 Snow -11 1014 79 2300 7.72 0 16:34 21.02.2021
2280 Snow -10 1014 73 2800 4.63 0 15:54 21.02.2021
2281 Snow -10 1015 67 10000 5.14 0 15:22 21.02.2021
2282 Mist -11 1015 73 10000 5.14 130 14:51 21.02.2021
2283 Snow -10 1016 67 10000 5.14 160 14:30 21.02.2021
2284 Snow -11 1016 67 10000 4.12 0 13:47 21.02.2021
2285 Clear -11 1017 67 10000 5.14 130 13:23 21.02.2021
2286 Clear -11 1018 67 10000 5.14 110 12:32 21.02.2021
2287 Clear -11 1018 67 10000 5.14 110 11:58 21.02.2021
2288 Clear -11 1018 67 10000 5.14 110 11:40 21.02.2021
2289 Clouds -11 1019 62 10000 5.66 130 10:40 21.02.2021
2290 Clouds -11 1019 62 10000 6.69 130 10:21 21.02.2021
2291 Clear -11 1019 62 10000 6.69 140 09:42 21.02.2021
2292 Clouds -11 1019 62 10000 6.17 130 09:23 21.02.2021
2293 Clouds -11 1019 62 10000 6.17 130 08:33 21.02.2021
2294 Clouds -10 1019 57 10000 6.17 140 07:45 21.02.2021
2295 Clouds -10 1019 62 10000 7.2 130 07:22 21.02.2021
2296 Clear -11 1020 67 10000 6.17 110 05:59 21.02.2021
2297 Clouds -11 1019 73 10000 3.6 100 02:40 21.02.2021
2298 Clouds -11 1018 73 10000 6.69 100 00:59 21.02.2021
2299 Clouds -11 1018 73 10000 8.23 110 00:21 21.02.2021
2300 Clouds -11 1018 73 10000 8.23 120 23:38 20.02.2021
2301 Clouds -11 1017 79 7000 8.23 130 22:55 20.02.2021
2302 Clouds -11 1017 73 10000 7.2 110 22:31 20.02.2021
2303 Snow -11 1017 73 10000 6.69 110 21:47 20.02.2021
2304 Clouds -11 1017 73 10000 5.66 90 21:29 20.02.2021
2305 Clouds -11 1017 79 10000 6.69 100 20:57 20.02.2021
2306 Clouds -11 1017 79 10000 6.69 100 20:36 20.02.2021
2307 Clouds -11 1016 79 10000 5.66 110 20:18 20.02.2021
2308 Clouds -10 1016 73 10000 6.17 100 19:40 20.02.2021
2309 Clouds -11 1015 79 10000 6.69 110 18:54 20.02.2021
2310 Clouds -10 1015 73 10000 6.69 130 18:31 20.02.2021
2311 Clear -11 1015 79 10000 5.14 90 17:47 20.02.2021
2312 Clear -11 1015 73 10000 4.63 90 17:28 20.02.2021
2313 Clear -11 1015 67 10000 6.17 100 16:49 20.02.2021
2314 Clear -11 1015 73 10000 5.14 120 16:23 20.02.2021
2315 Clear -11 1015 67 10000 6.69 120 15:42 20.02.2021
2316 Clouds -11 1016 62 10000 6.17 120 14:52 20.02.2021
2317 Clear -11 1016 67 10000 6.69 130 14:25 20.02.2021
2318 Clear -11 1016 62 10000 8.23 120 13:58 20.02.2021
2319 Clear -11 1016 62 10000 8.23 120 13:39 20.02.2021
2320 Clear -11 1016 62 10000 8.75 120 13:20 20.02.2021
2321 Clear -10 1016 57 10000 8.75 120 12:36 20.02.2021
2322 Mist -10 1016 57 10000 8.75 120 11:51 20.02.2021
2323 Clear -10 1016 57 10000 8.75 120 11:31 20.02.2021
2324 Clear -10 1016 57 10000 7.2 130 10:52 20.02.2021
2325 Clear -10 1016 57 10000 6.69 140 10:24 20.02.2021
2326 Clear -10 1016 62 10000 6.17 140 09:47 20.02.2021
2327 Clear -10 1015 67 10000 8.23 130 08:56 20.02.2021
2328 Clouds -10 1015 67 10000 7.2 140 08:25 20.02.2021
2329 Clear -11 1015 73 10000 5.66 140 07:19 20.02.2021
2330 Clear -12 1015 72 10000 5.66 140 02:32 20.02.2021
2331 Clear -12 1015 72 10000 5.14 160 01:58 20.02.2021
2332 Clear -13 1016 78 10000 3.6 0 01:18 20.02.2021
2333 Clear -12 1016 72 10000 4.12 130 00:39 20.02.2021
2334 Clear -12 1016 72 10000 6.17 150 23:41 19.02.2021
2335 Clear -12 1015 72 10000 6.69 140 22:48 19.02.2021
2336 Clouds -12 1015 72 10000 6.69 140 22:25 19.02.2021
2337 Clouds -12 1015 72 10000 6.69 150 21:47 19.02.2021
2338 Clouds -12 1015 72 10000 5.66 140 21:26 19.02.2021
2339 Clouds -12 1015 72 10000 4.63 140 20:45 19.02.2021
2340 Clouds -13 1015 72 10000 5.66 130 20:27 19.02.2021
2341 Clouds -12 1015 72 10000 6.69 130 19:50 19.02.2021
2342 Snow -12 1015 72 10000 8.23 140 19:20 19.02.2021
2343 Snow -12 1015 72 10000 5.66 140 18:53 19.02.2021
2344 Snow -12 1015 72 10000 6.17 130 18:30 19.02.2021
2345 Snow -12 1015 72 10000 7.72 130 17:45 19.02.2021
2346 Snow -12 1015 72 10000 7.2 120 16:46 19.02.2021
2347 Snow -12 1015 72 9000 8.23 120 16:23 19.02.2021
2348 Snow -12 1015 72 10000 7.72 140 15:56 19.02.2021
2349 Clouds -12 1015 72 10000 7.2 130 15:30 19.02.2021
2350 Clouds -12 1015 72 10000 8.23 130 14:55 19.02.2021
2351 Clouds -12 1015 72 10000 8.23 130 14:35 19.02.2021
2352 Clouds -11 1016 67 10000 6.17 130 13:57 19.02.2021
2353 Clouds -11 1016 67 10000 6.17 130 13:36 19.02.2021
2354 Snow -11 1016 73 10000 7.2 130 12:58 19.02.2021
2355 Snow -11 1016 73 10000 7.2 130 12:38 19.02.2021
2356 Snow -11 1016 67 10000 8.75 120 12:20 19.02.2021
2357 Snow -11 1016 67 10000 8.75 120 12:20 19.02.2021
2358 Clouds -11 1016 67 10000 8.23 130 11:41 19.02.2021
2359 Clouds -11 1016 67 10000 7.2 130 11:18 19.02.2021
2360 Clouds -11 1016 73 10000 6.69 120 10:34 19.02.2021
2361 Snow -11 1016 73 10000 4.63 130 09:59 19.02.2021
2362 Snow -12 1016 79 10000 6.17 130 09:29 19.02.2021
2363 Snow -12 1016 79 10000 6.69 130 08:58 19.02.2021
2364 Snow -12 1016 79 10000 6.69 130 08:40 19.02.2021
2365 Snow -12 1016 72 10000 7.2 140 08:21 19.02.2021
2366 Snow -11 1016 73 10000 7.72 130 07:45 19.02.2021
2367 Clear -11 1016 73 10000 5.66 130 07:25 19.02.2021
2368 Clear -11 1016 73 10000 6.69 130 06:44 19.02.2021
2369 Clear -12 1016 72 10000 5.14 100 04:42 19.02.2021
2370 Clear -10 1016 73 10000 6.17 140 02:50 19.02.2021
2371 Clear -10 1016 73 10000 6.17 120 01:46 19.02.2021
2372 Clear -10 1016 73 10000 6.17 120 01:46 19.02.2021
2373 Clear -10 1016 73 10000 6.17 120 00:36 19.02.2021
2374 Clear -10 1016 73 10000 5.14 130 23:48 18.02.2021
2375 Clear -9 1016 67 10000 4.12 120 23:30 18.02.2021
2376 Clear -8 1016 67 10000 5.14 160 22:42 18.02.2021
2377 Clear -8 1016 67 10000 4.63 0 22:24 18.02.2021
2378 Clear -9 1016 73 10000 5.14 120 21:42 18.02.2021
2379 Clear -8 1016 73 10000 6.17 120 21:24 18.02.2021
2380 Clear -8 1015 73 10000 4.12 130 20:40 18.02.2021
2381 Clear -7 1015 68 10000 5.66 140 20:21 18.02.2021
2382 Clear -8 1015 73 10000 6.17 110 19:46 18.02.2021
2383 Clear -7 1015 68 10000 4.63 110 19:22 18.02.2021
2384 Clear -6 1015 68 10000 6.17 130 18:52 18.02.2021
2385 Clouds -7 1015 73 10000 6.17 110 18:27 18.02.2021
2386 Clouds -6 1015 68 10000 5.66 130 17:52 18.02.2021
2387 Clouds -6 1015 68 10000 6.69 120 17:25 18.02.2021
2388 Clouds -5 1014 63 10000 5.66 140 16:52 18.02.2021
2389 Clouds -5 1014 63 10000 5.66 140 16:33 18.02.2021
2390 Clouds -6 1014 73 10000 4.12 140 15:44 18.02.2021
2391 Clouds -5 1014 68 10000 5.14 140 15:24 18.02.2021
2392 Snow -5 1014 74 10000 7.2 120 14:58 18.02.2021
2393 Snow -5 1014 74 10000 7.2 120 14:36 18.02.2021
2394 Clouds -4 1014 74 10000 6.17 130 13:50 18.02.2021
2395 Snow -5 1014 80 10000 5.14 110 13:23 18.02.2021
2396 Snow -4 1014 74 10000 6.69 120 12:57 18.02.2021
2397 Snow -4 1014 74 10000 6.69 120 12:36 18.02.2021
2398 Clouds -4 1014 80 10000 5.66 120 11:48 18.02.2021
2399 Clouds -5 1015 80 10000 4.63 120 11:28 18.02.2021
2400 Clouds -5 1015 80 10000 6.69 110 10:59 18.02.2021
2401 Clouds -5 1015 80 10000 6.69 110 10:41 18.02.2021
2402 Clouds -5 1014 80 10000 5.14 100 10:23 18.02.2021
2403 Clouds -5 1014 80 10000 5.66 110 09:39 18.02.2021
2404 Clouds -5 1014 80 10000 4.63 90 09:20 18.02.2021
2405 Clouds -7 1014 86 10000 4.12 60 08:37 18.02.2021
2406 Clouds -4 1014 80 10000 6.17 100 08:19 18.02.2021
2407 Clouds -6 1014 86 10000 3.6 50 07:31 18.02.2021
2408 Clouds -3 1014 86 10000 5.66 70 06:40 18.02.2021
2409 Clouds -6 1014 93 10000 2.06 60 02:21 18.02.2021
2410 Clear -8 1014 93 10000 1.54 60 23:49 17.02.2021
2411 Clear -8 1014 93 10000 0.51 0 23:20 17.02.2021
2412 Clear -8 1014 93 10000 3.14 141 22:46 17.02.2021
2413 Clear -7 1014 93 10000 1.03 60 22:22 17.02.2021
2414 Clear -9 1014 92 10000 1.03 0 21:48 17.02.2021
2415 Clear -7 1014 93 10000 1.54 40 21:22 17.02.2021
2416 Clouds -8 1015 93 10000 3.23 157 20:47 17.02.2021
2417 Clouds -9 1014 92 10000 3.29 158 20:28 17.02.2021
2418 Clouds -9 1014 86 10000 3.29 158 19:46 17.02.2021
2419 Clouds -8 1014 86 10000 1.03 0 19:27 17.02.2021
2420 Clouds -8 1014 86 10000 1.03 0 18:41 17.02.2021
2421 Clouds -8 1015 79 10000 2.82 137 18:22 17.02.2021
2422 Clouds -8 1015 79 10000 1.03 0 17:40 17.02.2021
2423 Clear -10 1015 79 10000 0.51 0 17:19 17.02.2021
2424 Clear -10 1015 85 10000 2.56 132 16:45 17.02.2021
2425 Clear -10 1015 79 10000 1.03 0 16:24 17.02.2021
2426 Clear -9 1015 79 10000 1.03 0 15:44 17.02.2021
2427 Clear -9 1015 79 10000 1.03 0 15:25 17.02.2021
2428 Clear -8 1015 73 10000 1.03 0 14:46 17.02.2021
2429 Clear -7 1015 73 10000 2.75 138 14:28 17.02.2021
2430 Clear -7 1015 73 10000 1.54 60 13:47 17.02.2021
2431 Clear -7 1015 63 10000 1.54 0 13:29 17.02.2021
2432 Clear -6 1015 68 10000 3.07 135 12:47 17.02.2021
2433 Clear -8 1015 62 10000 1.03 0 12:23 17.02.2021
2434 Clear -9 1015 67 10000 1.54 50 11:44 17.02.2021
2435 Clear -9 1016 62 10000 1.54 60 11:20 17.02.2021
2436 Clear -10 1016 73 10000 2.06 50 10:46 17.02.2021
2437 Clear -10 1016 73 10000 1.54 60 10:26 17.02.2021
2438 Clear -9 1016 79 10000 1.54 0 09:47 17.02.2021
2439 Clear -10 1016 79 10000 1.03 50 09:29 17.02.2021
2440 Clear -11 1016 73 10000 0.51 0 08:45 17.02.2021
2441 Clear -11 1016 79 10000 1.03 0 08:22 17.02.2021
2442 Clear -12 1016 85 10000 0.51 0 07:34 17.02.2021
2443 Clear -12 1016 85 10000 3.15 150 06:35 17.02.2021
2444 Clouds -11 1017 79 10000 3.89 170 03:40 17.02.2021
2445 Clear -11 1018 79 10000 1.03 0 02:30 17.02.2021
2446 Clear -10 1018 79 10000 3.75 166 01:30 17.02.2021
2447 Clear -10 1018 79 10000 1.54 60 00:24 17.02.2021
2448 Clear -10 1018 85 10000 1.03 0 23:38 16.02.2021
2449 Clear -10 1019 79 10000 3.79 163 22:46 16.02.2021
2450 Clear -10 1019 85 10000 3.86 166 22:26 16.02.2021
2451 Clear -10 1019 85 10000 3.86 166 21:59 16.02.2021
2452 Clear -10 1019 85 10000 3.86 166 21:39 16.02.2021
2453 Clear -10 1019 79 10000 4.05 164 21:21 16.02.2021
2454 Clear -9 1019 79 10000 4.05 164 20:47 16.02.2021
2455 Clear -10 1020 85 10000 4 161 20:24 16.02.2021
2456 Clear -9 1020 73 10000 4 161 19:48 16.02.2021
2457 Clear -9 1020 79 10000 3.69 160 19:28 16.02.2021
2458 Clear -8 1020 73 10000 1.03 0 18:50 16.02.2021
2459 Clear -9 1020 86 10000 1.03 0 18:26 16.02.2021
2460 Clear -8 1020 73 10000 3.71 158 17:53 16.02.2021
2461 Clear -9 1020 73 10000 3.8 161 17:27 16.02.2021
2462 Clear -8 1020 73 10000 3.8 161 16:57 16.02.2021
2463 Clear -8 1020 73 10000 3.8 161 16:38 16.02.2021
2464 Clear -8 1020 79 10000 4.09 166 16:19 16.02.2021
2465 Clear -8 1021 73 10000 1.03 0 15:36 16.02.2021
2466 Clear -7 1021 73 10000 1.03 0 15:18 16.02.2021
2467 Clear -7 1021 73 10000 4.18 162 14:41 16.02.2021
2468 Clear -6 1021 68 10000 1.03 0 14:23 16.02.2021
2469 Clear -6 1021 73 10000 1.54 0 13:47 16.02.2021
2470 Clear -4 1021 68 10000 3.09 250 13:18 16.02.2021
2471 Clear -4 1021 68 10000 3.09 240 12:42 16.02.2021
2472 Clear -4 1021 68 10000 3.6 220 12:20 16.02.2021
2473 Clear -4 1021 63 10000 2.57 210 11:43 16.02.2021
2474 Clear -4 1021 63 10000 3.6 210 11:21 16.02.2021
2475 Clear -4 1021 63 10000 4.12 200 10:49 16.02.2021
2476 Clear -4 1021 63 10000 4.12 230 10:30 16.02.2021
2477 Clear -4 1021 63 10000 3.09 0 09:54 16.02.2021
2478 Clear -4 1021 63 10000 0.51 0 09:28 16.02.2021
2479 Clear -5 1021 74 10000 1.54 0 08:52 16.02.2021
2480 Clear -5 1021 68 10000 3.95 157 08:31 16.02.2021
2481 Clear -6 1021 73 10000 0.51 0 07:58 16.02.2021
2482 Clear -7 1021 68 10000 2.06 50 06:58 16.02.2021
2483 Clear -5 1021 74 10000 0.51 0 03:20 16.02.2021
2484 Clear -7 1020 79 10000 3.6 50 00:35 16.02.2021
2485 Clear -5 1020 86 10000 1.54 0 23:30 15.02.2021
2486 Clear -7 1020 79 10000 2.06 40 22:51 15.02.2021
2487 Clear -6 1020 79 10000 1.54 0 22:30 15.02.2021
2488 Clear -6 1020 79 10000 1.54 0 22:30 15.02.2021
2489 Clouds -5 1020 86 10000 3.09 30 21:55 15.02.2021
2490 Clouds -5 1020 86 10000 3.09 30 21:36 15.02.2021
2491 Clear -5 1019 80 10000 2.06 40 21:18 15.02.2021
2492 Clear -6 1019 79 10000 3.09 30 20:41 15.02.2021
2493 Clear -6 1019 86 10000 1.54 60 20:19 15.02.2021
2494 Clouds -4 1019 86 10000 1.54 0 19:43 15.02.2021
2495 Clouds -4 1019 86 10000 2.06 20 19:21 15.02.2021
2496 Clouds -4 1019 93 10000 2.06 40 18:42 15.02.2021
2497 Clouds -3 1018 86 10000 2.57 30 18:21 15.02.2021
2498 Clouds -5 1018 86 10000 2.06 60 17:41 15.02.2021
2499 Clouds -4 1018 86 10000 2.06 60 17:21 15.02.2021
2500 Clouds -2 1018 86 10000 1.54 40 16:48 15.02.2021
2501 Snow -2 1018 86 10000 1.54 30 16:26 15.02.2021
2502 Snow -3 1018 86 10000 1.03 0 15:49 15.02.2021
2503 Snow -3 1018 86 10000 1.54 40 15:22 15.02.2021
2504 Clouds -1 1017 74 10000 3.09 30 14:49 15.02.2021
2505 Clouds -1 1017 80 10000 2.57 20 14:21 15.02.2021
2506 Snow -1 1017 80 10000 3.09 30 13:58 15.02.2021
2507 Snow -1 1017 80 10000 3.09 30 13:37 15.02.2021
2508 Snow -1 1017 80 10000 3.09 30 13:18 15.02.2021
2509 Snow -1 1017 80 10000 2.57 30 12:38 15.02.2021
2510 Snow -1 1017 80 10000 3.09 20 12:18 15.02.2021
2511 Snow -1 1016 80 10000 3.6 20 11:40 15.02.2021
2512 Snow -1 1016 74 10000 4.63 20 11:18 15.02.2021
2513 Clouds -1 1016 74 10000 4.63 40 10:45 15.02.2021
2514 Snow 0 1016 74 10000 4.12 20 10:21 15.02.2021
2515 Snow 0 1016 80 10000 5.14 20 09:52 15.02.2021
2516 Snow 0 1016 80 10000 5.14 20 09:32 15.02.2021
2517 Snow 1 1015 75 10000 8.75 360 08:37 15.02.2021
2518 Snow 1 1015 80 10000 6.69 360 07:38 15.02.2021
2519 Snow 0 1014 93 1300 7.2 350 06:45 15.02.2021
2520 Snow 1 1015 86 10000 8.23 350 05:37 15.02.2021
2521 Snow 0 1015 100 1800 1.54 0 02:22 15.02.2021
2522 Snow 0 1015 100 4500 6.17 280 00:33 15.02.2021
2523 Snow 1 1016 86 10000 6.69 270 23:33 14.02.2021
2524 Snow 0 1016 93 10000 9.26 240 22:52 14.02.2021
2525 Snow 0 1016 93 10000 9.26 240 22:34 14.02.2021
2526 Snow -1 1017 93 10000 6.69 240 21:58 14.02.2021
2527 Snow -1 1018 93 10000 5.66 240 21:37 14.02.2021
2528 Snow -1 1018 93 10000 5.66 240 21:18 14.02.2021
2529 Snow -2 1019 100 5000 5.14 250 20:39 14.02.2021
2530 Snow -2 1019 100 2500 4.12 250 20:20 14.02.2021
2531 Snow -2 1019 100 4000 4.63 230 19:40 14.02.2021
2532 Snow -2 1020 93 5000 4.12 230 18:49 14.02.2021
2533 Snow -2 1020 93 3000 5.14 240 18:29 14.02.2021
2534 Snow -3 1020 93 8000 3.6 240 17:49 14.02.2021
2535 Snow -2 1021 80 6000 4.63 240 17:30 14.02.2021
2536 Snow -3 1021 86 10000 3.6 240 16:43 14.02.2021
2537 Snow -3 1021 80 3000 5.14 280 16:24 14.02.2021
2538 Snow -3 1022 74 10000 5.66 250 15:46 14.02.2021
2539 Snow -3 1022 80 10000 3.6 240 15:26 14.02.2021
2540 Snow -3 1022 86 10000 3.6 240 14:43 14.02.2021
2541 Snow -3 1022 80 10000 4.63 260 14:24 14.02.2021
2542 Snow -3 1022 80 8000 2.57 280 13:41 14.02.2021
2543 Snow -3 1022 86 10000 4.12 230 13:23 14.02.2021
2544 Snow -4 1023 86 350 7.2 290 12:24 14.02.2021
2545 Snow -4 1023 86 4700 1.03 0 11:59 14.02.2021
2546 Snow -4 1023 86 4700 1.03 0 11:40 14.02.2021
2547 Snow -4 1023 86 10000 1.03 0 11:20 14.02.2021
2548 Snow -5 1023 93 10000 3.09 350 10:24 14.02.2021
2549 Snow -5 1023 93 10000 1.54 0 09:40 14.02.2021
2550 Snow -4 1023 86 6000 2.57 330 09:21 14.02.2021
2551 Snow -5 1023 86 10000 2.06 280 08:58 14.02.2021
2552 Snow -4 1023 86 3200 3.6 260 08:18 14.02.2021
2553 Snow -4 1023 86 10000 2.57 270 07:19 14.02.2021
2554 Snow -5 1023 93 10000 3.09 240 06:26 14.02.2021
2555 Snow -4 1023 86 1800 4.63 250 04:34 14.02.2021
2556 Snow -4 1023 74 10000 3.6 260 02:30 14.02.2021
2557 Clouds -4 1023 63 10000 3.09 350 01:29 14.02.2021
2558 Snow -4 1024 74 10000 3.6 260 00:41 14.02.2021
2559 Snow -5 1024 74 10000 1.03 0 23:57 13.02.2021
2560 Snow -5 1024 93 900 3.09 300 23:25 13.02.2021
2561 Snow -5 1024 80 10000 1.54 290 22:57 13.02.2021
2562 Snow -6 1023 73 10000 2.57 340 22:22 13.02.2021
2563 Snow -6 1023 86 10000 1.03 0 21:49 13.02.2021
2564 Snow -5 1024 86 10000 6.17 330 21:27 13.02.2021
2565 Snow -4 1023 63 10000 3.09 330 20:45 13.02.2021
2566 Snow -4 1023 63 10000 3.09 0 20:26 13.02.2021
2567 Snow -4 1023 68 10000 3.09 340 19:48 13.02.2021
2568 Snow -5 1023 74 10000 3.09 340 19:23 13.02.2021
2569 Snow -4 1023 74 10000 2.57 0 18:49 13.02.2021
2570 Snow -4 1023 74 10000 4.63 330 18:27 13.02.2021
2571 Snow -4 1022 58 10000 3.09 300 17:44 13.02.2021
2572 Snow -4 1022 68 10000 3.6 0 17:25 13.02.2021
2573 Snow -4 1022 86 10000 3.6 20 16:52 13.02.2021
2574 Snow -4 1022 86 1000 5.14 340 16:31 13.02.2021
2575 Snow -4 1022 86 10000 4.12 340 15:43 13.02.2021
2576 Snow -4 1022 80 10000 4.63 350 15:24 13.02.2021
2577 Snow -5 1021 93 1000 4.63 360 14:40 13.02.2021
2578 Snow -4 1021 86 2500 6.17 290 13:49 13.02.2021
2579 Snow -4 1020 86 3000 4.63 280 13:27 13.02.2021
2580 Snow -3 1020 74 10000 3.6 250 12:52 13.02.2021
2581 Snow -3 1020 74 10000 2.57 280 12:21 13.02.2021
2582 Snow -4 1020 63 10000 5.54 320 11:55 13.02.2021
2583 Snow -3 1020 54 10000 2.06 340 11:22 13.02.2021
2584 Snow -3 1019 54 10000 2.06 340 10:59 13.02.2021
2585 Snow -3 1019 54 10000 2.06 340 10:41 13.02.2021
2586 Snow -4 1019 63 10000 2.57 360 10:21 13.02.2021
2587 Snow -6 1019 86 10000 2.57 50 09:45 13.02.2021
2588 Snow -4 1019 80 10000 3.6 30 09:23 13.02.2021
2589 Snow -4 1019 74 10000 4.63 20 08:46 13.02.2021
2590 Snow -3 1019 63 10000 4.63 10 08:18 13.02.2021
2591 Snow -4 1018 80 2500 6.69 300 06:50 13.02.2021
2592 Snow -3 1018 54 10000 3.6 350 06:22 13.02.2021
2593 Clouds -4 1018 80 10000 4.63 20 04:27 13.02.2021
2594 Drizzle -4 1018 86 10000 5.14 10 02:36 13.02.2021
2595 Snow -3 1018 80 10000 7.72 0 00:54 13.02.2021
2596 Snow -4 1018 93 800 7.72 0 23:57 12.02.2021
2597 Snow -4 1018 93 800 7.72 0 23:39 12.02.2021
2598 Snow -3 1018 93 600 7.72 0 23:18 12.02.2021
2599 Snow -3 1018 93 500 9.77 290 22:31 12.02.2021
2600 Snow -3 1018 93 450 10.8 280 21:56 12.02.2021
2601 Snow -3 1018 93 450 10.8 280 21:37 12.02.2021
2602 Snow -3 1018 100 600 10.8 270 21:18 12.02.2021
2603 Snow -3 1017 100 1000 10.29 270 20:39 12.02.2021
2604 Snow -2 1016 93 1000 5.66 0 20:20 12.02.2021
2605 Snow -1 1015 93 600 6.69 0 19:49 12.02.2021
2606 Snow -2 1015 93 10000 1.03 0 19:26 12.02.2021
2607 Snow -2 1014 93 10000 2.57 20 18:31 12.02.2021
2608 Snow -1 1014 86 10000 2.06 360 17:53 12.02.2021
2609 Snow -1 1014 86 10000 2.06 360 17:35 12.02.2021
2610 Snow -1 1013 80 10000 4.63 290 16:43 12.02.2021
2611 Snow -1 1012 86 10000 3.6 270 15:48 12.02.2021
2612 Snow -1 1012 93 10000 4.12 240 15:24 12.02.2021
2613 Snow -2 1012 100 7000 3.09 230 14:59 12.02.2021
2614 Snow -2 1012 100 7000 3.09 230 14:34 12.02.2021
2615 Snow -2 1011 93 10000 2.06 230 13:47 12.02.2021
2616 Snow -2 1011 93 10000 1.54 40 13:28 12.02.2021
2617 Snow -3 1011 100 1200 1.03 0 12:53 12.02.2021
2618 Snow -3 1011 100 1200 1.03 0 12:35 12.02.2021
2619 Snow -4 1010 86 2500 1.54 0 11:47 12.02.2021
2620 Snow -5 1010 80 10000 1.54 0 11:20 12.02.2021
2621 Snow -5 1011 74 10000 2.06 40 10:47 12.02.2021
2622 Clouds -6 1011 73 10000 1.54 60 09:57 12.02.2021
2623 Snow -6 1011 73 10000 1.54 60 09:39 12.02.2021
2624 Snow -5 1011 80 10000 1.54 0 09:19 12.02.2021
2625 Snow -6 1011 68 10000 3.5 142 08:40 12.02.2021
2626 Clear -4 1010 68 10000 1.54 0 08:20 12.02.2021
2627 Snow -4 1010 63 10000 2.57 200 07:51 12.02.2021
2628 Snow -4 1010 63 10000 4.12 150 06:58 12.02.2021
2629 Snow -4 1011 63 10000 4.63 50 05:51 12.02.2021
2630 Snow -3 1011 59 10000 3.09 100 05:26 12.02.2021
2631 Clouds -3 1014 74 10000 1.54 300 01:59 12.02.2021
2632 Clouds -4 1016 80 10000 4.63 200 23:58 11.02.2021
2633 Clouds -3 1017 74 10000 5.14 210 23:23 11.02.2021
2634 Snow -3 1017 74 10000 7.72 210 22:58 11.02.2021
2635 Snow -3 1017 74 10000 7.72 210 22:40 11.02.2021
2636 Snow -3 1017 68 10000 5.14 210 22:21 11.02.2021
2637 Clouds -3 1017 68 10000 2.06 130 21:42 11.02.2021
2638 Clouds -3 1017 68 10000 2.06 130 21:42 11.02.2021
2639 Snow -3 1018 74 10000 3.6 150 21:23 11.02.2021
2640 Snow -3 1018 80 10000 2.06 130 20:46 11.02.2021
2641 Clouds -3 1018 80 10000 2.57 200 20:23 11.02.2021
2642 Clouds -4 1019 74 10000 2.57 30 19:52 11.02.2021
2643 Clouds -4 1019 74 10000 2.57 30 19:33 11.02.2021
2644 Clouds -4 1020 86 10000 0.51 0 18:59 11.02.2021
2645 Clouds -4 1020 86 10000 1.03 0 18:31 11.02.2021
2646 Clouds -3 1020 86 10000 3.09 200 17:58 11.02.2021
2647 Clouds -3 1020 86 10000 3.09 200 17:37 11.02.2021
2648 Clouds -3 1021 86 10000 3.6 240 17:19 11.02.2021
2649 Snow -2 1021 80 10000 4.63 240 16:41 11.02.2021
2650 Clouds -3 1021 74 10000 3.09 280 16:23 11.02.2021
2651 Clouds -3 1021 80 10000 2.57 290 15:44 11.02.2021
2652 Clouds -3 1021 80 10000 2.57 290 15:44 11.02.2021
2653 Clouds -2 1021 74 10000 5.14 260 15:26 11.02.2021
2654 Clouds -2 1022 86 10000 1.03 0 14:53 11.02.2021
2655 Clouds -2 1022 74 10000 1.54 280 14:30 11.02.2021
2656 Clouds -3 1022 86 10000 0.51 0 13:42 11.02.2021
2657 Snow -2 1022 74 2500 2.57 300 13:19 11.02.2021
2658 Snow -1 1022 74 10000 2.57 270 12:53 11.02.2021
2659 Snow -2 1022 74 10000 1.54 300 12:32 11.02.2021
2660 Snow -2 1022 69 10000 3.09 330 11:47 11.02.2021
2661 Snow -3 1022 86 10000 5.14 30 11:26 11.02.2021
2662 Snow -2 1022 86 10000 8.75 360 10:45 11.02.2021
2663 Snow -1 1021 59 10000 3.6 340 10:26 11.02.2021
2664 Snow -1 1021 64 10000 3.6 340 09:56 11.02.2021
2665 Snow -2 1021 69 10000 2.06 310 09:26 11.02.2021
2666 Snow -2 1021 74 10000 4.12 280 08:55 11.02.2021
2667 Snow -3 1021 86 10000 1.03 0 08:31 11.02.2021
2668 Snow -3 1021 93 10000 2.57 310 07:39 11.02.2021
2669 Snow -4 1021 93 10000 1.54 40 06:42 11.02.2021
2670 Snow -3 1021 93 800 4.12 350 05:44 11.02.2021
2671 Snow -3 1019 93 10000 3.09 10 02:49 11.02.2021
2672 Clouds -2 1019 74 10000 2.57 300 02:21 11.02.2021
2673 Snow -3 1019 86 1500 5.14 250 00:23 11.02.2021
2674 Snow -3 1019 80 1800 5.14 240 23:47 10.02.2021
2675 Snow -4 1019 80 10000 4.63 230 23:18 10.02.2021
2676 Snow -4 1019 74 10000 3.6 240 22:42 10.02.2021
2677 Snow -4 1019 68 10000 4.12 260 22:19 10.02.2021
2678 Snow -3 1019 63 10000 3.09 240 21:39 10.02.2021
2679 Snow -4 1019 68 10000 1.03 0 21:20 10.02.2021
2680 Snow -4 1019 68 10000 1.03 0 20:50 10.02.2021
2681 Snow -4 1020 63 10000 3.09 300 20:28 10.02.2021
2682 Clouds -4 1020 63 10000 2.06 0 19:50 10.02.2021
2683 Clouds -4 1019 58 10000 3.6 340 19:27 10.02.2021
2684 Snow -4 1019 63 10000 3.6 330 18:48 10.02.2021
2685 Snow -6 1019 93 9000 1.54 0 18:26 10.02.2021
2686 Snow -5 1020 86 6000 2.06 50 17:59 10.02.2021
2687 Snow -6 1020 93 5000 3.09 20 17:26 10.02.2021
2688 Snow -6 1019 79 10000 3.6 30 16:59 10.02.2021
2689 Snow -6 1019 79 10000 3.6 30 16:41 10.02.2021
2690 Snow -5 1019 80 10000 4.12 20 16:22 10.02.2021
2691 Snow -6 1019 79 10000 4.63 30 15:24 10.02.2021
2692 Snow -6 1019 86 10000 4.12 30 14:53 10.02.2021
2693 Snow -6 1019 86 10000 4.12 30 14:34 10.02.2021
2694 Snow -5 1019 80 10000 6.17 40 13:55 10.02.2021
2695 Snow -5 1019 68 10000 6.17 20 13:30 10.02.2021
2696 Snow -5 1019 74 10000 4.63 20 12:54 10.02.2021
2697 Snow -5 1019 80 10000 5.14 30 12:31 10.02.2021
2698 Snow -5 1018 80 10000 6.69 20 11:58 10.02.2021
2699 Snow -5 1018 80 10000 6.69 20 11:39 10.02.2021
2700 Snow -5 1018 80 800 6.69 20 11:21 10.02.2021
2701 Snow -6 1018 79 10000 7.2 20 10:25 10.02.2021
2702 Snow -6 1018 86 10000 8.75 30 09:57 10.02.2021
2703 Snow -6 1018 86 10000 8.75 30 09:33 10.02.2021
2704 Snow -5 1018 86 10000 9.26 30 08:57 10.02.2021
2705 Snow -5 1018 86 10000 9.26 30 08:39 10.02.2021
2706 Snow -6 1018 86 10000 5.14 40 07:41 10.02.2021
2707 Snow -6 1018 86 5000 5.66 10 06:33 10.02.2021
2708 Snow -6 1019 79 10000 5.66 20 01:56 10.02.2021
2709 Snow -6 1020 86 10000 5.14 30 00:24 10.02.2021
2710 Snow -6 1020 86 10000 5.14 30 00:24 10.02.2021
2711 Snow -6 1020 86 1500 9.26 20 23:34 09.02.2021
2712 Snow -7 1020 86 10000 7.72 10 22:54 09.02.2021
2713 Snow -6 1020 86 1000 12.86 10 22:24 09.02.2021
2714 Snow -6 1020 68 10000 7.72 20 21:52 09.02.2021
2715 Snow -6 1020 86 5000 8.75 20 21:27 09.02.2021
2716 Snow -6 1021 86 4000 7.72 40 20:49 09.02.2021
2717 Snow -7 1021 93 9000 8.23 10 20:26 09.02.2021
2718 Snow -6 1021 79 2000 8.75 40 19:58 09.02.2021
2719 Snow -6 1021 73 10000 6.69 40 19:35 09.02.2021
2720 Snow -6 1021 86 6000 8.23 50 18:58 09.02.2021
2721 Snow -6 1021 86 6000 8.23 50 18:58 09.02.2021
2722 Snow -6 1021 86 6000 8.23 50 18:58 09.02.2021
2723 Snow -6 1021 86 6000 8.23 50 18:58 09.02.2021
2724 Snow -6 1021 86 6000 8.23 50 18:36 09.02.2021
2725 Snow -6 1021 86 500 14.92 30 17:57 09.02.2021
2726 Snow -6 1021 86 500 14.92 30 17:37 09.02.2021
2727 Snow -6 1021 93 10000 7.2 30 17:18 09.02.2021
2728 Snow -6 1021 86 800 6.69 50 16:41 09.02.2021
2729 Snow -6 1021 86 800 6.69 50 16:18 09.02.2021
2730 Snow -6 1021 86 10000 6.69 60 15:48 09.02.2021
2731 Snow -5 1021 80 10000 10.29 50 15:25 09.02.2021
2732 Snow -6 1021 86 9000 8.23 30 14:53 09.02.2021
2733 Snow -5 1021 80 5000 7.2 20 14:27 09.02.2021
2734 Snow -5 1020 68 10000 5.14 60 13:51 09.02.2021
2735 Snow -5 1020 74 10000 5.66 70 13:25 09.02.2021
2736 Snow -6 1020 86 10000 6.69 30 12:51 09.02.2021
2737 Snow -6 1020 86 10000 6.69 30 12:32 09.02.2021
2738 Snow -6 1020 86 10000 6.17 60 11:56 09.02.2021
2739 Snow -6 1020 86 10000 6.17 60 11:38 09.02.2021
2740 Clouds -6 1020 93 10000 6.69 80 11:20 09.02.2021
2741 Clouds -6 1020 93 10000 6.69 80 11:20 09.02.2021
2742 Snow -6 1020 86 10000 6.17 80 10:49 09.02.2021
2743 Snow -6 1020 86 600 9.26 40 10:18 09.02.2021
2744 Snow -6 1019 86 500 10.29 50 09:43 09.02.2021
2745 Snow -7 1019 86 10000 2.06 40 09:24 09.02.2021
2746 Snow -7 1018 79 10000 4.12 60 08:44 09.02.2021
2747 Snow -7 1018 86 10000 2.06 50 08:25 09.02.2021
2748 Snow -5 1018 58 10000 6.69 20 06:20 09.02.2021
2749 Snow -6 1018 86 5000 5.14 10 04:52 09.02.2021
2750 Snow -5 1019 74 10000 4.12 20 03:38 09.02.2021
2751 Snow -6 1019 86 8000 5.14 30 00:34 09.02.2021
2752 Snow -6 1019 73 10000 4.12 30 23:57 08.02.2021
2753 Snow -6 1019 86 10000 7.2 20 23:21 08.02.2021
2754 Snow -5 1019 63 10000 3.6 20 22:44 08.02.2021
2755 Snow -5 1020 68 10000 4.12 20 22:25 08.02.2021
2756 Snow -6 1020 86 6000 5.14 30 21:57 08.02.2021
2757 Snow -6 1020 86 6000 5.14 30 21:33 08.02.2021
2758 Snow -6 1020 79 6000 6.17 10 20:59 08.02.2021
2759 Snow -6 1020 79 6000 6.17 10 20:39 08.02.2021
2760 Snow -7 1020 79 10000 4.63 20 20:21 08.02.2021
2761 Snow -6 1020 63 10000 4.63 20 19:43 08.02.2021
2762 Snow -6 1020 68 10000 3.6 20 19:25 08.02.2021
2763 Snow -6 1020 63 10000 4.12 20 18:49 08.02.2021
2764 Snow -6 1020 63 10000 4.12 20 18:23 08.02.2021
2765 Snow -7 1020 86 10000 3.09 30 17:46 08.02.2021
2766 Snow -6 1021 73 1500 4.12 20 17:26 08.02.2021
2767 Snow -8 1020 73 10000 2.06 20 16:45 08.02.2021
2768 Snow -7 1021 86 1800 8.23 10 16:23 08.02.2021
2769 Snow -6 1021 68 10000 4.12 20 15:48 08.02.2021
2770 Snow -6 1021 68 10000 4.12 30 15:21 08.02.2021
2771 Snow -7 1021 86 10000 5.14 40 14:58 08.02.2021
2772 Snow -7 1021 86 10000 5.14 40 14:39 08.02.2021
2773 Snow -7 1021 73 10000 6.69 40 14:20 08.02.2021
2774 Snow -6 1021 58 10000 6.69 30 13:40 08.02.2021
2775 Snow -5 1021 54 10000 5.14 30 13:22 08.02.2021
2776 Snow -5 1021 58 10000 5.14 30 12:37 08.02.2021
2777 Snow -5 1021 68 10000 6.69 40 11:51 08.02.2021
2778 Snow -5 1021 74 10000 6.17 40 11:23 08.02.2021
2779 Snow -5 1021 80 10000 6.17 30 10:46 08.02.2021
2780 Snow -5 1021 86 10000 7.2 30 10:24 08.02.2021
2781 Snow -5 1021 86 1600 5.14 30 09:55 08.02.2021
2782 Snow -5 1021 86 1600 5.14 30 09:36 08.02.2021
2783 Snow -5 1021 86 3000 9.26 360 08:51 08.02.2021
2784 Snow -5 1021 86 10000 8.23 10 08:23 08.02.2021
2785 Snow -4 1021 63 10000 7.72 360 07:38 08.02.2021
2786 Snow -4 1022 74 10000 6.17 10 06:31 08.02.2021
2787 Snow -5 1023 86 10000 5.66 30 04:53 08.02.2021
2788 Snow -5 1024 86 8000 7.72 20 02:26 08.02.2021
2789 Snow -5 1025 74 10000 5.14 20 00:24 08.02.2021
2790 Snow -4 1025 74 10000 5.14 20 23:53 07.02.2021
2791 Snow -5 1025 74 10000 4.63 30 23:28 07.02.2021
2792 Snow -5 1025 74 10000 7.2 30 22:56 07.02.2021
2793 Snow -5 1025 74 10000 7.2 30 22:37 07.02.2021
2794 Snow -5 1025 74 10000 9.77 30 22:19 07.02.2021
2795 Snow -5 1025 74 10000 9.77 30 21:49 07.02.2021
2796 Snow -4 1025 68 10000 7.2 20 21:22 07.02.2021
2797 Snow -5 1025 86 3500 8.75 40 20:49 07.02.2021
2798 Snow -5 1025 86 10000 7.2 20 20:27 07.02.2021
2799 Snow -5 1025 86 10000 8.23 40 19:47 07.02.2021
2800 Snow -5 1025 74 10000 8.75 30 19:28 07.02.2021
2801 Snow -4 1025 68 10000 7.2 20 18:45 07.02.2021
2802 Snow -5 1025 86 10000 10.29 20 18:27 07.02.2021
2803 Snow -4 1026 80 1500 13.38 20 17:57 07.02.2021
2804 Snow -4 1026 80 5000 7.72 30 17:38 07.02.2021
2805 Snow -5 1026 86 10000 7.72 20 17:18 07.02.2021
2806 Snow -4 1025 68 10000 6.69 20 16:41 07.02.2021
2807 Snow -4 1025 63 10000 6.17 10 16:20 07.02.2021
2808 Snow -4 1025 80 10000 8.23 20 15:44 07.02.2021
2809 Snow -5 1026 80 9000 8.75 360 15:21 07.02.2021
2810 Snow -4 1026 63 7000 5.66 10 14:44 07.02.2021
2811 Snow -4 1026 58 10000 7.2 20 14:26 07.02.2021
2812 Snow -4 1026 63 10000 7.2 30 13:50 07.02.2021
2813 Snow -4 1026 68 10000 6.69 30 13:30 07.02.2021
2814 Snow -4 1026 80 8000 8.23 30 12:42 07.02.2021
2815 Snow -4 1026 80 10000 6.17 30 12:21 07.02.2021
2816 Snow -4 1026 74 10000 8.75 20 11:45 07.02.2021
2817 Snow -4 1026 80 10000 7.2 30 11:26 07.02.2021
2818 Snow -4 1026 86 7000 9.26 40 10:44 07.02.2021
2819 Snow -4 1027 93 2416 7.23 2 10:23 07.02.2021
2820 Snow -4 1027 93 2416 7.23 2 09:44 07.02.2021
2821 Snow -4 1027 93 2479 7.32 4 09:21 07.02.2021
2822 Snow -3 1028 94 1959 7.35 5 08:22 07.02.2021
2823 Snow -3 1028 95 1077 7.51 6 06:34 07.02.2021
2824 Snow -3 1028 95 632 7.76 6 05:57 07.02.2021
2825 Snow -4 1028 96 695 7.91 6 03:49 07.02.2021
2826 Snow -3 1030 95 1069 7.93 4 01:24 07.02.2021
2827 Snow -3 1029 96 477 8.06 0 00:32 07.02.2021
2828 Snow -3 1030 96 536 7.8 2 23:44 06.02.2021
2829 Snow -4 1029 86 10000 7.2 20 22:40 06.02.2021
2830 Snow -4 1029 80 10000 6.69 20 21:40 06.02.2021
2831 Snow -3 1030 63 10000 8.23 20 21:21 06.02.2021
2832 Clouds -3 1029 59 10000 7.2 10 20:51 06.02.2021
2833 Snow -3 1029 63 10000 6.17 20 20:25 06.02.2021
2834 Snow -3 1030 63 10000 6.17 20 19:57 06.02.2021
2835 Snow -4 1030 80 10000 6.17 30 19:31 06.02.2021
2836 Snow -4 1030 80 10000 5.14 10 18:49 06.02.2021
2837 Snow -4 1030 74 10000 6.69 10 18:31 06.02.2021
2838 Snow -3 1030 63 10000 6.17 20 17:48 06.02.2021
2839 Snow -3 1030 63 10000 7.2 10 17:22 06.02.2021
2840 Snow -3 1030 63 10000 6.17 20 16:59 06.02.2021
2841 Snow -3 1030 63 10000 6.17 20 16:40 06.02.2021
2842 Snow -3 1031 59 10000 7.2 20 16:22 06.02.2021
2843 Clouds -3 1031 59 10000 8.23 10 15:45 06.02.2021
2844 Snow -4 1031 86 10000 4.63 40 15:21 06.02.2021
2845 Snow -3 1031 80 10000 7.2 20 14:45 06.02.2021
2846 Snow -3 1031 80 10000 7.2 20 14:45 06.02.2021
2847 Snow -3 1031 80 10000 10.29 350 14:26 06.02.2021
2848 Snow -3 1031 74 10000 11.32 20 13:49 06.02.2021
2849 Snow -3 1031 74 10000 11.32 20 13:49 06.02.2021
2850 Snow -3 1031 86 7000 7.72 40 13:29 06.02.2021
2851 Snow -3 1032 86 5000 7.2 20 12:22 06.02.2021
2852 Snow -3 1032 86 7000 7.72 10 11:48 06.02.2021
2853 Snow -3 1032 86 6000 7.2 20 11:25 06.02.2021
2854 Snow -3 1032 80 8000 7.2 30 10:57 06.02.2021
2855 Snow -3 1032 80 8000 7.2 30 10:39 06.02.2021
2856 Snow -3 1031 80 10000 6.69 40 10:20 06.02.2021
2857 Snow -4 1031 93 2000 5.14 40 09:37 06.02.2021
2858 Snow -4 1031 86 9000 7.2 40 09:18 06.02.2021
2859 Snow -3 1031 74 10000 6.17 20 08:49 06.02.2021
2860 Snow -4 1031 86 10000 7.72 20 08:23 06.02.2021
2861 Snow -3 1031 80 10000 7.72 40 06:29 06.02.2021
2862 Snow -3 1031 86 10000 8.23 30 04:45 06.02.2021
2863 Snow -3 1031 80 10000 7.72 30 02:39 06.02.2021
2864 Snow -1 1030 64 10000 6.69 40 00:49 06.02.2021
2865 Snow -2 1030 80 10000 5.66 50 00:21 06.02.2021
2866 Snow -3 1030 80 10000 5.14 60 23:50 05.02.2021
2867 Snow -3 1030 93 4000 10.8 60 23:27 05.02.2021
2868 Snow -2 1029 93 4000 5.14 40 22:49 05.02.2021
2869 Snow -2 1030 86 1000 10.29 20 22:24 05.02.2021
2870 Snow -2 1030 86 4000 11.83 20 21:52 05.02.2021
2871 Snow -2 1029 74 10000 9.77 30 21:30 05.02.2021
2872 Clouds -2 1029 80 10000 8.23 20 20:48 05.02.2021
2873 Snow -2 1029 80 7000 7.2 20 19:57 05.02.2021
2874 Snow -2 1029 86 1000 11.32 10 19:25 05.02.2021
2875 Snow -2 1029 80 5000 6.69 10 18:55 05.02.2021
2876 Snow -1 1029 69 10000 9.26 10 18:28 05.02.2021
2877 Snow -1 1029 74 10000 7.2 10 17:56 05.02.2021
2878 Snow -1 1029 74 10000 7.2 20 17:33 05.02.2021
2879 Snow -2 1029 86 9000 8.75 30 16:57 05.02.2021
2880 Snow -2 1029 86 9000 8.75 30 16:38 05.02.2021
2881 Snow -2 1029 93 9000 10.29 20 16:19 05.02.2021
2882 Snow -2 1029 93 10000 3.6 10 15:40 05.02.2021
2883 Snow -2 1029 93 10000 3.6 10 15:20 05.02.2021
2884 Snow -2 1029 93 2500 2.57 10 14:38 05.02.2021
2885 Snow -2 1029 93 10000 3.09 360 14:18 05.02.2021
2886 Snow -3 1029 93 8000 3.09 340 13:43 05.02.2021
2887 Snow -4 1029 100 10000 1.03 0 13:24 05.02.2021
2888 Snow -3 1029 93 10000 1.54 0 12:41 05.02.2021
2889 Snow -3 1029 93 10000 1.54 0 12:41 05.02.2021
2890 Snow -4 1029 100 2500 3.67 354 12:20 05.02.2021
2891 Snow -4 1029 100 10000 1.03 0 11:39 05.02.2021
2892 Snow -4 1029 100 10000 1.03 0 11:19 05.02.2021
2893 Snow -4 1029 100 8000 0.89 333 10:48 05.02.2021
2894 Snow -3 1029 93 1000 0.51 0 10:25 05.02.2021
2895 Snow -4 1029 93 5000 1.03 0 09:43 05.02.2021
2896 Snow -3 1029 93 6000 1.54 40 09:24 05.02.2021
2897 Snow -4 1028 93 9000 2.06 60 08:41 05.02.2021
2898 Snow -4 1028 93 9000 2.06 70 07:42 05.02.2021
2899 Snow -3 1028 86 10000 2.57 70 07:22 05.02.2021
2900 Snow -3 1028 86 9000 2.57 70 06:32 05.02.2021
2901 Snow -3 1027 93 10000 2.57 40 05:33 05.02.2021
2902 Snow -1 1027 74 10000 7.2 20 02:26 05.02.2021
2903 Snow -1 1026 69 10000 8.23 30 01:28 05.02.2021
2904 Snow -1 1026 64 10000 8.23 40 00:36 05.02.2021
2905 Snow -1 1026 64 10000 8.23 40 00:18 05.02.2021
2906 Snow -1 1026 64 10000 7.72 40 23:42 04.02.2021
2907 Snow -1 1026 64 10000 7.72 40 23:42 04.02.2021
2908 Snow -1 1026 64 10000 9.77 50 23:23 04.02.2021
2909 Snow -1 1026 64 10000 8.75 50 22:54 04.02.2021
2910 Snow -1 1026 64 10000 8.75 50 22:35 04.02.2021
2911 Snow -1 1026 69 10000 7.2 40 21:58 04.02.2021
2912 Snow -1 1026 69 10000 7.2 40 21:39 04.02.2021
2913 Snow -1 1026 69 10000 6.69 40 20:58 04.02.2021
2914 Snow -1 1026 69 10000 6.69 40 20:34 04.02.2021
2915 Snow -1 1026 69 10000 7.2 40 19:53 04.02.2021
2916 Snow -1 1026 69 10000 8.23 40 19:27 04.02.2021
2917 Snow -1 1026 74 10000 6.17 40 18:51 04.02.2021
2918 Snow -1 1026 74 10000 5.66 40 18:24 04.02.2021
2919 Snow -1 1026 69 10000 6.17 30 17:50 04.02.2021
2920 Snow -1 1025 69 10000 6.17 40 17:24 04.02.2021
2921 Snow -1 1025 69 10000 7.2 40 16:51 04.02.2021
2922 Snow -1 1025 69 10000 7.2 40 16:21 04.02.2021
2923 Snow -1 1025 69 10000 7.2 40 16:21 04.02.2021
2924 Snow -1 1025 69 10000 6.69 40 15:58 04.02.2021
2925 Snow -1 1025 69 10000 6.69 40 15:38 04.02.2021
2926 Snow -1 1025 74 10000 6.17 40 15:20 04.02.2021
2927 Snow -2 1026 86 10000 6.69 20 14:40 04.02.2021
2928 Snow -1 1026 69 10000 7.2 30 14:20 04.02.2021
2929 Snow -1 1026 74 10000 5.14 30 13:44 04.02.2021
2930 Snow -2 1026 74 10000 7.2 20 12:58 04.02.2021
2931 Snow -2 1026 74 10000 7.2 20 12:34 04.02.2021
2932 Snow -2 1025 74 10000 7.2 30 11:53 04.02.2021
2933 Snow -2 1025 74 10000 7.2 30 11:33 04.02.2021
2934 Clouds -2 1025 69 10000 7.72 30 10:50 04.02.2021
2935 Snow -1 1025 74 10000 7.72 30 10:19 04.02.2021
2936 Snow -1 1024 69 10000 7.72 30 09:44 04.02.2021
2937 Clouds -1 1024 69 10000 6.69 30 09:19 04.02.2021
2938 Snow -2 1024 86 3000 7.72 40 08:48 04.02.2021
2939 Snow -2 1024 86 2500 8.23 30 08:24 04.02.2021
2940 Snow -2 1023 80 9000 6.69 40 07:43 04.02.2021
2941 Snow -2 1023 80 10000 6.69 40 07:24 04.02.2021
2942 Snow -2 1023 80 10000 9.26 30 06:43 04.02.2021
2943 Clouds -3 1023 63 10000 10.29 20 04:31 04.02.2021
2944 Clouds -3 1023 68 10000 11.83 30 02:27 04.02.2021
2945 Snow -3 1023 63 10000 7.72 30 00:57 04.02.2021
2946 Snow -3 1022 68 10000 10.29 30 23:52 03.02.2021
2947 Snow -3 1022 68 10000 7.72 30 23:27 03.02.2021
2948 Snow -3 1022 63 10000 11.32 30 22:36 03.02.2021
2949 Snow -3 1022 63 10000 6.69 30 22:18 03.02.2021
2950 Clouds -3 1022 68 10000 7.2 30 21:41 03.02.2021
2951 Snow -3 1022 63 10000 8.23 30 21:21 03.02.2021
2952 Snow -4 1022 68 10000 11.32 30 20:48 03.02.2021
2953 Snow -4 1021 68 10000 8.75 40 20:28 03.02.2021
2954 Snow -3 1021 63 10000 9.26 40 19:52 03.02.2021
2955 Snow -3 1021 68 9000 8.75 40 19:23 03.02.2021
2956 Snow -3 1021 74 10000 9.77 40 18:51 03.02.2021
2957 Snow -2 1021 69 10000 9.26 40 18:22 03.02.2021
2958 Snow -3 1020 80 10000 9.77 40 17:57 03.02.2021
2959 Snow -3 1020 80 10000 9.77 40 17:37 03.02.2021
2960 Snow -3 1020 86 10000 8.75 40 17:18 03.02.2021
2961 Snow -3 1020 93 1000 7.2 50 16:36 03.02.2021
2962 Snow -3 1020 93 1000 7.2 50 16:36 03.02.2021
2963 Snow -3 1020 86 10000 7.2 40 15:51 03.02.2021
2964 Snow -3 1019 80 2500 7.72 20 15:31 03.02.2021
2965 Snow -3 1019 93 10000 7.2 50 14:59 03.02.2021
2966 Snow -3 1019 93 10000 7.2 50 14:41 03.02.2021
2967 Snow -3 1019 93 5000 11.83 50 14:19 03.02.2021
2968 Snow -3 1019 80 10000 7.72 30 13:43 03.02.2021
2969 Snow -2 1019 86 10000 4.63 340 13:18 03.02.2021
2970 Snow -3 1019 93 10000 5.66 350 12:39 03.02.2021
2971 Snow -3 1019 80 1500 6.17 10 12:19 03.02.2021
2972 Snow -2 1019 69 10000 6.17 20 11:41 03.02.2021
2973 Snow -2 1019 69 10000 5.66 10 11:21 03.02.2021
2974 Snow -4 1020 93 10000 1.54 0 10:27 03.02.2021
2975 Snow -5 1020 93 7000 1.03 0 09:58 03.02.2021
2976 Snow -5 1020 93 7000 1.03 0 09:38 03.02.2021
2977 Snow -5 1019 93 5000 1.03 0 09:19 03.02.2021
2978 Snow -6 1019 93 400 4.86 47 08:43 03.02.2021
2979 Snow -5 1019 86 6000 2.57 70 07:54 03.02.2021
2980 Snow -6 1019 86 10000 5.17 47 06:42 03.02.2021
2981 Snow -6 1018 86 10000 4.63 50 04:56 03.02.2021
2982 Snow -6 1018 86 10000 4.63 50 04:37 03.02.2021
2983 Snow -6 1018 93 10000 1.54 40 03:49 03.02.2021
2984 Snow -6 1018 86 10000 3.09 40 02:39 03.02.2021
2985 Snow -5 1017 93 10000 4.63 50 01:24 03.02.2021
2986 Snow -6 1017 86 2000 3.09 30 00:24 03.02.2021
2987 Snow -6 1017 79 10000 4.63 50 23:43 02.02.2021
2988 Snow -5 1017 93 7000 3.09 40 23:25 02.02.2021
2989 Snow -5 1016 80 10000 4.12 40 22:43 02.02.2021
2990 Snow -5 1016 86 10000 5.66 80 22:20 02.02.2021
2991 Clouds -5 1016 86 10000 7.2 60 21:46 02.02.2021
2992 Clouds -5 1016 86 10000 7.2 60 21:46 02.02.2021
2993 Snow -5 1015 86 6000 9.26 60 21:24 02.02.2021
2994 Clouds -4 1015 68 10000 5.66 50 20:49 02.02.2021
2995 Snow -4 1015 74 10000 6.69 60 20:21 02.02.2021
2996 Clouds -5 1014 86 10000 5.66 70 19:52 02.02.2021
2997 Clouds -5 1014 86 10000 5.66 70 19:34 02.02.2021
2998 Snow -4 1014 74 10000 8.23 40 18:57 02.02.2021
2999 Snow -4 1014 74 10000 8.23 40 18:38 02.02.2021
3000 Snow -4 1013 80 10000 3.6 60 18:20 02.02.2021
3001 Snow -5 1013 80 10000 5.14 40 17:38 02.02.2021
3002 Snow -4 1013 93 5000 5.14 70 17:19 02.02.2021
3003 Snow -5 1013 86 2500 4.12 50 16:48 02.02.2021
3004 Snow -5 1012 100 10000 3.09 50 16:27 02.02.2021
3005 Snow -5 1012 100 1400 3.09 80 15:56 02.02.2021
3006 Snow -5 1012 93 10000 2.57 40 15:30 02.02.2021
3007 Snow -5 1012 100 10000 3.09 60 14:53 02.02.2021
3008 Snow -5 1012 100 10000 3.09 60 14:34 02.02.2021
3009 Snow -4 1011 93 4000 4.12 50 13:58 02.02.2021
3010 Snow -4 1011 93 4000 4.12 50 13:40 02.02.2021
3011 Snow -4 1011 93 600 2.57 50 13:22 02.02.2021
3012 Snow -4 1011 93 10000 3.09 40 12:47 02.02.2021
3013 Snow -6 1010 93 800 4.12 50 11:55 02.02.2021
3014 Snow -6 1010 93 800 4.12 50 11:36 02.02.2021
3015 Snow -4 1010 93 10000 6.17 50 11:18 02.02.2021
3016 Snow -4 1010 93 1000 7.2 50 10:42 02.02.2021
3017 Snow -4 1009 100 1500 5.14 60 10:22 02.02.2021
3018 Snow -4 1009 93 8000 1.54 340 09:39 02.02.2021
3019 Snow -5 1009 93 5000 4.34 76 09:20 02.02.2021
3020 Snow -6 1008 93 6000 4.34 76 08:34 02.02.2021
3021 Snow -6 1008 100 10000 1.54 250 07:42 02.02.2021
3022 Snow -6 1007 93 3000 1.54 0 06:47 02.02.2021
3023 Snow -7 1007 93 10000 3.85 72 06:29 02.02.2021
3024 Snow -8 1007 86 10000 3.85 72 05:50 02.02.2021
3025 Snow -8 1006 93 10000 1.03 0 02:53 02.02.2021
3026 Snow -7 1005 93 10000 2.06 50 02:24 02.02.2021
3027 Snow -8 1004 86 10000 1.03 0 00:37 02.02.2021
3028 Snow -6 1004 93 10000 2.57 50 23:47 01.02.2021
3029 Snow -6 1003 86 10000 3.09 60 22:53 01.02.2021
3030 Snow -6 1003 86 10000 3.09 60 22:35 01.02.2021
3031 Snow -8 1002 86 10000 1.54 60 21:57 01.02.2021
3032 Snow -8 1002 86 10000 1.54 60 21:39 01.02.2021
3033 Clouds -7 1002 79 10000 2.06 60 21:20 01.02.2021
3034 Snow -6 1002 73 10000 1.03 0 20:41 01.02.2021
3035 Clouds -5 1001 80 10000 1.54 30 20:22 01.02.2021
3036 Clouds -7 1001 86 10000 2.57 50 19:42 01.02.2021
3037 Clouds -7 1001 86 10000 2.57 50 19:21 01.02.2021
3038 Clouds -6 1001 86 10000 3.6 50 18:51 01.02.2021
3039 Clouds -7 1000 86 10000 3.09 50 18:29 01.02.2021
3040 Clouds -6 1000 86 10000 3.09 40 17:48 01.02.2021
3041 Clouds -5 1000 80 10000 4.12 40 17:26 01.02.2021
3042 Clouds -5 999 80 10000 3.6 30 16:58 01.02.2021
3043 Clouds -5 999 80 10000 3.6 30 16:32 01.02.2021
3044 Clouds -5 999 86 10000 3.09 30 15:48 01.02.2021
3045 Clouds -6 998 86 10000 2.06 50 15:20 01.02.2021
3046 Clouds -6 998 86 10000 1.03 0 14:52 01.02.2021
3047 Clouds -6 998 86 10000 1.03 0 14:34 01.02.2021
3048 Clouds -5 998 80 10000 1.03 0 13:52 01.02.2021
3049 Clouds -5 998 86 10000 1.03 0 13:28 01.02.2021
3050 Clouds -5 997 80 10000 1.03 0 12:58 01.02.2021
3051 Clouds -5 997 80 10000 1.03 0 12:40 01.02.2021
3052 Clouds -5 997 80 10000 1.03 0 12:40 01.02.2021
3053 Clouds -5 997 80 10000 1.03 0 12:40 01.02.2021
3054 Clouds -5 997 86 10000 2.57 50 12:21 01.02.2021
3055 Clouds -5 997 86 10000 3.09 40 11:39 01.02.2021
3056 Clouds -6 997 86 10000 3.87 109 11:19 01.02.2021
3057 Clouds -6 996 86 10000 3.87 109 10:44 01.02.2021
3058 Clouds -6 996 86 10000 1.03 0 10:19 01.02.2021
3059 Clouds -5 996 86 10000 1.54 50 09:43 01.02.2021
3060 Snow -5 996 93 10000 1.54 0 09:19 01.02.2021
3061 Snow -3 995 86 10000 1.54 20 08:41 01.02.2021
3062 Snow -3 995 86 6000 3.82 48 07:37 01.02.2021
3063 Snow -3 995 86 10000 3.09 60 05:59 01.02.2021
3064 Snow -3 995 86 10000 5.66 50 02:49 01.02.2021
3065 Snow -3 994 86 10000 6.69 60 00:40 01.02.2021
3066 Snow -3 994 93 5000 6.69 50 23:40 31.01.2021
3067 Snow -4 994 93 10000 5.66 50 22:43 31.01.2021
3068 Snow -3 994 86 10000 5.14 50 22:23 31.01.2021
3069 Snow -3 994 93 8000 6.69 50 21:50 31.01.2021
3070 Snow -3 994 86 2500 8.23 50 21:23 31.01.2021
3071 Snow -3 994 86 2500 8.23 50 21:23 31.01.2021
3072 Snow -3 994 80 10000 6.69 50 20:49 31.01.2021
3073 Snow -3 994 80 10000 5.66 50 20:21 31.01.2021
3074 Snow -3 994 80 10000 5.14 50 19:55 31.01.2021
3075 Snow -3 994 80 10000 5.14 50 19:37 31.01.2021
3076 Snow -3 994 80 10000 5.14 60 19:18 31.01.2021
3077 Snow -3 994 80 10000 6.17 50 18:40 31.01.2021
3078 Snow -3 994 80 10000 3.6 40 18:21 31.01.2021
3079 Snow -3 994 74 10000 6.17 50 17:47 31.01.2021
3080 Snow -3 994 80 10000 5.66 50 17:23 31.01.2021
3081 Snow -3 995 74 10000 5.66 50 16:51 31.01.2021
3082 Snow -3 995 74 10000 5.66 50 16:51 31.01.2021
3083 Snow -3 995 74 10000 5.66 50 16:33 31.01.2021
3084 Snow -3 995 80 10000 5.66 70 15:52 31.01.2021
3085 Snow -3 995 80 10000 5.66 70 15:34 31.01.2021
3086 Snow -3 995 80 10000 5.14 60 14:44 31.01.2021
3087 Snow -3 995 80 10000 5.14 50 14:24 31.01.2021
3088 Snow -3 995 86 10000 7.2 50 13:53 31.01.2021
3089 Snow -3 995 86 10000 7.2 50 13:35 31.01.2021
3090 Snow -3 995 80 10000 4.63 60 12:49 31.01.2021
3091 Snow -4 995 86 10000 4.63 60 12:23 31.01.2021
3092 Snow -3 995 80 10000 4.63 60 11:58 31.01.2021
3093 Snow -3 995 80 10000 4.63 60 11:37 31.01.2021
3094 Snow -3 995 80 10000 4.12 60 11:19 31.01.2021
3095 Snow -3 995 86 10000 4.63 80 10:43 31.01.2021
3096 Snow -3 995 80 10000 4.63 60 10:24 31.01.2021
3097 Snow -4 995 86 10000 3.6 60 09:32 31.01.2021
3098 Snow -3 995 80 10000 3.6 80 08:34 31.01.2021
3099 Snow -3 995 86 10000 4.12 40 07:20 31.01.2021
3100 Snow -4 996 86 10000 3.6 50 05:42 31.01.2021
3101 Clouds -3 998 80 10000 5.14 50 00:52 31.01.2021
3102 Clouds -3 998 80 10000 4.63 70 00:26 31.01.2021
3103 Snow -3 998 74 10000 6.17 70 23:34 30.01.2021
3104 Clouds -3 999 74 10000 7.72 60 22:57 30.01.2021
3105 Clouds -3 999 80 10000 8.23 70 22:31 30.01.2021
3106 Snow -3 999 80 10000 8.23 70 21:43 30.01.2021
3107 Snow -3 999 86 8000 8.23 70 21:23 30.01.2021
3108 Snow -3 999 86 8000 8.23 70 21:23 30.01.2021
3109 Clouds -3 999 86 10000 8.75 70 20:50 30.01.2021
3110 Clouds -3 999 86 10000 8.75 70 20:32 30.01.2021
3111 Snow -3 999 86 4200 9.77 60 19:55 30.01.2021
3112 Snow -3 999 86 4200 9.77 60 19:36 30.01.2021
3113 Snow -3 999 86 6000 10.8 70 19:18 30.01.2021
3114 Snow -3 999 93 6000 9.77 60 18:39 30.01.2021
3115 Drizzle -3 999 93 6000 9.77 60 18:19 30.01.2021
3116 Snow -3 1000 86 10000 7.2 60 17:24 30.01.2021
3117 Snow -3 1001 86 4000 7.2 70 16:57 30.01.2021
3118 Snow -3 1001 86 4000 7.2 70 16:37 30.01.2021
3119 Snow -3 1001 80 10000 8.23 70 16:19 30.01.2021
3120 Clouds -3 1001 74 10000 8.75 70 15:42 30.01.2021
3121 Clouds -4 1001 86 10000 7.72 70 15:22 30.01.2021
3122 Clouds -4 1002 86 10000 7.2 70 14:52 30.01.2021
3123 Clouds -4 1002 86 10000 6.17 70 14:24 30.01.2021
3124 Clouds -4 1002 86 10000 6.17 80 13:42 30.01.2021
3125 Snow -4 1002 86 10000 4.12 80 13:20 30.01.2021
3126 Snow -4 1002 86 10000 4.63 80 12:42 30.01.2021
3127 Snow -4 1003 86 10000 3.6 70 12:21 30.01.2021
3128 Clouds -5 1003 86 10000 4.12 60 11:41 30.01.2021
3129 Snow -5 1003 93 2400 3.09 50 10:55 30.01.2021
3130 Snow -5 1003 86 2700 3.09 80 10:26 30.01.2021
3131 Snow -5 1003 80 5000 6.17 70 09:41 30.01.2021
3132 Snow -5 1003 80 10000 6.17 80 09:22 30.01.2021
3133 Snow -6 1003 79 10000 7.2 70 08:43 30.01.2021
3134 Snow -6 1003 73 10000 5.14 80 07:40 30.01.2021
3135 Clouds -7 1003 73 10000 1.54 0 06:21 30.01.2021
3136 Clouds -7 1004 73 10000 1.54 50 03:43 30.01.2021
3137 Clouds -7 1004 73 10000 5.14 150 02:52 30.01.2021
3138 Clouds -7 1004 73 10000 3.6 150 02:21 30.01.2021
3139 Clouds -8 1005 73 10000 2.06 0 00:53 30.01.2021
3140 Clouds -8 1005 73 10000 1.54 0 00:21 30.01.2021
3141 Clouds -8 1005 73 10000 5.66 140 23:50 29.01.2021
3142 Clouds -8 1005 73 10000 4.63 120 23:27 29.01.2021
3143 Clouds -8 1005 73 10000 3.09 120 22:46 29.01.2021
3144 Clouds -8 1005 73 10000 1.54 0 22:28 29.01.2021
3145 Clouds -8 1005 73 10000 3.09 130 21:58 29.01.2021
3146 Clouds -9 1005 73 10000 4.63 140 21:27 29.01.2021
3147 Clouds -9 1005 73 10000 3.09 0 20:43 29.01.2021
3148 Clouds -8 1005 67 10000 2.57 180 20:23 29.01.2021
3149 Clouds -8 1005 67 10000 3.6 0 19:40 29.01.2021
3150 Clouds -8 1005 67 10000 3.6 180 19:21 29.01.2021
3151 Clouds -9 1005 73 10000 4.12 0 18:53 29.01.2021
3152 Clouds -9 1005 73 10000 5.14 140 17:50 29.01.2021
3153 Clouds -9 1005 67 10000 3.09 150 17:23 29.01.2021
3154 Clouds -9 1005 73 10000 2.57 170 16:53 29.01.2021
3155 Clouds -9 1006 73 10000 1.54 90 16:28 29.01.2021
3156 Clouds -9 1006 73 10000 1.54 120 15:55 29.01.2021
3157 Clouds -9 1006 73 10000 1.54 120 15:37 29.01.2021
3158 Clouds -9 1006 73 10000 4.12 80 15:19 29.01.2021
3159 Clouds -9 1006 73 10000 5.14 60 14:23 29.01.2021
3160 Clouds -9 1006 73 10000 4.12 90 13:50 29.01.2021
3161 Clouds -9 1006 79 10000 6.17 90 13:31 29.01.2021
3162 Snow -9 1007 79 9000 6.17 80 12:43 29.01.2021
3163 Snow -9 1007 79 10000 3.09 80 12:19 29.01.2021
3164 Snow -9 1007 79 10000 2.06 50 11:44 29.01.2021
3165 Snow -9 1007 79 10000 3.09 70 11:18 29.01.2021
3166 Snow -9 1007 79 10000 3.09 80 10:46 29.01.2021
3167 Snow -9 1007 79 8000 5.14 80 10:23 29.01.2021
3168 Snow -9 1007 79 5000 7.72 80 09:39 29.01.2021
3169 Snow -9 1007 86 2500 9.77 80 08:50 29.01.2021
3170 Snow -9 1007 79 2500 9.77 90 08:27 29.01.2021
3171 Snow -9 1008 79 8000 9.26 80 07:51 29.01.2021
3172 Snow -9 1008 73 8000 8.23 80 07:31 29.01.2021
3173 Snow -9 1008 73 10000 8.23 80 06:49 29.01.2021
3174 Snow -9 1009 67 10000 10.29 90 05:18 29.01.2021
3175 Snow -8 1009 57 10000 11.32 70 02:37 29.01.2021
3176 Snow -8 1010 57 10000 11.32 80 00:38 29.01.2021
3177 Snow -8 1010 57 10000 12.35 80 00:19 29.01.2021
3178 Snow -8 1011 62 10000 9.77 90 23:41 28.01.2021
3179 Snow -8 1012 62 10000 8.23 80 23:23 28.01.2021
3180 Snow -8 1012 67 10000 8.75 90 22:43 28.01.2021
3181 Snow -8 1012 73 10000 8.23 80 22:25 28.01.2021
3182 Clouds -8 1012 67 10000 9.26 80 21:49 28.01.2021
3183 Clouds -8 1012 67 10000 8.23 80 21:31 28.01.2021
3184 Clouds -7 1012 58 10000 5.14 100 20:54 28.01.2021
3185 Clouds -7 1012 58 10000 5.14 100 20:36 28.01.2021
3186 Clouds -7 1013 63 10000 4.63 110 20:18 28.01.2021
3187 Clouds -7 1012 63 10000 6.17 120 19:40 28.01.2021
3188 Clouds -7 1013 63 10000 6.17 120 19:19 28.01.2021
3189 Clouds -7 1013 68 10000 6.17 120 18:43 28.01.2021
3190 Clouds -7 1013 68 10000 2.57 100 18:20 28.01.2021
3191 Clouds -7 1013 73 10000 4.63 90 17:44 28.01.2021
3192 Clouds -6 1013 68 10000 6.17 90 17:26 28.01.2021
3193 Clouds -6 1013 68 10000 6.17 90 16:44 28.01.2021
3194 Clouds -6 1013 68 10000 6.17 90 16:22 28.01.2021
3195 Clouds -6 1013 68 10000 6.17 90 16:22 28.01.2021
3196 Clouds -6 1013 68 10000 6.17 90 15:41 28.01.2021
3197 Clouds -6 1013 68 10000 5.66 90 14:59 28.01.2021
3198 Clouds -6 1013 68 10000 5.66 90 14:41 28.01.2021
3199 Clouds -6 1013 68 10000 6.17 80 14:23 28.01.2021
3200 Clouds -6 1013 68 10000 5.66 80 13:45 28.01.2021
3201 Clouds -6 1014 68 10000 5.14 90 12:54 28.01.2021
3202 Clouds -6 1014 68 10000 5.14 90 12:35 28.01.2021
3203 Clouds -6 1013 73 10000 5.14 90 11:59 28.01.2021
3204 Clouds -6 1013 73 10000 5.14 90 11:41 28.01.2021
3205 Clouds -6 1013 73 10000 6.17 100 11:20 28.01.2021
3206 Clouds -5 1013 68 10000 7.2 100 10:53 28.01.2021
3207 Clouds -5 1013 68 10000 7.2 100 10:34 28.01.2021
3208 Clouds -6 1013 68 10000 5.66 90 09:49 28.01.2021
3209 Clouds -5 1013 63 10000 6.69 90 09:24 28.01.2021
3210 Clouds -6 1013 68 10000 5.14 80 08:56 28.01.2021
3211 Clouds -6 1013 68 10000 5.14 80 08:38 28.01.2021
3212 Clouds -5 1013 58 10000 6.69 80 07:45 28.01.2021
3213 Clouds -5 1013 63 10000 6.17 90 06:50 28.01.2021
3214 Clouds -5 1012 63 10000 6.69 80 06:29 28.01.2021
3215 Clouds -6 1013 68 10000 6.69 90 04:28 28.01.2021
3216 Clouds -6 1013 68 10000 5.14 90 01:39 28.01.2021
3217 Clouds -6 1013 68 10000 6.17 90 23:49 27.01.2021
3218 Clouds -6 1013 68 10000 6.69 90 23:24 27.01.2021
3219 Clouds -6 1013 68 10000 7.2 80 22:42 27.01.2021
3220 Clouds -6 1013 68 10000 7.2 80 22:22 27.01.2021
3221 Clouds -6 1013 68 10000 6.69 80 21:43 27.01.2021
3222 Clouds -6 1013 63 10000 6.69 80 21:24 27.01.2021
3223 Clouds -6 1013 63 10000 7.72 80 20:55 27.01.2021
3224 Clouds -5 1013 63 10000 7.2 80 20:30 27.01.2021
3225 Clouds -5 1013 68 10000 7.72 80 19:50 27.01.2021
3226 Clouds -6 1013 68 10000 6.69 80 19:26 27.01.2021
3227 Clouds -6 1013 68 10000 6.17 80 18:57 27.01.2021
3228 Clouds -6 1013 68 10000 6.17 80 18:38 27.01.2021
3229 Clouds -6 1013 68 10000 4.63 100 18:20 27.01.2021
3230 Clouds -6 1013 68 10000 5.14 90 17:39 27.01.2021
3231 Clouds -6 1013 68 10000 6.17 80 17:18 27.01.2021
3232 Clouds -5 1013 68 10000 7.2 80 16:43 27.01.2021
3233 Clouds -6 1014 73 10000 6.17 90 16:24 27.01.2021
3234 Clouds -5 1013 68 10000 7.2 90 15:49 27.01.2021
3235 Clouds -5 1013 68 10000 7.72 80 15:30 27.01.2021
3236 Clouds -5 1013 74 10000 6.69 80 14:40 27.01.2021
3237 Clouds -5 1013 74 10000 7.72 80 14:20 27.01.2021
3238 Clouds -5 1013 74 10000 7.2 70 13:41 27.01.2021
3239 Snow -5 1013 80 10000 7.72 90 12:46 27.01.2021
3240 Clouds -5 1013 74 10000 7.2 90 12:26 27.01.2021
3241 Clouds -5 1013 74 10000 6.69 90 11:52 27.01.2021
3242 Clouds -5 1013 74 10000 7.2 80 11:26 27.01.2021
3243 Clouds -5 1013 74 10000 6.69 80 10:52 27.01.2021
3244 Clouds -5 1013 74 10000 7.2 80 10:26 27.01.2021
3245 Clouds -5 1013 74 10000 7.2 80 09:59 27.01.2021
3246 Snow -5 1013 74 10000 7.2 80 09:34 27.01.2021
3247 Clouds -4 1013 68 10000 8.23 80 08:48 27.01.2021
3248 Snow -4 1013 74 10000 8.23 80 07:58 27.01.2021
3249 Snow -4 1013 74 10000 8.23 80 07:39 27.01.2021
3250 Snow -4 1013 80 8000 7.72 80 06:48 27.01.2021
3251 Snow -5 1013 86 6000 5.66 80 05:57 27.01.2021
3252 Snow -5 1013 86 6000 5.66 80 05:35 27.01.2021
3253 Snow -5 1013 86 10000 6.17 80 02:46 27.01.2021
3254 Snow -5 1013 80 10000 6.69 80 02:21 27.01.2021
3255 Snow -5 1013 86 4800 6.17 70 01:46 27.01.2021
3256 Snow -4 1013 80 10000 7.72 80 00:30 27.01.2021
3257 Snow -5 1013 86 8000 6.17 80 23:44 26.01.2021
3258 Snow -5 1012 86 8000 8.23 70 23:22 26.01.2021
3259 Snow -5 1012 86 7000 7.2 70 22:44 26.01.2021
3260 Snow -5 1013 86 9000 5.66 70 22:20 26.01.2021
3261 Snow -5 1012 86 9000 4.63 80 21:53 26.01.2021
3262 Snow -5 1012 86 9000 5.14 70 21:26 26.01.2021
3263 Snow -4 1012 80 10000 4.63 70 20:56 26.01.2021
3264 Snow -4 1012 80 10000 4.63 70 20:36 26.01.2021
3265 Snow -4 1012 80 10000 4.63 70 20:36 26.01.2021
3266 Snow -4 1012 80 10000 4.63 80 20:18 26.01.2021
3267 Snow -4 1012 80 10000 5.14 70 19:42 26.01.2021
3268 Clouds -4 1012 80 10000 5.66 80 19:19 26.01.2021
3269 Clouds -4 1011 80 10000 4.12 80 18:43 26.01.2021
3270 Clouds -4 1011 80 10000 4.63 70 18:23 26.01.2021
3271 Clouds -4 1011 80 10000 4.63 70 18:23 26.01.2021
3272 Snow -4 1011 80 10000 6.69 70 17:48 26.01.2021
3273 Clouds -3 1011 74 10000 6.69 70 17:25 26.01.2021
3274 Snow -3 1011 80 10000 6.17 70 16:53 26.01.2021
3275 Snow -3 1010 86 10000 6.17 80 16:22 26.01.2021
3276 Snow -3 1010 86 10000 6.17 80 15:58 26.01.2021
3277 Snow -3 1010 86 10000 6.17 80 15:38 26.01.2021
3278 Snow -3 1010 86 10000 8.23 70 15:18 26.01.2021
3279 Snow -3 1010 86 10000 8.23 70 15:18 26.01.2021
3280 Snow -3 1010 86 10000 9.26 70 14:34 26.01.2021
3281 Snow -2 1009 74 10000 9.77 80 13:59 26.01.2021
3282 Snow -2 1009 74 10000 12.86 80 13:30 26.01.2021
3283 Snow -3 1009 80 10000 11.83 80 12:56 26.01.2021
3284 Snow -3 1009 80 10000 11.83 80 12:37 26.01.2021
3285 Snow -3 1009 80 10000 10.8 90 12:19 26.01.2021
3286 Snow -3 1009 80 10000 8.75 80 11:49 26.01.2021
3287 Snow -3 1009 80 10000 8.75 80 11:18 26.01.2021
3288 Snow -4 1009 80 10000 8.75 70 10:34 26.01.2021
3289 Snow -4 1009 80 10000 8.75 90 09:57 26.01.2021
3290 Snow -4 1009 80 10000 8.75 90 09:36 26.01.2021
3291 Snow -5 1009 80 10000 7.72 90 09:18 26.01.2021
3292 Snow -5 1009 74 10000 6.17 100 08:42 26.01.2021
3293 Snow -6 1008 79 10000 6.17 90 07:54 26.01.2021
3294 Clouds -7 1008 79 10000 5.14 80 06:58 26.01.2021
3295 Clouds -7 1008 79 10000 6.17 80 05:51 26.01.2021
3296 Clouds -7 1008 73 10000 4.12 110 05:32 26.01.2021
3297 Snow -7 1007 79 10000 5.14 100 03:32 26.01.2021
3298 Snow -7 1006 73 10000 7.2 120 00:59 26.01.2021
3299 Snow -7 1006 73 10000 6.17 120 00:24 26.01.2021
3300 Clouds -8 1006 73 10000 4.63 100 23:31 25.01.2021
3301 Clouds -7 1006 68 10000 5.66 110 22:47 25.01.2021
3302 Clouds -8 1005 73 10000 6.69 120 22:29 25.01.2021
3303 Snow -8 1005 79 10000 5.14 130 21:45 25.01.2021
3304 Clouds -8 1005 73 10000 3.09 130 21:19 25.01.2021
3305 Clouds -9 1005 73 10000 3.6 180 20:43 25.01.2021
3306 Clouds -9 1005 73 10000 3.09 170 20:23 25.01.2021
3307 Clouds -9 1005 67 10000 2.06 0 19:47 25.01.2021
3308 Clouds -9 1005 67 10000 2.06 0 19:47 25.01.2021
3309 Clouds -9 1005 67 10000 2.06 0 19:23 25.01.2021
3310 Clouds -9 1004 67 10000 2.06 160 18:46 25.01.2021
3311 Clouds -9 1004 67 10000 2.06 170 18:24 25.01.2021
3312 Clouds -9 1004 67 10000 4.63 150 17:49 25.01.2021
3313 Clouds -9 1004 67 10000 1.54 0 17:25 25.01.2021
3314 Clouds -9 1004 67 10000 2.06 200 16:50 25.01.2021
3315 Clouds -8 1003 67 10000 2.06 130 16:26 25.01.2021
3316 Clouds -8 1003 67 10000 2.06 130 15:57 25.01.2021
3317 Clouds -9 1003 73 10000 3.09 200 15:39 25.01.2021
3318 Clouds -9 1003 73 10000 1.03 0 15:19 25.01.2021
3319 Clouds -9 1003 73 10000 0.51 0 14:39 25.01.2021
3320 Clouds -9 1002 67 10000 1.54 0 14:18 25.01.2021
3321 Clouds -9 1002 73 10000 2.06 150 13:44 25.01.2021
3322 Clouds -9 1002 67 10000 1.03 0 13:21 25.01.2021
3323 Clouds -9 1002 67 10000 4.12 150 12:44 25.01.2021
3324 Clouds -9 1001 73 10000 2.06 120 12:19 25.01.2021
3325 Snow -9 1001 73 10000 1.03 0 11:31 25.01.2021
3326 Clouds -9 1001 73 10000 2.06 180 10:53 25.01.2021
3327 Clouds -9 1001 73 10000 2.57 140 10:22 25.01.2021
3328 Snow -9 1001 73 10000 1.54 150 09:54 25.01.2021
3329 Snow -8 1000 67 10000 4.12 140 09:31 25.01.2021
3330 Snow -8 1000 73 10000 3.6 110 08:53 25.01.2021
3331 Snow -9 1000 73 10000 5.14 120 08:23 25.01.2021
3332 Snow -8 1000 67 10000 2.57 140 07:30 25.01.2021
3333 Clouds -9 1000 73 10000 4.12 110 06:47 25.01.2021
3334 Snow -8 1000 67 10000 5.66 120 02:59 25.01.2021
3335 Clouds -9 1000 73 10000 4.12 50 00:52 25.01.2021
3336 Clouds -10 1000 73 10000 2.57 80 23:40 24.01.2021
3337 Clouds -9 1000 73 10000 2.57 70 23:19 24.01.2021
3338 Clouds -9 1000 73 10000 4.12 80 22:41 24.01.2021
3339 Clouds -9 1000 73 10000 3.6 110 22:20 24.01.2021
3340 Clouds -10 1000 79 10000 3.6 110 21:44 24.01.2021
3341 Clouds -10 1000 73 10000 4.12 110 21:23 24.01.2021
3342 Clouds -10 1000 79 10000 3.09 90 20:44 24.01.2021
3343 Clouds -10 1000 73 10000 2.57 80 20:20 24.01.2021
3344 Clouds -10 1000 73 10000 3.6 100 19:51 24.01.2021
3345 Clouds -10 1000 73 10000 3.6 110 19:26 24.01.2021
3346 Clouds -10 1000 73 10000 2.57 80 18:57 24.01.2021
3347 Clouds -10 1000 73 10000 2.57 80 18:38 24.01.2021
3348 Clouds -10 1000 73 10000 3.6 90 18:20 24.01.2021
3349 Clouds -10 1000 73 10000 5.14 90 17:49 24.01.2021
3350 Clouds -10 1000 73 10000 5.14 80 17:25 24.01.2021
3351 Clouds -10 1000 73 10000 5.14 80 16:43 24.01.2021
3352 Clouds -10 1000 73 10000 5.14 80 16:25 24.01.2021
3353 Clouds -11 1000 73 10000 4.12 80 15:58 24.01.2021
3354 Clouds -11 1000 73 10000 4.12 80 15:40 24.01.2021
3355 Clouds -11 1000 73 10000 4.63 70 15:18 24.01.2021
3356 Clouds -11 1000 73 10000 3.6 80 14:38 24.01.2021
3357 Clear -11 999 73 10000 5.14 80 13:45 24.01.2021
3358 Clear -10 1000 67 10000 5.66 80 13:24 24.01.2021
3359 Clear -10 999 67 10000 7.72 90 12:47 24.01.2021
3360 Clear -10 999 67 10000 6.69 90 12:20 24.01.2021
3361 Clear -10 999 67 10000 7.2 80 11:50 24.01.2021
3362 Clouds -9 999 62 10000 8.75 70 11:24 24.01.2021
3363 Clouds -10 999 67 10000 8.75 70 10:46 24.01.2021
3364 Clouds -10 999 67 10000 8.75 70 10:46 24.01.2021
3365 Clouds -9 999 62 10000 10.29 80 10:19 24.01.2021
3366 Clouds -10 999 67 10000 9.77 70 09:23 24.01.2021
3367 Clouds -10 999 67 10000 10.29 80 08:58 24.01.2021
3368 Clouds -9 999 62 10000 10.8 80 08:23 24.01.2021
3369 Clouds -11 1000 73 10000 4.12 90 02:52 24.01.2021
3370 Clouds -12 1001 79 10000 2.06 110 02:18 24.01.2021
3371 Clouds -11 1001 73 10000 2.57 120 00:27 24.01.2021
3372 Clouds -10 1001 73 10000 7.2 80 23:53 23.01.2021
3373 Clouds -10 1001 73 9000 8.75 80 23:27 23.01.2021
3374 Clouds -10 1001 79 10000 7.2 80 22:55 23.01.2021
3375 Clouds -10 1001 79 10000 7.2 80 22:37 23.01.2021
3376 Clouds -10 1001 79 6000 7.2 90 21:53 23.01.2021
3377 Clouds -10 1001 79 7000 8.23 90 21:22 23.01.2021
3378 Clouds -9 1001 73 5000 10.29 90 20:49 23.01.2021
3379 Clouds -10 1001 85 5000 9.77 80 20:28 23.01.2021
3380 Clouds -10 1002 79 5000 10.29 80 19:47 23.01.2021
3381 Snow -9 1002 73 6000 8.75 80 19:25 23.01.2021
3382 Snow -9 1002 73 7000 9.26 90 18:51 23.01.2021
3383 Snow -10 1002 79 5000 7.2 90 18:28 23.01.2021
3384 Clouds -10 1002 79 6000 8.23 90 17:56 23.01.2021
3385 Clouds -10 1002 79 10000 10.29 80 17:28 23.01.2021
3386 Clouds -10 1002 67 10000 12.86 90 16:51 23.01.2021
3387 Clouds -10 1002 67 10000 14.92 80 16:32 23.01.2021
3388 Clouds -11 1003 67 10000 14.4 80 15:49 23.01.2021
3389 Clouds -11 1003 67 10000 15.95 80 15:27 23.01.2021
3390 Clouds -12 1003 72 10000 14.92 80 14:38 23.01.2021
3391 Clouds -12 1004 67 10000 13.89 80 14:19 23.01.2021
3392 Clouds -12 1004 67 10000 12.35 80 13:40 23.01.2021
3393 Clouds -13 1004 66 10000 11.83 80 13:22 23.01.2021
3394 Clouds -13 1004 66 10000 13.38 80 12:42 23.01.2021
3395 Clouds -13 1005 66 10000 12.35 80 12:22 23.01.2021
3396 Clouds -13 1005 72 10000 11.32 80 11:35 23.01.2021
3397 Clouds -13 1005 66 10000 11.83 80 10:54 23.01.2021
3398 Clouds -13 1005 72 10000 10.8 80 10:23 23.01.2021
3399 Clouds -13 1006 66 10000 7.2 70 09:51 23.01.2021
3400 Clouds -13 1006 66 10000 5.14 70 09:28 23.01.2021
3401 Clouds -13 1006 66 10000 5.14 60 08:42 23.01.2021
3402 Clouds -13 1006 66 10000 9.26 80 07:48 23.01.2021
3403 Clouds -14 1006 72 10000 9.26 70 06:48 23.01.2021
3404 Clouds -13 1008 72 10000 8.23 80 02:20 23.01.2021
3405 Clouds -13 1008 72 10000 8.23 70 00:23 23.01.2021
3406 Clouds -13 1009 72 10000 7.72 80 23:36 22.01.2021
3407 Clouds -12 1009 72 10000 10.8 80 22:42 22.01.2021
3408 Clouds -12 1009 72 10000 10.29 80 21:59 22.01.2021
3409 Clouds -11 1009 67 10000 7.72 90 21:38 22.01.2021
3410 Clouds -11 1009 67 10000 7.72 90 21:20 22.01.2021
3411 Clouds -11 1009 73 10000 9.77 80 20:46 22.01.2021
3412 Clouds -11 1009 73 10000 9.77 80 20:25 22.01.2021
3413 Clouds -11 1009 73 10000 10.29 80 19:47 22.01.2021
3414 Clouds -11 1009 73 10000 10.29 90 19:18 22.01.2021
3415 Clouds -11 1009 73 10000 8.75 90 18:44 22.01.2021
3416 Clouds -11 1009 67 10000 8.75 100 18:25 22.01.2021
3417 Clouds -11 1009 67 10000 9.26 100 17:46 22.01.2021
3418 Clouds -11 1009 67 10000 8.75 90 17:28 22.01.2021
3419 Clouds -11 1009 67 10000 9.77 90 16:54 22.01.2021
3420 Clouds -11 1009 67 10000 10.29 90 16:27 22.01.2021
3421 Clouds -10 1009 62 10000 10.8 100 15:45 22.01.2021
3422 Clouds -11 1009 73 10000 9.77 100 15:20 22.01.2021
3423 Clouds -11 1010 73 10000 10.29 90 14:32 22.01.2021
3424 Clouds -11 1010 67 10000 10.29 90 13:54 22.01.2021
3425 Clouds -11 1010 67 10000 10.29 90 13:35 22.01.2021
3426 Clouds -11 1010 67 10000 9.26 80 12:56 22.01.2021
3427 Clouds -12 1011 72 10000 7.2 90 12:27 22.01.2021
3428 Snow -12 1010 72 10000 9.26 80 11:49 22.01.2021
3429 Snow -12 1010 72 10000 11.83 80 11:30 22.01.2021
3430 Snow -12 1010 72 10000 11.32 80 10:46 22.01.2021
3431 Snow -11 1010 67 10000 10.8 90 10:23 22.01.2021
3432 Snow -11 1010 67 10000 14.92 90 09:43 22.01.2021
3433 Snow -12 1010 72 10000 11.32 90 08:57 22.01.2021
3434 Snow -12 1010 72 10000 13.38 90 08:32 22.01.2021
3435 Snow -12 1010 72 10000 12.86 80 07:45 22.01.2021
3436 Clouds -11 1011 67 10000 6.69 100 04:59 22.01.2021
3437 Clear -11 1012 73 10000 6.69 80 01:20 22.01.2021
3438 Clear -11 1013 73 10000 6.17 100 00:29 22.01.2021
3439 Clear -11 1013 73 10000 6.17 100 23:48 21.01.2021
3440 Clear -11 1013 73 10000 5.66 120 23:20 21.01.2021
3441 Clear -11 1013 73 10000 4.63 110 22:48 21.01.2021
3442 Clear -11 1014 73 10000 6.17 100 21:58 21.01.2021
3443 Clear -11 1014 73 10000 6.17 100 21:38 21.01.2021
3444 Clear -11 1014 73 10000 6.17 100 21:18 21.01.2021
3445 Clear -10 1014 67 10000 6.17 110 20:43 21.01.2021
3446 Clear -11 1014 73 10000 7.2 110 20:21 21.01.2021
3447 Clear -11 1014 73 10000 7.2 90 19:47 21.01.2021
3448 Clear -11 1014 73 10000 6.69 110 19:25 21.01.2021
3449 Clear -11 1014 73 10000 6.69 100 18:43 21.01.2021
3450 Clear -10 1014 67 10000 7.2 100 18:22 21.01.2021
3451 Clear -10 1014 67 10000 6.69 100 17:57 21.01.2021
3452 Clear -11 1014 73 10000 6.17 100 17:22 21.01.2021
3453 Clear -11 1015 73 10000 5.66 100 16:59 21.01.2021
3454 Clear -11 1015 73 10000 5.66 100 16:40 21.01.2021
3455 Clear -11 1015 73 10000 6.69 110 16:22 21.01.2021
3456 Clear -11 1015 73 10000 6.69 110 15:47 21.01.2021
3457 Clear -11 1015 73 10000 7.2 100 15:26 21.01.2021
3458 Clear -10 1015 67 10000 5.66 120 14:47 21.01.2021
3459 Clear -11 1015 73 10000 6.69 100 14:25 21.01.2021
3460 Clear -10 1016 67 10000 5.14 100 13:46 21.01.2021
3461 Clear -10 1016 67 10000 5.14 100 13:26 21.01.2021
3462 Clear -10 1015 73 10000 5.14 100 12:45 21.01.2021
3463 Clear -11 1015 79 10000 6.17 100 12:25 21.01.2021
3464 Clear -10 1016 73 10000 7.2 120 11:52 21.01.2021
3465 Clear -9 1016 62 10000 6.17 110 11:32 21.01.2021
3466 Clear -9 1016 62 10000 6.69 100 10:53 21.01.2021
3467 Clear -9 1016 62 10000 6.69 100 10:34 21.01.2021
3468 Clear -9 1016 62 10000 7.2 100 09:49 21.01.2021
3469 Clear -9 1016 67 10000 5.66 100 09:30 21.01.2021
3470 Clear -9 1016 67 10000 7.2 100 08:59 21.01.2021
3471 Clear -9 1016 62 10000 6.69 100 08:27 21.01.2021
3472 Clear -9 1016 62 10000 6.69 100 07:45 21.01.2021
3473 Clear -9 1016 62 10000 7.72 110 07:25 21.01.2021
3474 Clear -9 1016 67 10000 6.69 100 05:59 21.01.2021
3475 Clear -9 1016 67 10000 5.14 110 04:32 21.01.2021
3476 Clear -9 1016 67 10000 6.69 120 02:18 21.01.2021
3477 Clear -9 1016 67 10000 5.66 110 00:41 21.01.2021
3478 Clear -9 1016 67 10000 4.63 120 23:44 20.01.2021
3479 Clear -8 1016 67 10000 6.17 130 23:24 20.01.2021
3480 Clear -8 1016 67 10000 6.17 130 22:50 20.01.2021
3481 Clear -7 1016 58 10000 6.17 120 22:29 20.01.2021
3482 Clear -8 1016 67 10000 6.69 120 21:49 20.01.2021
3483 Clear -8 1016 67 10000 6.17 130 21:23 20.01.2021
3484 Clear -9 1016 73 10000 2.57 80 20:51 20.01.2021
3485 Clear -9 1016 73 10000 5.14 90 20:23 20.01.2021
3486 Clear -10 1016 73 10000 5.14 90 19:48 20.01.2021
3487 Clear -10 1016 79 10000 0.51 0 19:28 20.01.2021
3488 Clear -9 1017 73 10000 2.57 130 18:43 20.01.2021
3489 Clear -9 1017 73 10000 2.57 130 18:43 20.01.2021
3490 Clear -10 1016 73 10000 3.6 110 18:21 20.01.2021
3491 Clear -9 1016 73 10000 3.09 80 17:48 20.01.2021
3492 Clouds -9 1016 73 10000 2.57 70 17:27 20.01.2021
3493 Clouds -8 1016 73 10000 4.12 120 16:49 20.01.2021
3494 Clouds -8 1016 67 10000 1.03 0 16:22 20.01.2021
3495 Clouds -9 1016 79 10000 3.6 110 15:41 20.01.2021
3496 Clouds -8 1016 73 10000 3.6 110 15:19 20.01.2021
3497 Clouds -7 1016 68 10000 4.63 130 14:40 20.01.2021
3498 Clouds -7 1016 68 10000 5.14 110 14:20 20.01.2021
3499 Clouds -7 1016 68 10000 5.66 110 13:37 20.01.2021
3500 Clear -9 1016 79 10000 3.6 110 12:56 20.01.2021
3501 Clear -9 1016 79 10000 4.12 90 12:22 20.01.2021
3502 Clear -9 1016 79 10000 2.06 80 11:41 20.01.2021
3503 Clear -9 1016 73 10000 2.06 60 11:21 20.01.2021
3504 Clear -9 1016 67 10000 2.06 60 10:50 20.01.2021
3505 Clear -8 1015 67 10000 2.57 50 10:27 20.01.2021
3506 Clear -8 1015 62 10000 4.12 40 09:39 20.01.2021
3507 Clear -8 1015 67 10000 4.12 50 09:19 20.01.2021
3508 Clear -6 1015 58 10000 4.63 110 08:44 20.01.2021
3509 Clear -7 1015 68 10000 5.14 80 08:23 20.01.2021
3510 Clear -7 1015 73 10000 5.14 100 07:53 20.01.2021
3511 Clear -7 1015 73 10000 7.2 110 07:24 20.01.2021
3512 Clear -8 1014 79 10000 2.06 10 04:44 20.01.2021
3513 Clear -8 1014 62 10000 3.09 50 02:57 20.01.2021
3514 Clear -8 1015 62 10000 2.06 50 00:58 20.01.2021
3515 Clear -6 1014 63 10000 3.09 20 23:59 19.01.2021
3516 Clear -6 1014 63 10000 3.09 20 23:41 19.01.2021
3517 Clear -8 1014 62 10000 4.63 40 22:59 19.01.2021
3518 Clear -8 1014 62 10000 4.63 40 22:40 19.01.2021
3519 Clear -8 1014 67 10000 4.12 40 22:21 19.01.2021
3520 Clear -7 1014 68 10000 4.12 40 21:55 19.01.2021
3521 Clear -7 1014 68 10000 4.12 40 21:36 19.01.2021
3522 Clear -8 1014 67 10000 3.09 40 20:50 19.01.2021
3523 Clear -7 1014 68 10000 3.6 40 20:30 19.01.2021
3524 Clear -7 1013 68 10000 3.09 50 19:56 19.01.2021
3525 Clear -7 1013 68 10000 3.09 50 19:37 19.01.2021
3526 Clear -7 1013 68 10000 3.09 40 19:19 19.01.2021
3527 Clear -7 1013 68 10000 1.54 30 18:39 19.01.2021
3528 Clear -6 1013 63 10000 1.54 20 18:21 19.01.2021
3529 Clear -6 1012 68 10000 3.09 110 17:45 19.01.2021
3530 Clear -5 1012 68 10000 3.09 130 17:23 19.01.2021
3531 Clear -5 1012 74 10000 4.12 130 16:44 19.01.2021
3532 Clear -6 1012 73 10000 1.03 0 16:24 19.01.2021
3533 Clear -5 1012 68 10000 2.57 130 15:54 19.01.2021
3534 Clear -5 1012 68 10000 2.57 130 15:34 19.01.2021
3535 Clouds -5 1011 74 10000 4.12 120 14:50 19.01.2021
3536 Clouds -5 1011 80 10000 3.09 140 14:29 19.01.2021
3537 Clouds -5 1011 80 10000 3.6 150 13:53 19.01.2021
3538 Clouds -4 1011 74 10000 5.14 110 13:28 19.01.2021
3539 Clouds -4 1011 74 10000 3.6 110 12:58 19.01.2021
3540 Clouds -4 1011 74 10000 3.6 110 12:35 19.01.2021
3541 Clouds -4 1010 80 10000 4.63 90 11:59 19.01.2021
3542 Clouds -4 1010 80 10000 4.63 90 11:40 19.01.2021
3543 Clouds -3 1010 74 10000 4.63 100 11:21 19.01.2021
3544 Clouds -3 1010 80 10000 5.14 100 10:47 19.01.2021
3545 Clouds -2 1009 80 10000 5.14 120 10:27 19.01.2021
3546 Clouds -2 1009 74 10000 5.66 120 09:51 19.01.2021
3547 Clouds -3 1009 80 10000 6.17 90 09:20 19.01.2021
3548 Clouds -3 1009 86 10000 5.66 70 08:35 19.01.2021
3549 Snow -2 1008 86 6000 6.17 10 07:57 19.01.2021
3550 Snow -2 1008 86 5000 5.66 20 07:19 19.01.2021
3551 Clouds -1 1007 59 10000 3.6 20 04:50 19.01.2021
3552 Clouds -1 1007 59 10000 3.6 20 02:24 19.01.2021
3553 Clouds -1 1007 69 10000 3.09 20 00:45 19.01.2021
3554 Clouds -1 1006 69 10000 3.09 30 23:57 18.01.2021
3555 Clouds -1 1006 64 10000 4.12 20 23:28 18.01.2021
3556 Clouds -2 1006 74 10000 4.63 30 22:44 18.01.2021
3557 Clouds -1 1005 69 10000 4.63 20 22:23 18.01.2021
3558 Clouds -1 1005 69 10000 5.66 30 21:48 18.01.2021
3559 Snow 0 1005 69 10000 6.69 10 21:24 18.01.2021
3560 Snow -4 1004 100 7000 2.06 60 20:57 18.01.2021
3561 Snow -4 1004 100 7000 2.06 60 20:35 18.01.2021
3562 Snow -1 1004 93 3500 4.63 60 19:54 18.01.2021
3563 Snow -1 1004 93 3500 4.63 60 19:36 18.01.2021
3564 Snow 0 1003 74 5000 4.12 20 18:57 18.01.2021
3565 Snow 0 1003 74 5000 4.12 20 18:38 18.01.2021
3566 Snow -1 1003 80 10000 3.6 20 18:19 18.01.2021
3567 Snow -2 1002 93 10000 3.6 50 17:39 18.01.2021
3568 Snow 0 1002 93 4000 5.66 250 16:55 18.01.2021
3569 Snow 0 1002 93 4000 5.66 250 16:36 18.01.2021
3570 Snow 0 1001 80 10000 4.63 260 15:59 18.01.2021
3571 Snow 0 1001 80 10000 4.63 260 15:41 18.01.2021
3572 Snow 0 1001 80 10000 3.09 260 15:19 18.01.2021
3573 Snow -1 1002 93 10000 2.57 0 14:42 18.01.2021
3574 Snow -1 1002 86 1500 2.06 0 14:24 18.01.2021
3575 Snow 0 1001 74 10000 4.12 280 13:45 18.01.2021
3576 Snow 0 1001 69 10000 3.6 0 13:26 18.01.2021
3577 Snow 0 1001 74 10000 5.14 270 12:51 18.01.2021
3578 Snow 0 1001 74 10000 1.54 0 12:20 18.01.2021
3579 Snow 0 1001 86 10000 1.54 0 11:53 18.01.2021
3580 Snow 0 1001 93 10000 6.17 270 11:29 18.01.2021
3581 Snow 1 1001 80 4500 6.69 270 10:53 18.01.2021
3582 Snow 1 1001 80 4500 6.69 270 10:35 18.01.2021
3583 Snow 1 1001 80 5000 4.12 280 09:43 18.01.2021
3584 Snow 1 1001 80 10000 3.09 0 09:19 18.01.2021
3585 Snow 1 1001 93 10000 5.14 270 08:48 18.01.2021
3586 Snow 0 1001 100 10000 2.57 0 07:55 18.01.2021
3587 Snow 0 1001 100 3000 2.06 230 07:21 18.01.2021
3588 Snow 1 1002 93 8000 1.54 0 04:59 18.01.2021
3589 Snow 1 1002 93 8000 1.54 0 04:33 18.01.2021
3590 Clouds 2 1003 83 10000 7.19 304 03:59 18.01.2021
3591 Clouds 2 1003 83 10000 7.19 304 03:39 18.01.2021
3592 Snow 1 1003 93 10000 6.97 307 03:19 18.01.2021
3593 Rain 1 1003 93 10000 6.97 307 02:37 18.01.2021
3594 Clouds 2 1003 87 10000 4.12 280 00:43 18.01.2021
3595 Clouds 2 1003 87 10000 4.12 280 00:23 18.01.2021
3596 Clouds 2 1003 87 10000 3.09 230 23:44 17.01.2021
3597 Snow 1 1004 93 10000 3.6 260 23:20 17.01.2021
3598 Clouds 1 1004 93 8000 3.09 280 22:39 17.01.2021
3599 Clouds 1 1004 93 8000 3.09 280 22:39 17.01.2021
3600 Snow 1 1004 100 10000 3.6 220 22:19 17.01.2021
3601 Clouds 1 1004 100 10000 3.09 230 21:39 17.01.2021
3602 Snow 1 1005 93 4000 5.14 250 21:21 17.01.2021
3603 Clouds 2 1005 93 10000 4.12 240 20:48 17.01.2021
3604 Clouds 2 1005 87 10000 1.54 220 20:27 17.01.2021
3605 Clouds 2 1005 93 10000 5.66 230 19:42 17.01.2021
3606 Clouds 2 1005 93 10000 1.54 240 19:23 17.01.2021
3607 Clouds 2 1005 87 5000 1.54 0 18:43 17.01.2021
3608 Clouds 2 1005 93 10000 2.06 280 18:23 17.01.2021
3609 Clouds 2 1006 93 10000 4.12 240 17:48 17.01.2021
3610 Clouds 2 1006 93 10000 3.6 260 17:26 17.01.2021
3611 Clouds 2 1006 93 10000 2.06 240 16:44 17.01.2021
3612 Clouds 2 1006 93 10000 5.14 240 16:21 17.01.2021
3613 Clouds 2 1006 93 10000 3.6 240 15:43 17.01.2021
3614 Clouds 2 1006 93 10000 4.12 240 15:24 17.01.2021
3615 Rain 1 1006 100 9000 3.09 260 14:49 17.01.2021
3616 Clouds 2 1007 93 10000 4.63 240 14:26 17.01.2021
3617 Clouds 1 1007 100 8000 3.6 240 13:46 17.01.2021
3618 Snow 1 1007 100 10000 1.03 0 13:27 17.01.2021
3619 Clouds 1 1007 100 9000 3.09 260 12:54 17.01.2021
3620 Snow 1 1007 100 10000 2.57 240 12:31 17.01.2021
3621 Rain 1 1007 100 10000 4.12 250 11:59 17.01.2021
3622 Clouds 2 1007 93 10000 3.6 240 11:24 17.01.2021
3623 Mist 2 1008 93 10000 3.09 280 10:48 17.01.2021
3624 Clouds 2 1008 93 10000 4.12 260 10:21 17.01.2021
3625 Clouds 2 1008 93 10000 3.09 270 09:42 17.01.2021
3626 Drizzle 2 1008 93 10000 3.6 250 08:45 17.01.2021
3627 Clouds 2 1008 93 10000 2.57 260 06:57 17.01.2021
3628 Snow 1 1009 100 10000 2.06 240 04:28 17.01.2021
3629 Snow 1 1010 93 2100 3.6 290 02:48 17.01.2021
3630 Clouds 2 1011 80 10000 1.54 280 00:51 17.01.2021
3631 Clouds 2 1011 80 10000 1.03 0 00:18 17.01.2021
3632 Clouds 2 1011 87 10000 2.06 350 23:49 16.01.2021
3633 Clouds 2 1011 87 10000 1.54 0 23:20 16.01.2021
3634 Clouds 1 1011 93 10000 2.57 340 22:45 16.01.2021
3635 Clouds 2 1011 87 10000 2.06 0 21:59 16.01.2021
3636 Clouds 2 1011 87 10000 2.06 0 21:38 16.01.2021
3637 Clouds 2 1011 87 10000 1.54 0 21:18 16.01.2021
3638 Clouds 1 1011 93 10000 0.51 0 20:44 16.01.2021
3639 Clouds 2 1011 87 2100 1.03 0 20:22 16.01.2021
3640 Clouds 2 1011 87 10000 3.09 280 19:44 16.01.2021
3641 Clouds 2 1012 87 10000 2.06 0 19:24 16.01.2021
3642 Clouds 1 1012 93 10000 2.06 0 18:43 16.01.2021
3643 Snow 1 1012 93 9000 3.6 360 18:25 16.01.2021
3644 Clouds 2 1012 87 10000 2.06 0 17:48 16.01.2021
3645 Clouds 2 1012 87 10000 2.06 0 17:29 16.01.2021
3646 Clouds 2 1012 87 8000 5.66 280 16:47 16.01.2021
3647 Clouds 2 1012 93 8000 1.54 260 16:27 16.01.2021
3648 Clouds 2 1012 87 8000 4.63 270 15:54 16.01.2021
3649 Clouds 2 1012 87 10000 4.12 270 15:26 16.01.2021
3650 Clouds 2 1013 87 10000 4.12 270 14:25 16.01.2021
3651 Clouds 1 1013 93 10000 4.12 270 13:49 16.01.2021
3652 Clouds 2 1013 87 10000 2.06 0 13:25 16.01.2021
3653 Clouds 2 1013 87 10000 4.12 270 12:46 16.01.2021
3654 Clouds 2 1013 93 10000 3.6 250 12:21 16.01.2021
3655 Clouds 2 1013 93 10000 2.57 250 11:49 16.01.2021
3656 Clouds 2 1014 93 10000 3.6 250 11:25 16.01.2021
3657 Clouds 2 1014 87 9000 3.09 270 10:47 16.01.2021
3658 Clouds 2 1014 87 8000 6.17 270 10:24 16.01.2021
3659 Clouds 2 1014 87 10000 4.63 260 09:40 16.01.2021
3660 Clouds 2 1014 93 5000 5.14 270 09:19 16.01.2021
3661 Clouds 2 1014 87 10000 3.09 260 07:51 16.01.2021
3662 Clouds 2 1014 93 10000 4.12 260 06:44 16.01.2021
3663 Clouds 2 1014 93 10000 4.12 260 06:44 16.01.2021
3664 Clouds 2 1014 80 10000 3.6 280 04:40 16.01.2021
3665 Drizzle 2 1014 87 10000 5.14 270 02:56 16.01.2021
3666 Clouds 3 1015 81 10000 5.14 270 02:21 16.01.2021
3667 Clouds 2 1015 87 10000 4.63 280 00:43 16.01.2021
3668 Clouds 3 1015 75 10000 4.63 280 00:19 16.01.2021
3669 Clouds 2 1015 87 10000 5.66 270 23:25 15.01.2021
3670 Clouds 3 1015 75 10000 3.09 0 22:27 15.01.2021
3671 Clouds 2 1015 87 10000 5.66 0 21:48 15.01.2021
3672 Clouds 2 1015 87 10000 6.17 270 21:25 15.01.2021
3673 Clouds 2 1015 80 10000 3.6 0 20:42 15.01.2021
3674 Clouds 3 1015 81 10000 6.69 270 20:23 15.01.2021
3675 Clouds 2 1015 87 10000 5.66 250 19:43 15.01.2021
3676 Clouds 3 1015 81 10000 6.69 270 19:24 15.01.2021
3677 Clouds 3 1015 81 10000 7.2 270 18:45 15.01.2021
3678 Clouds 3 1015 81 10000 6.69 250 18:20 15.01.2021
3679 Clouds 2 1015 87 6000 5.14 0 17:56 15.01.2021
3680 Clouds 3 1015 81 9000 5.14 0 17:37 15.01.2021
3681 Clouds 3 1015 81 9000 5.14 0 17:19 15.01.2021
3682 Clouds 3 1015 81 10000 4.12 0 16:43 15.01.2021
3683 Clouds 2 1015 93 10000 4.12 0 16:22 15.01.2021
3684 Clouds 3 1015 81 10000 4.63 0 15:40 15.01.2021
3685 Clouds 3 1015 87 10000 1.03 0 15:19 15.01.2021
3686 Clouds 2 1015 87 8000 5.14 270 14:41 15.01.2021
3687 Clouds 2 1014 87 10000 2.57 0 14:22 15.01.2021
3688 Clouds 3 1014 81 10000 5.14 0 13:40 15.01.2021
3689 Clouds 3 1014 81 10000 5.14 0 13:40 15.01.2021
3690 Clouds 2 1014 87 10000 4.12 0 13:20 15.01.2021
3691 Clouds 2 1014 93 10000 5.66 0 12:48 15.01.2021
3692 Clouds 2 1014 87 10000 1.03 0 12:30 15.01.2021
3693 Clouds 2 1014 87 10000 3.09 0 11:43 15.01.2021
3694 Clouds 2 1014 87 10000 1.03 0 11:23 15.01.2021
3695 Clouds 2 1014 87 10000 4.63 260 10:52 15.01.2021
3696 Clouds 2 1014 87 10000 1.54 0 10:33 15.01.2021
3697 Clouds 2 1014 87 10000 2.06 0 09:53 15.01.2021
3698 Clouds 2 1014 87 10000 2.06 0 09:34 15.01.2021
3699 Clouds 2 1014 87 10000 5.14 270 08:37 15.01.2021
3700 Clouds 2 1014 87 10000 5.66 270 08:18 15.01.2021
3701 Clouds 2 1014 87 10000 3.09 0 07:39 15.01.2021
3702 Clouds 2 1014 87 10000 5.14 270 07:18 15.01.2021
3703 Clouds 2 1015 87 3500 5.14 280 03:46 15.01.2021
3704 Snow 1 1015 93 10000 3.6 270 01:39 15.01.2021
3705 Clouds 1 1016 93 10000 4.63 280 23:50 14.01.2021
3706 Snow 1 1016 93 10000 4.12 280 23:21 14.01.2021
3707 Clouds 1 1016 86 10000 4.12 280 22:42 14.01.2021
3708 Snow 1 1016 93 10000 3.6 280 22:24 14.01.2021
3709 Snow 1 1017 93 10000 3.6 270 21:44 14.01.2021
3710 Snow 1 1017 93 10000 3.6 250 21:21 14.01.2021
3711 Snow 1 1017 93 10000 1.54 270 20:49 14.01.2021
3712 Snow 0 1017 100 2500 4.12 260 20:25 14.01.2021
3713 Snow 1 1017 86 10000 2.57 250 19:44 14.01.2021
3714 Snow 1 1017 93 10000 3.6 260 19:26 14.01.2021
3715 Snow 1 1017 93 10000 4.63 240 18:55 14.01.2021
3716 Snow 1 1017 93 10000 2.57 260 18:30 14.01.2021
3717 Snow 1 1017 93 10000 4.12 260 17:50 14.01.2021
3718 Snow 1 1017 93 10000 3.6 270 17:27 14.01.2021
3719 Clouds 1 1018 86 10000 2.57 240 16:44 14.01.2021
3720 Snow 1 1018 93 2000 3.6 240 16:23 14.01.2021
3721 Snow 0 1018 100 10000 2.57 270 15:45 14.01.2021
3722 Snow 0 1018 93 10000 2.57 280 14:59 14.01.2021
3723 Snow 0 1018 93 10000 2.57 280 14:39 14.01.2021
3724 Snow 1 1018 86 10000 3.6 280 14:19 14.01.2021
3725 Snow 0 1018 100 10000 3.6 270 13:53 14.01.2021
3726 Snow 0 1018 100 10000 3.6 270 13:22 14.01.2021
3727 Snow 0 1018 100 6000 4.12 270 12:51 14.01.2021
3728 Snow 1 1018 93 2000 5.66 270 12:20 14.01.2021
3729 Snow 1 1018 93 10000 6.17 240 11:50 14.01.2021
3730 Snow 1 1018 93 10000 2.57 270 11:21 14.01.2021
3731 Snow 0 1018 100 10000 2.06 0 10:54 14.01.2021
3732 Snow 0 1018 100 10000 2.06 0 10:35 14.01.2021
3733 Snow 0 1018 100 10000 5.66 240 09:59 14.01.2021
3734 Snow 0 1018 100 10000 5.66 240 09:41 14.01.2021
3735 Snow 0 1018 100 9000 5.14 240 09:18 14.01.2021
3736 Snow 0 1018 100 1500 6.69 240 08:28 14.01.2021
3737 Snow 0 1018 100 8000 7.2 240 07:50 14.01.2021
3738 Snow 0 1018 100 2000 5.66 240 07:28 14.01.2021
3739 Snow -1 1018 93 2000 7.72 230 06:24 14.01.2021
3740 Snow -1 1019 80 10000 6.69 220 02:51 14.01.2021
3741 Clouds -3 1019 80 10000 4.12 210 23:56 13.01.2021
3742 Clear -3 1019 80 10000 4.63 220 23:24 13.01.2021
3743 Clear -4 1019 80 10000 4.12 240 22:43 13.01.2021
3744 Clear -4 1019 80 10000 4.63 230 22:20 13.01.2021
3745 Clear -4 1020 80 10000 4.12 230 21:42 13.01.2021
3746 Clear -4 1020 74 10000 4.63 230 21:19 13.01.2021
3747 Clear -5 1020 80 10000 4.63 230 20:43 13.01.2021
3748 Clear -4 1019 74 10000 4.12 240 20:21 13.01.2021
3749 Clear -5 1019 74 10000 4.12 240 19:46 13.01.2021
3750 Clear -5 1020 74 10000 5.14 240 19:23 13.01.2021
3751 Clear -5 1020 74 10000 5.14 250 18:44 13.01.2021
3752 Clear -6 1020 79 10000 4.63 240 18:22 13.01.2021
3753 Clouds -6 1020 79 10000 5.14 240 17:41 13.01.2021
3754 Clouds -6 1020 79 10000 4.63 250 17:18 13.01.2021
3755 Clouds -7 1020 79 10000 5.14 230 16:36 13.01.2021
3756 Clouds -6 1019 73 10000 4.63 250 16:18 13.01.2021
3757 Clouds -6 1020 68 10000 2.57 250 15:40 13.01.2021
3758 Clouds -8 1020 73 10000 2.57 240 14:59 13.01.2021
3759 Clear -8 1020 79 10000 3.09 240 14:27 13.01.2021
3760 Clear -8 1020 73 10000 3.09 260 13:46 13.01.2021
3761 Clear -8 1020 73 10000 3.6 240 13:21 13.01.2021
3762 Clear -8 1020 73 10000 4.12 230 12:45 13.01.2021
3763 Clear -8 1020 73 10000 4.12 240 12:24 13.01.2021
3764 Clear -8 1020 79 10000 3.09 250 11:50 13.01.2021
3765 Clear -8 1020 79 10000 3.09 250 11:32 13.01.2021
3766 Clear -8 1020 73 10000 2.06 260 10:48 13.01.2021
3767 Clear -8 1019 73 10000 2.57 270 10:27 13.01.2021
3768 Clear -8 1019 73 10000 3.09 260 09:40 13.01.2021
3769 Clear -7 1019 58 10000 3.09 250 08:58 13.01.2021
3770 Clear -7 1019 58 10000 3.09 250 08:58 13.01.2021
3771 Clear -7 1019 58 10000 3.09 250 08:38 13.01.2021
3772 Clear -8 1019 57 10000 3.09 260 08:20 13.01.2021
3773 Clear -8 1019 57 10000 3.6 240 07:28 13.01.2021
3774 Clear -8 1019 57 10000 5.66 240 05:52 13.01.2021
3775 Clear -7 1018 49 10000 6.17 220 04:18 13.01.2021
3776 Clouds -7 1019 53 10000 5.66 230 03:43 13.01.2021
3777 Clouds -7 1019 49 10000 4.63 230 03:21 13.01.2021
3778 Clear -6 1018 42 10000 3.09 0 00:47 13.01.2021
3779 Clear -6 1018 42 10000 6.69 220 23:43 12.01.2021
3780 Clear -6 1018 49 10000 4.63 240 22:58 12.01.2021
3781 Clear -6 1018 49 10000 4.63 240 22:39 12.01.2021
3782 Clouds -6 1018 49 10000 6.17 230 22:19 12.01.2021
3783 Clear -6 1018 49 10000 3.6 240 21:43 12.01.2021
3784 Clear -6 1018 45 10000 3.09 0 21:23 12.01.2021
3785 Clear -6 1018 45 10000 3.6 190 20:47 12.01.2021
3786 Clear -6 1017 49 10000 4.63 210 20:26 12.01.2021
3787 Clear -6 1017 49 10000 5.14 210 19:44 12.01.2021
3788 Clear -6 1017 58 10000 6.69 200 18:57 12.01.2021
3789 Clear -6 1017 58 10000 6.69 200 18:38 12.01.2021
3790 Clear -6 1017 58 10000 4.63 220 18:20 12.01.2021
3791 Clear -6 1017 58 10000 4.12 220 17:34 12.01.2021
3792 Clear -6 1017 68 10000 4.63 210 16:54 12.01.2021
3793 Clear -6 1017 68 10000 4.63 210 16:36 12.01.2021
3794 Clear -6 1016 68 10000 7.2 210 16:18 12.01.2021
3795 Clear -6 1016 73 10000 3.6 210 15:29 12.01.2021
3796 Clear -6 1016 73 10000 6.17 220 14:57 12.01.2021
3797 Clear -6 1016 73 10000 6.17 220 14:39 12.01.2021
3798 Clear -5 1016 68 10000 6.17 220 14:19 12.01.2021
3799 Clear -6 1016 73 10000 2.57 220 13:46 12.01.2021
3800 Clear -7 1016 73 10000 5.66 210 12:39 12.01.2021
3801 Clear -7 1016 73 10000 7.2 210 11:55 12.01.2021
3802 Clear -7 1015 68 10000 7.2 210 11:36 12.01.2021
3803 Clear -6 1015 63 10000 7.2 210 10:45 12.01.2021
3804 Clear -7 1015 68 10000 6.17 230 10:20 12.01.2021
3805 Clear -7 1015 68 10000 6.17 230 10:20 12.01.2021
3806 Clear -7 1014 68 10000 6.69 200 09:55 12.01.2021
3807 Clear -7 1014 68 10000 5.66 210 09:26 12.01.2021
3808 Clear -7 1014 63 10000 6.17 210 08:42 12.01.2021
3809 Clear -7 1014 63 10000 5.66 200 08:23 12.01.2021
3810 Clear -7 1013 63 10000 3.09 0 07:35 12.01.2021
3811 Clear -6 1012 58 10000 3.6 0 06:22 12.01.2021
3812 Clear -7 1012 63 10000 8.23 210 05:30 12.01.2021
3813 Clouds -9 1012 62 10000 7.72 200 03:26 12.01.2021
3814 Clear -9 1012 67 10000 10.29 170 02:19 12.01.2021
3815 Clear -9 1012 73 10000 8.23 210 01:28 12.01.2021
3816 Clear -8 1011 73 10000 3.09 0 23:51 11.01.2021
3817 Clear -7 1011 68 10000 7.2 200 23:23 11.01.2021
3818 Clear -6 1011 58 10000 7.72 200 22:59 11.01.2021
3819 Clear -6 1011 58 10000 7.72 200 22:40 11.01.2021
3820 Clear -6 1011 53 10000 4.63 200 22:19 11.01.2021
3821 Clear -5 1011 54 10000 4.63 210 21:38 11.01.2021
3822 Clear -6 1011 63 10000 7.72 210 21:20 11.01.2021
3823 Clear -6 1011 68 10000 6.69 200 20:41 11.01.2021
3824 Clear -6 1011 68 10000 8.23 190 20:23 11.01.2021
3825 Clear -6 1011 68 10000 4.63 190 19:55 11.01.2021
3826 Clear -6 1011 68 10000 8.23 200 19:30 11.01.2021
3827 Clear -6 1012 73 10000 4.12 170 18:45 11.01.2021
3828 Clear -6 1012 73 10000 4.12 170 18:45 11.01.2021
3829 Clear -6 1012 68 10000 5.66 0 18:26 11.01.2021
3830 Clear -7 1012 73 10000 4.63 0 17:56 11.01.2021
3831 Clear -7 1012 73 10000 4.63 0 17:37 11.01.2021
3832 Clear -6 1011 68 10000 8.23 210 17:19 11.01.2021
3833 Clear -7 1010 73 10000 6.69 210 16:39 11.01.2021
3834 Clear -7 1011 68 10000 7.72 200 16:20 11.01.2021
3835 Clear -7 1011 73 10000 7.2 190 15:47 11.01.2021
3836 Clear -7 1011 73 10000 4.12 0 15:26 11.01.2021
3837 Clear -7 1010 68 10000 7.72 200 14:40 11.01.2021
3838 Clear -8 1011 73 10000 6.69 200 13:53 11.01.2021
3839 Clear -8 1011 73 10000 1.03 0 13:27 11.01.2021
3840 Clear -7 1010 68 10000 4.63 210 12:52 11.01.2021
3841 Clear -7 1010 68 10000 4.63 210 12:32 11.01.2021
3842 Clear -7 1010 68 10000 4.63 0 11:56 11.01.2021
3843 Clear -7 1010 68 10000 4.63 0 11:34 11.01.2021
3844 Clear -8 1010 67 10000 3.09 0 10:51 11.01.2021
3845 Clear -8 1010 67 10000 7.2 200 10:26 11.01.2021
3846 Clear -8 1009 67 10000 6.17 200 09:44 11.01.2021
3847 Clear -8 1009 67 10000 8.75 210 09:22 11.01.2021
3848 Clear -8 1009 67 10000 5.66 210 08:46 11.01.2021
3849 Clear -8 1009 62 10000 5.66 220 08:19 11.01.2021
3850 Clear -8 1008 62 10000 3.6 220 07:29 11.01.2021
3851 Clear -9 1008 67 10000 6.69 200 06:59 11.01.2021
3852 Clear -9 1008 67 10000 6.69 200 06:26 11.01.2021
3853 Clouds -9 1007 67 10000 6.17 200 01:46 11.01.2021
3854 Clear -9 1007 67 10000 8.23 190 00:38 11.01.2021
3855 Clear -8 1008 62 10000 5.14 190 23:43 10.01.2021
3856 Clear -8 1007 62 10000 6.17 200 22:49 10.01.2021
3857 Clear -8 1007 62 10000 4.63 190 22:27 10.01.2021
3858 Clear -8 1007 67 10000 5.14 190 21:56 10.01.2021
3859 Clear -8 1007 67 10000 5.14 190 21:36 10.01.2021
3860 Clouds -7 1007 63 10000 6.17 190 21:18 10.01.2021
3861 Clouds -7 1007 68 10000 7.2 190 20:37 10.01.2021
3862 Clear -7 1007 68 10000 7.2 190 20:19 10.01.2021
3863 Clear -6 1006 68 10000 8.75 200 19:38 10.01.2021
3864 Clear -6 1006 68 10000 9.26 200 19:20 10.01.2021
3865 Clear -6 1006 68 10000 9.77 200 18:43 10.01.2021
3866 Clear -6 1006 68 10000 10.29 200 18:20 10.01.2021
3867 Clear -6 1006 68 10000 8.23 200 17:23 10.01.2021
3868 Clear -6 1005 68 10000 11.32 210 16:46 10.01.2021
3869 Clear -6 1006 68 10000 9.77 200 16:27 10.01.2021
3870 Clear -6 1006 68 10000 9.77 200 15:26 10.01.2021
3871 Clouds -6 1005 68 10000 8.75 200 14:56 10.01.2021
3872 Clouds -6 1005 68 10000 8.75 200 14:38 10.01.2021
3873 Clouds -6 1005 73 10000 8.75 200 13:56 10.01.2021
3874 Clouds -6 1005 73 10000 8.75 200 13:38 10.01.2021
3875 Clouds -6 1005 73 10000 8.75 190 13:20 10.01.2021
3876 Clouds -6 1005 73 10000 8.23 200 12:50 10.01.2021
3877 Clouds -6 1005 68 10000 7.72 200 12:32 10.01.2021
3878 Clouds -6 1005 68 10000 8.23 200 11:54 10.01.2021
3879 Clouds -6 1005 68 10000 8.23 200 11:20 10.01.2021
3880 Clouds -6 1004 68 10000 9.26 200 10:47 10.01.2021
3881 Clouds -7 1004 73 10000 8.23 200 10:22 10.01.2021
3882 Clear -7 1004 73 10000 9.26 200 09:36 10.01.2021
3883 Clear -7 1004 73 10000 9.77 200 08:26 10.01.2021
3884 Clear -7 1004 73 10000 7.2 200 07:38 10.01.2021
3885 Clouds -6 1004 63 10000 7.72 200 06:21 10.01.2021
3886 Clouds -6 1004 63 10000 8.75 200 05:45 10.01.2021
3887 Clouds -6 1004 63 10000 10.8 200 05:27 10.01.2021
3888 Clouds -6 1006 68 10000 9.26 200 01:30 10.01.2021
3889 Clouds -6 1007 63 10000 8.75 200 00:19 10.01.2021
3890 Clouds -6 1007 63 10000 8.75 210 23:41 09.01.2021
3891 Clear -6 1008 68 10000 8.23 200 23:20 09.01.2021
3892 Clouds -6 1008 63 10000 7.72 210 22:21 09.01.2021
3893 Clouds -6 1009 63 10000 7.2 200 21:58 09.01.2021
3894 Clouds -6 1009 63 10000 7.2 200 21:39 09.01.2021
3895 Clouds -6 1009 63 10000 7.2 200 21:21 09.01.2021
3896 Clouds -6 1009 63 10000 7.72 200 20:56 09.01.2021
3897 Clouds -6 1009 63 10000 7.72 200 20:32 09.01.2021
3898 Clouds -6 1010 63 10000 8.23 200 19:40 09.01.2021
3899 Clouds -6 1010 63 10000 7.2 200 19:21 09.01.2021
3900 Clouds -6 1010 63 10000 8.23 200 18:38 09.01.2021
3901 Clouds -6 1010 63 10000 8.23 200 18:38 09.01.2021
3902 Clouds -6 1011 63 10000 8.23 200 18:18 09.01.2021
3903 Clouds -6 1011 63 10000 5.14 0 17:41 09.01.2021
3904 Clouds -6 1011 63 10000 6.69 200 17:22 09.01.2021
3905 Clouds -6 1012 63 10000 6.17 200 16:28 09.01.2021
3906 Clear -6 1012 68 10000 4.12 0 15:41 09.01.2021
3907 Clear -6 1012 68 10000 6.17 190 15:22 09.01.2021
3908 Clear -6 1012 68 10000 8.75 200 14:37 09.01.2021
3909 Clear -6 1013 68 10000 7.72 190 14:19 09.01.2021
3910 Clear -6 1013 68 10000 7.72 200 13:45 09.01.2021
3911 Clear -6 1013 68 10000 6.69 190 13:27 09.01.2021
3912 Clear -6 1014 68 10000 7.72 200 12:29 09.01.2021
3913 Clear -6 1015 68 10000 5.66 200 11:59 09.01.2021
3914 Clear -6 1015 68 10000 5.66 200 11:40 09.01.2021
3915 Clear -6 1015 63 10000 4.63 0 11:22 09.01.2021
3916 Clear -6 1015 63 10000 5.66 200 10:48 09.01.2021
3917 Clear -6 1015 63 10000 6.69 200 10:25 09.01.2021
3918 Clear -6 1015 63 10000 6.17 200 09:44 09.01.2021
3919 Clear -6 1015 63 10000 4.12 200 09:21 09.01.2021
3920 Clear -7 1015 68 10000 5.14 210 08:19 09.01.2021
3921 Clear -6 1016 58 10000 2.57 0 06:55 09.01.2021
3922 Clear -6 1016 58 10000 2.57 0 06:36 09.01.2021
3923 Clear -6 1016 53 10000 2.06 0 04:40 09.01.2021
3924 Clear -4 1017 50 10000 2.57 200 02:47 09.01.2021
3925 Clear -5 1017 54 10000 1.54 260 02:28 09.01.2021
3926 Clear -5 1017 54 10000 1.54 0 01:35 09.01.2021
3927 Clear -6 1017 68 10000 1.03 0 00:34 09.01.2021
3928 Clear -5 1017 74 10000 5.33 167 23:50 08.01.2021
3929 Clouds -4 1017 74 10000 4.12 220 22:49 08.01.2021
3930 Clouds -3 1017 68 10000 3.09 210 21:58 08.01.2021
3931 Clouds -3 1017 68 10000 3.09 230 21:31 08.01.2021
3932 Clouds -3 1017 68 10000 4.12 230 20:41 08.01.2021
3933 Clouds -3 1017 68 10000 4.12 230 20:21 08.01.2021
3934 Clouds -3 1017 68 10000 4.63 220 19:39 08.01.2021
3935 Clouds -3 1017 68 10000 4.63 220 19:20 08.01.2021
3936 Clouds -3 1017 68 10000 4.63 220 18:34 08.01.2021
3937 Clouds -4 1016 74 10000 4.63 220 17:55 08.01.2021
3938 Clouds -4 1016 74 10000 4.12 230 17:30 08.01.2021
3939 Clouds -3 1016 74 10000 4.63 220 16:51 08.01.2021
3940 Clouds -3 1016 74 10000 4.63 220 16:51 08.01.2021
3941 Clouds -3 1016 74 10000 4.63 220 16:20 08.01.2021
3942 Snow -4 1016 80 5000 5.14 220 15:40 08.01.2021
3943 Snow -4 1016 80 6000 3.6 230 14:42 08.01.2021
3944 Snow -4 1016 74 5000 5.14 230 14:23 08.01.2021
3945 Snow -4 1015 68 10000 5.14 220 13:23 08.01.2021
3946 Clouds -4 1015 68 10000 6.17 230 12:57 08.01.2021
3947 Clouds -4 1015 68 10000 6.17 230 12:39 08.01.2021
3948 Snow -4 1015 68 10000 5.14 230 12:19 08.01.2021
3949 Clouds -4 1015 68 10000 5.66 240 11:42 08.01.2021
3950 Clouds -4 1015 68 10000 4.12 240 11:22 08.01.2021
3951 Clouds -4 1015 68 10000 4.63 230 10:46 08.01.2021
3952 Clouds -4 1015 68 10000 3.6 230 10:24 08.01.2021
3953 Clouds -4 1015 68 10000 4.63 220 09:43 08.01.2021
3954 Clouds -5 1014 68 10000 2.57 230 09:21 08.01.2021
3955 Clouds -5 1014 68 10000 4.12 220 07:56 08.01.2021
3956 Clouds -5 1014 68 10000 3.6 230 07:25 08.01.2021
3957 Clouds -5 1014 68 10000 3.6 230 07:25 08.01.2021
3958 Clear -5 1013 63 10000 3.6 230 04:26 08.01.2021
3959 Clear -4 1014 54 10000 6.17 220 23:46 07.01.2021
3960 Clear -3 1014 59 10000 5.66 240 23:28 07.01.2021
3961 Clear -2 1013 50 10000 4.63 250 22:42 07.01.2021
3962 Clear -2 1014 50 10000 5.14 270 22:21 07.01.2021
3963 Clear -2 1013 54 10000 4.12 280 21:41 07.01.2021
3964 Clear -2 1013 59 10000 5.14 240 21:22 07.01.2021
3965 Clear -1 1013 51 10000 4.12 270 20:45 07.01.2021
3966 Clear 0 1013 47 10000 3.6 270 20:26 07.01.2021
3967 Clear -1 1013 55 10000 5.66 260 19:42 07.01.2021
3968 Clear -1 1013 51 10000 2.57 270 18:55 07.01.2021
3969 Clear -1 1013 59 10000 5.66 250 18:30 07.01.2021
3970 Clear -1 1013 59 10000 5.14 260 17:42 07.01.2021
3971 Clear -1 1013 55 10000 3.09 260 17:22 07.01.2021
3972 Clear 0 1013 51 10000 1.54 0 16:52 07.01.2021
3973 Clear 0 1013 55 10000 4.63 230 16:24 07.01.2021
3974 Clear 1 1013 47 10000 5.14 250 15:37 07.01.2021
3975 Clear 1 1014 44 10000 4.63 260 14:45 07.01.2021
3976 Clear 1 1014 44 10000 4.12 270 14:26 07.01.2021
3977 Clear 1 1014 37 10000 4.12 230 13:42 07.01.2021
3978 Clear 2 1014 35 10000 3.6 200 13:18 07.01.2021
3979 Clear 2 1014 35 10000 3.6 200 13:18 07.01.2021
3980 Clear 2 1014 32 10000 4.12 220 12:42 07.01.2021
3981 Clear 2 1014 34 10000 13.9 200 11:54 07.01.2021
3982 Clear 2 1014 37 10000 13.4 200 11:35 07.01.2021
3983 Clear 3 1014 32 10000 12.9 200 10:50 07.01.2021
3984 Clear 2 1014 37 10000 14.4 190 10:20 07.01.2021
3985 Clear 2 1014 37 10000 14.4 190 09:47 07.01.2021
3986 Clear 1 1015 40 10000 11.8 180 09:19 07.01.2021
3987 Clear 1 1015 40 10000 10.3 180 08:29 07.01.2021
3988 Clear 2 1015 40 10000 9.3 180 07:51 07.01.2021
3989 Clear 2 1015 40 10000 9.3 180 07:26 07.01.2021
3990 Clear 1 1016 69 10000 9.8 200 04:31 07.01.2021
3991 Clear 0 1018 89 10000 4.1 170 00:30 07.01.2021
3992 Clouds 2 1018 80 10000 2.6 170 23:48 06.01.2021
3993 Clouds 2 1019 80 10000 2.6 190 22:44 06.01.2021
3994 Clouds 1 1019 85 10000 4.1 200 21:47 06.01.2021
3995 Clouds 1 1019 86 10000 4.1 200 21:23 06.01.2021
3996 Clouds 2 1019 80 10000 5.1 210 20:58 06.01.2021
3997 Clouds 2 1019 80 10000 5.1 210 20:39 06.01.2021
3998 Clouds 3 1019 74 10000 6.2 210 20:18 06.01.2021
3999 Clouds 3 1019 74 10000 6.2 210 19:38 06.01.2021
4000 Clouds 3 1019 74 10000 6.7 210 19:19 06.01.2021
4001 Clouds 3 1019 74 10000 6.7 210 18:42 06.01.2021
4002 Clouds 2 1019 80 10000 6.2 200 18:24 06.01.2021
4003 Clouds 1 1019 86 10000 4.1 200 17:43 06.01.2021
4004 Clouds 1 1019 86 10000 4.1 200 17:24 06.01.2021
4005 Snow 1 1019 86 10000 4.1 190 16:42 06.01.2021
4006 Clouds 2 1019 86 10000 5.1 210 16:20 06.01.2021
4007 Clouds 2 1019 86 10000 5.1 210 15:53 06.01.2021
4008 Clouds 2 1019 86 10000 5.1 200 15:32 06.01.2021
4009 Clouds 2 1020 86 10000 6.2 210 14:51 06.01.2021
4010 Clouds 2 1020 86 10000 6.2 210 14:21 06.01.2021
4011 Clouds 3 1020 89 10000 6.2 210 13:47 06.01.2021
4012 Clouds 3 1020 86 10000 5.1 220 13:24 06.01.2021
4013 Clouds 3 1020 86 10000 5.7 230 12:48 06.01.2021
4014 Clouds 3 1020 93 10000 5.7 240 12:20 06.01.2021
4015 Clouds 3 1020 93 10000 7.2 230 11:36 06.01.2021
4016 Clouds 3 1020 93 10000 7.7 230 11:18 06.01.2021
4017 Rain 3 1019 86 10000 8.7 240 10:22 06.01.2021
4018 Clouds 3 1019 86 10000 6.7 240 09:51 06.01.2021
4019 Clouds 3 1019 86 10000 6.7 260 08:59 06.01.2021
4020 Rain 3 1019 86 10000 7.2 270 08:38 06.01.2021
4021 Rain 4 1018 80 10000 5.7 270 07:58 06.01.2021
4022 Rain 4 1018 85 10000 8.7 250 06:55 06.01.2021
4023 Rain 3 1018 86 10000 8.7 240 05:34 06.01.2021
4024 Clouds 4 1018 86 10000 8.7 240 04:35 06.01.2021
4025 Clouds 4 1018 86 10000 11.3 270 02:47 06.01.2021
4026 Clouds 4 1018 86 10000 11.3 270 02:26 06.01.2021
4027 Drizzle 3 1018 86 10000 6.7 240 01:23 06.01.2021
4028 Clouds 3 1018 86 10000 6.7 210 23:32 05.01.2021
4029 Clouds 4 1018 86 10000 6.7 200 22:45 05.01.2021
4030 Rain 3 1018 86 10000 6.7 210 22:21 05.01.2021
4031 Rain 3 1018 86 10000 6.7 210 21:56 05.01.2021
4032 Rain 3 1019 86 10000 6.2 210 20:58 05.01.2021
4033 Rain 3 1019 86 10000 5.1 210 20:28 05.01.2021
4034 Clouds 3 1020 93 10000 4.6 210 19:45 05.01.2021
4035 Clouds 3 1020 93 10000 4.6 210 19:23 05.01.2021
4036 Drizzle 3 1020 93 10000 4.6 230 18:45 05.01.2021
4037 Drizzle 3 1020 93 10000 4.6 230 18:26 05.01.2021
4038 Drizzle 3 1021 93 10000 5.7 210 17:52 05.01.2021
4039 Drizzle 3 1021 93 10000 5.7 210 17:31 05.01.2021
4040 Rain 4 1021 86 10000 5.7 210 16:53 05.01.2021
4041 Clouds 3 1021 93 10000 5.7 210 16:23 05.01.2021
4042 Rain 4 1021 80 10000 5.7 220 15:51 05.01.2021
4043 Rain 3 1021 93 10000 5.1 220 15:29 05.01.2021
4044 Rain 3 1022 86 10000 4.1 210 14:47 05.01.2021
4045 Clouds 4 1022 86 10000 4.6 230 13:55 05.01.2021
4046 Clouds 4 1022 86 10000 4.6 230 13:35 05.01.2021
4047 Clouds 4 1023 86 10000 5.1 220 12:51 05.01.2021
4048 Clouds 4 1023 86 10000 6.7 230 12:29 05.01.2021
4049 Clouds 4 1023 86 10000 6.2 220 11:49 05.01.2021
4050 Clouds 4 1023 86 10000 6.2 220 11:25 05.01.2021
4051 Clouds 4 1023 86 10000 6.7 230 10:44 05.01.2021
4052 Clouds 4 1023 80 10000 6.7 230 10:18 05.01.2021
4053 Clouds 4 1023 86 10000 6.7 230 09:41 05.01.2021
4054 Rain 4 1023 86 10000 5.7 220 08:45 05.01.2021
4055 Rain 4 1023 86 10000 6.2 230 08:19 05.01.2021
4056 Rain 3 1023 93 10000 7.2 220 05:32 05.01.2021
4057 Rain 4 1024 86 10000 5.7 220 03:39 05.01.2021
4058 Clouds 4 1024 80 10000 8.7 240 00:23 05.01.2021
4059 Clouds 5 1024 75 10000 8.7 250 23:42 04.01.2021
4060 Clouds 4 1024 80 10000 8.2 240 23:22 04.01.2021
4061 Clouds 4 1024 80 10000 6.2 240 22:46 04.01.2021
4062 Clouds 4 1024 80 10000 8.2 250 22:19 04.01.2021
4063 Clouds 4 1024 80 10000 8.2 240 21:40 04.01.2021
4064 Clouds 4 1024 80 10000 8.2 240 21:40 04.01.2021
4065 Clouds 4 1024 80 10000 7.7 230 21:20 04.01.2021
4066 Clouds 4 1024 80 10000 3.6 240 20:38 04.01.2021
4067 Clouds 4 1024 80 10000 9.3 250 20:19 04.01.2021
4068 Clouds 4 1024 81 10000 7.2 230 19:42 04.01.2021
4069 Clouds 4 1024 82 10000 7.2 220 19:19 04.01.2021
4070 Clouds 4 1024 82 10000 7.2 220 18:44 04.01.2021
4071 Clouds 4 1024 80 10000 8.7 230 17:59 04.01.2021
4072 Clouds 4 1024 80 10000 9.3 240 17:39 04.01.2021
4073 Clouds 4 1024 80 10000 10.3 240 17:21 04.01.2021
4074 Clouds 5 1024 75 10000 9.3 240 16:42 04.01.2021
4075 Clouds 5 1024 75 10000 9.3 240 16:24 04.01.2021
4076 Clouds 4 1025 80 10000 8.2 240 15:48 04.01.2021
4077 Clouds 5 1025 75 10000 11.8 250 15:24 04.01.2021
4078 Clouds 4 1025 86 10000 10.8 260 13:58 04.01.2021
4079 Clouds 4 1025 86 10000 10.8 260 13:36 04.01.2021
4080 Clouds 5 1025 75 10000 12.3 260 12:57 04.01.2021
4081 Clouds 4 1025 80 10000 11.3 260 12:30 04.01.2021
4082 Clouds 4 1025 86 10000 11.8 270 11:52 04.01.2021
4083 Clouds 4 1024 80 10000 13.9 250 11:20 04.01.2021
4084 Clouds 4 1024 80 10000 12.3 240 10:46 04.01.2021
4085 Clouds 4 1024 80 10000 12.3 240 10:23 04.01.2021
4086 Clouds 3 1024 91 10000 12.3 240 09:48 04.01.2021
4087 Clouds 3 1024 86 10000 11.3 230 09:18 04.01.2021
4088 Clouds 2 1024 91 10000 10.8 220 08:32 04.01.2021
4089 Drizzle 3 1024 86 10000 12.3 230 07:47 04.01.2021
4090 Rain 3 1023 91 10000 11.3 230 06:40 04.01.2021
4091 Rain 3 1024 74 10000 10.3 220 05:20 04.01.2021
4092 Rain 3 1025 91 10000 10.3 240 02:31 04.01.2021
4093 Clouds 3 1025 74 10000 9.8 230 00:29 04.01.2021
4094 Clouds 2 1025 94 10000 7.2 220 23:47 03.01.2021
4095 Clouds 2 1025 93 10000 7.2 220 23:19 03.01.2021
4096 Clouds 2 1025 93 10000 6.7 220 22:42 03.01.2021
4097 Clouds 2 1025 90 10000 6.7 220 22:23 03.01.2021
4098 Drizzle 2 1025 93 10000 8.2 240 21:46 03.01.2021
4099 Drizzle 2 1025 93 10000 8.2 240 21:24 03.01.2021
4100 Clouds 2 1025 93 10000 7.2 230 20:42 03.01.2021
4101 Clouds 2 1025 86 10000 7.7 240 20:20 03.01.2021
4102 Clouds 2 1025 86 10000 7.7 240 19:52 03.01.2021
4103 Clouds 2 1025 93 10000 6.2 230 19:33 03.01.2021
4104 Rain 2 1025 86 10000 7.2 260 18:52 03.01.2021
4105 Rain 2 1025 93 10000 5.7 250 18:34 03.01.2021
4106 Clouds 2 1025 93 10000 7.2 260 17:53 03.01.2021
4107 Clouds 2 1025 93 10000 7.2 260 17:30 03.01.2021
4108 Drizzle 2 1025 93 10000 6.2 260 16:57 03.01.2021
4109 Clouds 2 1025 93 10000 6.7 260 16:39 03.01.2021
4110 Clouds 2 1024 93 10000 7.2 260 16:19 03.01.2021
4111 Clouds 2 1024 87 10000 5.7 260 15:45 03.01.2021
4112 Clouds 2 1024 90 10000 5.7 260 15:23 03.01.2021
4113 Clouds 2 1024 90 10000 5.1 270 14:44 03.01.2021
4114 Rain 2 1024 91 10000 5.1 270 14:24 03.01.2021
4115 Clouds 2 1024 91 10000 6.7 260 13:39 03.01.2021
4116 Snow 1 1024 90 10000 6.2 270 13:21 03.01.2021
4117 Snow 1 1023 88 10000 5.7 250 11:57 03.01.2021
4118 Snow 1 1023 88 10000 5.1 250 11:39 03.01.2021
4119 Snow 1 1023 88 10000 5.1 250 11:21 03.01.2021
4120 Snow 0 1022 88 10000 5.1 220 10:34 03.01.2021
4121 Snow 0 1022 88 10000 4.1 210 09:52 03.01.2021
4122 Snow 0 1022 91 5000 3.6 210 09:28 03.01.2021
4123 Snow 0 1021 91 10000 3.6 200 08:34 03.01.2021
4124 Snow -1 1021 100 10000 5.7 220 07:24 03.01.2021
4125 Clouds -1 1020 86 10000 6.7 210 05:23 03.01.2021
4126 Snow -1 1019 74 10000 5.1 210 02:26 03.01.2021
4127 Clouds -2 1019 86 10000 5.7 210 00:56 03.01.2021
4128 Clouds -1 1019 86 10000 5.1 230 23:53 02.01.2021
4129 Clouds -1 1019 86 10000 5.7 230 23:20 02.01.2021
4130 Clouds -2 1018 92 10000 4.6 220 22:49 02.01.2021
4131 Clouds -2 1018 92 10000 4.6 220 22:49 02.01.2021
4132 Clouds -2 1018 92 10000 4.6 220 22:49 02.01.2021
4133 Clouds -2 1018 92 10000 4.6 220 22:31 02.01.2021
4134 Clouds -2 1018 86 8000 3.6 220 21:49 02.01.2021
4135 Clouds -2 1018 86 8000 3.6 220 21:30 02.01.2021
4136 Clouds -2 1017 79 10000 3.1 230 20:49 02.01.2021
4137 Clouds -2 1017 79 10000 3.1 230 20:27 02.01.2021
4138 Clouds -3 1017 86 10000 2.6 260 19:49 02.01.2021
4139 Rain -3 1017 86 10000 2.1 230 19:20 02.01.2021
4140 Rain -3 1017 86 10000 1.5 220 18:52 02.01.2021
4141 Rain -3 1017 86 10000 1.5 220 18:33 02.01.2021
4142 Snow -3 1017 86 10000 1.5 210 17:56 02.01.2021
4143 Clouds -4 1017 85 10000 1 200 17:37 02.01.2021
4144 Clouds -3 1016 79 10000 3.1 200 16:48 02.01.2021
4145 Clouds -3 1016 79 10000 3.1 200 16:22 02.01.2021
4146 Clouds -3 1016 79 10000 3.6 200 15:50 02.01.2021
4147 Clouds -3 1016 79 10000 3.6 190 15:28 02.01.2021
4148 Clouds -4 1016 79 10000 3.1 190 14:47 02.01.2021
4149 Clouds -4 1016 79 10000 3.1 190 14:26 02.01.2021
4150 Clouds -4 1016 85 10000 4.1 180 13:44 02.01.2021
4151 Clouds -4 1016 85 10000 4.1 180 13:44 02.01.2021
4152 Clouds -4 1016 79 10000 3.6 170 12:59 02.01.2021
4153 Clouds -4 1016 79 10000 4.6 180 12:40 02.01.2021
4154 Clouds -4 1016 79 10000 3.6 170 12:19 02.01.2021
4155 Clouds -4 1016 79 10000 4.6 160 11:38 02.01.2021
4156 Clouds -4 1016 79 10000 4.6 150 11:20 02.01.2021
4157 Clouds -5 1016 85 10000 5.1 150 10:41 02.01.2021
4158 Clouds -4 1016 79 10000 4.6 150 10:23 02.01.2021
4159 Clouds -3 1016 79 10000 4.1 150 09:43 02.01.2021
4160 Clouds -3 1015 79 10000 5.7 140 09:20 02.01.2021
4161 Clouds -3 1015 79 10000 5.7 140 08:48 02.01.2021
4162 Clouds -3 1015 79 10000 4.6 160 08:19 02.01.2021
4163 Clouds -3 1015 79 10000 4.6 160 07:25 02.01.2021
4164 Clouds -3 1015 79 10000 6.7 160 06:57 02.01.2021
4165 Clouds -3 1015 79 10000 6.7 160 06:57 02.01.2021
4166 Clouds -3 1015 79 10000 7.2 150 05:57 02.01.2021
4167 Clouds -5 1016 95 10000 4.37 166 02:52 02.01.2021
4168 Clouds -2 1014 86 10000 4.1 130 00:43 02.01.2021
4169 Clouds -2 1014 86 10000 6.7 130 00:23 02.01.2021
4170 Clouds -2 1014 86 10000 6.2 100 23:37 01.01.2021
4171 Snow -2 1014 92 5000 6.2 110 23:19 01.01.2021
4172 Snow -2 1014 86 4000 2.6 50 22:46 01.01.2021
4173 Snow -2 1014 86 4000 2.6 50 22:21 01.01.2021
4174 Clouds -2 1014 86 10000 2.6 100 21:43 01.01.2021
4175 Clouds -3 1015 86 10000 4.6 130 21:20 01.01.2021
4176 Clouds -3 1015 86 10000 4.6 130 20:50 01.01.2021
4177 Clouds -2 1015 86 10000 7.7 130 20:19 01.01.2021
4178 Clouds -2 1015 79 10000 6.7 140 19:42 01.01.2021
4179 Clouds -2 1015 79 10000 6.7 140 19:22 01.01.2021
4180 Clouds -3 1015 86 10000 9.3 140 18:48 01.01.2021
4181 Clouds -3 1015 86 10000 9.3 140 18:29 01.01.2021
4182 Clouds -3 1015 86 10000 7.7 140 17:59 01.01.2021
4183 Clouds -3 1015 86 10000 7.2 120 17:40 01.01.2021
4184 Clouds -3 1015 79 10000 7.7 130 17:18 01.01.2021
4185 Clouds -4 1015 85 10000 6.2 120 16:36 01.01.2021
4186 Clouds -3 1016 86 10000 8.7 110 15:45 01.01.2021
4187 Clouds -3 1016 86 10000 7.2 130 14:52 01.01.2021
4188 Clouds -3 1016 79 10000 7.2 130 14:33 01.01.2021
4189 Clouds -4 1016 79 10000 4.1 120 13:45 01.01.2021
4190 Clouds -4 1016 79 10000 4.1 120 13:24 01.01.2021
4191 Clouds -4 1016 85 10000 8.2 120 12:39 01.01.2021
4192 Clouds -3 1016 79 10000 8.7 120 12:18 01.01.2021
4193 Clouds -3 1016 86 10000 8.2 130 11:39 01.01.2021
4194 Clouds -2 1016 79 10000 8.2 130 11:18 01.01.2021
4195 Snow -2 1016 86 10000 10.3 150 10:35 01.01.2021
4196 Clear -1 1016 80 10000 10.3 140 09:47 01.01.2021
4197 Snow -1 1016 80 10000 8.7 140 09:20 01.01.2021
4198 Clouds -1 1016 80 10000 9.3 130 08:29 01.01.2021
4199 Clear -2 1016 74 10000 10.3 150 04:53 01.01.2021
4200 Clear -2 1016 74 10000 9.3 140 02:44 01.01.2021
4201 Clear -1 1016 74 10000 6.2 140 01:37 01.01.2021
4202 Clear -1 1016 74 10000 12.3 170 00:28 01.01.2021
4203 Clear 0 1016 94 10000 10.3 180 23:37 31.12.2020
4204 Clear 0 1015 94 10000 12.3 170 23:19 31.12.2020
4205 Clear 0 1015 94 10000 9.3 170 22:40 31.12.2020
4206 Clear 0 1015 94 10000 9.3 170 22:20 31.12.2020
4207 Clear 0 1015 94 10000 9.8 170 21:47 31.12.2020
4208 Clear 0 1015 94 10000 9.8 170 21:25 31.12.2020
4209 Clear 0 1014 94 10000 9.3 180 20:54 31.12.2020
4210 Clear 0 1014 94 10000 10.8 170 20:21 31.12.2020
4211 Clear 0 1014 94 10000 10.8 170 19:48 31.12.2020
4212 Clear 0 1014 94 10000 10.8 170 19:30 31.12.2020
4213 Clear 0 1014 94 10000 9.3 190 18:50 31.12.2020
4214 Clear 0 1014 94 10000 9.3 190 18:24 31.12.2020
4215 Clear -1 1014 74 10000 11.3 170 17:45 31.12.2020
4216 Clear -1 1014 74 10000 9.8 200 17:24 31.12.2020
4217 Clear -1 1014 74 10000 9.3 190 16:44 31.12.2020
4218 Clear -1 1014 74 10000 9.3 190 16:26 31.12.2020
4219 Clear -1 1014 74 10000 10.8 180 15:57 31.12.2020
4220 Clear -1 1014 74 10000 8.2 180 15:38 31.12.2020
4221 Clear -2 1014 79 10000 9.3 180 15:18 31.12.2020
4222 Clouds -1 1013 74 10000 10.3 180 14:40 31.12.2020
4223 Clouds -1 1013 74 10000 9.3 180 14:21 31.12.2020
4224 Clouds 0 1013 94 10000 11.3 160 13:42 31.12.2020
4225 Clouds 0 1013 94 10000 11.3 160 13:24 31.12.2020
4226 Clear -1 1013 80 10000 8.7 170 13:24 31.12.2020
4227 Clear -1 1013 80 10000 8.7 170 12:55 31.12.2020
4228 Clear 0 1012 94 10000 8.7 180 12:37 31.12.2020
4229 Clear -1 1012 80 10000 8.2 180 11:58 31.12.2020
4230 Clear -1 1012 80 10000 10.3 170 11:40 31.12.2020
4231 Clear -1 1011 74 10000 11.3 160 11:21 31.12.2020
4232 Clear -1 1010 80 10000 9.8 170 10:40 31.12.2020
4233 Clear -1 1010 80 10000 9.8 170 10:22 31.12.2020
4234 Clear -1 1010 74 10000 14.4 170 09:47 31.12.2020
4235 Clear -1 1010 74 10000 14.4 170 09:22 31.12.2020
4236 Clear -1 1009 74 10000 13.9 180 08:46 31.12.2020
4237 Clear -1 1009 74 10000 13.9 180 08:27 31.12.2020
4238 Clear -1 1009 74 10000 11.8 180 07:52 31.12.2020
4239 Clouds -2 1008 79 10000 12.3 180 06:50 31.12.2020
4240 Clouds -1 1008 74 10000 15.9 190 05:30 31.12.2020
4241 Clear -1 1008 74 10000 12.3 170 03:24 31.12.2020
4242 Clear -1 1007 80 10000 10.3 180 02:26 31.12.2020
4243 Clear -1 1007 80 10000 12.3 180 01:53 31.12.2020
4244 Clouds 0 1007 94 10000 13.9 190 01:33 31.12.2020
4245 Clouds 0 1007 94 10000 10.3 190 00:55 31.12.2020
4246 Clear 0 1007 95 10000 13.9 190 00:26 31.12.2020
4247 Clear -1 1007 74 10000 10.3 170 23:21 30.12.2020
4248 Clear -1 1007 74 10000 7.7 180 22:59 30.12.2020
4249 Clear -1 1007 74 10000 7.7 180 22:34 30.12.2020
4250 Clear 0 1006 95 10000 8.7 190 21:52 30.12.2020
4251 Clear 0 1006 95 10000 6.7 180 21:27 30.12.2020
4252 Clear 0 1006 95 10000 4.1 180 20:53 30.12.2020
4253 Clear 1 1006 74 10000 4.6 110 20:28 30.12.2020
4254 Clear 1 1006 80 10000 9.8 200 19:58 30.12.2020
4255 Clear 1 1006 80 10000 9.8 200 19:58 30.12.2020
4256 Clear 1 1006 80 10000 10.3 190 19:37 30.12.2020
4257 Clear 1 1006 80 10000 8.7 190 19:18 30.12.2020
4258 Clear 2 1006 80 10000 7.7 180 18:38 30.12.2020
4259 Clouds 2 1006 80 10000 8.7 170 18:20 30.12.2020
4260 Clouds 2 1006 80 10000 8.7 170 17:43 30.12.2020
4261 Clear 1 1006 80 10000 7.7 110 17:24 30.12.2020
4262 Clear 1 1006 80 10000 7.7 110 16:43 30.12.2020
4263 Clear 1 1006 86 10000 11.3 190 15:51 30.12.2020
4264 Clear 1 1006 86 10000 11.3 190 15:30 30.12.2020
4265 Clouds 2 1006 80 10000 8.2 180 14:58 30.12.2020
4266 Clouds 2 1006 80 10000 14.4 190 14:39 30.12.2020
4267 Clouds 2 1006 80 10000 12.9 190 14:19 30.12.2020
4268 Clouds 2 1006 74 10000 12.3 190 13:19 30.12.2020
4269 Clear 1 1006 80 10000 13.4 190 12:26 30.12.2020
4270 Clear 1 1006 80 10000 11.3 200 11:45 30.12.2020
4271 Clear 1 1006 74 10000 10.8 190 11:22 30.12.2020
4272 Clear 1 1006 74 10000 10.8 190 10:58 30.12.2020
4273 Clear 1 1006 74 10000 7.2 190 10:38 30.12.2020
4274 Clear 1 1005 74 10000 6.2 200 10:18 30.12.2020
4275 Clear 1 1005 74 10000 8.7 190 09:41 30.12.2020
4276 Clear 1 1005 69 10000 12.9 180 08:49 30.12.2020
4277 Clear 1 1005 69 10000 11.8 180 07:51 30.12.2020
4278 Clear 2 1004 69 10000 13.9 190 07:24 30.12.2020
4279 Clear 1 1004 69 10000 14.4 200 06:40 30.12.2020
4280 Clear 0 1004 94 10000 15.4 190 05:48 30.12.2020
4281 Clear 0 1004 94 10000 15.4 190 05:29 30.12.2020
4282 Clear 0 1004 94 10000 10.8 180 03:41 30.12.2020
4283 Clear 0 1004 94 10000 14.4 180 03:23 30.12.2020
4284 Clear 1 1004 64 10000 15.9 180 02:32 30.12.2020
4285 Clear 1 1004 69 10000 13.9 190 01:46 30.12.2020
4286 Clear 1 1004 69 10000 13.9 190 01:28 30.12.2020
4287 Clear 1 1005 69 10000 14.9 180 00:41 30.12.2020
4288 Clear 1 1005 69 10000 14.9 180 00:22 30.12.2020
4289 Clear 1 1004 74 10000 7.7 200 23:43 29.12.2020
4290 Clear 1 1004 74 10000 7.7 200 23:24 29.12.2020
4291 Clear 1 1004 74 10000 12.3 190 22:49 29.12.2020
4292 Clear 1 1004 74 10000 12.3 190 22:31 29.12.2020
4293 Clear 1 1003 74 10000 12.3 190 21:56 29.12.2020
4294 Clear 1 1005 69 10000 14.9 170 21:37 29.12.2020
4295 Clear 1 1005 74 10000 13.4 200 21:18 29.12.2020
4296 Clear 1 1005 74 10000 17.5 190 20:41 29.12.2020
4297 Clear 1 1005 74 10000 15.9 190 20:22 29.12.2020
4298 Clear 1 1005 74 10000 13.4 180 19:43 29.12.2020
4299 Clear 1 1005 74 10000 13.4 180 19:21 29.12.2020
4300 Clear 1 1005 74 10000 12.9 190 18:50 29.12.2020
4301 Clear 2 1005 74 10000 11.3 180 18:28 29.12.2020
4302 Clear 2 1005 74 10000 11.3 180 17:46 29.12.2020
4303 Clear 1 1005 74 10000 10.8 200 17:21 29.12.2020
4304 Clear 1 1005 74 10000 10.8 200 17:21 29.12.2020
4305 Clear 1 1005 74 10000 10.8 200 16:54 29.12.2020
4306 Clear 1 1005 74 10000 13.4 190 16:26 29.12.2020
4307 Clear 1 1005 74 10000 13.4 190 15:42 29.12.2020
4308 Clear 0 1005 94 10000 11.3 190 15:23 29.12.2020
4309 Clear 0 1005 94 10000 10.3 190 14:45 29.12.2020
4310 Clear 0 1005 94 10000 10.3 190 14:27 29.12.2020
4311 Clear 0 1005 94 10000 10.3 190 13:55 29.12.2020
4312 Clear 0 1005 93 10000 7.7 190 13:24 29.12.2020
4313 Clear 0 1005 94 10000 11.3 180 12:45 29.12.2020
4314 Clear 0 1005 94 10000 9.3 190 12:26 29.12.2020
4315 Clear 0 1005 94 10000 9.3 190 11:58 29.12.2020
4316 Clear -1 1005 68 10000 10.3 190 11:32 29.12.2020
4317 Clear 0 1005 94 10000 10.8 200 10:52 29.12.2020
4318 Clear -1 1005 74 10000 9.3 180 10:20 29.12.2020
4319 Clear 0 1005 94 10000 5.1 170 09:40 29.12.2020
4320 Clear -1 1005 74 10000 8.2 180 09:18 29.12.2020
4321 Clear -1 1005 74 10000 6.7 160 08:47 29.12.2020
4322 Clear 0 1005 94 10000 7.7 180 07:40 29.12.2020
4323 Clear -1 1005 74 10000 6.7 180 06:58 29.12.2020
4324 Clear -1 1005 74 10000 9.3 190 05:44 29.12.2020
4325 Clouds 0 1005 93 10000 14.9 190 01:58 29.12.2020
4326 Clear 0 1005 93 10000 16.5 180 00:26 29.12.2020
4327 Clear 0 1005 93 10000 16.5 180 23:38 28.12.2020
4328 Clear 0 1004 93 10000 16.5 190 22:48 28.12.2020
4329 Clear 0 1004 93 10000 15.9 190 21:57 28.12.2020
4330 Clear 0 1004 93 10000 15.9 180 21:39 28.12.2020
4331 Clear 0 1004 94 10000 16.5 180 21:19 28.12.2020
4332 Clear 0 1004 94 10000 14.9 180 20:40 28.12.2020
4333 Clear 0 1004 94 10000 16.5 180 20:20 28.12.2020
4334 Clear 0 1004 94 10000 18 180 19:41 28.12.2020
4335 Clear 0 1004 94 10000 18 180 19:22 28.12.2020
4336 Clear -1 1003 74 10000 20.6 180 18:49 28.12.2020
4337 Clear -1 1003 74 10000 20.6 180 18:27 28.12.2020
4338 Clear -1 1003 74 10000 17 180 17:41 28.12.2020
4339 Clear -1 1004 74 10000 15.4 180 17:18 28.12.2020
4340 Clear -1 1004 68 10000 15.9 180 16:33 28.12.2020
4341 Clear -1 1003 68 10000 17 170 15:59 28.12.2020
4342 Clear -1 1003 68 10000 17 170 15:41 28.12.2020
4343 Clouds -2 1003 74 10000 17 170 14:54 28.12.2020
4344 Clouds -2 1005 68 10000 14.9 160 13:54 28.12.2020
4345 Clouds -3 1005 73 10000 16.5 160 13:25 28.12.2020
4346 Clouds -2 1005 68 10000 13.9 160 12:40 28.12.2020
4347 Clouds -3 1005 73 10000 11.8 160 12:20 28.12.2020
4348 Clouds -3 1005 73 10000 17 180 11:45 28.12.2020
4349 Clouds -3 1005 73 10000 17 180 11:23 28.12.2020
4350 Clouds -3 1004 68 10000 12.3 170 10:44 28.12.2020
4351 Clouds -3 1004 68 10000 12.3 170 10:26 28.12.2020
4352 Clear -4 1003 73 10000 15.4 170 09:46 28.12.2020
4353 Clouds -4 1003 73 10000 13.9 170 09:19 28.12.2020
4354 Clouds -4 1003 68 10000 12.3 150 07:35 28.12.2020
4355 Clouds -5 1003 67 10000 11.3 140 06:50 28.12.2020
4356 Clouds -8 1004 72 10000 21.6 140 04:31 28.12.2020
4357 Snow -8 1005 78 2200 28.3 140 02:22 28.12.2020
4358 Snow -7 1006 73 6000 26.2 140 00:53 28.12.2020
4359 Snow -8 1006 67 4600 26.2 140 23:46 27.12.2020
4360 Snow -8 1006 48 10000 27.3 140 23:19 27.12.2020
4361 Snow -8 1006 52 10000 25.2 130 21:57 27.12.2020
4362 Snow -8 1006 52 10000 25.2 130 21:57 27.12.2020
4363 Snow -8 1005 52 10000 20.1 130 21:26 27.12.2020
4364 Rain -9 1006 52 10000 24.2 140 20:47 27.12.2020
4365 Clear -10 1008 51 10000 18.5 140 19:46 27.12.2020
4366 Clear -10 1008 51 10000 18.5 140 19:21 27.12.2020
4367 Clouds -11 1008 56 10000 18 140 18:41 27.12.2020
4368 Clouds -11 1008 61 10000 18 140 18:19 27.12.2020
4369 Clouds -11 1009 66 10000 18 140 17:46 27.12.2020
4370 Snow -11 1009 66 10000 18 140 17:27 27.12.2020
4371 Snow -11 1009 61 10000 17.5 140 16:37 27.12.2020
4372 Snow -12 1009 72 10000 19 140 15:59 27.12.2020
4373 Clear -12 1010 72 10000 19 130 15:19 27.12.2020
4374 Clear -12 1010 66 10000 18 140 14:41 27.12.2020
4375 Clear -12 1010 66 10000 17.5 140 14:22 27.12.2020
4376 Clear -13 1011 71 10000 17 130 13:23 27.12.2020
4377 Clear -13 1011 71 10000 17 130 12:49 27.12.2020
4378 Clear -13 1011 65 10000 19 130 12:22 27.12.2020
4379 Clear -12 1011 60 10000 18 130 11:39 27.12.2020
4380 Clear -12 1011 60 10000 19.5 130 10:52 27.12.2020
4381 Clear -12 1011 55 10000 18 130 10:26 27.12.2020
4382 Clouds -13 1011 60 10000 19 130 09:58 27.12.2020
4383 Clouds -13 1011 55 10000 21.1 130 08:50 27.12.2020
4384 Clouds -12 1010 51 10000 20.6 140 08:26 27.12.2020
4385 Clear -12 1010 46 10000 19.5 130 07:28 27.12.2020
4386 Clear -14 1010 46 10000 22.6 130 05:46 27.12.2020
4387 Clear -14 1010 46 10000 22.1 130 04:58 27.12.2020
4388 Clear -14 1011 50 10000 19.5 130 03:22 27.12.2020
4389 Clear -14 1011 46 10000 17.5 140 01:35 27.12.2020
4390 Clear -14 1011 46 10000 14.9 150 00:25 27.12.2020
4391 Clear -14 1012 42 10000 15.4 140 23:41 26.12.2020
4392 Clear -14 1012 42 10000 12.9 140 23:21 26.12.2020
4393 Clear -14 1012 50 10000 10.8 150 22:38 26.12.2020
4394 Clear -14 1012 50 10000 14.4 150 22:18 26.12.2020
4395 Clear -14 1012 50 10000 14.4 150 22:18 26.12.2020
4396 Clear -14 1012 50 10000 14.4 150 21:52 26.12.2020
4397 Clear -14 1012 50 10000 15.9 140 21:24 26.12.2020
4398 Clear -15 1012 54 10000 8.7 170 20:43 26.12.2020
4399 Clear -15 1012 60 10000 13.4 160 20:20 26.12.2020
4400 Clear -14 1012 55 10000 12.3 170 19:30 26.12.2020
4401 Clear -15 1012 60 10000 9.8 160 18:54 26.12.2020
4402 Clear -14 1012 55 10000 10.8 160 18:32 26.12.2020
4403 Clear -15 1013 54 10000 10.3 160 17:46 26.12.2020
4404 Clear -15 1013 54 10000 10.3 160 17:27 26.12.2020
4405 Clear -15 1013 50 10000 13.9 160 16:38 26.12.2020
4406 Clear -15 1013 54 10000 15.4 150 15:57 26.12.2020
4407 Clear -14 1013 46 10000 13.4 150 15:20 26.12.2020
4408 Clear -13 1013 42 10000 13.4 150 14:30 26.12.2020
4409 Clear -14 1013 55 10000 13.4 150 13:57 26.12.2020
4410 Clear -14 1013 55 10000 12.3 150 13:36 26.12.2020
4411 Clear -13 1013 42 10000 12.3 140 12:53 26.12.2020
4412 Clear -14 1013 46 10000 13.4 140 12:35 26.12.2020
4413 Clear -14 1013 46 10000 9.3 150 11:59 26.12.2020
4414 Clear -14 1013 50 10000 10.3 150 11:41 26.12.2020
4415 Clear -13 1013 42 10000 17 150 11:20 26.12.2020
4416 Clear -13 1013 46 10000 15.9 150 10:45 26.12.2020
4417 Clear -13 1013 46 10000 15.9 150 10:24 26.12.2020
4418 Clear -12 1013 39 10000 20.1 160 09:47 26.12.2020
4419 Clear -12 1013 43 10000 22.1 150 08:55 26.12.2020
4420 Clear -12 1013 43 10000 21.1 160 08:19 26.12.2020
4421 Clouds -12 1013 51 10000 14.9 160 07:21 26.12.2020
4422 Clouds -11 1013 66 10000 11.8 170 05:37 26.12.2020
4423 Clouds -9 1014 66 10000 16.5 180 02:47 26.12.2020
4424 Clouds -9 1015 72 10000 15.4 180 00:39 26.12.2020
4425 Clouds -9 1016 66 10000 16.5 180 23:50 25.12.2020
4426 Clouds -9 1016 66 10000 16.5 180 23:29 25.12.2020
4427 Clouds -9 1016 66 10000 15.9 180 22:58 25.12.2020
4428 Clouds -8 1016 61 10000 15.9 180 22:26 25.12.2020
4429 Clouds -8 1016 72 10000 12.9 170 21:44 25.12.2020
4430 Clouds -7 1017 67 10000 16.5 180 21:25 25.12.2020
4431 Clouds -7 1016 67 10000 12.3 170 20:45 25.12.2020
4432 Clouds -7 1016 67 10000 12.3 170 20:27 25.12.2020
4433 Clouds -6 1017 62 10000 15.4 180 19:43 25.12.2020
4434 Clouds -6 1017 62 10000 15.4 180 18:55 25.12.2020
4435 Clouds -5 1017 62 10000 10.8 180 18:35 25.12.2020
4436 Clouds -5 1017 67 10000 11.3 180 17:35 25.12.2020
4437 Clouds -5 1017 67 10000 7.2 100 16:56 25.12.2020
4438 Clouds -5 1018 67 10000 8.7 150 16:25 25.12.2020
4439 Clouds -5 1018 67 10000 8.7 150 15:55 25.12.2020
4440 Clouds -5 1018 73 10000 7.7 150 15:34 25.12.2020
4441 Clouds -4 1018 68 10000 7.2 160 14:44 25.12.2020
4442 Clouds -4 1018 68 10000 6.7 170 14:21 25.12.2020
4443 Clouds -4 1018 68 10000 9.3 190 13:43 25.12.2020
4444 Clouds -4 1018 68 10000 9.3 190 13:25 25.12.2020
4445 Clouds -4 1018 68 10000 5.7 160 12:29 25.12.2020
4446 Clouds -4 1018 68 10000 8.2 170 11:50 25.12.2020
4447 Clouds -4 1018 68 10000 7.7 170 11:25 25.12.2020
4448 Clouds -3 1018 68 10000 7.2 180 10:49 25.12.2020
4449 Clouds -3 1018 73 10000 8.7 190 10:23 25.12.2020
4450 Clouds -3 1018 68 10000 4.6 160 09:27 25.12.2020
4451 Clouds -2 1018 68 10000 6.7 180 08:47 25.12.2020
4452 Clouds -3 1018 73 10000 6.2 160 07:57 25.12.2020
4453 Clouds -3 1018 73 10000 8.2 190 06:44 25.12.2020
4454 Clouds -2 1017 74 10000 8.7 180 02:50 25.12.2020
4455 Clouds -1 1016 68 10000 4.6 170 01:18 25.12.2020
4456 Clouds -1 1016 74 10000 5.1 170 00:18 25.12.2020
4457 Clouds -1 1016 74 10000 8.2 150 23:23 24.12.2020
4458 Clouds -1 1016 74 10000 7.7 130 22:40 24.12.2020
4459 Clouds -1 1015 74 10000 8.7 140 22:19 24.12.2020
4460 Clouds -1 1015 74 10000 8.7 150 21:32 24.12.2020
4461 Clouds -1 1015 80 10000 8.2 150 20:36 24.12.2020
4462 Clouds -1 1014 80 10000 7.7 150 18:40 24.12.2020
4463 Clouds -1 1014 80 10000 3.6 120 18:18 24.12.2020
4464 Clouds -1 1013 80 10000 8.7 150 17:37 24.12.2020
4465 Clouds -1 1012 80 10000 8.2 150 16:45 24.12.2020
4466 Clouds -1 1012 80 10000 6.2 150 16:20 24.12.2020
4467 Clouds 0 1012 94 10000 10.3 150 15:42 24.12.2020
4468 Clouds 0 1012 94 10000 10.3 150 15:19 24.12.2020
4469 Clouds 0 1012 94 10000 9.8 150 14:42 24.12.2020
4470 Clouds 0 1012 94 10000 9.8 150 14:24 24.12.2020
4471 Clouds 0 1011 94 10000 7.7 150 13:42 24.12.2020
4472 Clouds 1 1011 74 10000 8.2 150 13:22 24.12.2020
4473 Clouds 1 1011 74 10000 10.8 140 12:43 24.12.2020
4474 Clouds 0 1011 94 10000 11.8 140 12:21 24.12.2020
4475 Clouds 0 1010 94 10000 13.4 140 11:41 24.12.2020
4476 Clouds 0 1010 94 10000 12.3 140 11:20 24.12.2020
4477 Clouds 0 1010 94 10000 12.3 140 10:52 24.12.2020
4478 Clouds 0 1010 94 10000 11.3 140 10:34 24.12.2020
4479 Clouds 0 1009 94 10000 11.8 140 09:52 24.12.2020
4480 Clouds 0 1009 94 10000 10.3 140 09:24 24.12.2020
4481 Clouds 1 1008 80 10000 12.9 140 08:25 24.12.2020
4482 Clear 1 1008 80 10000 11.8 150 07:41 24.12.2020
4483 Clear 1 1008 80 10000 10.8 150 07:18 24.12.2020
4484 Clear 1 1007 80 10000 9.3 160 05:36 24.12.2020
4485 Clear 1 1005 80 10000 12.3 160 01:57 24.12.2020
4486 Clear 1 1005 80 10000 12.3 160 01:37 24.12.2020
4487 Clouds 1 1005 80 10000 9.8 160 01:18 24.12.2020
4488 Clear 1 1005 80 10000 8.2 160 00:21 24.12.2020
4489 Clear 1 1005 80 10000 7.2 170 23:49 23.12.2020
4490 Clear 1 1005 80 10000 7.2 170 23:30 23.12.2020
4491 Clear 1 1005 80 10000 8.2 170 22:57 23.12.2020
4492 Clear 1 1005 80 10000 8.2 170 22:31 23.12.2020
4493 Clouds 1 1004 80 10000 9.3 170 21:56 23.12.2020
4494 Clouds 2 1004 74 10000 7.2 170 21:28 23.12.2020
4495 Clear 2 1004 80 10000 7.2 170 20:54 23.12.2020
4496 Clear 2 1004 74 10000 8.2 170 20:36 23.12.2020
4497 Clear 2 1004 74 10000 9.8 160 20:18 23.12.2020
4498 Clouds 2 1004 74 10000 10.3 170 19:39 23.12.2020
4499 Clouds 2 1003 74 10000 9.8 180 19:20 23.12.2020
4500 Clouds 2 1003 74 10000 4.6 190 18:48 23.12.2020
4501 Clouds 2 1003 74 10000 4.6 190 18:29 23.12.2020
4502 Clouds 2 1003 80 10000 9.8 180 17:41 23.12.2020
4503 Clouds 2 1003 74 10000 11.3 190 17:22 23.12.2020
4504 Clouds 3 1002 69 10000 12.3 190 16:49 23.12.2020
4505 Clouds 3 1002 69 10000 12.3 190 16:29 23.12.2020
4506 Clouds 2 1002 74 10000 11.3 190 15:58 23.12.2020
4507 Clouds 2 1002 74 10000 11.3 190 15:38 23.12.2020
4508 Clouds 2 1002 74 10000 13.4 190 15:20 23.12.2020
4509 Clouds 2 1002 69 10000 13.4 190 14:41 23.12.2020
4510 Clouds 2 1001 69 10000 9.8 190 14:21 23.12.2020
4511 Clear 2 1001 69 10000 11.3 180 13:44 23.12.2020
4512 Clear 2 1001 64 10000 10.8 180 13:20 23.12.2020
4513 Clear 2 1001 64 10000 10.8 180 12:54 23.12.2020
4514 Clear 2 1001 64 10000 10.3 190 12:30 23.12.2020
4515 Clear 1 1000 69 10000 8.7 180 11:56 23.12.2020
4516 Clear 1 1001 69 10000 9.8 190 11:31 23.12.2020
4517 Clear 1 1001 69 10000 14.4 190 10:56 23.12.2020
4518 Clear 1 1000 69 10000 13.4 190 10:37 23.12.2020
4519 Clear 1 1000 69 10000 10.8 180 09:38 23.12.2020
4520 Clear 0 1000 94 10000 9.3 170 08:57 23.12.2020
4521 Clear 0 999 94 10000 7.7 160 08:31 23.12.2020
4522 Clear 0 1000 94 10000 10.3 180 07:49 23.12.2020
4523 Clear 0 999 94 10000 7.7 180 06:42 23.12.2020
4524 Clear 0 1000 94 10000 16.5 200 05:58 23.12.2020
4525 Clear -1 1000 68 10000 9.3 190 05:23 23.12.2020
4526 Clouds 0 1000 95 10000 10.3 190 01:59 23.12.2020
4527 Clear 1 1000 69 10000 11.8 200 00:33 23.12.2020
4528 Clear 3 1000 59 10000 10.8 190 23:45 22.12.2020
4529 Clear 2 1000 59 10000 10.8 180 23:23 22.12.2020
4530 Clear 3 999 55 10000 9.8 190 22:43 22.12.2020
4531 Clear 3 999 55 10000 9.8 190 22:24 22.12.2020
4532 Clear 3 999 55 10000 9.8 180 21:52 22.12.2020
4533 Clear 3 999 55 10000 7.2 180 21:21 22.12.2020
4534 Clear 3 999 55 10000 7.2 180 20:54 22.12.2020
4535 Clear 4 999 55 10000 9.8 190 20:35 22.12.2020
4536 Clear 4 999 55 10000 9.3 180 19:59 22.12.2020
4537 Clear 3 999 64 10000 9.8 190 19:41 22.12.2020
4538 Clear 4 999 60 10000 9.3 180 19:20 22.12.2020
4539 Clear 4 999 60 10000 9.3 190 18:47 22.12.2020
4540 Clear 4 999 60 10000 9.3 190 18:27 22.12.2020
4541 Clear 4 999 60 10000 8.7 180 17:41 22.12.2020
4542 Clear 4 999 60 10000 8.7 180 17:18 22.12.2020
4543 Clear 2 999 74 10000 8.2 180 16:48 22.12.2020
4544 Clear 3 999 64 10000 7.2 160 16:22 22.12.2020
4545 Clear 3 1000 64 10000 7.2 160 15:51 22.12.2020
4546 Clear 3 1000 64 10000 7.2 160 15:33 22.12.2020
4547 Clear 3 1000 69 10000 7.2 160 14:59 22.12.2020
4548 Clear 3 1000 69 10000 7.2 160 14:41 22.12.2020
4549 Clear 4 1000 64 10000 7.7 180 14:22 22.12.2020
4550 Clear 4 1000 64 10000 7.7 180 13:47 22.12.2020
4551 Clear 3 1000 69 10000 7.2 160 13:19 22.12.2020
4552 Clear 3 1000 69 10000 7.2 160 12:55 22.12.2020
4553 Clear 3 1000 69 10000 6.7 150 12:36 22.12.2020
4554 Clear 2 1000 74 10000 5.7 150 12:18 22.12.2020
4555 Clear 3 1000 74 10000 4.6 160 11:40 22.12.2020
4556 Clear 3 1000 74 10000 5.1 150 11:21 22.12.2020
4557 Clear 3 1000 74 10000 5.1 150 10:53 22.12.2020
4558 Clear 1 1000 86 10000 4.1 140 10:25 22.12.2020
4559 Clear 3 1000 74 10000 4.1 160 09:57 22.12.2020
4560 Clear 2 1000 80 10000 3.1 140 09:27 22.12.2020
4561 Clear 0 999 85 10000 2.6 160 08:53 22.12.2020
4562 Clouds 1 999 86 10000 2.1 190 08:34 22.12.2020
4563 Clouds 2 999 83 10000 2.6 190 07:57 22.12.2020
4564 Clouds 1 999 86 10000 2.6 220 07:23 22.12.2020
4565 Clouds 3 999 78 10000 3.6 230 05:51 22.12.2020
4566 Clouds 4 999 78 10000 4.1 210 03:46 22.12.2020
4567 Clouds 4 998 81 10000 5.1 210 01:44 22.12.2020
4568 Clouds 4 998 84 10000 5.1 210 00:21 22.12.2020
4569 Clouds 4 998 69 10000 3.6 190 23:41 21.12.2020
4570 Clouds 4 998 69 10000 5.1 210 23:18 21.12.2020
4571 Clouds 3 997 74 10000 4.1 200 22:36 21.12.2020
4572 Clouds 3 997 74 10000 5.1 200 22:18 21.12.2020
4573 Clouds 4 997 78 10000 6.2 210 21:44 21.12.2020
4574 Clouds 4 997 79 10000 6.2 210 21:26 21.12.2020
4575 Clouds 2 997 79 10000 5.7 190 20:43 21.12.2020
4576 Rain 3 997 78 10000 5.1 190 20:20 21.12.2020
4577 Clouds 3 997 78 10000 5.1 200 19:46 21.12.2020
4578 Clouds 3 996 80 10000 4.1 200 19:20 21.12.2020
4579 Clouds 3 996 77 10000 4.1 200 18:55 21.12.2020
4580 Clouds 3 996 77 10000 4.6 210 18:37 21.12.2020
4581 Clouds 4 996 69 10000 3.6 210 18:18 21.12.2020
4582 Rain 4 996 64 10000 4.1 200 17:42 21.12.2020
4583 Clouds 4 996 64 10000 4.1 200 17:22 21.12.2020
4584 Rain 4 996 64 10000 6.7 210 16:39 21.12.2020
4585 Clear 4 996 69 10000 6.2 230 16:19 21.12.2020
4586 Rain 4 995 69 10000 3.6 200 15:41 21.12.2020
4587 Rain 4 995 69 10000 3.6 200 14:58 21.12.2020
4588 Rain 4 995 69 10000 5.1 190 14:23 21.12.2020
4589 Rain 4 995 69 10000 5.1 190 13:54 21.12.2020
4590 Rain 5 995 65 10000 6.2 200 13:35 21.12.2020
4591 Clouds 6 995 60 10000 6.2 200 12:59 21.12.2020
4592 Clouds 4 995 69 10000 5.7 190 12:39 21.12.2020
4593 Clouds 5 995 65 10000 3.1 170 12:19 21.12.2020
4594 Clouds 5 995 83 10000 4.1 180 11:43 21.12.2020
4595 Clouds 5 995 79 10000 5.7 220 11:22 21.12.2020
4596 Clouds 5 995 79 10000 5.7 220 10:57 21.12.2020
4597 Clouds 5 995 79 10000 5.1 210 10:38 21.12.2020
4598 Clouds 6 995 79 10000 7.7 200 09:55 21.12.2020
4599 Clouds 5 995 79 10000 5.7 190 09:37 21.12.2020
4600 Clouds 6 995 79 10000 4.6 190 09:18 21.12.2020
4601 Rain 5 995 79 10000 6.2 200 08:21 21.12.2020
4602 Clouds 5 995 75 10000 6.7 210 06:48 21.12.2020
4603 Clouds 5 995 75 10000 9.3 250 04:59 21.12.2020
4604 Clouds 5 995 80 10000 9.3 250 04:30 21.12.2020
4605 Rain 3 995 100 10000 10.3 240 00:36 21.12.2020
4606 Rain 2 995 93 10000 9.8 230 23:47 20.12.2020
4607 Rain 1 995 100 10000 7.7 220 23:20 20.12.2020
4608 Rain 1 995 100 10000 7.7 220 22:44 20.12.2020
4609 Rain 1 995 100 10000 7.7 220 22:23 20.12.2020
4610 Snow 1 995 100 10000 6.7 220 21:55 20.12.2020
4611 Snow 0 995 95 7000 6.7 220 21:37 20.12.2020
4612 Snow 0 995 94 2000 7.7 210 21:18 20.12.2020
4613 Snow 0 995 94 4500 5.7 210 20:42 20.12.2020
4614 Snow 0 995 94 4500 5.7 210 20:21 20.12.2020
4615 Snow 0 995 94 10000 8.2 210 19:42 20.12.2020
4616 Snow 0 995 98 10000 8.2 210 19:22 20.12.2020
4617 Snow 0 995 95 10000 8.7 200 18:54 20.12.2020
4618 Snow 0 995 95 10000 10.3 200 18:36 20.12.2020
4619 Snow -1 995 80 5000 12.3 190 17:47 20.12.2020
4620 Rain -1 995 80 5000 12.3 190 17:28 20.12.2020
4621 Rain -1 995 80 7000 13.9 190 16:57 20.12.2020
4622 Snow -1 995 80 7000 13.9 190 16:38 20.12.2020
4623 Rain 0 996 92 10000 11.8 180 16:19 20.12.2020
4624 Rain -1 996 80 10000 9.8 170 15:37 20.12.2020
4625 Snow -1 996 86 10000 11.8 170 15:18 20.12.2020
4626 Snow -1 997 80 10000 11.8 160 14:38 20.12.2020
4627 Snow -1 998 80 10000 11.8 170 14:19 20.12.2020
4628 Snow -1 998 74 10000 12.3 170 13:41 20.12.2020
4629 Snow -1 998 74 10000 12.3 170 13:21 20.12.2020
4630 Snow -1 998 80 10000 13.4 170 12:49 20.12.2020
4631 Snow -1 999 80 10000 12.3 170 12:22 20.12.2020
4632 Clouds -1 1000 80 7000 13.9 170 11:49 20.12.2020
4633 Clouds -1 1000 80 7000 13.9 170 11:26 20.12.2020
4634 Snow -1 1000 74 9000 15.4 170 10:49 20.12.2020
4635 Snow -1 1000 74 9000 15.4 170 10:21 20.12.2020
4636 Snow -1 1000 74 10000 15.9 160 09:55 20.12.2020
4637 Snow -1 1001 74 10000 15.4 170 09:36 20.12.2020
4638 Clouds -1 1000 74 10000 15.4 170 09:18 20.12.2020
4639 Clouds 0 1000 95 10000 17 170 08:44 20.12.2020
4640 Clouds 0 1000 95 10000 17 170 08:25 20.12.2020
4641 Clouds 0 1000 95 10000 15.4 160 07:21 20.12.2020
4642 Clear -1 1003 74 10000 11.3 170 02:47 20.12.2020
4643 Clouds -2 1003 74 10000 10.8 160 00:59 20.12.2020
4644 Clear -4 1004 79 10000 10.8 160 23:41 19.12.2020
4645 Clear -4 1004 73 10000 8.7 160 23:18 19.12.2020
4646 Clouds -4 1005 73 10000 9.3 160 22:44 19.12.2020
4647 Clouds -4 1005 73 10000 10.8 160 22:24 19.12.2020
4648 Clouds -5 1005 73 10000 8.7 160 21:45 19.12.2020
4649 Clouds -5 1005 73 10000 6.2 180 21:26 19.12.2020
4650 Clouds -5 1005 73 10000 6.2 180 20:59 19.12.2020
4651 Clouds -5 1005 73 10000 8.2 170 20:36 19.12.2020
4652 Clear -5 1006 67 10000 6.7 170 20:18 19.12.2020
4653 Clear -5 1006 73 10000 8.7 180 19:41 19.12.2020
4654 Clear -5 1006 73 10000 8.7 180 19:23 19.12.2020
4655 Clear -4 1006 68 10000 8.7 150 18:34 19.12.2020
4656 Clear -4 1006 68 10000 7.7 170 17:57 19.12.2020
4657 Clear -4 1006 68 10000 6.7 160 17:36 19.12.2020
4658 Clear -4 1006 68 10000 7.7 170 17:18 19.12.2020
4659 Clear -4 1007 68 10000 7.2 170 16:40 19.12.2020
4660 Clear -4 1007 68 10000 7.2 170 16:22 19.12.2020
4661 Clouds -4 1007 68 10000 6.7 170 15:54 19.12.2020
4662 Clear -4 1007 68 10000 8.2 160 15:21 19.12.2020
4663 Clear -4 1008 68 10000 9.8 160 14:38 19.12.2020
4664 Clear -4 1008 68 10000 11.8 150 13:58 19.12.2020
4665 Clear -4 1008 68 10000 9.3 160 13:37 19.12.2020
4666 Clear -4 1008 68 10000 9.3 150 13:18 19.12.2020
4667 Clear -4 1009 68 10000 6.7 150 12:42 19.12.2020
4668 Clear -4 1009 68 10000 7.2 150 12:24 19.12.2020
4669 Clear -4 1009 68 10000 7.2 150 11:53 19.12.2020
4670 Clear -4 1009 68 10000 6.2 130 11:33 19.12.2020
4671 Clear -3 1009 68 10000 8.7 110 10:42 19.12.2020
4672 Clear -3 1009 68 10000 8.7 110 10:20 19.12.2020
4673 Clouds -4 1009 73 10000 8.2 120 09:42 19.12.2020
4674 Clear -5 1009 73 10000 6.2 110 08:59 19.12.2020
4675 Clear -6 1009 79 10000 6.2 110 08:24 19.12.2020
4676 Clear -7 1009 73 10000 7.7 110 07:23 19.12.2020
4677 Clouds -6 1009 79 10000 7.2 110 06:51 19.12.2020
4678 Clouds -6 1009 79 10000 8.2 130 06:18 19.12.2020
4679 Clouds -8 1009 78 10000 6.2 120 05:18 19.12.2020
4680 Clouds -7 1010 79 10000 5.1 100 01:36 19.12.2020
4681 Clouds -7 1009 79 10000 5.7 100 00:36 19.12.2020
4682 Clear -7 1009 73 10000 5.1 110 00:18 19.12.2020
4683 Clear -7 1009 79 10000 4.6 100 23:44 18.12.2020
4684 Clear -7 1009 79 10000 4.6 100 23:22 18.12.2020
4685 Clear -9 1009 78 10000 4.6 80 22:45 18.12.2020
4686 Clear -9 1009 72 10000 4.6 90 22:21 18.12.2020
4687 Clear -9 1009 72 10000 4.6 90 21:47 18.12.2020
4688 Clear -9 1009 72 10000 4.6 90 21:28 18.12.2020
4689 Clear -9 1009 72 10000 4.1 110 20:40 18.12.2020
4690 Clear -8 1009 72 10000 3.6 110 20:19 18.12.2020
4691 Clear -9 1010 72 10000 3.1 130 19:41 18.12.2020
4692 Clear -9 1010 72 10000 3.1 130 19:20 18.12.2020
4693 Clear -8 1010 72 10000 4.1 110 18:41 18.12.2020
4694 Clear -9 1010 72 10000 3.1 100 18:23 18.12.2020
4695 Clear -8 1010 72 10000 4.1 100 17:24 18.12.2020
4696 Clear -8 1010 72 10000 4.1 100 16:53 18.12.2020
4697 Clear -9 1010 72 10000 4.1 90 16:28 18.12.2020
4698 Clear -9 1010 72 10000 4.1 100 16:00 18.12.2020
4699 Clear -9 1011 72 10000 3.6 90 15:41 18.12.2020
4700 Clear -9 1011 72 10000 1 160 15:22 18.12.2020
4701 Clear -10 1011 78 10000 1.5 150 14:55 18.12.2020
4702 Clear -9 1011 66 10000 0.5 0 14:22 18.12.2020
4703 Clear -9 1011 66 10000 0.5 0 13:50 18.12.2020
4704 Clear -9 1011 72 10000 0.5 0 13:30 18.12.2020
4705 Clear -8 1011 72 10000 2.6 210 12:50 18.12.2020
4706 Clear -9 1011 72 10000 1 0 12:22 18.12.2020
4707 Clear -9 1012 72 10000 3.6 200 11:23 18.12.2020
4708 Clear -7 1012 67 10000 4.1 200 10:40 18.12.2020
4709 Clear -6 1012 67 10000 7.2 200 10:20 18.12.2020
4710 Clear -5 1012 67 10000 7.7 190 09:39 18.12.2020
4711 Clear -5 1012 67 10000 7.7 190 09:21 18.12.2020
4712 Clear -6 1012 73 10000 7.7 190 08:55 18.12.2020
4713 Clear -5 1012 67 10000 9.3 190 08:30 18.12.2020
4714 Clear -5 1012 67 10000 8.2 190 07:46 18.12.2020
4715 Clear -5 1012 67 10000 9.3 190 07:18 18.12.2020
4716 Clear -5 1012 67 10000 9.8 190 06:51 18.12.2020
4717 Clear -5 1013 67 10000 10.8 190 05:42 18.12.2020
4718 Clear -5 1013 67 10000 11.3 190 04:51 18.12.2020
4719 Clear -5 1014 67 10000 12.9 190 02:24 18.12.2020
4720 Clear -5 1015 62 10000 16.5 190 01:40 18.12.2020
4721 Clear -5 1016 62 10000 15.9 190 00:27 18.12.2020
4722 Clear -6 1016 67 10000 16.5 190 23:50 17.12.2020
4723 Clear -6 1017 67 10000 18 190 23:19 17.12.2020
4724 Clear -6 1017 67 10000 17.5 190 22:47 17.12.2020
4725 Clear -6 1017 67 10000 17.5 190 22:26 17.12.2020
4726 Clear -6 1017 67 10000 18.5 190 21:43 17.12.2020
4727 Clear -6 1018 62 10000 15.9 180 21:20 17.12.2020
4728 Clear -6 1018 62 10000 15.9 180 20:45 17.12.2020
4729 Clear -6 1019 62 10000 14.9 180 20:19 17.12.2020
4730 Clear -6 1019 62 10000 11.8 180 19:49 17.12.2020
4731 Clear -6 1019 62 10000 11.8 180 19:25 17.12.2020
4732 Clear -6 1020 57 10000 11.8 180 18:47 17.12.2020
4733 Clear -6 1020 57 10000 11.8 180 18:27 17.12.2020
4734 Clear -7 1020 62 10000 11.3 180 17:58 17.12.2020
4735 Clear -7 1021 62 10000 10.3 170 17:38 17.12.2020
4736 Clear -6 1021 57 10000 10.3 180 17:20 17.12.2020
4737 Clear -7 1021 57 10000 9.3 170 16:37 17.12.2020
4738 Clear -7 1022 62 10000 7.7 170 16:19 17.12.2020
4739 Clear -7 1022 57 10000 6.7 170 15:42 17.12.2020
4740 Clear -7 1022 57 10000 5.7 170 15:23 17.12.2020
4741 Clear -7 1022 57 10000 5.7 170 14:47 17.12.2020
4742 Clear -8 1022 57 10000 7.2 180 14:20 17.12.2020
4743 Clear -7 1022 57 10000 6.7 180 13:48 17.12.2020
4744 Clear -7 1023 57 10000 6.7 180 13:20 17.12.2020
4745 Clear -7 1023 57 10000 3.6 170 12:40 17.12.2020
4746 Clear -7 1023 57 10000 4.1 160 12:21 17.12.2020
4747 Clear -7 1023 57 10000 4.6 180 11:42 17.12.2020
4748 Clear -6 1023 53 10000 3.6 170 11:21 17.12.2020
4749 Clear -7 1023 62 10000 3.6 170 10:44 17.12.2020
4750 Clear -9 1022 66 10000 4.1 190 09:37 17.12.2020
4751 Clear -9 1022 61 10000 3.1 180 08:52 17.12.2020
4752 Clear -9 1022 72 10000 3.1 190 07:44 17.12.2020
4753 Clear -9 1022 72 10000 3.1 190 07:25 17.12.2020
4754 Clear -8 1022 72 10000 2.6 190 06:49 17.12.2020
4755 Clear -8 1022 72 10000 2.6 190 06:30 17.12.2020
4756 Clear -8 1022 72 10000 3.6 110 03:31 17.12.2020
4757 Clouds -6 1021 73 10000 5.1 130 00:28 17.12.2020
4758 Clouds -5 1020 67 10000 4.1 130 23:42 16.12.2020
4759 Clouds -5 1020 67 10000 4.6 120 23:19 16.12.2020
4760 Clouds -6 1020 67 10000 4.6 120 22:49 16.12.2020
4761 Clouds -6 1020 67 10000 4.6 120 22:31 16.12.2020
4762 Clouds -6 1019 79 10000 5.1 120 21:45 16.12.2020
4763 Clouds -6 1019 73 10000 9.3 100 21:25 16.12.2020
4764 Snow -6 1019 73 10000 9.3 100 20:52 16.12.2020
4765 Clouds -5 1018 62 10000 6.7 90 20:20 16.12.2020
4766 Clouds -5 1018 62 10000 6.7 90 19:43 16.12.2020
4767 Clouds -5 1018 62 10000 6.7 90 19:43 16.12.2020
4768 Clouds -5 1018 67 10000 8.2 90 19:18 16.12.2020
4769 Clouds -4 1018 68 10000 10.3 100 18:51 16.12.2020
4770 Clouds -4 1018 68 10000 10.3 100 18:26 16.12.2020
4771 Rain -4 1017 68 10000 7.7 80 17:38 16.12.2020
4772 Rain -4 1017 79 10000 11.3 70 16:56 16.12.2020
4773 Rain -4 1017 79 10000 11.3 70 16:37 16.12.2020
4774 Rain -4 1017 73 10000 10.3 70 16:19 16.12.2020
4775 Rain -4 1017 73 10000 10.3 70 15:46 16.12.2020
4776 Snow -3 1016 68 10000 9.3 80 15:19 16.12.2020
4777 Snow -3 1016 73 7000 11.3 50 14:45 16.12.2020
4778 Snow -3 1016 73 7000 11.3 50 14:27 16.12.2020
4779 Snow -3 1015 73 10000 9.8 70 13:42 16.12.2020
4780 Snow -3 1015 73 10000 9.8 70 13:21 16.12.2020
4781 Snow -3 1015 79 3500 10.3 70 12:44 16.12.2020
4782 Snow -3 1015 73 9000 10.3 60 11:55 16.12.2020
4783 Snow -3 1014 79 5000 10.8 70 11:36 16.12.2020
4784 Snow -3 1014 86 2500 9.3 80 10:58 16.12.2020
4785 Snow -2 1014 79 9000 9.8 60 10:38 16.12.2020
4786 Snow -2 1014 86 5000 10.8 60 09:56 16.12.2020
4787 Snow -2 1013 86 4500 10.8 70 09:34 16.12.2020
4788 Snow -2 1013 86 5000 10.8 80 08:23 16.12.2020
4789 Snow -1 1012 80 8000 13.4 70 07:47 16.12.2020
4790 Snow -1 1012 80 8000 13.4 70 07:29 16.12.2020
4791 Snow 0 1011 96 9000 14.9 70 05:42 16.12.2020
4792 Snow -1 1009 92 10000 4.1 90 02:22 16.12.2020
4793 Clouds -1 1009 92 10000 3.6 60 23:59 15.12.2020
4794 Clouds -2 1008 100 10000 3.1 50 23:40 15.12.2020
4795 Clouds -2 1008 100 10000 3.1 60 22:44 15.12.2020
4796 Clouds -2 1008 100 10000 3.1 60 22:23 15.12.2020
4797 Clouds -1 1008 86 10000 2.6 40 21:49 15.12.2020
4798 Clouds -1 1008 86 10000 2.6 40 21:24 15.12.2020
4799 Clouds -2 1008 86 10000 3.1 30 20:57 15.12.2020
4800 Clouds -2 1008 86 10000 3.1 30 20:37 15.12.2020
4801 Clouds -2 1008 86 10000 3.1 30 20:37 15.12.2020
4802 Clouds -1 1007 92 10000 2.1 80 20:18 15.12.2020
4803 Clouds 0 1007 95 10000 2.6 70 19:35 15.12.2020
4804 Clouds -1 1007 92 10000 2.6 60 18:59 15.12.2020
4805 Clouds 0 1007 96 10000 3.1 50 18:39 15.12.2020
4806 Clouds 0 1007 96 10000 2.1 30 18:20 15.12.2020
4807 Clouds 0 1007 96 10000 1 20 17:42 15.12.2020
4808 Clouds 0 1007 96 10000 1.5 80 17:22 15.12.2020
4809 Clouds 0 1007 96 10000 1 0 16:38 15.12.2020
4810 Clouds 0 1007 96 10000 1.5 240 16:19 15.12.2020
4811 Clouds 0 1007 96 10000 1.5 240 15:37 15.12.2020
4812 Clouds 0 1007 96 10000 1.5 230 14:59 15.12.2020
4813 Clouds 0 1007 96 10000 1.5 230 14:41 15.12.2020
4814 Clouds 0 1007 97 10000 1.5 240 14:19 15.12.2020
4815 Clouds 0 1006 97 10000 3.1 230 13:47 15.12.2020
4816 Clouds 0 1006 97 10000 3.1 230 13:22 15.12.2020
4817 Clouds 0 1006 97 10000 3.6 230 12:44 15.12.2020
4818 Clouds 0 1006 97 10000 3.1 230 12:19 15.12.2020
4819 Snow 0 1006 97 10000 3.1 240 11:50 15.12.2020
4820 Snow 0 1006 97 10000 3.6 220 11:21 15.12.2020
4821 Snow 0 1006 97 10000 2.1 230 10:47 15.12.2020
4822 Snow 0 1006 97 10000 2.6 220 10:20 15.12.2020
4823 Snow 0 1006 97 10000 4.1 220 09:42 15.12.2020
4824 Snow 0 1006 97 10000 4.1 220 09:23 15.12.2020
4825 Snow 0 1006 97 10000 4.1 210 08:40 15.12.2020
4826 Clouds 0 1005 97 10000 4.6 210 08:21 15.12.2020
4827 Clouds -1 1006 80 10000 5.7 210 07:43 15.12.2020
4828 Snow -1 1006 86 10000 5.1 210 06:53 15.12.2020
4829 Snow -1 1006 86 10000 5.1 210 05:34 15.12.2020
4830 Clouds -3 1007 86 10000 3.6 210 00:39 15.12.2020
4831 Clouds -2 1008 79 10000 3.6 210 23:51 14.12.2020
4832 Clear -3 1008 79 10000 3.6 210 23:19 14.12.2020
4833 Clear -3 1008 79 10000 3.6 210 22:44 14.12.2020
4834 Clear -2 1008 79 10000 4.6 220 22:19 14.12.2020
4835 Clear -2 1008 79 10000 4.6 210 21:40 14.12.2020
4836 Clear -2 1008 79 10000 5.1 200 21:18 14.12.2020
4837 Clear -1 1008 74 10000 4.6 200 20:48 14.12.2020
4838 Clear -1 1008 74 10000 4.6 200 20:27 14.12.2020
4839 Clear -1 1009 74 10000 6.7 190 19:44 14.12.2020
4840 Clear -1 1009 74 10000 6.7 190 19:25 14.12.2020
4841 Clear -1 1009 74 10000 7.2 200 18:44 14.12.2020
4842 Clear -1 1009 74 10000 7.2 200 18:24 14.12.2020
4843 Clear -2 1010 74 10000 8.7 190 17:45 14.12.2020
4844 Clear -2 1010 74 10000 8.7 190 17:21 14.12.2020
4845 Clear -2 1010 74 10000 9.3 200 16:49 14.12.2020
4846 Clear -2 1011 74 10000 10.8 190 16:27 14.12.2020
4847 Clear -1 1011 68 10000 11.8 190 15:33 14.12.2020
4848 Clear -1 1011 68 10000 10.8 190 14:52 14.12.2020
4849 Clear -1 1011 68 10000 12.3 190 14:34 14.12.2020
4850 Clear -1 1012 74 10000 12.3 190 13:58 14.12.2020
4851 Clear -1 1012 74 10000 12.3 190 13:37 14.12.2020
4852 Clear -1 1012 74 10000 10.8 180 12:58 14.12.2020
4853 Clear -1 1013 74 10000 12.9 190 12:40 14.12.2020
4854 Clear -1 1013 74 10000 12.3 180 12:20 14.12.2020
4855 Clear -1 1013 74 10000 12.3 180 11:30 14.12.2020
4856 Clear -1 1014 74 10000 11.3 180 10:29 14.12.2020
4857 Clear -1 1014 74 10000 14.4 180 09:58 14.12.2020
4858 Clear -1 1014 80 10000 15.4 180 09:25 14.12.2020
4859 Clear -1 1015 74 10000 13.9 180 08:45 14.12.2020
4860 Clear -1 1015 74 10000 13.9 180 08:26 14.12.2020
4861 Clear -1 1015 74 10000 10.8 170 07:26 14.12.2020
4862 Clouds -1 1016 74 10000 12.3 160 06:44 14.12.2020
4863 Clouds -1 1017 68 10000 13.9 150 04:27 14.12.2020
4864 Clear -2 1019 79 10000 10.8 140 02:26 14.12.2020
4865 Clouds -1 1019 68 10000 10.3 150 00:54 14.12.2020
4866 Clouds -1 1020 74 10000 9.8 140 00:30 14.12.2020
4867 Clouds -1 1020 80 10000 9.3 140 23:46 13.12.2020
4868 Clouds -1 1020 80 10000 9.3 140 23:24 13.12.2020
4869 Clouds -1 1020 80 10000 9.3 140 22:45 13.12.2020
4870 Clouds 0 1019 95 10000 9.3 140 22:18 13.12.2020
4871 Clouds 0 1020 95 10000 9.3 140 21:42 13.12.2020
4872 Clouds 0 1020 95 10000 9.3 140 21:22 13.12.2020
4873 Clouds -1 1020 80 10000 8.2 130 20:35 13.12.2020
4874 Clouds 0 1019 96 10000 8.7 140 19:51 13.12.2020
4875 Clouds 0 1019 96 10000 8.7 140 19:30 13.12.2020
4876 Clouds 0 1019 96 10000 5.1 130 18:58 13.12.2020
4877 Clouds -1 1020 92 10000 5.1 110 18:39 13.12.2020
4878 Clouds -1 1020 86 10000 6.7 100 18:19 13.12.2020
4879 Clouds 0 1019 95 10000 5.1 110 17:46 13.12.2020
4880 Clouds 0 1019 95 10000 4.6 100 17:18 13.12.2020
4881 Clouds 0 1019 95 10000 4.6 100 16:54 13.12.2020
4882 Clouds 0 1019 95 10000 4.1 110 16:36 13.12.2020
4883 Clouds 0 1019 96 10000 4.1 120 15:56 13.12.2020
4884 Clouds 0 1019 96 10000 5.1 110 15:38 13.12.2020
4885 Clouds 0 1019 96 10000 5.7 110 15:18 13.12.2020
4886 Clouds 0 1019 96 10000 5.1 100 14:42 13.12.2020
4887 Clouds 0 1019 95 10000 6.7 90 14:18 13.12.2020
4888 Rain 1 1019 86 10000 7.2 90 13:36 13.12.2020
4889 Rain 0 1019 95 10000 7.7 90 13:18 13.12.2020
4890 Rain 0 1019 95 10000 7.7 90 13:18 13.12.2020
4891 Rain 0 1018 96 10000 8.2 100 12:37 13.12.2020
4892 Clouds 1 1018 86 10000 8.7 90 12:18 13.12.2020
4893 Clouds 1 1018 86 10000 9.3 90 11:35 13.12.2020
4894 Clouds 1 1017 86 10000 7.2 90 10:47 13.12.2020
4895 Clouds 1 1017 86 10000 7.2 90 10:29 13.12.2020
4896 Mist 1 1017 93 10000 7.2 90 09:52 13.12.2020
4897 Snow 1 1016 86 10000 9.8 80 08:53 13.12.2020
4898 Snow 1 1016 92 10000 9.8 80 08:32 13.12.2020
4899 Rain 1 1015 100 4800 9.3 70 07:27 13.12.2020
4900 Drizzle 1 1013 97 10000 6.7 70 03:31 13.12.2020
4901 Drizzle 1 1013 100 10000 7.2 60 02:40 13.12.2020
4902 Snow 1 1012 97 4700 2.6 250 01:37 13.12.2020
4903 Snow 1 1012 98 10000 4.1 230 00:47 13.12.2020
4904 Snow 1 1012 99 10000 5.1 250 23:50 12.12.2020
4905 Snow 1 1012 86 10000 5.1 240 23:29 12.12.2020
4906 Snow 1 1012 86 10000 5.1 230 22:39 12.12.2020
4907 Snow 1 1011 86 10000 5.7 220 21:56 12.12.2020
4908 Snow 1 1011 80 10000 5.1 220 21:32 12.12.2020
4909 Snow 1 1011 86 10000 6.2 230 20:48 12.12.2020
4910 Snow 1 1011 86 10000 6.2 230 20:24 12.12.2020
4911 Snow 1 1011 80 10000 5.1 210 19:55 12.12.2020
4912 Snow 1 1011 80 10000 5.1 210 19:35 12.12.2020
4913 Snow 1 1011 80 10000 6.7 230 18:59 12.12.2020
4914 Snow 1 1011 86 10000 5.7 220 18:41 12.12.2020
4915 Snow 1 1011 80 10000 5.1 210 18:22 12.12.2020
4916 Snow 1 1011 80 10000 5.1 210 17:42 12.12.2020
4917 Clouds 1 1011 74 10000 4.6 210 16:54 12.12.2020
4918 Clouds 1 1011 74 10000 4.6 200 15:59 12.12.2020
4919 Clouds 0 1011 95 10000 5.7 220 15:41 12.12.2020
4920 Clouds 0 1011 95 10000 6.2 220 14:55 12.12.2020
4921 Clear 0 1011 95 10000 5.7 220 14:35 12.12.2020
4922 Clear 1 1011 74 10000 6.7 220 13:47 12.12.2020
4923 Clear 1 1011 74 10000 6.7 220 13:27 12.12.2020
4924 Clear 1 1010 74 10000 6.7 210 12:43 12.12.2020
4925 Clear 1 1011 74 10000 10.3 190 11:41 12.12.2020
4926 Clear 1 1010 74 10000 10.3 200 10:52 12.12.2020
4927 Clear -1 1010 86 10000 1.5 0 09:31 12.12.2020
4928 Clear -1 1010 86 10000 2.6 160 08:52 12.12.2020
4929 Clear 0 1014 95 10000 5.7 130 02:46 12.12.2020
4930 Clear -1 1015 74 10000 3.1 180 23:53 11.12.2020
4931 Clear -2 1015 79 10000 5.1 180 22:21 11.12.2020
4932 Clear -1 1015 80 10000 3.1 190 20:35 11.12.2020
4933 Clear -3 1015 86 10000 1.5 0 17:52 11.12.2020
4934 Fog -2 1015 100 10000 1.5 180 14:41 11.12.2020
4935 Fog -3 1015 100 10000 2.1 210 13:58 11.12.2020
4936 Fog -3 1015 100 10000 1.5 250 12:56 11.12.2020
4937 Clouds -1 1015 92 10000 2.1 190 11:58 11.12.2020
4938 Clouds -2 1015 100 10000 2.6 200 11:38 11.12.2020
4939 Clouds -2 1015 100 10000 1 0 10:44 11.12.2020
4940 Clouds -1 1014 92 10000 0.5 0 08:46 11.12.2020
4941 Clear 0 1014 95 10000 3.6 250 05:40 11.12.2020
4942 Clouds 0 1014 95 10000 3.6 270 04:51 11.12.2020
4943 Clear 2 1014 93 10000 6.2 220 01:33 11.12.2020
4944 Clouds 2 1015 93 10000 5.7 210 00:21 11.12.2020
4945 Clouds 2 1014 93 10000 5.7 200 22:44 10.12.2020
4946 Clouds 2 1014 93 10000 6.2 200 21:36 10.12.2020
4947 Clouds 1 1014 100 10000 3.6 190 20:41 10.12.2020
4948 Clouds 2 1014 100 10000 4.1 200 19:37 10.12.2020
4949 Clouds 2 1014 93 10000 4.1 200 18:53 10.12.2020
4950 Clouds 3 1014 93 10000 4.6 200 17:52 10.12.2020
4951 Clouds 2 1014 100 10000 3.1 200 16:25 10.12.2020
4952 Drizzle 2 1013 100 10000 2.1 180 15:27 10.12.2020
4953 Drizzle 2 1013 100 10000 2.1 140 14:50 10.12.2020
4954 Drizzle 2 1013 100 8000 2.6 130 14:26 10.12.2020
4955 Rain 3 1012 93 10000 2.6 320 12:47 10.12.2020
4956 Clouds 2 1012 100 10000 5.1 320 11:35 10.12.2020
4957 Rain 4 1011 86 10000 8.7 260 08:51 10.12.2020
4958 Clouds 4 1010 86 10000 11.3 270 07:45 10.12.2020
4959 Drizzle 4 1009 86 10000 11.3 270 06:41 10.12.2020
4960 Snow 4 1007 80 10000 9.8 240 02:53 10.12.2020
4961 Clouds 4 1008 80 10000 8.7 240 01:59 10.12.2020
4962 Snow 3 1007 86 10000 8.7 220 23:52 09.12.2020
4963 Rain 3 1007 91 10000 7.7 220 20:59 09.12.2020
4964 Clouds 3 1007 92 10000 7.7 220 20:28 09.12.2020
4965 Rain 3 1007 93 10000 5.7 220 19:21 09.12.2020
4966 Rain 3 1008 94 10000 3.6 190 17:43 09.12.2020
4967 Rain 2 1008 94 10000 5.1 190 16:44 09.12.2020
4968 Clouds 2 1008 95 10000 3.6 190 16:20 09.12.2020
4969 Clouds 3 1009 95 10000 5.1 210 15:18 09.12.2020
4970 Clouds 3 1009 94 10000 5.1 210 14:27 09.12.2020
4971 Clouds 3 1009 94 10000 5.1 210 13:58 09.12.2020
4972 Clouds 3 1009 74 10000 7.2 200 13:19 09.12.2020
4973 Rain 3 1009 74 10000 8.2 200 12:44 09.12.2020
4974 Rain 3 1009 74 10000 5.7 200 11:51 09.12.2020
4975 Clouds 3 1009 74 10000 6.7 200 10:59 09.12.2020
4976 Clouds 2 1010 80 10000 4.6 190 09:38 09.12.2020
4977 Clouds 3 1010 74 10000 5.7 200 07:43 09.12.2020
4978 Clouds 2 1011 80 10000 6.7 220 05:53 09.12.2020
4979 Clouds 2 1012 74 10000 7.7 200 03:29 09.12.2020
4980 Clouds 1 1012 80 10000 5.1 180 01:56 09.12.2020
4981 Clouds -1 1014 86 10000 4.6 200 23:44 08.12.2020
4982 Clouds -1 1014 86 10000 4.6 200 22:56 08.12.2020
4983 Clouds 0 1014 95 10000 4.6 200 21:28 08.12.2020
4984 Clouds 0 1014 95 10000 6.2 190 19:34 08.12.2020
4985 Clouds 0 1015 95 10000 8.7 190 18:59 08.12.2020
4986 Clouds -1 1015 80 10000 5.7 160 17:55 08.12.2020
4987 Clouds -1 1016 80 10000 8.2 130 15:51 08.12.2020
4988 Clouds -1 1017 74 10000 8.7 140 14:28 08.12.2020
4989 Clouds 0 1018 94 10000 7.2 130 13:35 08.12.2020
4990 Clear -2 1019 74 10000 7.7 130 12:29 08.12.2020
4991 Clear -2 1019 68 10000 8.7 140 11:51 08.12.2020
4992 Clear -2 1020 74 10000 6.7 150 10:47 08.12.2020
4993 Clear -2 1020 74 10000 6.7 150 10:28 08.12.2020
4994 Clouds -1 1020 63 10000 7.2 140 08:39 08.12.2020
4995 Clouds -1 1020 68 10000 3.6 180 07:18 08.12.2020
4996 Clouds 0 1020 92 10000 4.1 210 03:42 08.12.2020
4997 Clouds 0 1020 93 10000 3.1 200 00:47 08.12.2020
4998 Clouds 0 1020 94 10000 3.1 200 00:25 08.12.2020
4999 Clouds 0 1019 94 10000 3.6 210 22:43 07.12.2020
5000 Clouds 0 1019 94 10000 4.1 220 21:56 07.12.2020
5001 Clouds 0 1019 95 10000 5.1 210 20:31 07.12.2020
5002 Clouds -1 1018 86 10000 4.6 210 18:47 07.12.2020
5003 Clouds -1 1018 80 10000 5.7 220 17:29 07.12.2020
5004 Snow -2 1018 86 10000 4.6 210 16:55 07.12.2020
5005 Clouds -3 1018 86 10000 4.6 210 15:47 07.12.2020
5006 Clouds -2 1018 86 10000 5.1 220 15:19 07.12.2020
5007 Clouds -2 1018 86 10000 5.1 210 14:19 07.12.2020
5008 Snow -2 1018 86 10000 4.1 210 13:33 07.12.2020
5009 Clouds -4 1017 92 10000 3.6 240 11:45 07.12.2020
5010 Clouds -4 1017 85 10000 4.1 240 11:20 07.12.2020
5011 Clouds -3 1017 79 10000 4.6 240 09:57 07.12.2020
5012 Clouds -2 1016 79 10000 6.2 200 08:29 07.12.2020
5013 Clouds -2 1016 74 10000 5.1 180 06:44 07.12.2020
5014 Clouds -2 1016 86 10000 7.2 180 04:58 07.12.2020
5015 Snow -1 1016 74 10000 8.7 180 01:57 07.12.2020
5016 Clear -2 1017 68 10000 5.1 170 00:29 07.12.2020
5017 Clouds -2 1017 63 10000 3.6 160 22:33 06.12.2020
5018 Clouds -2 1017 68 10000 4.6 180 21:22 06.12.2020
5019 Clouds -2 1018 74 10000 4.1 180 20:34 06.12.2020
5020 Clouds -1 1018 68 10000 5.7 190 19:57 06.12.2020
5021 Clouds -2 1018 79 10000 4.1 200 18:41 06.12.2020
5022 Snow -3 1018 92 10000 2.6 290 17:20 06.12.2020
5023 Snow -2 1018 86 10000 4.6 280 15:37 06.12.2020
5024 Snow 0 1017 90 10000 6.7 290 13:58 06.12.2020
5025 Snow -3 1017 86 10000 8.7 290 12:52 06.12.2020
5026 Rain -1 1017 86 10000 6.7 300 12:23 06.12.2020
5027 Snow 0 1017 89 10000 11.8 320 11:35 06.12.2020
5028 Snow 1 1016 64 10000 10.3 290 10:55 06.12.2020
5029 Clouds 1 1016 69 10000 10.8 290 10:26 06.12.2020
5030 Clouds 1 1014 59 10000 14.4 300 08:45 06.12.2020
5031 Clouds 1 1013 64 10000 16.5 300 06:51 06.12.2020
5032 Snow 1 1008 69 10000 19.5 300 02:21 06.12.2020
5033 Snow 0 1006 88 1500 21.6 290 00:42 06.12.2020
5034 Snow 0 1006 88 1500 21.6 290 00:23 06.12.2020
5035 Rain 2 1005 74 10000 15.4 260 22:52 05.12.2020
5036 Clouds 2 1004 64 10000 18.5 270 22:21 05.12.2020
5037 Clouds 2 1004 64 10000 15.9 260 21:51 05.12.2020
5038 Clouds 2 1004 64 10000 16.5 260 21:26 05.12.2020
5039 Clouds 2 1003 74 10000 15.4 270 19:49 05.12.2020
5040 Snow 1 1003 98 8000 14.9 290 18:45 05.12.2020
5041 Snow 1 1002 86 10000 11.8 240 17:34 05.12.2020
5042 Snow 1 1002 80 10000 7.2 220 16:42 05.12.2020
5043 Snow 1 1002 80 10000 7.2 220 16:20 05.12.2020
5044 Snow 0 1002 94 10000 4.6 220 14:28 05.12.2020
5045 Clouds 0 1003 94 10000 5.7 210 12:24 05.12.2020
5046 Clear 0 1003 94 10000 5.1 220 11:47 05.12.2020
5047 Clear 0 1004 94 10000 4.6 220 10:32 05.12.2020
5048 Clouds -1 1004 80 10000 4.6 220 07:49 05.12.2020
5049 Clouds -2 1004 92 10000 4.6 230 07:25 05.12.2020
5050 Clear -2 1005 86 10000 4.1 210 04:44 05.12.2020
5051 Clear 1 1007 74 10000 6.7 200 23:56 04.12.2020
5052 Clouds 1 1007 74 10000 6.7 190 22:32 04.12.2020
5053 Clear 0 1007 94 10000 3.1 180 20:29 04.12.2020
5054 Clear 1 1007 80 10000 5.1 200 18:53 04.12.2020
5055 Clouds 1 1008 80 10000 4.1 200 18:20 04.12.2020
5056 Clouds 2 1008 74 10000 5.1 190 17:41 04.12.2020
5057 Clear -1 1008 80 10000 5.1 200 15:54 04.12.2020
5058 Clear 0 1008 93 10000 5.1 200 13:58 04.12.2020
5059 Clear 0 1007 93 10000 4.6 190 13:31 04.12.2020
5060 Clear 0 1007 93 10000 3.6 200 12:54 04.12.2020
5061 Clear 2 1007 74 10000 5.1 200 11:33 04.12.2020
5062 Clear 2 1007 74 10000 5.7 200 10:28 04.12.2020
5063 Clouds 2 1006 69 10000 2.1 170 07:43 04.12.2020
5064 Clouds 3 1006 69 10000 6.2 190 06:39 04.12.2020
5065 Clouds 3 1005 69 10000 7.2 200 04:50 04.12.2020
5066 Clouds 2 1004 93 10000 5.1 220 23:51 03.12.2020
5067 Clouds 3 1004 86 10000 7.7 240 22:47 03.12.2020
5068 Clouds 3 1003 86 10000 6.7 240 21:20 03.12.2020
5069 Snow 3 1002 95 10000 5.1 250 20:39 03.12.2020
5070 Rain 2 1002 97 10000 5.7 270 19:21 03.12.2020
5071 Rain 2 1001 96 10000 4.1 270 18:40 03.12.2020
5072 Clouds 2 1000 93 10000 6.2 240 17:21 03.12.2020
5073 Snow 1 1001 91 8000 8.7 210 15:59 03.12.2020
5074 Snow 2 1001 91 10000 7.7 220 15:32 03.12.2020
5075 Snow 3 1001 74 10000 11.3 190 14:48 03.12.2020
5076 Snow 2 1002 74 10000 11.8 180 13:51 03.12.2020
5077 Rain 2 1002 69 10000 6.2 190 12:33 03.12.2020
5078 Clouds 2 1002 69 10000 6.7 200 11:59 03.12.2020
5079 Clouds 2 1002 69 10000 7.2 200 10:40 03.12.2020
5080 Clouds 2 1001 74 10000 6.2 200 08:41 03.12.2020
5081 Clouds 3 1000 64 10000 11.3 190 03:45 03.12.2020
5082 Clear 4 1001 64 10000 7.2 190 01:46 03.12.2020
5083 Clear 5 1001 60 10000 8.2 200 23:56 02.12.2020
5084 Clear 4 1000 64 10000 12.3 190 22:45 02.12.2020
5085 Clear 5 1000 60 10000 10.3 200 21:46 02.12.2020
5086 Clouds 5 1000 60 10000 10.3 190 20:50 02.12.2020
5087 Clouds 4 1000 64 10000 9.8 190 20:32 02.12.2020
5088 Clear 4 1000 64 10000 10.8 190 19:40 02.12.2020
5089 Clear 3 1000 64 10000 9.8 200 17:50 02.12.2020
5090 Clear 3 1000 64 10000 9.8 200 17:31 02.12.2020
5091 Clouds 2 999 64 10000 11.3 200 15:46 02.12.2020
5092 Rain 1 999 64 10000 12.3 190 13:41 02.12.2020
5093 Snow -1 1000 86 10000 13.4 190 11:33 02.12.2020
5094 Snow 0 1001 91 10000 11.8 180 10:25 02.12.2020
5095 Clear 0 1005 91 10000 14.4 180 07:48 02.12.2020
5096 Rain -1 1014 86 10000 8.7 260 23:42 01.12.2020
5097 Snow 0 1013 93 10000 11.8 300 22:20 01.12.2020
5098 Snow 0 1012 93 10000 15.4 310 19:45 01.12.2020
5099 Snow 0 1012 93 10000 15.4 310 18:56 01.12.2020
5100 Snow 1 1010 59 10000 9.8 300 17:26 01.12.2020
5101 Clouds 1 1009 59 10000 7.2 310 14:53 01.12.2020
5102 Clouds 0 1008 87 10000 6.2 350 13:37 01.12.2020
5103 Rain 1 1006 69 10000 10.3 10 11:43 01.12.2020
5104 Rain 1 1005 69 10000 12.3 20 10:55 01.12.2020
5105 Snow 1 1004 74 10000 12.3 10 10:32 01.12.2020
5106 Clouds 2 1001 88 10000 9.3 10 07:47 01.12.2020
5107 Clouds 2 1000 93 10000 12.9 360 06:26 01.12.2020
5108 Clear 1 997 69 10000 9.8 200 01:36 01.12.2020
5109 Clear 1 997 69 10000 9.8 200 00:52 01.12.2020
5110 Clear 1 997 64 10000 13.9 200 23:20 30.11.2020
5111 Clear 0 997 93 10000 13.9 200 22:42 30.11.2020
5112 Clear 0 997 93 10000 13.9 200 22:22 30.11.2020
5113 Clear 1 997 69 10000 10.3 200 20:47 30.11.2020
5114 Clear 1 997 69 10000 10.8 190 19:41 30.11.2020
5115 Clear 1 997 69 10000 8.7 190 18:22 30.11.2020
5116 Clear 2 997 69 10000 9.3 190 17:46 30.11.2020
5117 Clear 2 997 69 10000 8.2 190 16:53 30.11.2020
5118 Clear 2 998 64 10000 8.7 180 15:45 30.11.2020
5119 Clear 1 998 69 10000 10.3 180 13:56 30.11.2020
5120 Clear 1 998 69 10000 11.8 190 13:22 30.11.2020
5121 Clear 1 999 74 10000 10.8 190 12:26 30.11.2020
5122 Clear 1 999 69 10000 12.9 190 11:56 30.11.2020
5123 Clouds 1 1000 69 10000 12.9 180 10:25 30.11.2020
5124 Clear 2 1001 64 10000 9.8 180 09:34 30.11.2020
5125 Clouds 4 1006 64 10000 8.2 190 04:27 30.11.2020
5126 Clouds 5 1009 65 10000 7.7 220 23:28 29.11.2020
5127 Rain 5 1009 65 10000 9.3 220 21:46 29.11.2020
5128 Rain 5 1009 65 10000 9.3 220 21:28 29.11.2020
5129 Clouds 4 1009 64 10000 8.7 200 19:31 29.11.2020
5130 Rain 4 1010 64 10000 9.3 200 17:43 29.11.2020
5131 Clouds 4 1013 85 10000 8.2 220 14:53 29.11.2020
5132 Clouds 3 1013 74 10000 6.2 210 12:46 29.11.2020
5133 Clouds 3 1013 74 10000 7.7 220 11:41 29.11.2020
5134 Clouds 3 1013 74 10000 6.2 220 08:55 29.11.2020
5135 Clouds 4 1013 84 10000 6.2 220 08:36 29.11.2020
5136 Clouds 4 1013 69 10000 8.7 230 03:30 29.11.2020
5137 Drizzle 4 1013 69 10000 9.8 200 23:19 28.11.2020
5138 Drizzle 4 1013 69 10000 9.8 200 22:55 28.11.2020
5139 Drizzle 4 1015 69 10000 11.8 190 20:27 28.11.2020
5140 Rain 5 1015 82 10000 8.2 190 19:31 28.11.2020
5141 Rain 5 1015 65 10000 5.7 200 18:59 28.11.2020
5142 Rain 5 1016 65 10000 8.2 200 18:23 28.11.2020
5143 Rain 4 1016 69 10000 5.1 190 17:33 28.11.2020
5144 Clear 4 1017 64 10000 6.2 210 15:56 28.11.2020
5145 Clear 4 1018 60 10000 7.7 210 14:25 28.11.2020
5146 Clear 4 1018 60 10000 8.2 200 11:29 28.11.2020
5147 Clear 4 1018 64 10000 10.3 200 09:37 28.11.2020
5148 Clouds 4 1016 69 10000 7.2 210 03:55 28.11.2020
5149 Clouds 4 1016 79 10000 7.2 220 03:24 28.11.2020
5150 Clouds 4 1014 80 10000 11.3 250 23:23 27.11.2020
5151 Clouds 5 1014 75 10000 9.3 240 22:54 27.11.2020
5152 Clouds 5 1013 81 10000 13.4 260 20:55 27.11.2020
5153 Clouds 4 1013 80 10000 17 270 20:28 27.11.2020
5154 Rain 4 1012 86 10000 13.9 280 19:22 27.11.2020
5155 Rain 6 1010 70 10000 13.4 280 17:50 27.11.2020
5156 Clouds 4 1008 64 10000 12.3 200 14:46 27.11.2020
5157 Clouds 4 1008 64 10000 12.9 200 13:24 27.11.2020
5158 Clouds 4 1007 69 10000 8.7 190 12:47 27.11.2020
5159 Clouds 3 1008 74 10000 5.7 180 11:35 27.11.2020
5160 Rain 3 1008 69 10000 5.7 180 10:50 27.11.2020
5161 Clouds 2 1008 69 10000 7.7 200 09:57 27.11.2020
5162 Snow -1 1010 92 10000 7.6 167 07:22 27.11.2020
5163 Clouds -2 1012 94 10000 3.69 176 22:27 26.11.2020
5164 Clouds -2 1010 86 10000 3.1 200 21:56 26.11.2020
5165 Clouds -2 1010 86 10000 3.1 200 20:52 26.11.2020
5166 Clouds 0 1010 94 10000 3.1 190 18:42 26.11.2020
5167 Clouds 0 1010 94 10000 3.1 210 17:51 26.11.2020
5168 Clouds -1 1008 86 10000 2.6 310 14:50 26.11.2020
5169 Clouds -2 1007 92 10000 0.5 0 13:41 26.11.2020
5170 Clouds -2 1006 92 10000 1 20 12:42 26.11.2020
5171 Clouds -2 1006 92 10000 2.1 30 11:36 26.11.2020
5172 Clouds -2 1005 86 10000 2.1 30 10:33 26.11.2020
5173 Clouds -1 1004 80 10000 1.5 30 09:46 26.11.2020
5174 Clouds -1 1004 80 10000 1.5 30 09:27 26.11.2020
5175 Clouds -1 1004 80 10000 1.5 350 08:38 26.11.2020
5176 Clear -2 1002 86 10000 1.5 0 04:42 26.11.2020
5177 Clear -4 1001 79 10000 2.1 20 22:42 25.11.2020
5178 Clear -2 1001 68 10000 2.6 80 20:42 25.11.2020
5179 Clear -3 1001 73 10000 1.5 120 19:44 25.11.2020
5180 Clear -3 1001 73 10000 1.5 140 18:27 25.11.2020
5181 Clear -4 1001 73 10000 2.1 140 16:34 25.11.2020
5182 Clear -5 1001 73 10000 2.6 160 15:36 25.11.2020
5183 Clear -3 1002 73 10000 2.1 140 13:56 25.11.2020
5184 Clouds -2 1001 74 10000 2.6 170 13:37 25.11.2020
5185 Clear -3 1002 73 10000 4.1 200 11:44 25.11.2020
5186 Clear -2 1002 74 10000 3.6 200 11:18 25.11.2020
5187 Clear -2 1001 74 10000 5.7 220 09:18 25.11.2020
5188 Clear -2 1001 74 10000 5.7 220 08:41 25.11.2020
5189 Clouds -3 1001 68 10000 4.1 220 03:59 25.11.2020
5190 Clear -1 1001 74 10000 7.2 200 01:53 25.11.2020
5191 Clear -1 1002 74 10000 6.7 190 00:23 25.11.2020
5192 Clear -1 1002 74 10000 7.7 190 23:52 24.11.2020
5193 Clear 0 1002 92 10000 8.7 190 23:33 24.11.2020
5194 Clear 0 1002 92 10000 10.8 190 21:51 24.11.2020
5195 Clear 0 1002 92 10000 11.3 180 21:29 24.11.2020
5196 Clear 0 1002 92 10000 10.8 180 20:42 24.11.2020
5197 Clear -1 1003 74 10000 10.8 170 18:56 24.11.2020
5198 Clear -2 1004 74 10000 6.7 170 17:31 24.11.2020
5199 Clear -1 1004 68 10000 4.1 160 16:50 24.11.2020
5200 Clear -1 1004 68 10000 4.1 160 16:50 24.11.2020
5201 Clear -1 1004 68 10000 4.1 160 16:31 24.11.2020
5202 Clear -2 1005 74 10000 5.1 180 15:54 24.11.2020
5203 Clear -2 1004 79 10000 5.7 160 15:18 24.11.2020
5204 Clear -1 1004 74 10000 5.7 150 14:34 24.11.2020
5205 Clouds -3 1005 100 10000 3.1 180 12:50 24.11.2020
5206 Clouds -3 1005 92 10000 3.6 190 12:22 24.11.2020
5207 Clouds -2 1005 100 10000 2.6 190 11:53 24.11.2020
5208 Clouds -1 1004 100 10000 1.5 210 10:46 24.11.2020
5209 Clouds -1 1004 100 10000 1.5 210 10:24 24.11.2020
5210 Clouds -1 1004 100 10000 1.31 119 09:35 24.11.2020
5211 Clouds 0 1004 97 10000 1 190 07:58 24.11.2020
5212 Clouds 0 1003 91 10000 6.2 340 04:48 24.11.2020
5213 Rain 1 1001 87 3500 11.3 360 23:28 23.11.2020
5214 Clouds 1 1000 87 3000 11.8 350 21:38 23.11.2020
5215 Rain 1 1000 87 10000 10.8 360 20:56 23.11.2020
5216 Snow 0 1000 87 2500 11.8 360 20:28 23.11.2020
5217 Rain 2 999 74 10000 10.8 360 19:36 23.11.2020
5218 Clouds 2 997 74 10000 10.8 10 17:27 23.11.2020
5219 Clouds 2 997 80 10000 11.8 20 16:54 23.11.2020
5220 Clouds 1 995 85 10000 12.3 360 14:49 23.11.2020
5221 Rain 2 994 80 10000 11.3 20 13:54 23.11.2020
5222 Clouds 2 992 80 10000 10.3 30 12:39 23.11.2020
5223 Clouds 2 992 86 10000 11.3 20 11:51 23.11.2020
5224 Clouds 2 992 86 10000 12.9 20 11:30 23.11.2020
5225 Clouds 2 990 82 10000 10.3 40 09:47 23.11.2020
5226 Rain 1 989 83 10000 6.2 40 08:51 23.11.2020
5227 Rain 2 987 85 10000 5.7 20 07:40 23.11.2020
5228 Rain -1 983 100 10000 2.6 360 02:39 23.11.2020
5229 Rain -1 982 100 10000 4.1 30 23:48 22.11.2020
5230 Clouds -1 981 100 10000 2.1 350 22:22 22.11.2020
5231 Clouds -1 980 92 7000 1.5 0 21:24 22.11.2020
5232 Clouds -1 979 86 10000 1.5 270 20:20 22.11.2020
5233 Rain -2 979 86 10000 1 0 19:23 22.11.2020
5234 Clouds -3 978 92 10000 1 0 18:19 22.11.2020
5235 Clouds -4 978 85 10000 1.5 0 16:26 22.11.2020
5236 Clouds -4 977 85 10000 4.1 210 15:25 22.11.2020
5237 Clear -2 976 79 10000 5.1 210 13:32 22.11.2020
5238 Clouds -4 976 85 10000 5.1 200 12:43 22.11.2020
5239 Clear -4 976 85 10000 4.1 200 11:54 22.11.2020
5240 Clear -3 976 92 10000 4.6 200 10:51 22.11.2020
5241 Clear -3 976 86 10000 3.6 200 10:33 22.11.2020
5242 Clear -3 976 86 10000 3.6 200 10:33 22.11.2020
5243 Clouds 0 977 95 10000 6.2 190 04:43 22.11.2020
5244 Clouds 0 978 94 10000 9.3 180 00:49 22.11.2020
5245 Clouds 0 980 95 10000 14.9 180 22:42 21.11.2020
5246 Clouds 0 981 95 10000 14.4 180 21:32 21.11.2020
5247 Clouds 0 981 95 10000 14.4 180 21:32 21.11.2020
5248 Clouds -1 982 80 10000 15.4 180 20:53 21.11.2020
5249 Clouds -1 982 74 10000 17 180 20:21 21.11.2020
5250 Clouds -1 982 80 3500 14.9 170 19:49 21.11.2020
5251 Clouds -1 982 80 3500 14.9 170 19:20 21.11.2020
5252 Clouds -1 985 74 9000 20.6 160 17:54 21.11.2020
5253 Clouds -1 987 68 10000 12.9 160 16:47 21.11.2020
5254 Clouds -1 989 68 10000 14.4 180 15:43 21.11.2020
5255 Clouds -1 989 68 10000 14.4 180 15:21 21.11.2020
5256 Clouds -2 991 68 10000 14.4 180 14:42 21.11.2020
5257 Clear -2 993 68 10000 15.9 180 13:27 21.11.2020
5258 Clear -2 995 68 10000 10.3 170 12:24 21.11.2020
5259 Clear -2 996 68 10000 10.3 160 11:50 21.11.2020
5260 Clear -2 999 68 10000 8.7 160 10:28 21.11.2020
5261 Clear -2 1000 68 10000 6.2 160 09:22 21.11.2020
5262 Clear -3 1001 79 10000 5.7 150 08:50 21.11.2020
5263 Clouds -1 1004 92 8000 6.2 200 05:42 21.11.2020
5264 Clouds -1 1006 92 10000 4.6 250 03:36 21.11.2020
5265 Rain 0 1006 92 10000 5.1 240 00:22 21.11.2020
5266 Clouds 0 1006 93 10000 6.2 270 23:19 20.11.2020
5267 Rain 0 1005 93 10000 7.7 310 21:46 20.11.2020
5268 Rain 0 1005 93 10000 7.7 310 21:26 20.11.2020
5269 Clouds 0 1005 93 10000 9.3 310 20:42 20.11.2020
5270 Rain 0 1005 91 10000 12.3 330 19:33 20.11.2020
5271 Clouds 0 1005 90 10000 13.9 320 18:27 20.11.2020
5272 Clouds 0 1004 90 10000 13.9 330 17:32 20.11.2020
5273 Clouds 0 1003 89 10000 14.4 330 16:48 20.11.2020
5274 Clouds 0 1003 89 10000 14.4 330 16:27 20.11.2020
5275 Rain 0 1002 89 10000 13.4 320 15:42 20.11.2020
5276 Clouds 0 1001 90 10000 13.4 330 14:18 20.11.2020
5277 Rain -1 1001 86 3500 12.9 330 13:22 20.11.2020
5278 Clouds -1 1000 80 10000 14.9 330 12:58 20.11.2020
5279 Rain 0 999 93 10000 15.9 340 12:25 20.11.2020
5280 Clouds 0 998 92 10000 17 340 11:35 20.11.2020
5281 Clouds 0 997 92 10000 17 320 09:56 20.11.2020
5282 Rain 1 995 69 10000 19 340 08:32 20.11.2020
5283 Clouds 1 994 64 10000 19 340 07:52 20.11.2020
5284 Snow 0 991 95 4000 19.5 350 05:19 20.11.2020
5285 Rain 2 983 93 10000 21.1 360 00:41 20.11.2020
5286 Rain 2 979 93 10000 12.9 20 22:31 19.11.2020
5287 Rain 3 979 96 10000 14.9 20 21:54 19.11.2020
5288 Rain 3 977 86 10000 18 360 20:58 19.11.2020
5289 Rain 3 977 86 10000 21.6 350 20:21 19.11.2020
5290 Rain 3 975 86 8000 20.1 360 19:27 19.11.2020
5291 Snow 3 975 93 6000 20.6 350 18:55 19.11.2020
5292 Rain 3 975 86 10000 21.1 350 17:35 19.11.2020
5293 Clouds 3 974 86 10000 19 350 16:33 19.11.2020
5294 Clouds 2 974 93 6000 13.4 350 15:31 19.11.2020
5295 Rain 1 974 86 3000 14.9 270 13:55 19.11.2020
5296 Clouds 0 975 86 4000 20.1 280 13:36 19.11.2020
5297 Rain 0 976 98 4000 20.6 290 12:55 19.11.2020
5298 Rain 1 977 86 8000 18.5 290 12:34 19.11.2020
5299 Clouds -1 978 100 5000 18 290 11:41 19.11.2020
5300 Rain -1 978 100 5000 18 290 11:22 19.11.2020
5301 Rain 0 978 93 10000 17 300 10:44 19.11.2020
5302 Rain 0 978 92 10000 18.5 290 09:48 19.11.2020
5303 Clouds 0 979 93 10000 18.5 290 09:28 19.11.2020
5304 Clouds 0 979 93 9000 15.9 300 08:44 19.11.2020
5305 Snow -1 979 100 10000 14.4 300 07:36 19.11.2020
5306 Snow 0 981 87 4000 17 270 01:48 19.11.2020
5307 Rain 1 980 84 10000 18 270 00:33 19.11.2020
5308 Rain 2 980 83 3500 15.4 270 23:32 18.11.2020
5309 Snow 3 980 82 10000 15.9 270 22:59 18.11.2020
5310 Rain 3 980 74 10000 18 280 22:29 18.11.2020
5311 Rain 3 980 79 10000 13.9 270 21:44 18.11.2020
5312 Clouds 3 980 78 10000 13.9 270 21:25 18.11.2020
5313 Clouds 3 980 86 10000 14.9 270 20:40 18.11.2020
5314 Clouds 3 979 86 10000 13.9 270 19:44 18.11.2020
5315 Clouds 3 979 86 10000 13.9 270 19:22 18.11.2020
5316 Clouds 3 979 86 10000 13.9 270 19:22 18.11.2020
5317 Drizzle 4 979 86 10000 15.4 280 18:45 18.11.2020
5318 Drizzle 4 979 86 10000 15.4 280 18:45 18.11.2020
5319 Clouds 5 978 86 10000 16.5 270 17:45 18.11.2020
5320 Drizzle 5 978 93 10000 11.8 240 16:54 18.11.2020
5321 Clouds 5 978 86 10000 8.7 230 16:19 18.11.2020
5322 Rain 5 978 75 10000 3.1 220 14:42 18.11.2020
5323 Rain 5 978 75 10000 3.1 220 14:22 18.11.2020
5324 Rain 5 978 83 10000 2.6 220 13:22 18.11.2020
5325 Rain 5 979 75 10000 3.6 230 12:44 18.11.2020
5326 Rain 6 979 82 10000 1.5 220 11:56 18.11.2020
5327 Rain 6 979 82 10000 3.1 240 10:58 18.11.2020
5328 Rain 6 979 82 10000 7.2 200 10:30 18.11.2020
5329 Rain 6 980 80 10000 6.2 200 08:43 18.11.2020
5330 Clouds 6 981 80 10000 6.7 200 07:28 18.11.2020
5331 Clear 6 982 79 10000 4.1 170 04:34 18.11.2020
5332 Clear 7 985 78 10000 6.2 180 00:21 18.11.2020
5333 Clear 7 985 65 10000 7.2 190 23:25 17.11.2020
5334 Clear 7 986 70 10000 9.8 190 22:44 17.11.2020
5335 Clear 7 986 70 10000 9.8 190 22:26 17.11.2020
5336 Clear 7 986 70 10000 11.3 190 21:47 17.11.2020
5337 Clear 7 986 70 10000 9.8 180 21:23 17.11.2020
5338 Clear 7 986 75 10000 11.3 190 20:43 17.11.2020
5339 Clear 7 986 75 10000 11.3 190 20:23 17.11.2020
5340 Clear 7 987 70 10000 11.3 190 19:44 17.11.2020
5341 Clouds 7 987 75 10000 13.4 190 18:23 17.11.2020
5342 Clouds 7 988 75 10000 12.9 190 17:31 17.11.2020
5343 Clouds 7 989 70 10000 11.3 190 16:36 17.11.2020
5344 Clouds 7 989 70 10000 11.8 190 15:58 17.11.2020
5345 Clouds 7 989 70 10000 14.4 190 15:36 17.11.2020
5346 Rain 7 989 70 10000 14.4 190 14:58 17.11.2020
5347 Clouds 7 990 70 10000 14.9 190 14:30 17.11.2020
5348 Clouds 6 990 75 10000 15.4 190 13:45 17.11.2020
5349 Clouds 6 990 75 10000 15.4 190 13:21 17.11.2020
5350 Clouds 6 990 75 10000 15.4 190 13:21 17.11.2020
5351 Clouds 6 990 75 10000 20.1 190 12:42 17.11.2020
5352 Clear 6 992 75 10000 20.1 190 11:45 17.11.2020
5353 Clear 6 992 75 10000 20.1 190 11:21 17.11.2020
5354 Clear 6 993 75 10000 21.1 190 10:39 17.11.2020
5355 Clear 6 993 75 10000 22.6 190 09:53 17.11.2020
5356 Clear 6 993 70 10000 23.1 190 09:33 17.11.2020
5357 Clear 6 993 70 10000 20.6 190 08:25 17.11.2020
5358 Clear 6 992 70 10000 25.7 180 07:56 17.11.2020
5359 Clear 6 993 70 10000 23.7 180 07:26 17.11.2020
5360 Clear 6 995 75 10000 16.5 190 04:29 17.11.2020
5361 Clear 7 997 70 10000 13.4 190 02:59 17.11.2020
5362 Clear 6 997 75 10000 15.9 190 02:22 17.11.2020
5363 Clear 6 998 75 10000 6.2 180 00:56 17.11.2020
5364 Clear 6 998 75 10000 8.2 200 23:52 16.11.2020
5365 Clear 6 998 75 10000 7.7 200 23:29 16.11.2020
5366 Clear 6 998 75 10000 10.3 190 22:48 16.11.2020
5367 Clear 6 998 75 10000 9.8 190 22:21 16.11.2020
5368 Clear 6 998 75 10000 6.2 180 21:49 16.11.2020
5369 Clear 6 998 75 10000 6.2 170 21:25 16.11.2020
5370 Clear 5 999 86 10000 5.1 160 20:58 16.11.2020
5371 Clouds 4 999 86 10000 2.6 160 20:25 16.11.2020
5372 Clouds 3 999 93 10000 2.1 130 19:42 16.11.2020
5373 Rain 3 999 93 10000 2.1 130 19:24 16.11.2020
5374 Rain 4 1000 86 10000 2.6 180 18:47 16.11.2020
5375 Rain 5 1000 86 10000 2.1 110 17:54 16.11.2020
5376 Clouds 3 1000 93 10000 3.1 150 17:25 16.11.2020
5377 Rain 4 1000 86 10000 4.1 180 16:57 16.11.2020
5378 Rain 5 1000 80 10000 5.1 180 16:38 16.11.2020
5379 Rain 4 1000 86 10000 4.6 170 16:18 16.11.2020
5380 Rain 5 1000 80 10000 5.1 150 15:41 16.11.2020
5381 Rain 5 1000 80 10000 5.1 150 15:21 16.11.2020
5382 Rain 5 1000 75 10000 5.7 160 14:42 16.11.2020
5383 Clear 4 1000 79 10000 4.1 120 13:35 16.11.2020
5384 Clear 2 1001 80 10000 2.6 130 12:34 16.11.2020
5385 Clear 2 1001 80 10000 3.1 140 11:55 16.11.2020
5386 Clear 3 1001 86 10000 1.5 170 11:37 16.11.2020
5387 Clear 2 1001 80 10000 1.5 190 11:18 16.11.2020
5388 Clear 3 1001 86 10000 3.1 200 10:40 16.11.2020
5389 Clear 3 1001 86 10000 3.1 200 10:22 16.11.2020
5390 Clear 4 1001 80 10000 4.6 210 09:41 16.11.2020
5391 Clear 4 1000 80 10000 3.6 200 09:19 16.11.2020
5392 Clear 4 1000 80 10000 3.6 200 08:38 16.11.2020
5393 Clear 4 1000 80 10000 4.6 220 07:44 16.11.2020
5394 Clear 4 1000 80 10000 6.7 230 06:49 16.11.2020
5395 Clouds 4 999 80 10000 4.1 210 05:55 16.11.2020
5396 Clear 4 999 80 10000 5.1 210 04:37 16.11.2020
5397 Clear 4 1000 81 10000 4.1 200 02:29 16.11.2020
5398 Clear 4 1000 81 10000 3.1 180 01:39 16.11.2020
5399 Clear 5 1000 83 10000 5.1 210 23:53 15.11.2020
5400 Clear 5 1001 82 10000 4.6 200 23:22 15.11.2020
5401 Clear 4 1001 82 10000 4.6 190 22:48 15.11.2020
5402 Clear 5 1001 80 10000 5.1 200 22:21 15.11.2020
5403 Clear 5 1001 75 10000 7.2 200 21:44 15.11.2020
5404 Clear 5 1001 75 10000 7.2 200 21:24 15.11.2020
5405 Clear 5 1000 79 10000 6.2 200 20:41 15.11.2020
5406 Clear 5 1000 75 10000 6.2 200 20:19 15.11.2020
5407 Clear 5 1000 75 10000 6.2 200 19:48 15.11.2020
5408 Clear 6 1000 70 10000 7.2 210 19:22 15.11.2020
5409 Clear 6 1000 70 10000 7.2 200 18:57 15.11.2020
5410 Clouds 6 999 70 10000 7.7 200 18:39 15.11.2020
5411 Clear 6 999 70 10000 8.2 200 18:19 15.11.2020
5412 Clear 6 999 70 10000 8.2 200 17:44 15.11.2020
5413 Clear 6 999 70 10000 8.2 200 17:24 15.11.2020
5414 Clear 6 999 80 10000 8.7 200 16:46 15.11.2020
5415 Clouds 6 999 80 10000 7.7 200 16:21 15.11.2020
5416 Clouds 6 999 80 10000 7.7 200 15:50 15.11.2020
5417 Clouds 6 999 70 10000 10.3 200 15:28 15.11.2020
5418 Clouds 6 999 70 10000 9.3 200 14:58 15.11.2020
5419 Clouds 6 999 70 10000 9.3 200 14:31 15.11.2020
5420 Clouds 6 999 70 10000 9.8 200 13:56 15.11.2020
5421 Clouds 6 998 70 10000 9.8 190 13:36 15.11.2020
5422 Clouds 6 998 70 10000 11.8 200 12:51 15.11.2020
5423 Clouds 6 998 70 10000 11.8 190 12:25 15.11.2020
5424 Clouds 6 998 70 10000 11.3 190 11:47 15.11.2020
5425 Clouds 6 998 70 10000 11.3 190 11:21 15.11.2020
5426 Clouds 6 998 70 10000 11.8 190 10:54 15.11.2020
5427 Clouds 6 998 70 10000 11.3 190 10:33 15.11.2020
5428 Clouds 6 998 70 10000 12.3 190 09:59 15.11.2020
5429 Clouds 6 998 70 10000 10.3 200 09:40 15.11.2020
5430 Clouds 6 998 70 10000 11.3 190 09:19 15.11.2020
5431 Clouds 6 998 70 10000 11.3 190 08:50 15.11.2020
5432 Clear 5 998 77 10000 10.8 190 07:48 15.11.2020
5433 Clear 5 998 75 10000 14.4 190 06:55 15.11.2020
5434 Clear 5 999 75 10000 13.9 190 04:58 15.11.2020
5435 Clear 5 1001 75 10000 9.3 180 02:43 15.11.2020
5436 Clouds 4 1002 80 10000 6.7 190 00:45 15.11.2020
5437 Clouds 4 1002 83 10000 6.7 190 00:26 15.11.2020
5438 Clouds 5 1002 83 10000 5.7 190 23:34 14.11.2020
5439 Clear 4 1003 82 10000 6.2 190 22:46 14.11.2020
5440 Clear 4 1003 82 10000 6.2 190 22:46 14.11.2020
5441 Clear 4 1003 81 10000 6.2 190 22:28 14.11.2020
5442 Clear 4 1003 81 10000 8.7 190 21:41 14.11.2020
5443 Clear 4 1003 80 10000 8.7 190 21:22 14.11.2020
5444 Clear 4 1003 80 10000 8.7 200 20:50 14.11.2020
5445 Clear 4 1003 79 10000 5.7 190 20:26 14.11.2020
5446 Clear 4 1003 79 10000 6.2 190 19:51 14.11.2020
5447 Clear 4 1003 69 10000 7.2 200 19:30 14.11.2020
5448 Clouds 3 1004 69 10000 3.1 170 18:43 14.11.2020
5449 Clouds 3 1004 69 10000 3.1 170 18:24 14.11.2020
5450 Clouds 3 1004 69 10000 3.1 170 18:24 14.11.2020
5451 Clouds 3 1004 69 10000 7.2 200 17:50 14.11.2020
5452 Clouds 2 1004 74 10000 6.2 200 17:31 14.11.2020
5453 Clear 4 1004 69 10000 6.7 200 16:57 14.11.2020
5454 Clear 3 1004 69 10000 7.2 200 16:36 14.11.2020
5455 Clear 2 1004 80 10000 3.6 190 16:18 14.11.2020
5456 Clear 2 1004 80 10000 3.6 190 15:51 14.11.2020
5457 Clear 3 1004 69 10000 5.7 200 15:25 14.11.2020
5458 Clear 4 1004 69 10000 3.6 180 14:41 14.11.2020
5459 Clear 4 1004 69 10000 3.6 180 14:23 14.11.2020
5460 Clear 4 1004 76 10000 8.2 190 13:40 14.11.2020
5461 Clear 4 1004 76 10000 8.7 190 13:22 14.11.2020
5462 Clear 4 1004 69 10000 8.7 190 12:46 14.11.2020
5463 Clear 4 1004 69 10000 8.7 190 12:27 14.11.2020
5464 Clear 5 1004 65 10000 10.8 190 11:43 14.11.2020
5465 Clear 5 1004 65 10000 10.8 190 11:24 14.11.2020
5466 Clear 5 1003 65 10000 11.3 190 10:43 14.11.2020
5467 Clear 5 1003 65 10000 11.3 190 10:25 14.11.2020
5468 Clear 4 1003 69 10000 12.3 190 09:47 14.11.2020
5469 Clear 4 1003 69 10000 12.3 190 09:28 14.11.2020
5470 Clear 5 1003 65 10000 12.9 200 08:49 14.11.2020
5471 Clear 4 1003 64 10000 14.9 190 08:27 14.11.2020
5472 Clear 4 1002 64 10000 15.9 190 07:50 14.11.2020
5473 Clear 4 1001 60 10000 13.9 190 07:26 14.11.2020
5474 Clear 4 1002 55 10000 15.9 190 06:32 14.11.2020
5475 Clear 3 1004 59 10000 18.5 190 05:31 14.11.2020
5476 Clear 3 1004 59 10000 16.5 190 03:53 14.11.2020
5477 Clear 3 1007 74 10000 6.7 170 00:56 14.11.2020
5478 Clear 3 1008 92 10000 5.7 170 23:47 13.11.2020
5479 Clear 3 1008 91 10000 5.7 170 23:25 13.11.2020
5480 Clear 3 1009 86 10000 5.1 150 22:46 13.11.2020
5481 Clear 3 1009 86 10000 5.1 150 22:26 13.11.2020
5482 Clear 4 1009 86 10000 4.6 140 21:55 13.11.2020
5483 Clear 4 1009 86 10000 3.6 150 21:37 13.11.2020
5484 Clouds 4 1009 80 10000 3.6 170 21:19 13.11.2020
5485 Clouds 4 1010 86 10000 3.1 170 20:41 13.11.2020
5486 Clouds 4 1010 86 10000 3.1 170 20:21 13.11.2020
5487 Clouds 5 1010 80 10000 3.6 200 19:46 13.11.2020
5488 Clouds 5 1010 80 10000 3.6 200 19:23 13.11.2020
5489 Clouds 5 1010 80 10000 3.1 250 18:56 13.11.2020
5490 Drizzle 5 1010 80 10000 3.6 250 18:23 13.11.2020
5491 Drizzle 6 1010 75 10000 4.1 240 17:41 13.11.2020
5492 Clouds 6 1010 75 10000 4.6 220 17:19 13.11.2020
5493 Drizzle 5 1010 80 10000 4.6 230 16:49 13.11.2020
5494 Drizzle 5 1010 80 10000 4.6 230 16:24 13.11.2020
5495 Drizzle 6 1010 75 10000 4.1 220 15:49 13.11.2020
5496 Clouds 7 1010 70 10000 5.1 220 15:27 13.11.2020
5497 Clouds 7 1010 70 10000 6.2 220 14:48 13.11.2020
5498 Clouds 6 1010 75 10000 7.2 220 14:24 13.11.2020
5499 Clouds 6 1010 75 10000 7.2 220 13:47 13.11.2020
5500 Clouds 7 1010 70 10000 7.7 220 13:23 13.11.2020
5501 Clouds 8 1010 65 10000 7.7 210 12:47 13.11.2020
5502 Clouds 7 1010 65 10000 8.2 220 12:24 13.11.2020
5503 Clouds 7 1010 65 10000 8.7 210 11:49 13.11.2020
5504 Clouds 7 1010 70 10000 7.7 210 11:29 13.11.2020
5505 Clouds 7 1010 65 10000 6.7 210 10:57 13.11.2020
5506 Clouds 6 1010 70 10000 8.2 210 10:39 13.11.2020
5507 Clouds 6 1010 70 10000 8.2 210 10:21 13.11.2020
5508 Clouds 7 1009 65 10000 6.7 200 09:42 13.11.2020
5509 Clouds 7 1009 65 10000 8.2 210 09:20 13.11.2020
5510 Clouds 7 1009 65 10000 8.2 210 08:50 13.11.2020
5511 Clouds 5 1009 75 10000 6.2 200 08:20 13.11.2020
5512 Clouds 5 1009 73 10000 6.7 200 07:44 13.11.2020
5513 Clouds 5 1009 73 10000 6.7 200 07:26 13.11.2020
5514 Clouds 5 1009 73 10000 6.7 210 06:49 13.11.2020
5515 Clouds 4 1009 72 10000 7.2 220 05:43 13.11.2020
5516 Clouds 4 1009 73 10000 7.2 220 05:23 13.11.2020
5517 Clear 4 1010 77 10000 7.2 210 01:45 13.11.2020
5518 Clear 4 1010 79 10000 8.2 220 00:51 13.11.2020
5519 Clear 3 1010 78 10000 7.7 210 00:32 13.11.2020
5520 Clear 3 1009 74 10000 2.6 210 23:38 12.11.2020
5521 Clear 3 1009 74 10000 4.6 190 23:19 12.11.2020
5522 Clear 3 1009 74 10000 4.6 190 22:50 12.11.2020
5523 Clear 4 1009 69 10000 7.7 200 22:32 12.11.2020
5524 Clear 3 1009 74 10000 3.1 190 21:56 12.11.2020
5525 Clear 3 1009 74 10000 2.6 170 21:37 12.11.2020
5526 Clear 3 1009 74 10000 3.6 200 21:18 12.11.2020
5527 Clear 3 1010 74 10000 5.7 210 20:39 12.11.2020
5528 Clear 3 1010 74 10000 5.7 210 20:21 12.11.2020
5529 Clear 4 1010 83 10000 5.1 220 19:49 12.11.2020
5530 Clear 4 1010 83 10000 5.1 220 19:31 12.11.2020
5531 Clear 4 1010 81 10000 4.6 210 18:52 12.11.2020
5532 Clear 4 1010 81 10000 4.1 210 18:24 12.11.2020
5533 Clear 4 1010 81 10000 5.7 210 17:55 12.11.2020
5534 Clear 5 1010 81 10000 7.7 210 17:30 12.11.2020
5535 Clear 6 1010 60 10000 8.7 220 16:58 12.11.2020
5536 Clear 5 1010 81 10000 8.7 220 16:39 12.11.2020
5537 Clear 5 1010 81 10000 8.7 220 16:21 12.11.2020
5538 Clear 6 1010 81 10000 9.3 210 15:42 12.11.2020
5539 Clear 6 1010 82 10000 10.8 200 15:23 12.11.2020
5540 Clear 7 1010 82 10000 11.3 210 14:46 12.11.2020
5541 Clear 7 1010 86 10000 11.3 210 14:26 12.11.2020
5542 Clear 7 1010 86 10000 12.9 210 13:57 12.11.2020
5543 Clear 7 1009 65 10000 14.9 190 13:37 12.11.2020
5544 Clear 8 1010 61 10000 11.3 190 13:18 12.11.2020
5545 Clear 7 1010 65 10000 11.3 190 12:43 12.11.2020
5546 Clear 7 1010 65 10000 11.3 190 12:21 12.11.2020
5547 Clear 3 1011 86 10000 9.3 200 11:50 12.11.2020
5548 Clear 3 1011 85 10000 9.3 200 11:29 12.11.2020
5549 Clear 4 1011 80 10000 6.2 190 10:44 12.11.2020
5550 Clear 4 1011 80 10000 6.2 190 10:25 12.11.2020
5551 Clear 3 1012 86 10000 5.1 190 09:49 12.11.2020
5552 Clear 3 1012 86 10000 5.7 200 09:23 12.11.2020
5553 Clear 2 1013 93 10000 5.1 190 08:57 12.11.2020
5554 Clear 3 1013 82 10000 6.2 190 08:39 12.11.2020
5555 Clear 5 1013 75 10000 5.7 190 08:19 12.11.2020
5556 Clear 3 1013 74 10000 4.6 170 07:50 12.11.2020
5557 Clear 3 1013 74 10000 4.6 170 07:25 12.11.2020
5558 Clear 3 1014 79 10000 5.1 190 06:50 12.11.2020
5559 Clear 3 1015 78 10000 3.6 170 05:38 12.11.2020
5560 Clear 4 1016 86 10000 4.1 190 03:24 12.11.2020
5561 Clouds 3 1016 86 10000 4.1 180 02:53 12.11.2020
5562 Clear 4 1017 80 10000 5.1 190 00:23 12.11.2020
5563 Clouds 2 1017 70 10000 3.6 180 23:26 11.11.2020
5564 Clouds 3 1017 70 10000 4.1 190 22:59 11.11.2020
5565 Clouds 4 1017 70 10000 5.1 200 22:41 11.11.2020
5566 Clouds 4 1017 71 10000 5.1 200 22:21 11.11.2020
5567 Clouds 3 1017 71 10000 4.1 200 21:56 11.11.2020
5568 Clouds 3 1018 74 10000 3.6 200 21:36 11.11.2020
5569 Clouds 3 1017 74 10000 2.6 180 21:18 11.11.2020
5570 Clouds 2 1018 80 10000 3.6 200 20:41 11.11.2020
5571 Clouds 2 1018 80 10000 3.6 200 20:21 11.11.2020
5572 Clouds 2 1018 80 10000 3.1 200 19:50 11.11.2020
5573 Clouds 2 1018 80 10000 3.1 200 19:32 11.11.2020
5574 Clouds 3 1018 74 10000 3.1 200 18:58 11.11.2020
5575 Clouds 2 1018 80 10000 3.6 220 18:40 11.11.2020
5576 Clouds 3 1018 74 10000 5.7 220 17:46 11.11.2020
5577 Clouds 3 1018 74 10000 5.7 220 17:27 11.11.2020
5578 Clouds 3 1018 69 10000 5.7 220 16:59 11.11.2020
5579 Clouds 3 1018 69 10000 5.7 230 16:38 11.11.2020
5580 Clouds 3 1019 69 10000 5.7 230 16:20 11.11.2020
5581 Clouds 2 1019 74 10000 5.7 220 15:41 11.11.2020
5582 Clouds 3 1019 74 10000 5.7 220 15:22 11.11.2020
5583 Clear 3 1019 69 10000 5.7 230 14:43 11.11.2020
5584 Clear 3 1019 69 10000 5.7 230 14:23 11.11.2020
5585 Clear 2 1019 69 10000 4.6 230 13:49 11.11.2020
5586 Clear 2 1019 74 10000 5.7 230 13:24 11.11.2020
5587 Clear 2 1019 69 10000 5.7 230 12:22 11.11.2020
5588 Clear 0 1019 71 10000 4.6 250 11:52 11.11.2020
5589 Clear 1 1019 74 10000 4.1 260 11:33 11.11.2020
5590 Clear 1 1019 80 10000 4.6 250 10:56 11.11.2020
5591 Clear 1 1020 74 10000 4.6 260 10:37 11.11.2020
5592 Clear 2 1019 64 10000 4.6 260 10:18 11.11.2020
5593 Clouds 2 1019 69 10000 5.1 250 09:42 11.11.2020
5594 Clouds 2 1019 69 10000 5.1 250 09:21 11.11.2020
5595 Clouds 2 1019 74 10000 5.1 250 08:43 11.11.2020
5596 Clouds 2 1019 74 10000 5.1 250 08:25 11.11.2020
5597 Clear 2 1020 74 10000 6.2 250 07:47 11.11.2020
5598 Clear 2 1020 74 10000 6.2 250 06:33 11.11.2020
5599 Clear 2 1021 80 10000 7.2 230 05:46 11.11.2020
5600 Clear 0 1022 92 10000 3.6 210 02:29 11.11.2020
5601 Clouds 0 1022 90 10000 1.5 200 00:58 11.11.2020
5602 Clouds 1 1023 80 10000 4.1 200 00:25 11.11.2020
5603 Clouds 1 1023 80 10000 4.6 200 23:42 10.11.2020
5604 Clouds 1 1023 80 10000 4.6 200 23:23 10.11.2020
5605 Clouds 1 1023 86 10000 5.1 200 22:51 10.11.2020
5606 Clouds 1 1023 86 10000 4.1 200 22:27 10.11.2020
5607 Clouds 1 1023 86 10000 4.1 220 21:42 10.11.2020
5608 Clouds 1 1024 89 10000 4.6 250 21:24 10.11.2020
5609 Clouds 1 1024 89 10000 4.6 250 20:58 10.11.2020
5610 Clouds 1 1024 86 10000 4.1 260 20:40 10.11.2020
5611 Clouds 1 1024 86 10000 3.1 260 20:22 10.11.2020
5612 Rain 2 1024 87 10000 4.6 270 19:47 10.11.2020
5613 Rain 2 1024 85 10000 4.6 270 19:28 10.11.2020
5614 Rain 2 1024 85 10000 4.1 290 18:57 10.11.2020
5615 Clouds 2 1024 84 10000 6.2 290 18:38 10.11.2020
5616 Clouds 2 1024 83 10000 6.7 280 18:18 10.11.2020
5617 Clouds 2 1024 83 10000 6.7 280 18:18 10.11.2020
5618 Clouds 2 1025 80 10000 7.7 290 17:42 10.11.2020
5619 Clouds 2 1025 80 10000 7.7 290 17:24 10.11.2020
5620 Clouds 2 1024 84 10000 8.7 290 16:43 10.11.2020
5621 Clouds 2 1024 84 10000 8.7 290 16:24 10.11.2020
5622 Rain 2 1025 80 10000 8.7 300 15:55 10.11.2020
5623 Rain 2 1025 74 10000 10.3 300 15:37 10.11.2020
5624 Clouds 2 1024 80 10000 11.3 300 15:19 10.11.2020
5625 Clouds 2 1024 80 10000 10.8 310 14:41 10.11.2020
5626 Clouds 2 1024 80 10000 10.8 310 14:20 10.11.2020
5627 Clouds 2 1024 74 10000 12.3 310 13:41 10.11.2020
5628 Clouds 2 1024 74 10000 12.3 310 13:22 10.11.2020
5629 Clouds 2 1024 74 10000 12.9 290 12:56 10.11.2020
5630 Clouds 2 1024 74 10000 11.8 300 12:38 10.11.2020
5631 Clouds 2 1024 69 10000 12.3 300 12:19 10.11.2020
5632 Clouds 2 1024 74 10000 13.4 300 11:38 10.11.2020
5633 Clouds 2 1024 69 10000 13.4 300 11:19 10.11.2020
5634 Clouds 2 1024 74 10000 15.4 310 10:42 10.11.2020
5635 Clouds 2 1024 74 10000 15.4 310 10:23 10.11.2020
5636 Rain 1 1024 86 10000 14.4 310 09:47 10.11.2020
5637 Clouds 2 1023 69 10000 15.4 310 09:26 10.11.2020
5638 Clouds 2 1023 74 10000 14.9 310 08:57 10.11.2020
5639 Clouds 2 1023 69 10000 15.9 310 08:30 10.11.2020
5640 Rain 2 1023 74 10000 10.8 330 07:47 10.11.2020
5641 Rain 2 1022 74 10000 13.9 320 07:26 10.11.2020
5642 Rain 1 1022 80 10000 15.4 310 06:47 10.11.2020
5643 Rain 1 1022 80 10000 15.4 310 06:23 10.11.2020
5644 Rain 1 1022 74 10000 14.4 310 05:27 10.11.2020
5645 Clouds 1 1021 74 10000 6.7 0 02:57 10.11.2020
5646 Clouds 2 1020 74 10000 6.2 0 01:38 10.11.2020
5647 Snow 1 1019 89 2500 3.6 0 00:24 10.11.2020
5648 Clouds 2 1018 80 1800 5.1 270 23:42 09.11.2020
5649 Rain 2 1018 80 3500 1 0 22:57 09.11.2020
5650 Rain 2 1018 80 10000 3.6 0 22:38 09.11.2020
5651 Rain 2 1017 80 10000 3.1 0 22:19 09.11.2020
5652 Rain 2 1017 88 10000 1 0 21:39 09.11.2020
5653 Rain 2 1017 88 10000 1 0 21:20 09.11.2020
5654 Snow 1 1016 88 1400 3.1 0 20:41 09.11.2020
5655 Clouds 1 1016 85 1400 3.1 0 20:21 09.11.2020
5656 Clouds 1 1015 85 10000 3.6 270 19:43 09.11.2020
5657 Clouds 1 1015 83 10000 3.6 270 19:23 09.11.2020
5658 Rain 1 1015 100 10000 2.6 0 18:56 09.11.2020
5659 Rain 1 1015 100 10000 2.6 0 18:56 09.11.2020
5660 Clouds 1 1015 100 10000 3.6 260 18:37 09.11.2020
5661 Rain 1 1014 100 4700 10.3 300 18:18 09.11.2020
5662 Rain 1 1014 84 4800 8.7 310 17:43 09.11.2020
5663 Rain 1 1014 83 4800 8.7 310 17:24 09.11.2020
5664 Snow 3 1013 69 10000 9.8 330 16:41 09.11.2020
5665 Rain 3 1013 69 10000 12.9 320 16:20 09.11.2020
5666 Rain 3 1013 69 10000 11.8 320 15:44 09.11.2020
5667 Rain 3 1013 69 10000 11.8 320 15:25 09.11.2020
5668 Rain 3 1012 69 10000 10.8 320 14:46 09.11.2020
5669 Rain 3 1012 69 10000 10.8 320 14:28 09.11.2020
5670 Rain 3 1012 64 10000 11.8 310 13:52 09.11.2020
5671 Clouds 3 1012 64 10000 11.8 310 13:25 09.11.2020
5672 Clouds 2 1012 69 10000 10.3 310 12:57 09.11.2020
5673 Rain 1 1012 80 10000 10.3 310 12:39 09.11.2020
5674 Rain 1 1011 80 10000 14.4 320 12:20 09.11.2020
5675 Rain 1 1011 86 10000 11.3 310 11:42 09.11.2020
5676 Rain 1 1011 86 10000 11.3 310 11:24 09.11.2020
5677 Rain 1 1011 86 10000 11.3 310 11:24 09.11.2020
5678 Rain 2 1009 74 10000 13.4 320 10:44 09.11.2020
5679 Rain 2 1009 74 10000 13.4 320 10:25 09.11.2020
5680 Rain 2 1008 74 10000 12.9 330 09:52 09.11.2020
5681 Rain 3 1008 69 10000 13.4 320 09:28 09.11.2020
5682 Rain 3 1007 69 10000 13.4 330 08:49 09.11.2020
5683 Rain 3 1006 85 10000 13.9 350 08:27 09.11.2020
5684 Clouds 2 1003 85 10000 11.3 10 07:43 09.11.2020
5685 Clouds 2 1003 85 10000 11.3 10 07:22 09.11.2020
5686 Clouds 2 1002 93 10000 11.8 20 06:48 09.11.2020
5687 Clouds 4 999 85 10000 18.5 300 03:51 09.11.2020
5688 Clouds 2 998 93 10000 13.4 270 01:57 09.11.2020
5689 Rain 3 998 93 7000 13.4 250 01:39 09.11.2020
5690 Rain 1 998 81 10000 8.7 220 00:35 09.11.2020
5691 Rain 1 999 95 10000 5.7 190 23:40 08.11.2020
5692 Rain 1 999 98 10000 5.7 190 23:22 08.11.2020
5693 Rain 1 1000 98 7000 5.1 180 22:42 08.11.2020
5694 Rain 1 1000 97 7000 5.1 180 22:21 08.11.2020
5695 Rain 1 1002 86 10000 5.1 180 21:43 08.11.2020
5696 Rain 1 1002 86 10000 2.6 210 21:20 08.11.2020
5697 Rain 1 1002 86 10000 2.6 210 20:56 08.11.2020
5698 Rain 1 1003 95 10000 1.5 0 20:37 08.11.2020
5699 Rain 1 1004 92 9000 5.7 200 20:19 08.11.2020
5700 Rain 1 1005 92 10000 6.2 230 19:43 08.11.2020
5701 Rain 1 1005 86 10000 6.2 230 19:21 08.11.2020
5702 Rain 1 1005 84 10000 4.6 260 18:49 08.11.2020
5703 Rain 1 1006 86 10000 6.7 280 18:22 08.11.2020
5704 Rain 1 1006 86 10000 6.7 280 17:59 08.11.2020
5705 Snow 2 1006 80 10000 10.3 290 17:41 08.11.2020
5706 Rain 2 1006 74 10000 12.9 300 17:20 08.11.2020
5707 Rain 2 1006 74 10000 12.9 300 16:57 08.11.2020
5708 Rain 2 1007 74 10000 12.3 300 16:37 08.11.2020
5709 Rain 1 1007 86 10000 11.8 300 16:18 08.11.2020
5710 Rain 1 1007 86 10000 8.7 300 15:44 08.11.2020
5711 Rain 2 1007 74 8000 13.4 300 15:25 08.11.2020
5712 Rain 2 1007 74 8000 13.4 300 14:42 08.11.2020
5713 Rain 2 1007 74 8000 13.4 300 14:23 08.11.2020
5714 Rain 2 1007 69 10000 16.5 300 13:50 08.11.2020
5715 Clouds 1 1007 86 10000 13.4 310 13:24 08.11.2020
5716 Clouds 1 1007 86 10000 13.4 310 13:24 08.11.2020
5717 Clouds 1 1007 80 10000 15.9 310 12:47 08.11.2020
5718 Clouds 2 1007 69 7000 14.9 300 12:29 08.11.2020
5719 Rain 1 1007 74 10000 15.9 300 11:59 08.11.2020
5720 Rain 2 1007 69 10000 18 310 11:41 08.11.2020
5721 Clouds 2 1007 69 10000 18 310 11:22 08.11.2020
5722 Rain 2 1006 74 10000 18 300 10:52 08.11.2020
5723 Clouds 2 1006 69 10000 20.6 310 10:20 08.11.2020
5724 Rain 1 1005 86 10000 19 310 09:59 08.11.2020
5725 Clouds 1 1005 91 5000 18.5 300 09:41 08.11.2020
5726 Clouds 2 1005 74 10000 19.5 310 09:18 08.11.2020
5727 Rain 1 1006 91 2000 16.5 290 08:42 08.11.2020
5728 Clouds 1 1006 91 2000 16.5 290 08:21 08.11.2020
5729 Clouds 1 1006 91 2000 16.5 290 08:21 08.11.2020
5730 Rain 1 1005 91 1300 17 290 07:53 08.11.2020
5731 Rain 1 1005 86 10000 17.5 300 07:30 08.11.2020
5732 Rain 2 1004 80 10000 15.4 310 06:27 08.11.2020
5733 Rain 1 1004 94 3300 19 300 05:54 08.11.2020
5734 Rain 2 1003 80 10000 21.1 310 04:50 08.11.2020
5735 Clouds 3 1000 74 10000 23.1 310 01:55 08.11.2020
5736 Rain 4 998 80 10000 26.2 310 01:19 08.11.2020
5737 Rain 4 997 80 10000 28.3 310 00:30 08.11.2020
5738 Clouds 3 997 93 6000 28.3 320 23:50 07.11.2020
5739 Rain 3 995 93 8000 8.7 270 23:31 07.11.2020
5740 Rain 3 995 93 8000 8.7 270 23:31 07.11.2020
5741 Rain 3 995 93 8000 8.7 270 23:31 07.11.2020
5742 Rain 3 995 93 5000 25.2 300 22:48 07.11.2020
5743 Rain 3 994 86 7000 9.3 260 22:28 07.11.2020
5744 Rain 3 994 89 10000 23.1 290 21:58 07.11.2020
5745 Rain 2 994 89 10000 26.2 290 21:39 07.11.2020
5746 Rain 1 995 95 6000 24.7 300 21:19 07.11.2020
5747 Rain 2 994 80 10000 19.5 300 20:45 07.11.2020
5748 Rain 2 994 80 10000 19.5 300 20:27 07.11.2020
5749 Rain 2 994 94 10000 21.1 300 19:48 07.11.2020
5750 Rain 1 994 86 10000 21.1 300 19:27 07.11.2020
5751 Rain 1 993 94 2700 22.6 290 18:45 07.11.2020
5752 Snow 1 993 93 2700 22.6 290 18:26 07.11.2020
5753 Rain 2 993 80 10000 19 300 17:53 07.11.2020
5754 Rain 2 992 80 10000 18.5 310 17:34 07.11.2020
5755 Rain 2 992 87 10000 19.5 300 16:54 07.11.2020
5756 Clouds 2 991 87 4000 20.6 300 16:36 07.11.2020
5757 Rain 2 990 93 10000 17.5 300 16:18 07.11.2020
5758 Rain 2 990 93 4000 20.6 290 15:41 07.11.2020
5759 Rain 1 989 100 5000 9.3 270 15:22 07.11.2020
5760 Rain 1 989 100 5000 9.3 270 14:45 07.11.2020
5761 Rain 1 989 100 5000 9.3 270 14:26 07.11.2020
5762 Rain 2 989 93 2000 24.7 300 13:55 07.11.2020
5763 Rain 4 988 74 10000 22.1 290 13:30 07.11.2020
5764 Rain 4 988 80 10000 14.9 270 12:52 07.11.2020
5765 Rain 4 987 74 10000 13.4 260 12:26 07.11.2020
5766 Rain 2 988 93 10000 13.4 250 11:45 07.11.2020
5767 Rain 2 988 93 10000 13.4 250 11:23 07.11.2020
5768 Rain 1 989 100 10000 5.7 230 10:46 07.11.2020
5769 Clouds 1 989 100 10000 5.7 230 10:27 07.11.2020
5770 Clouds 0 990 88 1000 4.6 220 09:54 07.11.2020
5771 Clouds 0 990 88 1500 5.7 240 09:36 07.11.2020
5772 Rain 2 990 93 8000 9.3 230 08:55 07.11.2020
5773 Rain 2 990 93 8000 9.3 230 08:36 07.11.2020
5774 Rain 2 990 93 8000 9.3 230 08:36 07.11.2020
5775 Rain 2 990 93 10000 12.3 250 07:55 07.11.2020
5776 Rain 3 990 86 10000 8.7 250 07:31 07.11.2020
5777 Rain 3 990 86 10000 12.9 260 06:47 07.11.2020
5778 Rain 3 992 86 10000 13.4 260 05:34 07.11.2020
5779 Rain 5 993 80 10000 15.9 260 03:24 07.11.2020
5780 Rain 5 993 75 10000 13.4 270 01:43 07.11.2020
5781 Rain 5 993 75 10000 13.4 270 01:24 07.11.2020
5782 Clouds 5 993 80 10000 15.9 300 00:22 07.11.2020
5783 Rain 4 992 86 10000 20.1 300 23:24 06.11.2020
5784 Clouds 5 991 80 10000 22.6 300 22:45 06.11.2020
5785 Clouds 5 991 80 10000 22.6 300 22:45 06.11.2020
5786 Rain 5 991 80 10000 22.6 300 22:20 06.11.2020
5787 Rain 5 990 86 10000 24.2 300 21:56 06.11.2020
5788 Rain 5 989 86 10000 22.1 300 21:37 06.11.2020
5789 Rain 5 988 86 10000 19.5 280 21:18 06.11.2020
5790 Clouds 6 987 81 9000 23.1 280 20:43 06.11.2020
5791 Clouds 6 987 81 10000 26.2 290 20:19 06.11.2020
5792 Rain 5 987 86 10000 24.2 280 19:45 06.11.2020
5793 Clouds 6 986 81 10000 19 270 19:26 06.11.2020
5794 Clouds 6 986 75 10000 18 280 18:47 06.11.2020
5795 Rain 6 986 75 10000 18 280 18:26 06.11.2020
5796 Rain 5 986 80 9000 16.5 270 17:52 06.11.2020
5797 Clouds 6 987 75 10000 21.6 270 17:31 06.11.2020
5798 Rain 5 987 80 10000 17.5 270 16:59 06.11.2020
5799 Rain 6 987 75 10000 14.9 270 16:33 06.11.2020
5800 Clouds 6 987 75 10000 14.9 270 15:55 06.11.2020
5801 Clouds 4 987 93 10000 12.3 250 15:33 06.11.2020
5802 Rain 3 987 93 9000 11.8 230 14:54 06.11.2020
5803 Rain 4 987 80 10000 11.3 210 14:29 06.11.2020
5804 Rain 3 987 92 10000 12.9 200 13:54 06.11.2020
5805 Rain 3 987 86 10000 15.4 190 13:26 06.11.2020
5806 Rain 3 988 89 10000 14.9 190 12:59 06.11.2020
5807 Rain 3 989 88 10000 12.9 190 12:40 06.11.2020
5808 Rain 3 989 91 10000 12.9 190 12:21 06.11.2020
5809 Rain 4 990 80 10000 9.8 190 11:37 06.11.2020
5810 Rain 3 991 86 10000 7.7 190 10:58 06.11.2020
5811 Rain 4 991 86 10000 4.6 220 10:35 06.11.2020
5812 Rain 4 992 80 10000 7.7 260 09:57 06.11.2020
5813 Rain 4 992 80 10000 7.2 260 09:38 06.11.2020
5814 Rain 4 992 80 10000 8.2 250 09:20 06.11.2020
5815 Rain 4 992 80 10000 8.2 250 08:47 06.11.2020
5816 Rain 3 993 86 10000 12.9 290 08:27 06.11.2020
5817 Rain 4 993 80 10000 13.9 290 07:42 06.11.2020
5818 Rain 4 993 80 10000 15.4 280 07:19 06.11.2020
5819 Rain 4 993 86 10000 18.5 290 06:40 06.11.2020
5820 Clouds 4 992 86 10000 18 290 05:38 06.11.2020
5821 Rain 5 989 80 10000 16.5 310 02:00 06.11.2020
5822 Rain 6 985 87 10000 13.4 330 00:29 06.11.2020
5823 Rain 5 984 93 10000 15.4 320 23:51 05.11.2020
5824 Rain 5 983 86 10000 18.5 310 23:24 05.11.2020
5825 Clouds 5 981 93 9000 19.5 300 22:48 05.11.2020
5826 Clouds 5 980 86 10000 18 280 22:26 05.11.2020
5827 Rain 5 980 86 10000 18 280 21:57 05.11.2020
5828 Rain 5 979 80 10000 15.9 290 21:38 05.11.2020
5829 Rain 4 979 93 9000 14.9 290 21:19 05.11.2020
5830 Clouds 4 978 86 10000 13.4 270 20:43 05.11.2020
5831 Rain 4 978 86 10000 13.4 270 20:24 05.11.2020
5832 Rain 4 978 86 10000 13.4 270 20:24 05.11.2020
5833 Rain 4 977 86 10000 11.8 270 19:45 05.11.2020
5834 Rain 4 977 86 10000 11.8 270 19:27 05.11.2020
5835 Rain 5 977 80 10000 11.8 270 18:58 05.11.2020
5836 Rain 4 976 86 10000 11.3 270 18:39 05.11.2020
5837 Rain 4 976 86 10000 9.8 280 18:21 05.11.2020
5838 Clouds 4 975 86 10000 9.8 260 17:45 05.11.2020
5839 Rain 4 975 86 10000 11.3 270 17:25 05.11.2020
5840 Rain 4 974 86 10000 11.3 280 16:48 05.11.2020
5841 Rain 4 974 86 10000 11.3 280 16:28 05.11.2020
5842 Clouds 4 974 86 10000 12.9 270 15:53 05.11.2020
5843 Rain 4 974 86 10000 13.4 270 15:27 05.11.2020
5844 Rain 4 973 86 10000 14.4 270 14:57 05.11.2020
5845 Clouds 4 973 86 10000 13.4 260 14:39 05.11.2020
5846 Rain 4 973 86 10000 13.4 260 14:20 05.11.2020
5847 Clouds 4 972 86 10000 10.8 270 13:40 05.11.2020
5848 Clouds 4 972 86 10000 8.7 270 13:18 05.11.2020
5849 Clouds 4 972 86 10000 7.7 260 12:41 05.11.2020
5850 Rain 3 971 93 10000 8.2 260 12:22 05.11.2020
5851 Clouds 4 971 86 10000 6.2 270 11:42 05.11.2020
5852 Clouds 4 971 86 10000 6.2 270 11:22 05.11.2020
5853 Rain 4 971 86 10000 7.7 250 10:48 05.11.2020
5854 Rain 4 971 86 10000 7.7 250 10:26 05.11.2020
5855 Rain 3 970 86 10000 7.2 240 09:49 05.11.2020
5856 Rain 3 971 86 10000 9.3 200 09:25 05.11.2020
5857 Rain 3 971 86 10000 9.3 190 08:51 05.11.2020
5858 Rain 3 971 86 10000 9.3 190 08:32 05.11.2020
5859 Rain 3 972 86 10000 9.8 190 07:58 05.11.2020
5860 Clouds 3 972 86 10000 9.3 190 07:28 05.11.2020
5861 Rain 3 973 86 10000 10.8 180 06:50 05.11.2020
5862 Rain 4 974 80 10000 11.8 180 06:32 05.11.2020
5863 Clouds 5 979 60 10000 10.8 190 03:45 05.11.2020
5864 Rain 5 983 60 10000 8.7 190 00:38 05.11.2020
5865 Clouds 5 984 60 10000 8.2 190 00:18 05.11.2020
5866 Clouds 4 985 64 10000 8.2 200 23:36 04.11.2020
5867 Drizzle 5 985 65 10000 9.3 200 23:18 04.11.2020
5868 Clouds 5 985 60 10000 8.2 190 22:41 04.11.2020
5869 Clouds 5 985 60 10000 8.2 190 22:21 04.11.2020
5870 Clouds 5 986 65 10000 8.2 200 21:47 04.11.2020
5871 Clouds 5 986 65 10000 8.2 200 21:47 04.11.2020
5872 Clouds 5 986 65 10000 8.7 200 21:27 04.11.2020
5873 Rain 5 986 65 10000 8.7 200 20:54 04.11.2020
5874 Clear 5 987 65 10000 8.7 200 20:35 04.11.2020
5875 Clear 5 987 65 10000 8.7 200 20:35 04.11.2020
5876 Clear 5 987 65 10000 9.8 200 19:59 04.11.2020
5877 Clouds 5 987 65 10000 7.2 190 19:40 04.11.2020
5878 Clouds 5 987 65 10000 7.2 190 19:22 04.11.2020
5879 Clear 5 988 65 10000 8.2 200 18:41 04.11.2020
5880 Clear 5 988 65 10000 8.2 200 18:23 04.11.2020
5881 Clear 4 989 69 10000 6.7 190 17:48 04.11.2020
5882 Clear 4 989 69 10000 6.7 190 17:27 04.11.2020
5883 Clear 4 989 69 10000 6.7 190 17:27 04.11.2020
5884 Clear 5 989 65 10000 6.7 200 16:56 04.11.2020
5885 Clear 5 989 65 10000 6.2 200 16:36 04.11.2020
5886 Clear 4 990 69 10000 6.2 200 16:18 04.11.2020
5887 Clear 4 990 69 10000 7.2 210 15:42 04.11.2020
5888 Clear 4 990 69 10000 7.2 210 15:23 04.11.2020
5889 Clouds 4 990 77 10000 6.2 200 14:46 04.11.2020
5890 Clouds 4 990 75 10000 6.2 200 14:25 04.11.2020
5891 Rain 5 990 75 10000 5.7 210 13:52 04.11.2020
5892 Clear 5 990 74 10000 6.7 220 13:22 04.11.2020
5893 Clouds 5 991 65 10000 7.7 210 12:59 04.11.2020
5894 Clouds 5 991 65 10000 7.7 210 12:59 04.11.2020
5895 Clear 5 990 60 10000 7.7 200 12:41 04.11.2020
5896 Clear 5 990 60 10000 7.7 200 12:22 04.11.2020
5897 Rain 5 991 56 10000 4.6 190 11:46 04.11.2020
5898 Clear 5 991 56 10000 4.6 190 11:23 04.11.2020
5899 Rain 6 991 56 10000 4.1 190 10:51 04.11.2020
5900 Clear 5 991 60 10000 5.7 210 10:24 04.11.2020
5901 Clear 5 991 60 10000 5.7 210 10:24 04.11.2020
5902 Clear 5 991 60 10000 5.7 200 09:56 04.11.2020
5903 Clear 4 991 64 10000 4.1 190 09:29 04.11.2020
5904 Clear 5 991 60 10000 6.7 200 08:58 04.11.2020
5905 Clear 5 991 60 10000 7.7 200 08:39 04.11.2020
5906 Clear 5 991 60 10000 7.2 200 08:18 04.11.2020
5907 Clear 5 991 60 10000 7.2 200 08:18 04.11.2020
5908 Clear 5 991 60 10000 6.2 190 07:40 04.11.2020
5909 Clear 5 991 60 10000 6.2 190 07:21 04.11.2020
5910 Clear 5 991 60 10000 8.2 200 06:40 04.11.2020
5911 Clear 5 991 65 10000 8.7 200 05:24 04.11.2020
5912 Clouds 5 991 72 10000 8.7 220 02:31 04.11.2020
5913 Rain 6 991 73 10000 8.2 210 01:39 04.11.2020
5914 Clouds 6 991 75 10000 7.7 240 00:25 04.11.2020
5915 Clouds 6 991 75 10000 7.7 260 23:30 03.11.2020
5916 Clouds 7 991 65 10000 8.7 250 22:58 03.11.2020
5917 Clouds 7 990 70 10000 8.7 260 22:39 03.11.2020
5918 Clouds 7 990 70 10000 8.7 260 22:19 03.11.2020
5919 Clouds 7 990 65 10000 9.3 260 21:43 03.11.2020
5920 Clouds 7 990 65 10000 9.3 260 21:25 03.11.2020
5921 Rain 6 990 75 10000 8.7 260 20:49 03.11.2020
5922 Clouds 7 989 70 10000 11.3 270 20:27 03.11.2020
5923 Rain 7 989 65 10000 16.5 270 19:57 03.11.2020
5924 Rain 7 988 65 10000 14.4 270 19:38 03.11.2020
5925 Clouds 7 988 65 10000 16.5 270 19:19 03.11.2020
5926 Rain 7 988 65 10000 15.9 270 18:41 03.11.2020
5927 Rain 6 987 75 10000 15.9 260 18:19 03.11.2020
5928 Rain 6 987 75 10000 15.9 260 17:53 03.11.2020
5929 Clouds 6 987 75 10000 18.5 270 17:34 03.11.2020
5930 Rain 7 986 70 10000 17.5 270 16:52 03.11.2020
5931 Rain 7 986 70 10000 18.5 270 16:31 03.11.2020
5932 Rain 7 986 70 10000 18 270 15:59 03.11.2020
5933 Rain 6 985 75 10000 20.1 270 15:40 03.11.2020
5934 Rain 7 985 70 10000 20.1 270 15:20 03.11.2020
5935 Clouds 7 984 70 10000 19.5 270 14:45 03.11.2020
5936 Clouds 7 984 70 10000 19.5 270 14:27 03.11.2020
5937 Rain 7 983 75 10000 19 270 13:42 03.11.2020
5938 Clouds 7 983 75 10000 19 270 13:22 03.11.2020
5939 Rain 7 982 81 10000 21.1 270 12:48 03.11.2020
5940 Clouds 6 981 93 10000 22.1 270 12:27 03.11.2020
5941 Rain 7 980 81 9000 20.6 270 11:55 03.11.2020
5942 Rain 7 979 87 10000 16.5 270 11:36 03.11.2020
5943 Rain 7 979 87 10000 18.5 280 11:18 03.11.2020
5944 Rain 7 978 81 10000 17 270 10:38 03.11.2020
5945 Rain 6 977 87 10000 15.4 270 10:19 03.11.2020
5946 Rain 5 977 100 9000 12.9 260 09:47 03.11.2020
5947 Rain 5 977 100 9000 12.9 260 09:26 03.11.2020
5948 Rain 6 976 87 7000 13.4 260 08:51 03.11.2020
5949 Rain 6 976 87 10000 10.8 250 08:33 03.11.2020
5950 Rain 6 975 87 10000 11.3 250 07:49 03.11.2020
5951 Rain 5 974 80 10000 7.2 210 07:22 03.11.2020
5952 Rain 5 974 80 10000 6.7 240 06:43 03.11.2020
5953 Rain 4 972 80 10000 5.1 230 04:40 03.11.2020
5954 Clouds 4 972 92 10000 11.3 180 00:53 03.11.2020
5955 Clouds 5 972 92 10000 13.4 170 00:30 03.11.2020
5956 Clouds 5 974 90 10000 15.4 160 23:47 02.11.2020
5957 Clouds 5 974 89 10000 15.4 160 23:28 02.11.2020
5958 Clouds 5 974 89 10000 18 160 22:48 02.11.2020
5959 Clouds 5 975 89 10000 19 160 22:30 02.11.2020
5960 Clouds 5 975 89 10000 19 160 22:30 02.11.2020
5961 Clouds 5 976 90 10000 19 160 21:58 02.11.2020
5962 Clouds 5 976 90 10000 19 160 21:37 02.11.2020
5963 Clouds 5 977 89 10000 19 170 21:19 02.11.2020
5964 Clouds 5 978 75 10000 18.5 160 20:39 02.11.2020
5965 Clouds 5 978 75 10000 18.5 160 20:20 02.11.2020
5966 Clouds 6 979 70 10000 21.1 160 19:45 02.11.2020
5967 Clouds 6 979 70 10000 21.1 160 19:27 02.11.2020
5968 Clouds 6 980 70 10000 20.1 160 18:55 02.11.2020
5969 Clouds 6 981 70 10000 18.5 160 18:37 02.11.2020
5970 Clouds 6 982 70 10000 21.6 160 18:19 02.11.2020
5971 Clouds 6 982 75 10000 17 170 17:41 02.11.2020
5972 Clouds 6 982 75 10000 17 170 17:23 02.11.2020
5973 Clouds 6 984 75 10000 15.4 170 16:49 02.11.2020
5974 Clouds 6 984 75 10000 15.4 170 16:29 02.11.2020
5975 Clouds 7 985 75 10000 14.9 180 15:57 02.11.2020
5976 Rain 7 984 70 10000 19.5 190 15:38 02.11.2020
5977 Rain 7 984 70 10000 19.5 190 15:38 02.11.2020
5978 Rain 7 985 70 10000 24.7 190 15:19 02.11.2020
5979 Rain 7 986 75 10000 24.2 190 14:43 02.11.2020
5980 Rain 7 986 75 10000 21.6 190 14:19 02.11.2020
5981 Rain 7 986 75 10000 21.6 190 13:48 02.11.2020
5982 Clouds 7 987 75 10000 24.2 180 13:22 02.11.2020
5983 Clouds 6 987 81 10000 22.1 180 12:50 02.11.2020
5984 Clouds 6 988 75 10000 24.2 180 12:27 02.11.2020
5985 Clouds 6 989 75 10000 19.5 180 11:46 02.11.2020
5986 Clouds 6 989 75 10000 18.5 180 11:20 02.11.2020
5987 Clouds 6 989 75 10000 18.5 180 10:48 02.11.2020
5988 Clouds 6 990 75 10000 19.5 180 10:26 02.11.2020
5989 Clouds 6 990 75 10000 17 190 09:56 02.11.2020
5990 Clouds 6 989 81 10000 20.1 170 09:30 02.11.2020
5991 Clouds 6 990 75 10000 14.4 200 08:59 02.11.2020
5992 Clouds 6 990 75 10000 18 190 08:38 02.11.2020
5993 Clouds 6 991 75 10000 17.5 190 08:19 02.11.2020
5994 Clouds 6 991 81 10000 24.2 190 07:39 02.11.2020
5995 Clouds 6 992 81 10000 23.1 190 06:45 02.11.2020
5996 Clouds 7 992 75 10000 13.9 190 05:22 02.11.2020
5997 Clouds 6 996 75 10000 12.3 190 01:34 02.11.2020
5998 Clear 6 997 75 10000 9.3 150 00:39 02.11.2020
5999 Clear 5 998 75 10000 8.2 170 00:20 02.11.2020
6000 Clear 5 999 85 10000 7.2 150 23:39 01.11.2020
6001 Clear 5 999 84 10000 7.2 150 23:21 01.11.2020
6002 Clear 4 1000 69 10000 3.1 180 22:43 01.11.2020
6003 Clear 4 1000 69 10000 3.1 180 22:22 01.11.2020
6004 Clear 4 1000 69 10000 5.1 200 21:43 01.11.2020
6005 Clear 4 1000 69 10000 5.1 200 21:25 01.11.2020
6006 Clear 5 1000 81 10000 8.2 220 20:50 01.11.2020
6007 Clear 5 1000 80 10000 5.7 210 20:28 01.11.2020
6008 Clear 4 1000 80 10000 7.7 220 19:56 01.11.2020
6009 Clear 4 1000 80 10000 6.2 210 19:37 01.11.2020
6010 Clear 4 1000 80 10000 6.2 210 19:19 01.11.2020
6011 Clear 4 1001 80 10000 6.2 210 18:40 01.11.2020
6012 Clear 4 1001 80 10000 6.2 210 18:40 01.11.2020
6013 Clear 4 1001 80 10000 7.7 210 18:19 01.11.2020
6014 Clear 4 1001 80 10000 7.7 210 18:19 01.11.2020
6015 Clear 5 1000 80 10000 4.6 190 17:47 01.11.2020
6016 Clear 5 1000 80 10000 4.6 190 17:29 01.11.2020
6017 Clear 4 1001 80 10000 9.3 200 16:59 01.11.2020
6018 Clear 4 1001 80 10000 10.3 190 16:39 01.11.2020
6019 Clear 4 1001 79 10000 11.8 190 16:18 01.11.2020
6020 Clear 4 1001 79 10000 13.9 190 15:39 01.11.2020
6021 Clear 4 1001 79 10000 13.9 190 15:21 01.11.2020
6022 Clear 4 1001 80 10000 15.9 190 14:48 01.11.2020
6023 Clear 4 1001 79 10000 18 190 14:24 01.11.2020
6024 Clouds 4 1001 79 10000 18 190 13:59 01.11.2020
6025 Clouds 4 1001 79 10000 19 190 13:40 01.11.2020
6026 Clouds 4 1001 79 10000 19 190 13:40 01.11.2020
6027 Clouds 4 1001 80 10000 19 190 13:22 01.11.2020
6028 Clouds 2 1003 74 10000 16.5 180 12:43 01.11.2020
6029 Clouds 2 1003 74 10000 16.5 180 12:22 01.11.2020
6030 Clouds 2 1004 74 10000 17 190 11:49 01.11.2020
6031 Clouds 2 1005 74 10000 15.9 190 11:19 01.11.2020
6032 Clouds 2 1006 74 10000 13.9 190 10:43 01.11.2020
6033 Clouds 2 1006 69 10000 12.9 190 10:24 01.11.2020
6034 Clouds 2 1006 69 10000 12.9 190 09:53 01.11.2020
6035 Clouds 2 1006 69 10000 11.3 190 09:34 01.11.2020
6036 Clouds 3 1007 64 10000 12.9 190 08:46 01.11.2020
6037 Clouds 4 1007 60 10000 12.3 190 08:19 01.11.2020
6038 Clouds 3 1008 69 10000 9.3 190 07:35 01.11.2020
6039 Clear 4 1011 69 10000 3.6 190 03:26 01.11.2020
6040 Clear 4 1012 69 10000 7.7 200 01:47 01.11.2020
6041 Clouds 3 1012 74 10000 7.2 210 00:23 01.11.2020
6042 Clouds 4 1012 78 10000 6.7 210 23:25 31.10.2020
6043 Rain 4 1012 78 10000 8.2 220 22:56 31.10.2020
6044 Rain 4 1012 78 10000 8.7 230 22:36 31.10.2020
6045 Clouds 4 1012 79 10000 9.3 230 22:18 31.10.2020
6046 Rain 4 1012 80 10000 8.7 230 21:43 31.10.2020
6047 Clouds 4 1012 80 10000 7.2 220 21:18 31.10.2020
6048 Clouds 4 1012 80 10000 8.7 230 20:38 31.10.2020
6049 Clouds 3 1012 86 10000 9.3 230 20:18 31.10.2020
6050 Clouds 4 1012 81 10000 9.3 230 19:40 31.10.2020
6051 Clouds 4 1012 81 10000 9.3 230 19:20 31.10.2020
6052 Clouds 4 1012 81 10000 6.2 220 18:47 31.10.2020
6053 Clouds 4 1012 82 10000 6.2 220 18:24 31.10.2020
6054 Clouds 3 1012 74 10000 6.7 220 17:40 31.10.2020
6055 Clouds 3 1012 74 10000 6.7 220 17:22 31.10.2020
6056 Clouds 2 1012 80 10000 6.7 220 16:44 31.10.2020
6057 Clouds 2 1012 80 10000 6.7 220 16:25 31.10.2020
6058 Clouds 2 1011 64 10000 7.7 220 15:45 31.10.2020
6059 Clouds 1 1012 69 10000 8.2 210 15:25 31.10.2020
6060 Clouds 1 1012 69 10000 8.2 210 14:51 31.10.2020
6061 Clouds 1 1011 69 10000 6.2 220 14:31 31.10.2020
6062 Rain 1 1011 64 10000 6.7 210 13:50 31.10.2020
6063 Snow 0 1011 92 10000 4.6 200 13:27 31.10.2020
6064 Rain -1 1011 68 10000 6.2 200 12:43 31.10.2020
6065 Clear 0 1010 92 10000 5.1 210 12:18 31.10.2020
6066 Clear 0 1010 92 10000 5.1 220 11:39 31.10.2020
6067 Clear 0 1010 93 10000 5.1 220 11:20 31.10.2020
6068 Clear -1 1010 68 10000 5.1 210 10:37 31.10.2020
6069 Clear -2 1010 68 10000 8.2 210 09:48 31.10.2020
6070 Clear -2 1010 68 10000 9.3 190 09:29 31.10.2020
6071 Clear -1 1010 68 10000 11.3 190 08:52 31.10.2020
6072 Clear -1 1010 68 10000 13.9 190 08:20 31.10.2020
6073 Clear -1 1010 63 10000 15.4 190 07:28 31.10.2020
6074 Clouds -1 1010 63 10000 14.4 190 06:47 31.10.2020
6075 Clouds -1 1011 63 10000 18.5 190 06:29 31.10.2020
6076 Clear -1 1013 63 10000 13.9 150 03:47 31.10.2020
6077 Clouds 0 1014 93 10000 9.8 150 02:20 31.10.2020
6078 Clouds 1 1015 64 10000 3.6 150 00:51 31.10.2020
6079 Clouds 0 1015 93 10000 2.1 140 23:54 30.10.2020
6080 Clouds 1 1016 69 10000 2.1 80 23:29 30.10.2020
6081 Clouds 0 1016 94 10000 2.6 20 22:59 30.10.2020
6082 Clouds 0 1015 94 10000 3.1 350 22:37 30.10.2020
6083 Clouds 1 1015 64 10000 2.6 350 22:18 30.10.2020
6084 Clouds 1 1015 64 10000 2.6 350 22:18 30.10.2020
6085 Clouds 1 1015 69 10000 1.5 0 21:42 30.10.2020
6086 Clouds 1 1015 69 10000 1.5 0 21:22 30.10.2020
6087 Clouds 1 1015 59 10000 5.7 350 20:45 30.10.2020
6088 Clouds 1 1015 59 10000 5.7 350 20:26 30.10.2020
6089 Clouds 1 1015 64 10000 7.2 350 19:56 30.10.2020
6090 Clouds 1 1015 59 10000 6.7 350 19:22 30.10.2020
6091 Clouds 1 1015 64 10000 7.2 340 18:59 30.10.2020
6092 Clouds 1 1015 64 10000 7.2 340 18:59 30.10.2020
6093 Clouds 1 1015 64 10000 7.7 320 18:41 30.10.2020
6094 Clouds 1 1015 64 10000 7.7 320 18:22 30.10.2020
6095 Clouds 1 1015 59 10000 9.3 320 17:43 30.10.2020
6096 Clouds 1 1014 64 10000 9.8 340 17:20 30.10.2020
6097 Clouds 1 1014 64 10000 9.8 340 16:50 30.10.2020
6098 Clouds 1 1014 64 10000 9.3 320 16:24 30.10.2020
6099 Clouds 1 1014 69 10000 9.8 320 15:42 30.10.2020
6100 Clouds 1 1014 69 10000 9.8 320 15:24 30.10.2020
6101 Clouds 1 1014 64 10000 10.3 320 14:58 30.10.2020
6102 Clouds 1 1013 59 10000 10.3 330 14:39 30.10.2020
6103 Rain 1 1013 59 10000 14.4 330 14:21 30.10.2020
6104 Rain 1 1013 59 10000 10.3 330 14:21 30.10.2020
6105 Rain 1 1012 64 10000 13.4 340 13:41 30.10.2020
6106 Rain 1 1012 59 10000 15.4 340 13:20 30.10.2020
6107 Clouds 1 1012 69 10000 10.3 330 12:43 30.10.2020
6108 Clouds 1 1012 69 10000 10.3 330 12:22 30.10.2020
6109 Snow 1 1011 74 10000 12.3 330 11:46 30.10.2020
6110 Snow 1 1011 74 10000 12.3 330 11:20 30.10.2020
6111 Snow 0 1011 93 10000 12.3 330 10:50 30.10.2020
6112 Rain 1 1010 74 10000 15.4 320 10:25 30.10.2020
6113 Rain 1 1010 74 8000 14.4 340 09:47 30.10.2020
6114 Rain 1 1009 69 10000 14.9 340 09:24 30.10.2020
6115 Rain 1 1009 69 10000 15.4 340 08:55 30.10.2020
6116 Rain 1 1008 64 10000 13.9 330 08:31 30.10.2020
6117 Rain 2 1008 51 10000 14.4 320 07:52 30.10.2020
6118 Rain 2 1007 59 10000 14.4 320 07:33 30.10.2020
6119 Clouds 1 1006 69 10000 11.8 330 06:49 30.10.2020
6120 Clouds 0 1005 93 10000 13.9 310 05:39 30.10.2020
6121 Clouds 1 1003 80 7000 11.8 330 02:41 30.10.2020
6122 Rain 1 1002 86 10000 13.9 340 01:18 30.10.2020
6123 Rain 1 1000 74 10000 10.8 310 23:58 29.10.2020
6124 Rain 1 1000 69 10000 12.9 310 23:40 29.10.2020
6125 Clouds 1 1000 69 10000 12.9 310 23:21 29.10.2020
6126 Rain 2 999 64 10000 15.4 320 22:43 29.10.2020
6127 Rain 2 999 64 10000 15.4 320 22:24 29.10.2020
6128 Rain 2 998 64 10000 12.9 330 21:43 29.10.2020
6129 Rain 2 998 64 10000 12.9 330 21:21 29.10.2020
6130 Rain 2 998 64 10000 12.9 330 21:21 29.10.2020
6131 Clouds 0 997 87 5000 12.9 350 20:42 29.10.2020
6132 Rain 1 997 86 3500 17 350 20:20 29.10.2020
6133 Rain 1 997 86 3500 17 350 19:54 29.10.2020
6134 Rain 1 996 86 2500 2.6 340 19:36 29.10.2020
6135 Rain 1 996 86 2500 2.6 340 19:18 29.10.2020
6136 Snow 0 995 86 4500 2.1 320 18:41 29.10.2020
6137 Snow 0 995 85 8000 3.1 10 18:21 29.10.2020
6138 Snow 0 995 85 8000 3.1 10 17:42 29.10.2020
6139 Rain 1 994 87 10000 10.3 250 17:21 29.10.2020
6140 Rain 1 994 87 5000 7.2 240 16:48 29.10.2020
6141 Clouds 1 994 86 10000 7.7 300 16:22 29.10.2020
6142 Rain 1 994 86 10000 7.7 300 15:57 29.10.2020
6143 Rain 2 994 74 4000 9.8 300 15:38 29.10.2020
6144 Rain 2 994 74 4000 9.8 300 15:20 29.10.2020
6145 Rain 3 993 64 10000 10.3 300 14:46 29.10.2020
6146 Clouds 3 993 64 10000 10.3 300 14:24 29.10.2020
6147 Clouds 2 993 69 10000 10.8 300 13:49 29.10.2020
6148 Clouds 2 993 69 10000 11.3 300 13:28 29.10.2020
6149 Clouds 2 992 74 10000 11.8 330 12:59 29.10.2020
6150 Clouds 2 992 74 10000 11.8 330 12:39 29.10.2020
6151 Rain 2 992 80 10000 10.3 330 12:19 29.10.2020
6152 Rain 1 992 87 10000 9.3 350 11:44 29.10.2020
6153 Rain 1 992 90 10000 9.3 350 11:24 29.10.2020
6154 Rain 2 991 90 5000 11.3 340 10:37 29.10.2020
6155 Rain 2 991 93 10000 12.3 350 10:19 29.10.2020
6156 Rain 2 991 93 10000 12.3 350 09:51 29.10.2020
6157 Rain 2 991 93 10000 14.9 350 09:28 29.10.2020
6158 Clouds 2 990 100 6000 13.9 340 08:55 29.10.2020
6159 Drizzle 3 990 86 8000 11.3 340 08:31 29.10.2020
6160 Clouds 3 990 93 10000 9.3 320 07:53 29.10.2020
6161 Clouds 3 990 86 10000 8.2 320 07:35 29.10.2020
6162 Clouds 3 989 93 10000 9.8 270 06:56 29.10.2020
6163 Rain 2 990 93 10000 5.7 240 04:51 29.10.2020
6164 Clouds 2 991 87 10000 3.6 200 02:59 29.10.2020
6165 Clouds 2 993 85 10000 3.25 215 00:57 29.10.2020
6166 Clouds 3 993 82 10000 2.89 216 00:31 29.10.2020
6167 Clouds 3 994 81 10000 2.53 216 23:46 28.10.2020
6168 Clouds 3 994 80 10000 2.46 211 23:21 28.10.2020
6169 Clouds 2 992 93 10000 1 170 22:44 28.10.2020
6170 Clouds 2 992 93 10000 1 170 22:26 28.10.2020
6171 Clouds 2 992 93 10000 1 170 21:58 28.10.2020
6172 Clouds 2 992 93 10000 1 170 21:40 28.10.2020
6173 Clouds 2 992 93 10000 0.5 170 21:19 28.10.2020
6174 Clouds 2 992 93 10000 3.07 191 20:41 28.10.2020
6175 Clouds 2 992 93 10000 3.11 191 20:22 28.10.2020
6176 Clouds 2 992 93 10000 1.5 340 19:50 28.10.2020
6177 Clouds 2 993 93 10000 0.5 280 19:28 28.10.2020
6178 Clouds 2 993 93 10000 1.5 260 18:47 28.10.2020
6179 Clouds 2 993 93 10000 1.5 260 18:21 28.10.2020
6180 Clouds 2 992 93 10000 1 290 17:45 28.10.2020
6181 Clouds 2 992 93 10000 1 290 17:25 28.10.2020
6182 Drizzle 2 992 100 10000 1 290 16:57 28.10.2020
6183 Clouds 2 992 100 10000 2.6 270 16:38 28.10.2020
6184 Clouds 3 992 86 10000 2.6 290 16:20 28.10.2020
6185 Clouds 2 992 100 10000 2.6 280 15:37 28.10.2020
6186 Clouds 4 994 82 10000 2.64 210 15:18 28.10.2020
6187 Clouds 3 992 93 10000 2.6 280 14:42 28.10.2020
6188 Clouds 3 992 93 10000 2.6 280 14:22 28.10.2020
6189 Rain 4 993 83 10000 3.14 218 12:42 28.10.2020
6190 Clouds 4 993 81 10000 3.69 207 12:22 28.10.2020
6191 Clouds 4 993 81 10000 3.69 207 11:56 28.10.2020
6192 Clouds 4 993 81 10000 3.69 207 11:36 28.10.2020
6193 Clouds 4 993 82 10000 4.16 206 11:18 28.10.2020
6194 Clouds 2 991 93 10000 3.1 210 10:44 28.10.2020
6195 Clouds 2 991 93 10000 3.1 210 10:26 28.10.2020
6196 Clouds 2 991 93 10000 3.6 220 09:43 28.10.2020
6197 Clouds 2 991 93 10000 3.6 220 09:23 28.10.2020
6198 Clouds 2 991 93 10000 4.6 240 08:50 28.10.2020
6199 Clouds 2 991 93 10000 4.6 240 08:30 28.10.2020
6200 Clouds 2 991 93 10000 3.6 240 07:53 28.10.2020
6201 Clouds 2 991 93 10000 4.1 250 07:31 28.10.2020
6202 Clouds 3 991 93 10000 5.1 260 06:54 28.10.2020
6203 Clouds 2 991 100 10000 4.1 250 06:36 28.10.2020
6204 Clouds 1 991 100 10000 3.6 260 05:22 28.10.2020
6205 Clouds 1 991 78 10000 4.6 270 04:30 28.10.2020
6206 Clear 1 991 78 10000 4.1 260 03:31 28.10.2020
6207 Clear 0 990 78 10000 5.7 260 01:55 28.10.2020
6208 Clear 0 990 78 10000 4.6 250 00:33 28.10.2020
6209 Clear 0 990 80 10000 3.6 260 23:47 27.10.2020
6210 Clear 0 990 83 10000 3.6 260 23:21 27.10.2020
6211 Clear 1 990 80 10000 3.6 200 22:44 27.10.2020
6212 Clear 1 990 80 10000 3.6 200 22:19 27.10.2020
6213 Clear 1 991 86 10000 3.1 220 21:57 27.10.2020
6214 Clear 1 991 86 10000 3.1 220 21:57 27.10.2020
6215 Clear 1 991 80 10000 3.1 250 21:37 27.10.2020
6216 Clear 1 991 80 10000 3.1 250 21:19 27.10.2020
6217 Clear 0 991 88 10000 1 0 20:50 27.10.2020
6218 Clear 0 991 89 10000 3.7 187 20:24 27.10.2020
6219 Clear 0 992 89 10000 1.5 120 19:57 27.10.2020
6220 Clouds 0 992 89 10000 2.1 80 19:37 27.10.2020
6221 Clouds 0 992 89 10000 2.1 80 19:18 27.10.2020
6222 Clear -1 993 86 10000 1.5 150 18:44 27.10.2020
6223 Clear -1 993 86 10000 1.5 150 18:24 27.10.2020
6224 Clear 0 993 87 10000 1 0 17:59 27.10.2020
6225 Clear 0 993 87 10000 2.6 200 17:40 27.10.2020
6226 Clear 1 994 74 10000 3.1 210 17:19 27.10.2020
6227 Clear 2 994 74 10000 2.6 200 16:42 27.10.2020
6228 Clear 2 994 74 10000 2.6 200 16:23 27.10.2020
6229 Clear 2 995 74 10000 1.5 220 15:42 27.10.2020
6230 Clear 2 995 74 10000 1.5 220 15:24 27.10.2020
6231 Clear 3 995 74 10000 0.5 0 14:50 27.10.2020
6232 Clear 2 995 74 10000 2.6 190 14:30 27.10.2020
6233 Clear 4 995 64 10000 2.1 180 13:58 27.10.2020
6234 Clear 3 995 69 10000 2.1 180 13:29 27.10.2020
6235 Clear 4 996 69 10000 4.1 200 12:46 27.10.2020
6236 Clear 4 996 69 10000 4.1 200 12:27 27.10.2020
6237 Clear 5 996 65 10000 4.1 200 11:59 27.10.2020
6238 Clear 4 996 64 10000 5.1 200 11:41 27.10.2020
6239 Clear 4 996 64 10000 5.1 200 11:21 27.10.2020
6240 Clear 2 996 74 10000 5.1 200 10:44 27.10.2020
6241 Clear 2 996 74 10000 5.1 200 10:21 27.10.2020
6242 Clear 2 996 80 10000 4.6 220 09:38 27.10.2020
6243 Clear 0 995 83 10000 4.6 240 09:20 27.10.2020
6244 Clear 2 996 80 10000 5.7 220 08:33 27.10.2020
6245 Clear 2 995 80 10000 5.7 230 07:57 27.10.2020
6246 Clear 2 995 80 10000 5.7 220 07:38 27.10.2020
6247 Clear 2 995 80 10000 6.2 230 07:20 27.10.2020
6248 Clear 2 995 74 10000 5.1 230 06:21 27.10.2020
6249 Clear 2 995 74 10000 7.2 220 05:47 27.10.2020
6250 Clear 2 995 74 10000 7.2 220 05:28 27.10.2020
6251 Clear 2 995 74 10000 3.1 200 03:38 27.10.2020
6252 Clear 1 995 80 10000 3.6 190 01:24 27.10.2020
6253 Clear 2 995 74 10000 2.6 190 00:48 27.10.2020
6254 Clear 3 995 74 10000 4.1 190 23:40 26.10.2020
6255 Clear 4 995 64 10000 7.7 210 23:19 26.10.2020
6256 Clear 3 995 74 10000 7.2 210 22:46 26.10.2020
6257 Clear 3 995 74 10000 7.2 210 22:21 26.10.2020
6258 Clear 3 994 74 10000 4.6 200 21:42 26.10.2020
6259 Clear 3 994 74 10000 4.6 200 21:19 26.10.2020
6260 Clear 3 994 74 10000 7.2 210 20:55 26.10.2020
6261 Clear 3 994 74 10000 6.2 210 20:37 26.10.2020
6262 Clear 3 994 74 10000 7.7 210 20:18 26.10.2020
6263 Clear 1 994 74 10000 6.2 200 19:44 26.10.2020
6264 Clear 1 994 74 10000 6.2 200 19:22 26.10.2020
6265 Clear 2 994 74 10000 3.6 180 18:42 26.10.2020
6266 Clear 2 994 74 10000 3.6 180 18:22 26.10.2020
6267 Clear 3 994 74 10000 7.7 210 17:45 26.10.2020
6268 Clear 3 994 74 10000 7.7 210 17:24 26.10.2020
6269 Clouds 3 994 74 10000 8.7 210 16:59 26.10.2020
6270 Clear 4 993 69 10000 6.7 200 16:39 26.10.2020
6271 Clear 4 993 69 10000 8.2 210 16:19 26.10.2020
6272 Clouds 4 993 69 10000 9.3 210 15:41 26.10.2020
6273 Clouds 4 993 69 10000 9.3 210 15:20 26.10.2020
6274 Clouds 4 993 69 10000 10.8 200 14:46 26.10.2020
6275 Clouds 4 993 69 10000 10.8 200 14:26 26.10.2020
6276 Clouds 5 993 65 10000 8.7 190 13:43 26.10.2020
6277 Clouds 5 993 65 10000 8.7 190 13:23 26.10.2020
6278 Clouds 4 993 69 10000 11.3 190 12:48 26.10.2020
6279 Clouds 3 993 74 10000 12.9 190 12:27 26.10.2020
6280 Clouds 3 993 74 10000 12.9 190 11:56 26.10.2020
6281 Clouds 3 993 74 10000 11.3 190 11:37 26.10.2020
6282 Clouds 3 993 69 10000 10.3 180 11:19 26.10.2020
6283 Clouds 2 993 74 10000 10.8 180 10:43 26.10.2020
6284 Clouds 2 993 74 10000 10.8 180 10:25 26.10.2020
6285 Clouds 2 993 74 10000 11.8 180 09:48 26.10.2020
6286 Rain 2 993 74 10000 15.4 190 09:26 26.10.2020
6287 Clouds 2 993 74 10000 17.5 170 08:46 26.10.2020
6288 Clouds 2 994 74 10000 19 150 07:58 26.10.2020
6289 Clouds 1 994 80 10000 20.1 150 07:38 26.10.2020
6290 Clouds 0 995 90 5000 23.1 150 06:58 26.10.2020
6291 Snow 0 998 94 6000 27.3 140 04:48 26.10.2020
6292 Snow 1 998 80 6000 25.7 150 04:18 26.10.2020
6293 Clouds 0 999 90 7000 18 140 03:20 26.10.2020
6294 Rain 1 1001 80 10000 20.1 150 01:34 26.10.2020
6295 Snow 1 1002 74 10000 19.5 150 00:33 26.10.2020
6296 Clouds 1 1003 80 10000 20.6 140 23:45 25.10.2020
6297 Clouds 1 1003 80 10000 20.6 140 23:22 25.10.2020
6298 Clouds 2 1004 74 10000 16.5 140 22:44 25.10.2020
6299 Clouds 2 1004 74 10000 16.5 140 22:25 25.10.2020
6300 Clouds 1 1004 80 10000 19.5 140 21:49 25.10.2020
6301 Clouds 1 1005 80 10000 17 140 21:29 25.10.2020
6302 Clouds 1 1005 80 10000 17.5 140 20:58 25.10.2020
6303 Clouds 1 1005 74 10000 17.5 140 20:39 25.10.2020
6304 Clouds 1 1005 74 10000 18 140 20:19 25.10.2020
6305 Clouds 1 1005 74 10000 18 140 19:49 25.10.2020
6306 Clouds 1 1006 80 10000 15.4 140 19:25 25.10.2020
6307 Clouds 2 1006 74 10000 15.9 140 18:57 25.10.2020
6308 Clouds 2 1006 74 10000 16.5 150 18:39 25.10.2020
6309 Clouds 3 1006 74 10000 16.5 140 18:20 25.10.2020
6310 Clouds 3 1006 74 10000 7.7 120 17:40 25.10.2020
6311 Clouds 3 1006 74 10000 7.7 120 17:22 25.10.2020
6312 Clouds 2 1007 74 10000 8.2 120 16:59 25.10.2020
6313 Clear 2 1007 80 10000 8.2 120 16:39 25.10.2020
6314 Clear 2 1007 80 10000 8.2 120 16:20 25.10.2020
6315 Clear 2 1007 80 10000 8.7 120 15:47 25.10.2020
6316 Clear 2 1007 80 10000 7.7 110 15:26 25.10.2020
6317 Clear 2 1007 80 10000 7.7 110 15:26 25.10.2020
6318 Clear 2 1007 80 10000 6.2 110 14:49 25.10.2020
6319 Clear 2 1007 80 10000 6.2 110 14:28 25.10.2020
6320 Clear 2 1008 80 10000 7.2 130 13:44 25.10.2020
6321 Clear 2 1008 80 10000 7.2 130 13:22 25.10.2020
6322 Clear 3 1007 88 10000 5.7 120 12:49 25.10.2020
6323 Clear 3 1007 87 10000 5.7 120 12:27 25.10.2020
6324 Clear 3 1007 87 10000 5.1 120 11:58 25.10.2020
6325 Clear 3 1007 87 10000 4.6 120 11:39 25.10.2020
6326 Clear 2 1007 86 10000 4.6 130 11:19 25.10.2020
6327 Clear 2 1007 86 10000 4.6 120 10:44 25.10.2020
6328 Clear 2 1007 86 10000 4.6 120 10:25 25.10.2020
6329 Clouds 2 1007 86 10000 4.6 120 09:48 25.10.2020
6330 Clouds 1 1007 86 10000 5.1 120 09:20 25.10.2020
6331 Clouds 2 1007 87 10000 5.1 120 08:55 25.10.2020
6332 Clouds 2 1007 87 10000 4.6 120 08:36 25.10.2020
6333 Clouds 1 1007 88 10000 5.7 130 08:18 25.10.2020
6334 Clouds 2 1007 80 10000 4.6 120 07:41 25.10.2020
6335 Clouds 2 1006 80 10000 5.7 120 06:52 25.10.2020
6336 Clouds 2 1006 88 10000 6.7 120 06:19 25.10.2020
6337 Clouds 2 1005 93 10000 8.2 100 04:53 25.10.2020
6338 Clouds 3 1005 86 10000 7.7 100 04:20 25.10.2020
6339 Drizzle 3 1004 93 10000 7.7 90 02:19 25.10.2020
6340 Rain 3 1003 93 10000 8.2 80 00:49 25.10.2020
6341 Rain 3 1003 93 10000 8.2 80 00:26 25.10.2020
6342 Rain 3 1003 93 10000 7.7 80 23:54 24.10.2020
6343 Rain 3 1003 93 10000 8.2 80 23:29 24.10.2020
6344 Rain 3 1002 93 10000 7.7 80 22:58 24.10.2020
6345 Rain 3 1002 93 9000 8.2 80 22:39 24.10.2020
6346 Drizzle 3 1002 93 9000 8.2 80 22:21 24.10.2020
6347 Rain 3 1002 93 10000 7.7 60 21:43 24.10.2020
6348 Rain 3 1002 93 10000 7.7 60 21:21 24.10.2020
6349 Rain 3 1001 93 10000 8.7 70 20:50 24.10.2020
6350 Drizzle 3 1001 93 10000 8.7 60 20:27 24.10.2020
6351 Drizzle 3 1001 93 10000 9.8 60 19:58 24.10.2020
6352 Rain 3 1001 93 10000 9.3 60 19:40 24.10.2020
6353 Rain 3 1001 93 10000 9.3 60 19:22 24.10.2020
6354 Clouds 3 1000 93 10000 9.3 50 18:47 24.10.2020
6355 Rain 3 1000 93 10000 9.3 50 18:27 24.10.2020
6356 Rain 3 1000 93 10000 10.3 50 17:42 24.10.2020
6357 Clouds 3 1000 93 10000 10.3 50 17:22 24.10.2020
6358 Clouds 3 999 93 10000 9.3 40 16:48 24.10.2020
6359 Clouds 3 999 93 10000 9.3 40 16:30 24.10.2020
6360 Rain 3 999 93 10000 9.3 50 15:42 24.10.2020
6361 Clouds 3 999 93 10000 9.3 50 15:20 24.10.2020
6362 Rain 3 999 93 10000 10.3 50 14:57 24.10.2020
6363 Clouds 3 999 93 10000 10.8 40 14:29 24.10.2020
6364 Rain 3 998 93 10000 11.8 50 13:50 24.10.2020
6365 Clouds 3 998 86 10000 12.9 60 13:31 24.10.2020
6366 Clouds 3 997 86 10000 11.3 50 12:59 24.10.2020
6367 Clouds 3 997 86 10000 11.8 70 12:37 24.10.2020
6368 Clouds 3 997 86 10000 11.8 70 12:19 24.10.2020
6369 Rain 3 997 93 10000 9.8 60 11:45 24.10.2020
6370 Rain 3 997 93 10000 9.8 60 11:19 24.10.2020
6371 Clouds 3 996 86 10000 11.3 60 10:42 24.10.2020
6372 Rain 3 996 86 10000 11.3 60 10:24 24.10.2020
6373 Rain 3 995 93 10000 11.8 50 09:45 24.10.2020
6374 Rain 3 995 93 10000 11.8 50 09:26 24.10.2020
6375 Rain 3 995 86 10000 12.3 50 08:54 24.10.2020
6376 Rain 3 995 93 10000 12.9 50 08:19 24.10.2020
6377 Rain 3 995 93 6000 13.9 30 07:50 24.10.2020
6378 Clouds 3 995 93 10000 15.4 20 07:20 24.10.2020
6379 Rain 3 995 93 10000 15.4 20 06:49 24.10.2020
6380 Rain 2 995 93 10000 8.2 30 05:43 24.10.2020
6381 Rain 3 994 96 10000 17 40 02:20 24.10.2020
6382 Clouds 3 995 86 10000 14.9 40 00:55 24.10.2020
6383 Rain 2 995 93 10000 14.9 50 00:37 24.10.2020
6384 Rain 2 995 93 10000 14.9 50 00:19 24.10.2020
6385 Rain 2 994 96 10000 14.9 40 23:40 23.10.2020
6386 Rain 2 994 97 10000 14.9 40 23:22 23.10.2020
6387 Rain 2 994 97 10000 17 50 22:42 23.10.2020
6388 Rain 2 994 93 10000 17 50 22:22 23.10.2020
6389 Clouds 2 994 93 10000 16.5 50 21:56 23.10.2020
6390 Clouds 2 994 93 10000 15.9 60 21:38 23.10.2020
6391 Clouds 2 994 93 10000 15.9 70 21:20 23.10.2020
6392 Clouds 2 994 93 10000 10.3 60 20:39 23.10.2020
6393 Clouds 2 994 93 10000 10.3 60 20:19 23.10.2020
6394 Clouds 2 994 93 9000 12.9 60 19:45 23.10.2020
6395 Rain 2 994 93 9000 12.9 60 19:26 23.10.2020
6396 Rain 3 993 86 10000 15.4 80 18:47 23.10.2020
6397 Rain 3 993 86 10000 15.4 80 18:29 23.10.2020
6398 Rain 3 993 86 10000 17.5 80 17:47 23.10.2020
6399 Rain 3 993 86 10000 17.5 80 17:22 23.10.2020
6400 Rain 2 992 93 10000 13.9 80 16:51 23.10.2020
6401 Rain 2 992 93 10000 13.9 70 16:33 23.10.2020
6402 Rain 2 992 93 10000 12.9 80 15:58 23.10.2020
6403 Rain 2 993 93 9000 13.9 60 15:39 23.10.2020
6404 Rain 2 993 93 9000 13.9 60 15:19 23.10.2020
6405 Rain 2 993 93 10000 13.9 80 14:47 23.10.2020
6406 Rain 2 993 93 10000 13.9 80 14:29 23.10.2020
6407 Rain 2 993 93 10000 11.8 80 13:42 23.10.2020
6408 Rain 2 993 93 10000 11.8 80 13:23 23.10.2020
6409 Rain 2 993 95 10000 12.9 90 12:50 23.10.2020
6410 Clouds 2 993 95 10000 13.4 90 12:30 23.10.2020
6411 Rain 2 993 89 10000 12.3 90 11:50 23.10.2020
6412 Rain 1 994 100 10000 12.3 90 11:27 23.10.2020
6413 Rain 1 994 93 10000 12.9 90 10:54 23.10.2020
6414 Rain 1 994 89 10000 15.4 90 10:26 23.10.2020
6415 Rain 1 994 89 10000 14.4 90 09:57 23.10.2020
6416 Rain 1 994 89 10000 13.4 90 09:39 23.10.2020
6417 Rain 1 994 90 10000 13.4 90 09:20 23.10.2020
6418 Rain 1 994 90 10000 14.4 90 08:50 23.10.2020
6419 Rain 1 994 91 10000 11.8 90 08:24 23.10.2020
6420 Snow 1 995 92 7000 12.3 90 07:26 23.10.2020
6421 Rain 1 995 86 8000 11.3 100 06:49 23.10.2020
6422 Snow 1 996 86 10000 12.9 100 06:20 23.10.2020
6423 Clouds 1 997 86 10000 13.9 110 03:38 23.10.2020
6424 Clouds 0 999 97 10000 9.3 110 02:26 23.10.2020
6425 Clouds 0 999 97 10000 12.3 120 00:49 23.10.2020
6426 Clouds 0 999 96 10000 9.8 120 00:29 23.10.2020
6427 Rain 0 1000 96 10000 9.8 110 23:37 22.10.2020
6428 Clouds 0 1000 95 10000 8.2 110 23:19 22.10.2020
6429 Clouds 0 1000 95 10000 13.9 120 22:45 22.10.2020
6430 Clouds 0 1000 95 10000 13.9 120 22:23 22.10.2020
6431 Clouds 0 1001 95 10000 10.8 120 21:54 22.10.2020
6432 Clouds -1 1001 86 10000 13.4 110 21:32 22.10.2020
6433 Clouds -1 1001 86 10000 12.3 120 20:59 22.10.2020
6434 Clouds -1 1002 86 10000 11.3 120 20:41 22.10.2020
6435 Clouds -1 1002 86 10000 11.3 120 20:23 22.10.2020
6436 Clouds -2 1002 86 10000 10.3 110 19:43 22.10.2020
6437 Clouds -2 1002 86 10000 10.8 120 19:20 22.10.2020
6438 Clouds -2 1002 86 10000 12.3 110 18:44 22.10.2020
6439 Rain -2 1002 79 10000 11.8 110 18:22 22.10.2020
6440 Clouds -2 1003 79 10000 10.8 110 17:48 22.10.2020
6441 Clouds -2 1003 79 10000 10.8 110 17:26 22.10.2020
6442 Rain -2 1003 74 10000 9.8 110 16:59 22.10.2020
6443 Rain -2 1003 74 10000 10.8 110 16:41 22.10.2020
6444 Rain -2 1003 74 10000 10.8 110 16:23 22.10.2020
6445 Rain -2 1003 74 10000 10.3 120 15:48 22.10.2020
6446 Rain -2 1004 74 10000 11.8 130 15:26 22.10.2020
6447 Clouds -2 1004 74 10000 9.8 130 14:50 22.10.2020
6448 Clouds -2 1004 74 10000 9.8 130 14:27 22.10.2020
6449 Rain -2 1005 74 10000 5.7 110 13:50 22.10.2020
6450 Clouds -3 1005 79 10000 4.1 180 13:24 22.10.2020
6451 Clouds -3 1005 79 10000 3.1 170 12:57 22.10.2020
6452 Clouds -3 1006 79 10000 4.1 130 12:27 22.10.2020
6453 Clouds -3 1006 79 10000 6.7 140 11:50 22.10.2020
6454 Clouds -4 1006 85 10000 6.2 140 11:21 22.10.2020
6455 Clouds -3 1006 79 10000 8.2 150 10:52 22.10.2020
6456 Clouds -4 1006 85 10000 6.7 190 10:30 22.10.2020
6457 Clouds -4 1006 85 10000 6.2 170 09:59 22.10.2020
6458 Clouds -4 1006 85 10000 4.6 150 09:41 22.10.2020
6459 Clouds -3 1006 79 10000 6.7 100 08:57 22.10.2020
6460 Clouds -3 1007 79 10000 6.2 120 08:38 22.10.2020
6461 Clouds -3 1007 79 10000 4.6 120 08:18 22.10.2020
6462 Clear -3 1007 79 10000 6.2 170 07:43 22.10.2020
6463 Clear -3 1007 79 10000 5.1 140 06:59 22.10.2020
6464 Clear -3 1007 79 10000 5.1 120 06:37 22.10.2020
6465 Clear -4 1008 79 10000 4.1 150 05:42 22.10.2020
6466 Clear -4 1008 79 10000 4.1 150 05:22 22.10.2020
6467 Clear -3 1009 79 10000 5.1 140 02:25 22.10.2020
6468 Clear -3 1010 79 10000 6.2 150 00:27 22.10.2020
6469 Clear -2 1010 79 10000 6.2 130 23:58 21.10.2020
6470 Clear -2 1010 94 10000 5.52 145 23:37 21.10.2020
6471 Clear -2 1010 94 10000 5.56 146 22:58 21.10.2020
6472 Clouds 1 1010 69 10000 7.2 140 22:36 21.10.2020
6473 Clouds 1 1010 69 10000 7.2 140 22:18 21.10.2020
6474 Clouds 1 1010 69 10000 7.2 140 21:42 21.10.2020
6475 Clear -2 1011 74 10000 5.7 150 21:19 21.10.2020
6476 Clear -2 1011 74 10000 5.7 150 20:48 21.10.2020
6477 Clear -2 1011 74 10000 4.6 140 20:19 21.10.2020
6478 Clear -2 1011 74 10000 4.6 140 19:59 21.10.2020
6479 Clear -2 1011 74 10000 5.1 130 19:38 21.10.2020
6480 Clear -1 1012 68 10000 4.6 130 19:18 21.10.2020
6481 Clear -2 1012 68 10000 4.6 170 18:46 21.10.2020
6482 Clear -2 1012 68 10000 4.6 170 18:25 21.10.2020
6483 Clouds -1 1012 68 10000 3.1 140 17:45 21.10.2020
6484 Clouds -1 1012 74 10000 3.1 170 17:20 21.10.2020
6485 Clouds -1 1012 74 10000 3.1 170 16:56 21.10.2020
6486 Clouds -1 1012 74 10000 3.1 170 16:36 21.10.2020
6487 Clear -1 1013 74 10000 3.1 140 16:18 21.10.2020
6488 Clear -1 1013 74 10000 3.1 140 15:42 21.10.2020
6489 Clear -1 1013 74 10000 3.1 140 15:20 21.10.2020
6490 Clear 0 1013 93 10000 3.6 180 14:46 21.10.2020
6491 Clear 0 1013 92 10000 4.1 160 14:28 21.10.2020
6492 Clear -1 1013 80 10000 3.1 180 13:46 21.10.2020
6493 Clear 0 1013 91 10000 4.6 190 13:27 21.10.2020
6494 Clear 0 1013 91 10000 4.6 190 12:55 21.10.2020
6495 Clear -1 1014 80 10000 3.1 170 12:37 21.10.2020
6496 Clear -1 1014 80 10000 3.1 170 12:18 21.10.2020
6497 Clear -1 1014 80 10000 3.6 170 11:40 21.10.2020
6498 Clear -1 1014 86 10000 4.6 160 11:20 21.10.2020
6499 Clear -2 1014 79 10000 4.1 150 10:46 21.10.2020
6500 Clear -2 1014 79 10000 3.6 120 10:25 21.10.2020
6501 Clear -3 1014 92 10000 3.6 140 09:54 21.10.2020
6502 Clear -2 1014 79 10000 3.1 150 09:33 21.10.2020
6503 Clouds -3 1014 86 10000 4.1 150 08:56 21.10.2020
6504 Clear -3 1014 92 10000 3.6 170 08:38 21.10.2020
6505 Clear -3 1014 92 10000 3.6 170 08:19 21.10.2020
6506 Clear -1 1014 80 10000 2.1 130 07:37 21.10.2020
6507 Clouds -2 1014 86 10000 3.1 120 06:55 21.10.2020
6508 Clouds -3 1014 92 10000 3.1 130 06:29 21.10.2020
6509 Clear -4 1015 92 10000 3.1 120 04:47 21.10.2020
6510 Clouds -2 1016 86 10000 3.6 100 00:52 21.10.2020
6511 Clouds -2 1016 92 10000 3.6 120 23:50 20.10.2020
6512 Clouds -3 1016 92 10000 4.6 110 23:19 20.10.2020
6513 Clouds -1 1016 92 10000 4.6 110 22:29 20.10.2020
6514 Clouds 0 1016 90 10000 3.6 110 21:50 20.10.2020
6515 Clouds -1 1017 86 10000 2.6 120 21:21 20.10.2020
6516 Clouds -1 1017 86 10000 2.6 120 21:21 20.10.2020
6517 Clouds -1 1017 92 10000 2.6 110 20:57 20.10.2020
6518 Clouds -1 1017 86 10000 1.5 120 20:38 20.10.2020
6519 Clouds -1 1017 86 10000 1.5 120 20:20 20.10.2020
6520 Clouds 0 1017 88 10000 2.1 100 19:44 20.10.2020
6521 Clouds -1 1017 92 10000 1.5 70 19:22 20.10.2020
6522 Clouds 0 1017 87 10000 2.1 100 18:54 20.10.2020
6523 Clouds -1 1017 92 10000 2.6 90 18:36 20.10.2020
6524 Clouds 0 1017 87 10000 2.1 100 17:50 20.10.2020
6525 Clouds 0 1017 87 10000 2.6 90 17:31 20.10.2020
6526 Clouds 0 1017 87 10000 2.6 80 16:48 20.10.2020
6527 Clouds 0 1017 86 10000 3.1 100 16:28 20.10.2020
6528 Clouds 0 1017 86 10000 3.1 80 15:57 20.10.2020
6529 Clouds 1 1017 86 10000 2.6 110 15:39 20.10.2020
6530 Clouds 1 1017 84 10000 2.6 110 15:20 20.10.2020
6531 Rain 1 1017 84 10000 3.6 100 14:42 20.10.2020
6532 Rain 1 1018 83 10000 1.5 0 14:24 20.10.2020
6533 Clouds 1 1018 84 10000 1.5 120 13:44 20.10.2020
6534 Clouds 1 1017 100 10000 1.5 0 13:25 20.10.2020
6535 Clouds 1 1017 83 10000 1.5 110 12:59 20.10.2020
6536 Clouds 1 1017 83 10000 1.5 110 12:40 20.10.2020
6537 Rain 1 1017 84 10000 1.5 70 12:22 20.10.2020
6538 Rain 1 1017 84 10000 3.1 130 11:45 20.10.2020
6539 Clouds 1 1017 86 10000 2.6 130 11:27 20.10.2020
6540 Clouds 1 1017 86 10000 2.1 70 10:40 20.10.2020
6541 Clouds 2 1017 89 10000 3.1 90 10:21 20.10.2020
6542 Clouds 2 1017 89 10000 3.6 90 09:43 20.10.2020
6543 Clouds 1 1017 91 10000 5.1 100 09:19 20.10.2020
6544 Clouds 1 1017 91 10000 6.7 90 08:39 20.10.2020
6545 Clouds 1 1017 100 10000 6.2 100 07:54 20.10.2020
6546 Clouds 1 1017 92 10000 5.1 100 07:26 20.10.2020
6547 Clouds 1 1017 92 10000 4.6 110 06:55 20.10.2020
6548 Clouds 0 1017 92 10000 4.6 110 06:18 20.10.2020
6549 Clouds 1 1017 100 10000 5.1 100 03:59 20.10.2020
6550 Clouds 1 1016 100 10000 3.6 70 02:30 20.10.2020
6551 Clouds 1 1016 100 7000 3.6 40 01:20 20.10.2020
6552 Clouds 2 1016 93 10000 3.6 50 00:50 20.10.2020
6553 Clouds 1 1016 100 10000 3.1 30 00:23 20.10.2020
6554 Rain 1 1016 100 10000 3.1 20 23:49 19.10.2020
6555 Clouds 1 1016 100 10000 4.1 10 23:24 19.10.2020
6556 Clouds 1 1017 100 10000 3.1 20 22:51 19.10.2020
6557 Clouds 1 1016 100 10000 4.1 20 22:25 19.10.2020
6558 Rain 1 1016 100 10000 4.1 20 21:50 19.10.2020
6559 Clouds 1 1016 100 10000 3.1 350 21:23 19.10.2020
6560 Drizzle 1 1016 100 10000 3.6 360 20:59 19.10.2020
6561 Drizzle 1 1016 100 10000 3.6 360 20:39 19.10.2020
6562 Clouds 1 1016 87 10000 4.1 360 20:18 19.10.2020
6563 Clouds 1 1016 100 10000 3.1 10 19:42 19.10.2020
6564 Clouds 1 1016 88 10000 2.6 360 19:19 19.10.2020
6565 Clouds 1 1017 88 10000 3.6 350 18:49 19.10.2020
6566 Clouds 1 1017 86 10000 1.5 310 18:19 19.10.2020
6567 Clouds 1 1017 86 10000 2.6 290 17:47 19.10.2020
6568 Rain 0 1017 85 10000 2.1 310 17:26 19.10.2020
6569 Rain 0 1017 85 10000 2.1 330 16:53 19.10.2020
6570 Clouds 0 1017 84 10000 2.1 330 16:29 19.10.2020
6571 Clouds 2 1017 84 10000 0.98 55 15:47 19.10.2020
6572 Clouds 2 1016 83 10000 0.57 83 15:26 19.10.2020
6573 Clouds 2 1016 83 10000 0.57 83 14:57 19.10.2020
6574 Clouds 2 1016 83 10000 0.57 83 14:36 19.10.2020
6575 Clouds 2 1017 81 10000 0.49 138 14:18 19.10.2020
6576 Clouds 2 1017 81 10000 0.49 138 13:42 19.10.2020
6577 Clouds 2 1017 81 10000 0.4 210 13:22 19.10.2020
6578 Clouds 2 1017 81 10000 0.4 210 12:43 19.10.2020
6579 Clear 2 1017 81 10000 0.24 229 12:25 19.10.2020
6580 Clear -1 1016 86 10000 2.1 360 11:48 19.10.2020
6581 Clear -1 1016 86 10000 2.1 360 11:22 19.10.2020
6582 Clear -3 1016 92 10000 1 330 10:44 19.10.2020
6583 Clear -3 1016 92 10000 1 330 10:23 19.10.2020
6584 Clear -3 1016 86 10000 0.5 0 09:56 19.10.2020
6585 Clear -3 1016 92 10000 1 350 09:36 19.10.2020
6586 Clear -3 1016 79 10000 0.98 136 09:18 19.10.2020
6587 Clear -3 1015 86 10000 1.5 110 08:41 19.10.2020
6588 Clear -3 1015 86 10000 1.5 110 08:20 19.10.2020
6589 Clear -2 1015 92 10000 2.1 110 07:21 19.10.2020
6590 Clear -3 1015 92 10000 3.6 120 06:40 19.10.2020
6591 Clear -2 1014 92 10000 2.6 110 05:20 19.10.2020
6592 Clouds -2 1014 92 10000 3.1 110 03:45 19.10.2020
6593 Clouds -1 1013 92 10000 4.6 100 01:42 19.10.2020
6594 Clouds 0 1012 87 10000 2.6 120 00:38 19.10.2020
6595 Clouds 0 1012 86 10000 2.6 110 23:56 18.10.2020
6596 Clouds 0 1012 86 10000 4.1 110 23:38 18.10.2020
6597 Clouds -1 1012 92 10000 3.6 120 23:19 18.10.2020
6598 Clouds -1 1012 92 10000 4.6 100 22:44 18.10.2020
6599 Clouds -1 1012 100 10000 4.6 100 22:19 18.10.2020
6600 Clouds -1 1012 100 10000 4.1 80 21:42 18.10.2020
6601 Clouds -1 1012 100 10000 4.1 80 21:21 18.10.2020
6602 Clouds -1 1011 100 10000 2.1 100 20:45 18.10.2020
6603 Clouds -1 1011 100 10000 2.1 100 20:24 18.10.2020
6604 Clouds -1 1011 92 10000 2.6 90 19:50 18.10.2020
6605 Clouds -1 1011 100 10000 4.6 90 19:27 18.10.2020
6606 Clouds 0 1011 84 10000 2.6 80 18:51 18.10.2020
6607 Clouds 0 1011 84 10000 2.6 80 18:31 18.10.2020
6608 Clouds 0 1011 86 10000 3.6 60 17:59 18.10.2020
6609 Clouds 0 1011 86 10000 2.1 100 17:41 18.10.2020
6610 Clouds 0 1011 87 10000 2.1 100 17:21 18.10.2020
6611 Clouds 1 1011 87 10000 1.5 0 16:43 18.10.2020
6612 Clouds 1 1011 88 10000 1.5 0 16:24 18.10.2020
6613 Clouds 2 1010 80 10000 2.6 100 15:43 18.10.2020
6614 Clouds 2 1010 80 10000 2.6 100 15:21 18.10.2020
6615 Clouds 2 1010 80 10000 2.1 50 14:58 18.10.2020
6616 Rain 1 1010 87 10000 2.6 70 14:31 18.10.2020
6617 Clouds 1 1010 87 10000 2.1 80 13:59 18.10.2020
6618 Clouds 0 1010 87 10000 1.5 90 13:40 18.10.2020
6619 Clouds 0 1010 88 10000 1.5 90 13:22 18.10.2020
6620 Clouds 0 1010 88 10000 2.1 100 12:43 18.10.2020
6621 Clouds 0 1010 89 10000 2.1 100 12:23 18.10.2020
6622 Rain 1 1010 89 10000 3.1 70 11:46 18.10.2020
6623 Rain 1 1010 90 10000 3.1 70 11:28 18.10.2020
6624 Rain 0 1010 90 10000 3.1 70 10:59 18.10.2020
6625 Clouds 0 1010 90 10000 4.1 60 10:39 18.10.2020
6626 Rain -1 1010 100 10000 4.1 50 10:18 18.10.2020
6627 Clouds -1 1010 100 10000 5.1 60 09:44 18.10.2020
6628 Clouds 0 1010 88 10000 5.1 50 09:20 18.10.2020
6629 Rain 0 1010 88 10000 5.1 50 08:52 18.10.2020
6630 Clouds 0 1010 89 10000 4.6 20 08:26 18.10.2020
6631 Clouds 0 1009 89 10000 2.6 70 07:51 18.10.2020
6632 Rain 0 1009 87 10000 2.6 10 05:57 18.10.2020
6633 Clouds -3 1009 92 10000 2.1 50 03:55 18.10.2020
6634 Clouds -3 1010 100 10000 2.6 70 02:54 18.10.2020
6635 Clouds -1 1009 100 10000 2.1 100 01:33 18.10.2020
6636 Rain -3 1009 100 10000 3.6 80 00:46 18.10.2020
6637 Clouds -3 1009 100 10000 3.6 80 00:22 18.10.2020
6638 Snow 0 1009 80 2200 2.6 60 23:41 17.10.2020
6639 Snow 0 1009 79 2200 2.6 60 23:21 17.10.2020
6640 Snow 0 1009 79 3900 3.1 70 22:57 17.10.2020
6641 Snow 0 1009 79 2000 2.1 70 22:39 17.10.2020
6642 Rain -1 1009 92 10000 4.6 40 22:18 17.10.2020
6643 Rain -1 1009 86 10000 5.1 30 21:43 17.10.2020
6644 Rain -1 1009 86 10000 5.1 30 21:21 17.10.2020
6645 Snow 0 1008 79 10000 5.1 70 20:46 17.10.2020
6646 Clouds 0 1008 80 10000 5.1 70 20:21 17.10.2020
6647 Clouds 0 1008 80 2700 5.1 80 19:46 17.10.2020
6648 Clouds 0 1008 79 2700 5.1 80 19:24 17.10.2020
6649 Clouds -1 1008 100 10000 5.1 70 18:47 17.10.2020
6650 Clouds -1 1008 100 10000 5.1 70 18:29 17.10.2020
6651 Clouds 0 1008 80 10000 4.6 80 17:59 17.10.2020
6652 Clouds 1 1008 86 10000 4.6 80 17:40 17.10.2020
6653 Clouds 0 1008 79 2900 5.7 80 17:20 17.10.2020
6654 Rain 2 1008 80 10000 5.1 50 16:48 17.10.2020
6655 Clouds 2 1008 80 10000 4.6 50 16:22 17.10.2020
6656 Clouds 2 1008 80 10000 4.6 80 15:43 17.10.2020
6657 Rain 2 1008 80 10000 4.6 80 15:23 17.10.2020
6658 Clouds 2 1008 80 10000 5.1 100 14:59 17.10.2020
6659 Clouds 2 1008 80 10000 5.1 100 14:39 17.10.2020
6660 Clouds 2 1008 80 10000 5.1 100 14:20 17.10.2020
6661 Clouds 2 1008 80 10000 5.1 100 13:47 17.10.2020
6662 Clouds 1 1008 86 10000 4.1 100 13:29 17.10.2020
6663 Clouds 1 1008 86 10000 7.2 110 12:59 17.10.2020
6664 Clouds 1 1007 86 10000 7.2 100 12:38 17.10.2020
6665 Clouds 1 1007 86 10000 6.2 100 12:19 17.10.2020
6666 Clouds 1 1007 86 10000 6.2 100 11:48 17.10.2020
6667 Clouds 1 1007 86 10000 6.2 100 11:26 17.10.2020
6668 Clouds 0 1007 79 10000 8.2 100 10:33 17.10.2020
6669 Clouds 0 1007 81 10000 7.2 100 09:53 17.10.2020
6670 Clouds -1 1007 92 10000 7.2 100 09:34 17.10.2020
6671 Clouds 0 1007 83 10000 7.2 100 08:59 17.10.2020
6672 Clouds 0 1007 83 10000 8.2 110 08:28 17.10.2020
6673 Clouds 0 1006 88 10000 8.7 110 07:47 17.10.2020
6674 Clouds 0 1006 88 10000 8.7 110 07:27 17.10.2020
6675 Clouds 1 1006 74 10000 10.3 100 06:18 17.10.2020
6676 Clouds 1 1006 74 10000 10.8 100 03:47 17.10.2020
6677 Clouds 1 1007 80 10000 8.7 110 02:28 17.10.2020
6678 Clouds 0 1007 90 10000 7.2 110 00:53 17.10.2020
6679 Clouds 0 1008 91 10000 6.2 110 00:18 17.10.2020
6680 Clouds 1 1008 86 10000 6.7 120 23:24 16.10.2020
6681 Clouds 1 1009 80 10000 5.1 120 22:47 16.10.2020
6682 Clouds 1 1009 80 10000 5.1 120 22:25 16.10.2020
6683 Clouds 1 1009 86 10000 5.1 120 21:58 16.10.2020
6684 Clouds 1 1009 86 10000 5.7 120 21:39 16.10.2020
6685 Rain 1 1009 86 10000 5.1 120 21:20 16.10.2020
6686 Clouds 1 1010 86 10000 5.1 120 20:44 16.10.2020
6687 Clouds 1 1010 86 10000 5.1 120 20:24 16.10.2020
6688 Clouds 1 1010 86 10000 5.1 120 19:45 16.10.2020
6689 Clouds 1 1010 86 10000 5.1 120 19:27 16.10.2020
6690 Snow 1 1011 94 10000 4.1 120 18:56 16.10.2020
6691 Clouds 1 1011 80 10000 3.6 130 18:34 16.10.2020
6692 Rain 1 1011 86 10000 3.1 130 17:49 16.10.2020
6693 Rain 1 1011 86 10000 3.1 130 17:29 16.10.2020
6694 Rain 1 1012 97 10000 1.5 0 16:57 16.10.2020
6695 Rain 1 1012 97 10000 1.5 0 16:38 16.10.2020
6696 Rain 1 1012 100 10000 2.6 90 16:19 16.10.2020
6697 Clouds 1 1013 97 7000 4.1 90 15:24 16.10.2020